Ticket #8110: Exp-120910-44,5km.gpx

File Exp-120910-44,5km.gpx, 486.5 KB (added by Cottaer, 14 years ago)

original track

Line 
1<?xml version="1.0" encoding="ISO-8859-1" ?>
2<gpx version="1.0"
3 creator="NoniGPSPlot - http://aeguerre.free.fr"
4 xmlns:xsi="http://www.w3.org/2001/XMLSchema-instance"
5 xmlns="http://www.topografix.com/GPX/1/0"
6 xsi:schemaLocation="http://www.topografix.com/GPX/1/0 http://www.topografix.com/GPX/1/0/gpx.xsd">
7 <trk>
8 <trkseg>
9 <trkpt lat="50.8917694500" lon="13.9924578833">
10 <ele>262.7</ele>
11 <time>2012-09-10T11:53:31Z</time>
12 <course>178.0</course>
13 <speed>0.00</speed>
14 </trkpt>
15 <trkpt lat="50.8917522500" lon="13.9923956333">
16 <ele>261.6</ele>
17 <time>2012-09-10T11:53:32Z</time>
18 <course>234.0</course>
19 <speed>0.00</speed>
20 </trkpt>
21 <trkpt lat="50.8917755667" lon="13.9924433292">
22 <ele>261.4</ele>
23 <time>2012-09-10T11:53:33Z</time>
24 <course>234.0</course>
25 <speed>0.00</speed>
26 </trkpt>
27 <trkpt lat="50.8917755667" lon="13.9924433292">
28 <ele>261.4</ele>
29 <time>2012-09-10T11:53:37Z</time>
30 <course>234.0</course>
31 <speed>0.00</speed>
32 </trkpt>
33 <trkpt lat="50.8917719667" lon="13.9924270000">
34 <ele>261.6</ele>
35 <time>2012-09-10T11:53:39Z</time>
36 <course>234.0</course>
37 <speed>0.00</speed>
38 </trkpt>
39 <trkpt lat="50.8917719667" lon="13.9924270000">
40 <ele>261.6</ele>
41 <time>2012-09-10T11:53:39Z</time>
42 <course>234.0</course>
43 <speed>0.00</speed>
44 </trkpt>
45 <trkpt lat="50.8917639278" lon="13.9924193000">
46 <ele>262.3</ele>
47 <time>2012-09-10T11:53:40Z</time>
48 <course>234.0</course>
49 <speed>0.00</speed>
50 </trkpt>
51 <trkpt lat="50.8917639278" lon="13.9924193000">
52 <ele>262.3</ele>
53 <time>2012-09-10T11:53:42Z</time>
54 <course>234.0</course>
55 <speed>0.00</speed>
56 </trkpt>
57 <trkpt lat="50.8917461500" lon="13.9923887000">
58 <ele>264.8</ele>
59 <time>2012-09-10T11:53:44Z</time>
60 <course>234.0</course>
61 <speed>0.62</speed>
62 </trkpt>
63 <trkpt lat="50.8917243967" lon="13.9923473800">
64 <ele>270.4</ele>
65 <time>2012-09-10T11:53:46Z</time>
66 <course>53.0</course>
67 <speed>0.00</speed>
68 </trkpt>
69 <trkpt lat="50.8917243967" lon="13.9923473800">
70 <ele>270.4</ele>
71 <time>2012-09-10T11:53:50Z</time>
72 <course>53.0</course>
73 <speed>0.00</speed>
74 </trkpt>
75 <trkpt lat="50.8917214833" lon="13.9923368917">
76 <ele>271.1</ele>
77 <time>2012-09-10T11:53:52Z</time>
78 <course>53.0</course>
79 <speed>0.00</speed>
80 </trkpt>
81 <trkpt lat="50.8917214833" lon="13.9923368917">
82 <ele>271.1</ele>
83 <time>2012-09-10T11:53:53Z</time>
84 <course>53.0</course>
85 <speed>0.00</speed>
86 </trkpt>
87 <trkpt lat="50.8917195508" lon="13.9923223822">
88 <ele>271.4</ele>
89 <time>2012-09-10T11:53:54Z</time>
90 <course>53.0</course>
91 <speed>0.00</speed>
92 </trkpt>
93 <trkpt lat="50.8917195508" lon="13.9923223822">
94 <ele>271.4</ele>
95 <time>2012-09-10T11:58:59Z</time>
96 <course>53.0</course>
97 <speed>0.00</speed>
98 </trkpt>
99 <trkpt lat="50.8916890222" lon="13.9921852019">
100 <ele>271.5</ele>
101 <time>2012-09-10T11:59:22Z</time>
102 <course>53.0</course>
103 <speed>0.00</speed>
104 </trkpt>
105 <trkpt lat="50.8916890222" lon="13.9921852019">
106 <ele>271.5</ele>
107 <time>2012-09-10T11:59:32Z</time>
108 <course>53.0</course>
109 <speed>0.00</speed>
110 </trkpt>
111 <trkpt lat="50.8916992133" lon="13.9921879600">
112 <ele>271.5</ele>
113 <time>2012-09-10T11:59:35Z</time>
114 <course>53.0</course>
115 <speed>0.00</speed>
116 </trkpt>
117 <trkpt lat="50.8916992133" lon="13.9921879600">
118 <ele>271.5</ele>
119 <time>2012-09-10T11:59:49Z</time>
120 <course>53.0</course>
121 <speed>0.00</speed>
122 </trkpt>
123 <trkpt lat="50.8917085954" lon="13.9921886685">
124 <ele>271.5</ele>
125 <time>2012-09-10T11:59:50Z</time>
126 <course>53.0</course>
127 <speed>0.00</speed>
128 </trkpt>
129 <trkpt lat="50.8917085954" lon="13.9921886685">
130 <ele>271.5</ele>
131 <time>2012-09-10T12:00:09Z</time>
132 <course>53.0</course>
133 <speed>0.00</speed>
134 </trkpt>
135 <trkpt lat="50.8917044417" lon="13.9922128000">
136 <ele>271.5</ele>
137 <time>2012-09-10T12:00:12Z</time>
138 <course>53.0</course>
139 <speed>0.00</speed>
140 </trkpt>
141 <trkpt lat="50.8917044417" lon="13.9922128000">
142 <ele>271.5</ele>
143 <time>2012-09-10T12:00:15Z</time>
144 <course>53.0</course>
145 <speed>0.00</speed>
146 </trkpt>
147 <trkpt lat="50.8917026889" lon="13.9922177972">
148 <ele>271.5</ele>
149 <time>2012-09-10T12:00:16Z</time>
150 <course>53.0</course>
151 <speed>0.00</speed>
152 </trkpt>
153 <trkpt lat="50.8917026889" lon="13.9922177972">
154 <ele>271.5</ele>
155 <time>2012-09-10T12:00:28Z</time>
156 <course>53.0</course>
157 <speed>0.00</speed>
158 </trkpt>
159 <trkpt lat="50.8917103500" lon="13.9922114111">
160 <ele>271.5</ele>
161 <time>2012-09-10T12:00:31Z</time>
162 <course>53.0</course>
163 <speed>0.00</speed>
164 </trkpt>
165 <trkpt lat="50.8917103500" lon="13.9922114111">
166 <ele>271.5</ele>
167 <time>2012-09-10T12:00:33Z</time>
168 <course>53.0</course>
169 <speed>0.00</speed>
170 </trkpt>
171 <trkpt lat="50.8917154667" lon="13.9922245667">
172 <ele>271.5</ele>
173 <time>2012-09-10T12:00:34Z</time>
174 <course>53.0</course>
175 <speed>0.00</speed>
176 </trkpt>
177 <trkpt lat="50.8917305917" lon="13.9922252500">
178 <ele>271.5</ele>
179 <time>2012-09-10T12:00:35Z</time>
180 <course>53.0</course>
181 <speed>0.00</speed>
182 </trkpt>
183 <trkpt lat="50.8917305917" lon="13.9922252500">
184 <ele>271.5</ele>
185 <time>2012-09-10T12:00:36Z</time>
186 <course>53.0</course>
187 <speed>0.00</speed>
188 </trkpt>
189 <trkpt lat="50.8917334333" lon="13.9922275000">
190 <ele>271.5</ele>
191 <time>2012-09-10T12:00:39Z</time>
192 <course>53.0</course>
193 <speed>0.00</speed>
194 </trkpt>
195 <trkpt lat="50.8917334333" lon="13.9922275000">
196 <ele>271.5</ele>
197 <time>2012-09-10T12:00:39Z</time>
198 <course>53.0</course>
199 <speed>0.00</speed>
200 </trkpt>
201 <trkpt lat="50.8917081278" lon="13.9922199028">
202 <ele>271.5</ele>
203 <time>2012-09-10T12:00:40Z</time>
204 <course>53.0</course>
205 <speed>0.00</speed>
206 </trkpt>
207 <trkpt lat="50.8917081278" lon="13.9922199028">
208 <ele>271.5</ele>
209 <time>2012-09-10T12:00:46Z</time>
210 <course>53.0</course>
211 <speed>0.00</speed>
212 </trkpt>
213 <trkpt lat="50.8917063333" lon="13.9922306750">
214 <ele>271.5</ele>
215 <time>2012-09-10T12:00:47Z</time>
216 <course>53.0</course>
217 <speed>0.00</speed>
218 </trkpt>
219 <trkpt lat="50.8917063333" lon="13.9922306750">
220 <ele>271.5</ele>
221 <time>2012-09-10T12:00:48Z</time>
222 <course>53.0</course>
223 <speed>0.00</speed>
224 </trkpt>
225 <trkpt lat="50.8917010667" lon="13.9922324667">
226 <ele>271.5</ele>
227 <time>2012-09-10T12:00:51Z</time>
228 <course>53.0</course>
229 <speed>0.00</speed>
230 </trkpt>
231 <trkpt lat="50.8917010667" lon="13.9922324667">
232 <ele>271.5</ele>
233 <time>2012-09-10T12:00:51Z</time>
234 <course>53.0</course>
235 <speed>0.00</speed>
236 </trkpt>
237 <trkpt lat="50.8917104500" lon="13.9922397625">
238 <ele>271.6</ele>
239 <time>2012-09-10T12:00:53Z</time>
240 <course>53.0</course>
241 <speed>0.00</speed>
242 </trkpt>
243 <trkpt lat="50.8917104500" lon="13.9922397625">
244 <ele>271.6</ele>
245 <time>2012-09-10T12:00:55Z</time>
246 <course>53.0</course>
247 <speed>0.00</speed>
248 </trkpt>
249 <trkpt lat="50.8917014583" lon="13.9922398417">
250 <ele>271.5</ele>
251 <time>2012-09-10T12:00:58Z</time>
252 <course>53.0</course>
253 <speed>0.00</speed>
254 </trkpt>
255 <trkpt lat="50.8917014583" lon="13.9922398417">
256 <ele>271.5</ele>
257 <time>2012-09-10T12:00:59Z</time>
258 <course>53.0</course>
259 <speed>0.00</speed>
260 </trkpt>
261 <trkpt lat="50.8916854292" lon="13.9922382167">
262 <ele>271.5</ele>
263 <time>2012-09-10T12:01:00Z</time>
264 <course>53.0</course>
265 <speed>0.00</speed>
266 </trkpt>
267 <trkpt lat="50.8916854292" lon="13.9922382167">
268 <ele>271.5</ele>
269 <time>2012-09-10T12:01:07Z</time>
270 <course>53.0</course>
271 <speed>0.00</speed>
272 </trkpt>
273 <trkpt lat="50.8916643667" lon="13.9922343292">
274 <ele>271.5</ele>
275 <time>2012-09-10T12:01:10Z</time>
276 <course>53.0</course>
277 <speed>0.00</speed>
278 </trkpt>
279 <trkpt lat="50.8916643667" lon="13.9922343292">
280 <ele>271.5</ele>
281 <time>2012-09-10T12:01:12Z</time>
282 <course>53.0</course>
283 <speed>0.00</speed>
284 </trkpt>
285 <trkpt lat="50.8916556167" lon="13.9922336167">
286 <ele>271.5</ele>
287 <time>2012-09-10T12:01:14Z</time>
288 <course>53.0</course>
289 <speed>0.00</speed>
290 </trkpt>
291 <trkpt lat="50.8916556167" lon="13.9922336167">
292 <ele>271.5</ele>
293 <time>2012-09-10T12:01:16Z</time>
294 <course>53.0</course>
295 <speed>0.00</speed>
296 </trkpt>
297 <trkpt lat="50.8916441844" lon="13.9922302656">
298 <ele>271.5</ele>
299 <time>2012-09-10T12:01:18Z</time>
300 <course>53.0</course>
301 <speed>0.00</speed>
302 </trkpt>
303 <trkpt lat="50.8916441844" lon="13.9922302656">
304 <ele>271.5</ele>
305 <time>2012-09-10T12:01:32Z</time>
306 <course>53.0</course>
307 <speed>0.00</speed>
308 </trkpt>
309 <trkpt lat="50.8916477417" lon="13.9922406823">
310 <ele>271.5</ele>
311 <time>2012-09-10T12:01:35Z</time>
312 <course>53.0</course>
313 <speed>0.00</speed>
314 </trkpt>
315 <trkpt lat="50.8916477417" lon="13.9922406823">
316 <ele>271.5</ele>
317 <time>2012-09-10T12:01:50Z</time>
318 <course>53.0</course>
319 <speed>0.00</speed>
320 </trkpt>
321 <trkpt lat="50.8916324167" lon="13.9922345167">
322 <ele>271.5</ele>
323 <time>2012-09-10T12:01:51Z</time>
324 <course>53.0</course>
325 <speed>0.00</speed>
326 </trkpt>
327 <trkpt lat="50.8916324167" lon="13.9922345167">
328 <ele>271.5</ele>
329 <time>2012-09-10T12:01:52Z</time>
330 <course>53.0</course>
331 <speed>0.00</speed>
332 </trkpt>
333 <trkpt lat="50.8916252533" lon="13.9922345533">
334 <ele>271.5</ele>
335 <time>2012-09-10T12:01:55Z</time>
336 <course>53.0</course>
337 <speed>0.00</speed>
338 </trkpt>
339 <trkpt lat="50.8916252533" lon="13.9922345533">
340 <ele>271.5</ele>
341 <time>2012-09-10T12:02:14Z</time>
342 <course>53.0</course>
343 <speed>0.00</speed>
344 </trkpt>
345 <trkpt lat="50.8916239211" lon="13.9922414632">
346 <ele>271.5</ele>
347 <time>2012-09-10T12:02:16Z</time>
348 <course>53.0</course>
349 <speed>0.00</speed>
350 </trkpt>
351 <trkpt lat="50.8916239211" lon="13.9922414632">
352 <ele>271.5</ele>
353 <time>2012-09-10T12:02:34Z</time>
354 <course>53.0</course>
355 <speed>0.00</speed>
356 </trkpt>
357 <trkpt lat="50.8916184833" lon="13.9922403303">
358 <ele>271.5</ele>
359 <time>2012-09-10T12:02:35Z</time>
360 <course>53.0</course>
361 <speed>0.00</speed>
362 </trkpt>
363 <trkpt lat="50.8916184833" lon="13.9922403303">
364 <ele>271.5</ele>
365 <time>2012-09-10T12:02:46Z</time>
366 <course>53.0</course>
367 <speed>0.00</speed>
368 </trkpt>
369 <trkpt lat="50.8916161500" lon="13.9922509167">
370 <ele>271.4</ele>
371 <time>2012-09-10T12:02:47Z</time>
372 <course>53.0</course>
373 <speed>0.00</speed>
374 </trkpt>
375 <trkpt lat="50.8916161500" lon="13.9922509167">
376 <ele>271.4</ele>
377 <time>2012-09-10T12:02:47Z</time>
378 <course>53.0</course>
379 <speed>0.00</speed>
380 </trkpt>
381 <trkpt lat="50.8916252333" lon="13.9922614222">
382 <ele>271.4</ele>
383 <time>2012-09-10T12:02:49Z</time>
384 <course>53.0</course>
385 <speed>0.00</speed>
386 </trkpt>
387 <trkpt lat="50.8916252333" lon="13.9922614222">
388 <ele>271.4</ele>
389 <time>2012-09-10T12:02:51Z</time>
390 <course>53.0</course>
391 <speed>0.00</speed>
392 </trkpt>
393 <trkpt lat="50.8916354414" lon="13.9922708383">
394 <ele>271.4</ele>
395 <time>2012-09-10T12:02:53Z</time>
396 <course>53.0</course>
397 <speed>0.00</speed>
398 </trkpt>
399 <trkpt lat="50.8916354414" lon="13.9922708383">
400 <ele>271.4</ele>
401 <time>2012-09-10T12:03:18Z</time>
402 <course>53.0</course>
403 <speed>0.00</speed>
404 </trkpt>
405 <trkpt lat="50.8916326056" lon="13.9922767694">
406 <ele>271.4</ele>
407 <time>2012-09-10T12:03:19Z</time>
408 <course>53.0</course>
409 <speed>0.00</speed>
410 </trkpt>
411 <trkpt lat="50.8916326056" lon="13.9922767694">
412 <ele>271.4</ele>
413 <time>2012-09-10T12:03:24Z</time>
414 <course>53.0</course>
415 <speed>0.00</speed>
416 </trkpt>
417 <trkpt lat="50.8916489350" lon="13.9922765700">
418 <ele>271.3</ele>
419 <time>2012-09-10T12:03:26Z</time>
420 <course>53.0</course>
421 <speed>0.00</speed>
422 </trkpt>
423 <trkpt lat="50.8916489350" lon="13.9922765700">
424 <ele>271.3</ele>
425 <time>2012-09-10T12:03:33Z</time>
426 <course>53.0</course>
427 <speed>0.00</speed>
428 </trkpt>
429 <trkpt lat="50.8916492944" lon="13.9922864722">
430 <ele>271.3</ele>
431 <time>2012-09-10T12:03:36Z</time>
432 <course>53.0</course>
433 <speed>0.00</speed>
434 </trkpt>
435 <trkpt lat="50.8916492944" lon="13.9922864722">
436 <ele>271.3</ele>
437 <time>2012-09-10T12:03:43Z</time>
438 <course>53.0</course>
439 <speed>0.00</speed>
440 </trkpt>
441 <trkpt lat="50.8916464050" lon="13.9922948622">
442 <ele>271.2</ele>
443 <time>2012-09-10T12:03:45Z</time>
444 <course>53.0</course>
445 <speed>0.00</speed>
446 </trkpt>
447 <trkpt lat="50.8916464050" lon="13.9922948622">
448 <ele>271.2</ele>
449 <time>2012-09-10T12:04:12Z</time>
450 <course>53.0</course>
451 <speed>0.00</speed>
452 </trkpt>
453 <trkpt lat="50.8916492188" lon="13.9923052646">
454 <ele>271.3</ele>
455 <time>2012-09-10T12:04:15Z</time>
456 <course>53.0</course>
457 <speed>0.00</speed>
458 </trkpt>
459 <trkpt lat="50.8916492188" lon="13.9923052646">
460 <ele>271.3</ele>
461 <time>2012-09-10T12:04:21Z</time>
462 <course>53.0</course>
463 <speed>0.00</speed>
464 </trkpt>
465 <trkpt lat="50.8916506733" lon="13.9923135933">
466 <ele>271.3</ele>
467 <time>2012-09-10T12:04:23Z</time>
468 <course>53.0</course>
469 <speed>0.00</speed>
470 </trkpt>
471 <trkpt lat="50.8916506733" lon="13.9923135933">
472 <ele>271.3</ele>
473 <time>2012-09-10T12:04:25Z</time>
474 <course>53.0</course>
475 <speed>0.00</speed>
476 </trkpt>
477 <trkpt lat="50.8916537778" lon="13.9923224444">
478 <ele>271.3</ele>
479 <time>2012-09-10T12:04:28Z</time>
480 <course>53.0</course>
481 <speed>0.00</speed>
482 </trkpt>
483 <trkpt lat="50.8916537778" lon="13.9923224444">
484 <ele>271.3</ele>
485 <time>2012-09-10T12:04:29Z</time>
486 <course>53.0</course>
487 <speed>0.00</speed>
488 </trkpt>
489 <trkpt lat="50.8916591167" lon="13.9923340083">
490 <ele>271.3</ele>
491 <time>2012-09-10T12:04:30Z</time>
492 <course>53.0</course>
493 <speed>0.00</speed>
494 </trkpt>
495 <trkpt lat="50.8916591167" lon="13.9923340083">
496 <ele>271.3</ele>
497 <time>2012-09-10T12:04:33Z</time>
498 <course>53.0</course>
499 <speed>0.00</speed>
500 </trkpt>
501 <trkpt lat="50.8917020667" lon="13.9925418667">
502 <ele>262.7</ele>
503 <time>2012-09-10T12:04:35Z</time>
504 <course>144.0</course>
505 <speed>0.00</speed>
506 </trkpt>
507 <trkpt lat="50.8917020667" lon="13.9925418667">
508 <ele>262.7</ele>
509 <time>2012-09-10T12:04:35Z</time>
510 <course>144.0</course>
511 <speed>0.00</speed>
512 </trkpt>
513 <trkpt lat="50.8916949167" lon="13.9925439000">
514 <ele>263.1</ele>
515 <time>2012-09-10T12:04:36Z</time>
516 <course>144.0</course>
517 <speed>0.00</speed>
518 </trkpt>
519 <trkpt lat="50.8916809167" lon="13.9925404167">
520 <ele>261.9</ele>
521 <time>2012-09-10T12:04:36Z</time>
522 <course>160.0</course>
523 <speed>0.00</speed>
524 </trkpt>
525 <trkpt lat="50.8916664000" lon="13.9925459333">
526 <ele>261.3</ele>
527 <time>2012-09-10T12:04:37Z</time>
528 <course>165.0</course>
529 <speed>0.00</speed>
530 </trkpt>
531 <trkpt lat="50.8916498333" lon="13.9925089667">
532 <ele>261.0</ele>
533 <time>2012-09-10T12:04:38Z</time>
534 <course>165.0</course>
535 <speed>0.00</speed>
536 </trkpt>
537 <trkpt lat="50.8916431500" lon="13.9924873333">
538 <ele>261.0</ele>
539 <time>2012-09-10T12:04:41Z</time>
540 <course>165.0</course>
541 <speed>0.00</speed>
542 </trkpt>
543 <trkpt lat="50.8916431500" lon="13.9924873333">
544 <ele>261.0</ele>
545 <time>2012-09-10T12:04:42Z</time>
546 <course>165.0</course>
547 <speed>0.00</speed>
548 </trkpt>
549 <trkpt lat="50.8916416415" lon="13.9924700341">
550 <ele>258.8</ele>
551 <time>2012-09-10T12:04:43Z</time>
552 <course>165.0</course>
553 <speed>0.00</speed>
554 </trkpt>
555 <trkpt lat="50.8916416415" lon="13.9924700341">
556 <ele>258.8</ele>
557 <time>2012-09-10T12:05:26Z</time>
558 <course>165.0</course>
559 <speed>0.00</speed>
560 </trkpt>
561 <trkpt lat="50.8916332333" lon="13.9924675167">
562 <ele>260.7</ele>
563 <time>2012-09-10T12:05:27Z</time>
564 <course>165.0</course>
565 <speed>0.00</speed>
566 </trkpt>
567 <trkpt lat="50.8916348667" lon="13.9924522500">
568 <ele>261.8</ele>
569 <time>2012-09-10T12:05:28Z</time>
570 <course>204.0</course>
571 <speed>0.00</speed>
572 </trkpt>
573 <trkpt lat="50.8916348667" lon="13.9924522500">
574 <ele>261.8</ele>
575 <time>2012-09-10T12:05:28Z</time>
576 <course>204.0</course>
577 <speed>0.00</speed>
578 </trkpt>
579 <trkpt lat="50.8916435333" lon="13.9924547000">
580 <ele>262.1</ele>
581 <time>2012-09-10T12:05:31Z</time>
582 <course>148.0</course>
583 <speed>0.00</speed>
584 </trkpt>
585 <trkpt lat="50.8916435333" lon="13.9924547000">
586 <ele>262.1</ele>
587 <time>2012-09-10T12:05:33Z</time>
588 <course>148.0</course>
589 <speed>0.00</speed>
590 </trkpt>
591 <trkpt lat="50.8916317667" lon="13.9924334833">
592 <ele>261.3</ele>
593 <time>2012-09-10T12:05:33Z</time>
594 <course>148.0</course>
595 <speed>0.00</speed>
596 </trkpt>
597 <trkpt lat="50.8916282167" lon="13.9924245000">
598 <ele>261.0</ele>
599 <time>2012-09-10T12:05:34Z</time>
600 <course>121.0</course>
601 <speed>0.00</speed>
602 </trkpt>
603 <trkpt lat="50.8916248250" lon="13.9924077583">
604 <ele>261.3</ele>
605 <time>2012-09-10T12:05:37Z</time>
606 <course>121.0</course>
607 <speed>0.00</speed>
608 </trkpt>
609 <trkpt lat="50.8916248250" lon="13.9924077583">
610 <ele>261.3</ele>
611 <time>2012-09-10T12:05:38Z</time>
612 <course>121.0</course>
613 <speed>0.00</speed>
614 </trkpt>
615 <trkpt lat="50.8916205667" lon="13.9923986167">
616 <ele>261.5</ele>
617 <time>2012-09-10T12:05:39Z</time>
618 <course>121.0</course>
619 <speed>0.00</speed>
620 </trkpt>
621 <trkpt lat="50.8916210197" lon="13.9923923785">
622 <ele>261.6</ele>
623 <time>2012-09-10T12:05:40Z</time>
624 <course>121.0</course>
625 <speed>0.00</speed>
626 </trkpt>
627 <trkpt lat="50.8916210197" lon="13.9923923785">
628 <ele>261.6</ele>
629 <time>2012-09-10T12:07:41Z</time>
630 <course>121.0</course>
631 <speed>0.00</speed>
632 </trkpt>
633 <trkpt lat="50.8916321500" lon="13.9923995500">
634 <ele>262.1</ele>
635 <time>2012-09-10T12:07:44Z</time>
636 <course>216.0</course>
637 <speed>0.00</speed>
638 </trkpt>
639 <trkpt lat="50.8916321500" lon="13.9923995500">
640 <ele>262.1</ele>
641 <time>2012-09-10T12:07:44Z</time>
642 <course>216.0</course>
643 <speed>0.00</speed>
644 </trkpt>
645 <trkpt lat="50.8916327611" lon="13.9924067389">
646 <ele>261.9</ele>
647 <time>2012-09-10T12:07:46Z</time>
648 <course>216.0</course>
649 <speed>0.00</speed>
650 </trkpt>
651 <trkpt lat="50.8916327611" lon="13.9924067389">
652 <ele>261.9</ele>
653 <time>2012-09-10T12:07:47Z</time>
654 <course>216.0</course>
655 <speed>0.00</speed>
656 </trkpt>
657 <trkpt lat="50.8916259167" lon="13.9924150167">
658 <ele>261.2</ele>
659 <time>2012-09-10T12:07:48Z</time>
660 <course>216.0</course>
661 <speed>0.00</speed>
662 </trkpt>
663 <trkpt lat="50.8916259167" lon="13.9924150167">
664 <ele>261.2</ele>
665 <time>2012-09-10T12:07:48Z</time>
666 <course>216.0</course>
667 <speed>0.00</speed>
668 </trkpt>
669 <trkpt lat="50.8916297611" lon="13.9924023833">
670 <ele>260.9</ele>
671 <time>2012-09-10T12:07:51Z</time>
672 <course>216.0</course>
673 <speed>0.00</speed>
674 </trkpt>
675 <trkpt lat="50.8916297611" lon="13.9924023833">
676 <ele>260.9</ele>
677 <time>2012-09-10T12:07:52Z</time>
678 <course>216.0</course>
679 <speed>0.00</speed>
680 </trkpt>
681 <trkpt lat="50.8916267889" lon="13.9923890389">
682 <ele>261.1</ele>
683 <time>2012-09-10T12:07:53Z</time>
684 <course>214.0</course>
685 <speed>0.00</speed>
686 </trkpt>
687 <trkpt lat="50.8916267889" lon="13.9923890389">
688 <ele>261.1</ele>
689 <time>2012-09-10T12:08:00Z</time>
690 <course>214.0</course>
691 <speed>0.00</speed>
692 </trkpt>
693 <trkpt lat="50.8916106833" lon="13.9923883333">
694 <ele>260.4</ele>
695 <time>2012-09-10T12:08:01Z</time>
696 <course>214.0</course>
697 <speed>0.00</speed>
698 </trkpt>
699 <trkpt lat="50.8915614333" lon="13.9923599667">
700 <ele>261.2</ele>
701 <time>2012-09-10T12:08:03Z</time>
702 <course>200.0</course>
703 <speed>0.62</speed>
704 </trkpt>
705 <trkpt lat="50.8915389833" lon="13.9923152833">
706 <ele>263.3</ele>
707 <time>2012-09-10T12:08:04Z</time>
708 <course>207.0</course>
709 <speed>0.77</speed>
710 </trkpt>
711 <trkpt lat="50.8915418833" lon="13.9922967167">
712 <ele>264.3</ele>
713 <time>2012-09-10T12:08:05Z</time>
714 <course>207.0</course>
715 <speed>0.67</speed>
716 </trkpt>
717 <trkpt lat="50.8915419000" lon="13.9922819167">
718 <ele>263.9</ele>
719 <time>2012-09-10T12:08:06Z</time>
720 <course>207.0</course>
721 <speed>0.00</speed>
722 </trkpt>
723 <trkpt lat="50.8915419000" lon="13.9922819167">
724 <ele>263.9</ele>
725 <time>2012-09-10T12:08:06Z</time>
726 <course>207.0</course>
727 <speed>0.00</speed>
728 </trkpt>
729 <trkpt lat="50.8915407333" lon="13.9922911167">
730 <ele>263.9</ele>
731 <time>2012-09-10T12:08:07Z</time>
732 <course>207.0</course>
733 <speed>0.00</speed>
734 </trkpt>
735 <trkpt lat="50.8915489000" lon="13.9923044500">
736 <ele>264.5</ele>
737 <time>2012-09-10T12:08:10Z</time>
738 <course>207.0</course>
739 <speed>0.00</speed>
740 </trkpt>
741 <trkpt lat="50.8915489000" lon="13.9923044500">
742 <ele>264.5</ele>
743 <time>2012-09-10T12:08:10Z</time>
744 <course>207.0</course>
745 <speed>0.00</speed>
746 </trkpt>
747 <trkpt lat="50.8915622222" lon="13.9923140111">
748 <ele>265.1</ele>
749 <time>2012-09-10T12:08:12Z</time>
750 <course>207.0</course>
751 <speed>0.00</speed>
752 </trkpt>
753 <trkpt lat="50.8915622222" lon="13.9923140111">
754 <ele>265.1</ele>
755 <time>2012-09-10T12:08:12Z</time>
756 <course>207.0</course>
757 <speed>0.00</speed>
758 </trkpt>
759 <trkpt lat="50.8915690167" lon="13.9923159667">
760 <ele>264.7</ele>
761 <time>2012-09-10T12:08:13Z</time>
762 <course>207.0</course>
763 <speed>0.00</speed>
764 </trkpt>
765 <trkpt lat="50.8915793455" lon="13.9923241470">
766 <ele>263.9</ele>
767 <time>2012-09-10T12:08:16Z</time>
768 <course>207.0</course>
769 <speed>0.00</speed>
770 </trkpt>
771 <trkpt lat="50.8915793455" lon="13.9923241470">
772 <ele>263.9</ele>
773 <time>2012-09-10T12:08:25Z</time>
774 <course>207.0</course>
775 <speed>0.00</speed>
776 </trkpt>
777 <trkpt lat="50.8915767667" lon="13.9922952500">
778 <ele>262.6</ele>
779 <time>2012-09-10T12:08:26Z</time>
780 <course>207.0</course>
781 <speed>0.51</speed>
782 </trkpt>
783 <trkpt lat="50.8915610000" lon="13.9922513500">
784 <ele>262.1</ele>
785 <time>2012-09-10T12:08:27Z</time>
786 <course>207.0</course>
787 <speed>0.67</speed>
788 </trkpt>
789 <trkpt lat="50.8915471611" lon="13.9922146889">
790 <ele>262.7</ele>
791 <time>2012-09-10T12:08:30Z</time>
792 <course>207.0</course>
793 <speed>0.00</speed>
794 </trkpt>
795 <trkpt lat="50.8915471611" lon="13.9922146889">
796 <ele>262.7</ele>
797 <time>2012-09-10T12:08:31Z</time>
798 <course>207.0</course>
799 <speed>0.00</speed>
800 </trkpt>
801 <trkpt lat="50.8915630833" lon="13.9922069000">
802 <ele>260.5</ele>
803 <time>2012-09-10T12:08:32Z</time>
804 <course>207.0</course>
805 <speed>0.57</speed>
806 </trkpt>
807 <trkpt lat="50.8915684833" lon="13.9921865833">
808 <ele>260.2</ele>
809 <time>2012-09-10T12:08:33Z</time>
810 <course>207.0</course>
811 <speed>0.62</speed>
812 </trkpt>
813 <trkpt lat="50.8915579167" lon="13.9921750000">
814 <ele>259.3</ele>
815 <time>2012-09-10T12:08:35Z</time>
816 <course>207.0</course>
817 <speed>0.62</speed>
818 </trkpt>
819 <trkpt lat="50.8915305333" lon="13.9921499833">
820 <ele>257.1</ele>
821 <time>2012-09-10T12:08:37Z</time>
822 <course>225.0</course>
823 <speed>1.13</speed>
824 </trkpt>
825 <trkpt lat="50.8915166000" lon="13.9921416500">
826 <ele>256.7</ele>
827 <time>2012-09-10T12:08:38Z</time>
828 <course>225.0</course>
829 <speed>1.13</speed>
830 </trkpt>
831 <trkpt lat="50.8915001333" lon="13.9921486000">
832 <ele>255.4</ele>
833 <time>2012-09-10T12:08:38Z</time>
834 <course>212.0</course>
835 <speed>1.08</speed>
836 </trkpt>
837 <trkpt lat="50.8915105000" lon="13.9921304000">
838 <ele>250.8</ele>
839 <time>2012-09-10T12:08:41Z</time>
840 <course>237.0</course>
841 <speed>0.85</speed>
842 </trkpt>
843 <trkpt lat="50.8915211167" lon="13.9921069000">
844 <ele>250.4</ele>
845 <time>2012-09-10T12:08:43Z</time>
846 <course>237.0</course>
847 <speed>0.72</speed>
848 </trkpt>
849 <trkpt lat="50.8915230667" lon="13.9921207833">
850 <ele>249.5</ele>
851 <time>2012-09-10T12:08:44Z</time>
852 <course>242.0</course>
853 <speed>0.00</speed>
854 </trkpt>
855 <trkpt lat="50.8915230667" lon="13.9921207833">
856 <ele>249.5</ele>
857 <time>2012-09-10T12:08:44Z</time>
858 <course>242.0</course>
859 <speed>0.00</speed>
860 </trkpt>
861 <trkpt lat="50.8915216500" lon="13.9921340500">
862 <ele>248.5</ele>
863 <time>2012-09-10T12:08:46Z</time>
864 <course>242.0</course>
865 <speed>0.00</speed>
866 </trkpt>
867 <trkpt lat="50.8915216500" lon="13.9921340500">
868 <ele>248.5</ele>
869 <time>2012-09-10T12:08:48Z</time>
870 <course>242.0</course>
871 <speed>0.00</speed>
872 </trkpt>
873 <trkpt lat="50.8915207278" lon="13.9921495833">
874 <ele>247.2</ele>
875 <time>2012-09-10T12:08:50Z</time>
876 <course>242.0</course>
877 <speed>0.00</speed>
878 </trkpt>
879 <trkpt lat="50.8915207278" lon="13.9921495833">
880 <ele>247.2</ele>
881 <time>2012-09-10T12:08:50Z</time>
882 <course>242.0</course>
883 <speed>0.00</speed>
884 </trkpt>
885 <trkpt lat="50.8915261333" lon="13.9921410000">
886 <ele>247.5</ele>
887 <time>2012-09-10T12:08:52Z</time>
888 <course>242.0</course>
889 <speed>0.00</speed>
890 </trkpt>
891 <trkpt lat="50.8915261333" lon="13.9921410000">
892 <ele>247.5</ele>
893 <time>2012-09-10T12:08:54Z</time>
894 <course>242.0</course>
895 <speed>0.00</speed>
896 </trkpt>
897 <trkpt lat="50.8915379500" lon="13.9921371167">
898 <ele>247.3</ele>
899 <time>2012-09-10T12:08:55Z</time>
900 <course>242.0</course>
901 <speed>0.00</speed>
902 </trkpt>
903 <trkpt lat="50.8915303000" lon="13.9921217500">
904 <ele>247.2</ele>
905 <time>2012-09-10T12:08:57Z</time>
906 <course>242.0</course>
907 <speed>0.00</speed>
908 </trkpt>
909 <trkpt lat="50.8915303000" lon="13.9921217500">
910 <ele>247.2</ele>
911 <time>2012-09-10T12:08:57Z</time>
912 <course>242.0</course>
913 <speed>0.00</speed>
914 </trkpt>
915 <trkpt lat="50.8915260500" lon="13.9921213278">
916 <ele>246.4</ele>
917 <time>2012-09-10T12:08:58Z</time>
918 <course>242.0</course>
919 <speed>0.00</speed>
920 </trkpt>
921 <trkpt lat="50.8915260500" lon="13.9921213278">
922 <ele>246.4</ele>
923 <time>2012-09-10T12:09:01Z</time>
924 <course>242.0</course>
925 <speed>0.00</speed>
926 </trkpt>
927 <trkpt lat="50.8915235667" lon="13.9921075333">
928 <ele>246.4</ele>
929 <time>2012-09-10T12:09:03Z</time>
930 <course>242.0</course>
931 <speed>0.00</speed>
932 </trkpt>
933 <trkpt lat="50.8915235667" lon="13.9921075333">
934 <ele>246.4</ele>
935 <time>2012-09-10T12:09:03Z</time>
936 <course>242.0</course>
937 <speed>0.00</speed>
938 </trkpt>
939 <trkpt lat="50.8915238333" lon="13.9920898000">
940 <ele>247.3</ele>
941 <time>2012-09-10T12:09:04Z</time>
942 <course>242.0</course>
943 <speed>0.00</speed>
944 </trkpt>
945 <trkpt lat="50.8915238333" lon="13.9920898000">
946 <ele>247.3</ele>
947 <time>2012-09-10T12:09:05Z</time>
948 <course>242.0</course>
949 <speed>0.00</speed>
950 </trkpt>
951 <trkpt lat="50.8915185167" lon="13.9920565333">
952 <ele>245.9</ele>
953 <time>2012-09-10T12:09:07Z</time>
954 <course>242.0</course>
955 <speed>0.57</speed>
956 </trkpt>
957 <trkpt lat="50.8915131500" lon="13.9920372000">
958 <ele>245.2</ele>
959 <time>2012-09-10T12:09:08Z</time>
960 <course>242.0</course>
961 <speed>0.62</speed>
962 </trkpt>
963 <trkpt lat="50.8915132833" lon="13.9920237167">
964 <ele>244.8</ele>
965 <time>2012-09-10T12:09:09Z</time>
966 <course>242.0</course>
967 <speed>0.62</speed>
968 </trkpt>
969 <trkpt lat="50.8915097000" lon="13.9919927000">
970 <ele>244.4</ele>
971 <time>2012-09-10T12:09:10Z</time>
972 <course>254.0</course>
973 <speed>1.03</speed>
974 </trkpt>
975 <trkpt lat="50.8915016333" lon="13.9919664000">
976 <ele>243.6</ele>
977 <time>2012-09-10T12:09:10Z</time>
978 <course>234.0</course>
979 <speed>0.98</speed>
980 </trkpt>
981 <trkpt lat="50.8914977000" lon="13.9919486167">
982 <ele>242.7</ele>
983 <time>2012-09-10T12:09:13Z</time>
984 <course>235.0</course>
985 <speed>0.93</speed>
986 </trkpt>
987 <trkpt lat="50.8914810167" lon="13.9919220333">
988 <ele>241.5</ele>
989 <time>2012-09-10T12:09:14Z</time>
990 <course>235.0</course>
991 <speed>1.13</speed>
992 </trkpt>
993 <trkpt lat="50.8914848000" lon="13.9919049833">
994 <ele>240.9</ele>
995 <time>2012-09-10T12:09:15Z</time>
996 <course>240.0</course>
997 <speed>1.03</speed>
998 </trkpt>
999 <trkpt lat="50.8914943333" lon="13.9918892500">
1000 <ele>240.3</ele>
1001 <time>2012-09-10T12:09:16Z</time>
1002 <course>250.0</course>
1003 <speed>0.77</speed>
1004 </trkpt>
1005 <trkpt lat="50.8914987500" lon="13.9918793500">
1006 <ele>239.8</ele>
1007 <time>2012-09-10T12:09:16Z</time>
1008 <course>250.0</course>
1009 <speed>0.67</speed>
1010 </trkpt>
1011 <trkpt lat="50.8914974167" lon="13.9918678833">
1012 <ele>239.5</ele>
1013 <time>2012-09-10T12:09:17Z</time>
1014 <course>250.0</course>
1015 <speed>0.62</speed>
1016 </trkpt>
1017 <trkpt lat="50.8914717167" lon="13.9918407500">
1018 <ele>239.5</ele>
1019 <time>2012-09-10T12:09:18Z</time>
1020 <course>234.0</course>
1021 <speed>0.93</speed>
1022 </trkpt>
1023 <trkpt lat="50.8914722167" lon="13.9918124000">
1024 <ele>238.5</ele>
1025 <time>2012-09-10T12:09:21Z</time>
1026 <course>240.0</course>
1027 <speed>0.00</speed>
1028 </trkpt>
1029 <trkpt lat="50.8914722167" lon="13.9918124000">
1030 <ele>238.5</ele>
1031 <time>2012-09-10T12:09:22Z</time>
1032 <course>240.0</course>
1033 <speed>0.00</speed>
1034 </trkpt>
1035 <trkpt lat="50.8914658667" lon="13.9917756333">
1036 <ele>238.1</ele>
1037 <time>2012-09-10T12:09:22Z</time>
1038 <course>240.0</course>
1039 <speed>1.03</speed>
1040 </trkpt>
1041 <trkpt lat="50.8914473333" lon="13.9917498667">
1042 <ele>237.8</ele>
1043 <time>2012-09-10T12:09:23Z</time>
1044 <course>237.0</course>
1045 <speed>1.23</speed>
1046 </trkpt>
1047 <trkpt lat="50.8914260167" lon="13.9917226667">
1048 <ele>237.5</ele>
1049 <time>2012-09-10T12:09:24Z</time>
1050 <course>229.0</course>
1051 <speed>1.34</speed>
1052 </trkpt>
1053 <trkpt lat="50.8914146500" lon="13.9916789333">
1054 <ele>237.4</ele>
1055 <time>2012-09-10T12:09:26Z</time>
1056 <course>237.0</course>
1057 <speed>1.49</speed>
1058 </trkpt>
1059 <trkpt lat="50.8914397667" lon="13.9916587833">
1060 <ele>236.5</ele>
1061 <time>2012-09-10T12:09:27Z</time>
1062 <course>261.0</course>
1063 <speed>1.18</speed>
1064 </trkpt>
1065 <trkpt lat="50.8914504333" lon="13.9916492167">
1066 <ele>237.9</ele>
1067 <time>2012-09-10T12:09:28Z</time>
1068 <course>269.0</course>
1069 <speed>1.03</speed>
1070 </trkpt>
1071 <trkpt lat="50.8914523667" lon="13.9916238500">
1072 <ele>237.7</ele>
1073 <time>2012-09-10T12:09:29Z</time>
1074 <course>270.0</course>
1075 <speed>0.98</speed>
1076 </trkpt>
1077 <trkpt lat="50.8914385167" lon="13.9915861000">
1078 <ele>237.4</ele>
1079 <time>2012-09-10T12:09:29Z</time>
1080 <course>257.0</course>
1081 <speed>1.03</speed>
1082 </trkpt>
1083 <trkpt lat="50.8914366833" lon="13.9915525500">
1084 <ele>237.1</ele>
1085 <time>2012-09-10T12:09:30Z</time>
1086 <course>256.0</course>
1087 <speed>1.13</speed>
1088 </trkpt>
1089 <trkpt lat="50.8914291167" lon="13.9915799333">
1090 <ele>233.0</ele>
1091 <time>2012-09-10T12:09:33Z</time>
1092 <course>256.0</course>
1093 <speed>0.00</speed>
1094 </trkpt>
1095 <trkpt lat="50.8914291167" lon="13.9915799333">
1096 <ele>233.0</ele>
1097 <time>2012-09-10T12:09:33Z</time>
1098 <course>256.0</course>
1099 <speed>0.00</speed>
1100 </trkpt>
1101 <trkpt lat="50.8914318000" lon="13.9915737000">
1102 <ele>232.9</ele>
1103 <time>2012-09-10T12:09:35Z</time>
1104 <course>256.0</course>
1105 <speed>0.62</speed>
1106 </trkpt>
1107 <trkpt lat="50.8914164500" lon="13.9915682833">
1108 <ele>232.5</ele>
1109 <time>2012-09-10T12:09:35Z</time>
1110 <course>256.0</course>
1111 <speed>0.87</speed>
1112 </trkpt>
1113 <trkpt lat="50.8914051333" lon="13.9915653333">
1114 <ele>231.6</ele>
1115 <time>2012-09-10T12:09:37Z</time>
1116 <course>221.0</course>
1117 <speed>0.87</speed>
1118 </trkpt>
1119 <trkpt lat="50.8913864667" lon="13.9915851167">
1120 <ele>231.3</ele>
1121 <time>2012-09-10T12:09:37Z</time>
1122 <course>221.0</course>
1123 <speed>0.87</speed>
1124 </trkpt>
1125 <trkpt lat="50.8913798000" lon="13.9915780000">
1126 <ele>231.3</ele>
1127 <time>2012-09-10T12:09:39Z</time>
1128 <course>198.0</course>
1129 <speed>0.77</speed>
1130 </trkpt>
1131 <trkpt lat="50.8913884333" lon="13.9915917833">
1132 <ele>232.9</ele>
1133 <time>2012-09-10T12:09:41Z</time>
1134 <course>198.0</course>
1135 <speed>0.00</speed>
1136 </trkpt>
1137 <trkpt lat="50.8913884333" lon="13.9915917833">
1138 <ele>232.9</ele>
1139 <time>2012-09-10T12:09:41Z</time>
1140 <course>198.0</course>
1141 <speed>0.00</speed>
1142 </trkpt>
1143 <trkpt lat="50.8913883000" lon="13.9915827333">
1144 <ele>233.7</ele>
1145 <time>2012-09-10T12:09:41Z</time>
1146 <course>198.0</course>
1147 <speed>0.00</speed>
1148 </trkpt>
1149 <trkpt lat="50.8913771833" lon="13.9915837833">
1150 <ele>233.0</ele>
1151 <time>2012-09-10T12:09:43Z</time>
1152 <course>198.0</course>
1153 <speed>0.72</speed>
1154 </trkpt>
1155 <trkpt lat="50.8913699667" lon="13.9915834667">
1156 <ele>233.0</ele>
1157 <time>2012-09-10T12:09:45Z</time>
1158 <course>198.0</course>
1159 <speed>0.67</speed>
1160 </trkpt>
1161 <trkpt lat="50.8913624167" lon="13.9915911000">
1162 <ele>233.3</ele>
1163 <time>2012-09-10T12:09:47Z</time>
1164 <course>198.0</course>
1165 <speed>0.67</speed>
1166 </trkpt>
1167 <trkpt lat="50.8913526333" lon="13.9916025833">
1168 <ele>233.1</ele>
1169 <time>2012-09-10T12:09:47Z</time>
1170 <course>198.0</course>
1171 <speed>0.82</speed>
1172 </trkpt>
1173 <trkpt lat="50.8913409000" lon="13.9916094333">
1174 <ele>233.1</ele>
1175 <time>2012-09-10T12:09:48Z</time>
1176 <course>159.0</course>
1177 <speed>1.03</speed>
1178 </trkpt>
1179 <trkpt lat="50.8913293500" lon="13.9916062500">
1180 <ele>233.4</ele>
1181 <time>2012-09-10T12:09:48Z</time>
1182 <course>168.0</course>
1183 <speed>1.08</speed>
1184 </trkpt>
1185 <trkpt lat="50.8913225833" lon="13.9916132000">
1186 <ele>233.5</ele>
1187 <time>2012-09-10T12:09:49Z</time>
1188 <course>162.0</course>
1189 <speed>1.13</speed>
1190 </trkpt>
1191 <trkpt lat="50.8913072000" lon="13.9916165833">
1192 <ele>233.1</ele>
1193 <time>2012-09-10T12:09:50Z</time>
1194 <course>165.0</course>
1195 <speed>1.29</speed>
1196 </trkpt>
1197 <trkpt lat="50.8912961500" lon="13.9916172667">
1198 <ele>233.4</ele>
1199 <time>2012-09-10T12:09:52Z</time>
1200 <course>168.0</course>
1201 <speed>1.23</speed>
1202 </trkpt>
1203 <trkpt lat="50.8912771833" lon="13.9916269833">
1204 <ele>232.9</ele>
1205 <time>2012-09-10T12:09:53Z</time>
1206 <course>168.0</course>
1207 <speed>1.34</speed>
1208 </trkpt>
1209 <trkpt lat="50.8912518667" lon="13.9916218167">
1210 <ele>232.9</ele>
1211 <time>2012-09-10T12:09:54Z</time>
1212 <course>175.0</course>
1213 <speed>1.29</speed>
1214 </trkpt>
1215 <trkpt lat="50.8912367500" lon="13.9916439167">
1216 <ele>233.3</ele>
1217 <time>2012-09-10T12:09:55Z</time>
1218 <course>175.0</course>
1219 <speed>1.23</speed>
1220 </trkpt>
1221 <trkpt lat="50.8912246833" lon="13.9916430667">
1222 <ele>233.6</ele>
1223 <time>2012-09-10T12:09:56Z</time>
1224 <course>170.0</course>
1225 <speed>1.18</speed>
1226 </trkpt>
1227 <trkpt lat="50.8912125833" lon="13.9916404833">
1228 <ele>234.2</ele>
1229 <time>2012-09-10T12:09:58Z</time>
1230 <course>174.0</course>
1231 <speed>1.08</speed>
1232 </trkpt>
1233 <trkpt lat="50.8911987667" lon="13.9916457167">
1234 <ele>234.9</ele>
1235 <time>2012-09-10T12:09:59Z</time>
1236 <course>182.0</course>
1237 <speed>1.13</speed>
1238 </trkpt>
1239 <trkpt lat="50.8911891000" lon="13.9916366333">
1240 <ele>234.8</ele>
1241 <time>2012-09-10T12:10:00Z</time>
1242 <course>187.0</course>
1243 <speed>1.03</speed>
1244 </trkpt>
1245 <trkpt lat="50.8911844833" lon="13.9916611000">
1246 <ele>235.4</ele>
1247 <time>2012-09-10T12:10:01Z</time>
1248 <course>167.0</course>
1249 <speed>0.93</speed>
1250 </trkpt>
1251 <trkpt lat="50.8911720833" lon="13.9916614000">
1252 <ele>235.5</ele>
1253 <time>2012-09-10T12:10:01Z</time>
1254 <course>166.0</course>
1255 <speed>1.03</speed>
1256 </trkpt>
1257 <trkpt lat="50.8911643167" lon="13.9916820667">
1258 <ele>235.9</ele>
1259 <time>2012-09-10T12:10:02Z</time>
1260 <course>160.0</course>
1261 <speed>1.03</speed>
1262 </trkpt>
1263 <trkpt lat="50.8911465667" lon="13.9916851167">
1264 <ele>236.2</ele>
1265 <time>2012-09-10T12:10:04Z</time>
1266 <course>157.0</course>
1267 <speed>1.13</speed>
1268 </trkpt>
1269 <trkpt lat="50.8911313333" lon="13.9916859333">
1270 <ele>237.3</ele>
1271 <time>2012-09-10T12:10:05Z</time>
1272 <course>156.0</course>
1273 <speed>1.23</speed>
1274 </trkpt>
1275 <trkpt lat="50.8911135500" lon="13.9916787000">
1276 <ele>237.9</ele>
1277 <time>2012-09-10T12:10:06Z</time>
1278 <course>162.0</course>
1279 <speed>1.39</speed>
1280 </trkpt>
1281 <trkpt lat="50.8911050333" lon="13.9917006333">
1282 <ele>238.5</ele>
1283 <time>2012-09-10T12:10:07Z</time>
1284 <course>162.0</course>
1285 <speed>1.34</speed>
1286 </trkpt>
1287 <trkpt lat="50.8910875667" lon="13.9917073333">
1288 <ele>238.8</ele>
1289 <time>2012-09-10T12:10:07Z</time>
1290 <course>159.0</course>
1291 <speed>1.34</speed>
1292 </trkpt>
1293 <trkpt lat="50.8910705667" lon="13.9917190667">
1294 <ele>238.6</ele>
1295 <time>2012-09-10T12:10:08Z</time>
1296 <course>157.0</course>
1297 <speed>1.34</speed>
1298 </trkpt>
1299 <trkpt lat="50.8910543667" lon="13.9917336667">
1300 <ele>239.1</ele>
1301 <time>2012-09-10T12:10:11Z</time>
1302 <course>161.0</course>
1303 <speed>1.23</speed>
1304 </trkpt>
1305 <trkpt lat="50.8910458000" lon="13.9917364667">
1306 <ele>238.6</ele>
1307 <time>2012-09-10T12:10:12Z</time>
1308 <course>161.0</course>
1309 <speed>1.23</speed>
1310 </trkpt>
1311 <trkpt lat="50.8910325000" lon="13.9917533500">
1312 <ele>239.1</ele>
1313 <time>2012-09-10T12:10:13Z</time>
1314 <course>160.0</course>
1315 <speed>1.34</speed>
1316 </trkpt>
1317 <trkpt lat="50.8910184833" lon="13.9917610167">
1318 <ele>239.2</ele>
1319 <time>2012-09-10T12:10:13Z</time>
1320 <course>160.0</course>
1321 <speed>1.39</speed>
1322 </trkpt>
1323 <trkpt lat="50.8910043333" lon="13.9917689500">
1324 <ele>239.4</ele>
1325 <time>2012-09-10T12:10:15Z</time>
1326 <course>157.0</course>
1327 <speed>1.54</speed>
1328 </trkpt>
1329 <trkpt lat="50.8909921167" lon="13.9917727167">
1330 <ele>239.0</ele>
1331 <time>2012-09-10T12:10:15Z</time>
1332 <course>157.0</course>
1333 <speed>1.39</speed>
1334 </trkpt>
1335 <trkpt lat="50.8909820667" lon="13.9917817167">
1336 <ele>239.1</ele>
1337 <time>2012-09-10T12:10:17Z</time>
1338 <course>156.0</course>
1339 <speed>1.34</speed>
1340 </trkpt>
1341 <trkpt lat="50.8909677833" lon="13.9917910000">
1342 <ele>239.2</ele>
1343 <time>2012-09-10T12:10:18Z</time>
1344 <course>150.0</course>
1345 <speed>1.44</speed>
1346 </trkpt>
1347 <trkpt lat="50.8909624833" lon="13.9918020667">
1348 <ele>239.8</ele>
1349 <time>2012-09-10T12:10:19Z</time>
1350 <course>140.0</course>
1351 <speed>1.34</speed>
1352 </trkpt>
1353 <trkpt lat="50.8909471500" lon="13.9918078500">
1354 <ele>239.4</ele>
1355 <time>2012-09-10T12:10:20Z</time>
1356 <course>143.0</course>
1357 <speed>1.39</speed>
1358 </trkpt>
1359 <trkpt lat="50.8909352833" lon="13.9918185667">
1360 <ele>239.3</ele>
1361 <time>2012-09-10T12:10:20Z</time>
1362 <course>144.0</course>
1363 <speed>1.44</speed>
1364 </trkpt>
1365 <trkpt lat="50.8909244333" lon="13.9918063833">
1366 <ele>239.1</ele>
1367 <time>2012-09-10T12:10:21Z</time>
1368 <course>167.0</course>
1369 <speed>1.44</speed>
1370 </trkpt>
1371 <trkpt lat="50.8909146667" lon="13.9918102500">
1372 <ele>239.1</ele>
1373 <time>2012-09-10T12:10:23Z</time>
1374 <course>168.0</course>
1375 <speed>1.39</speed>
1376 </trkpt>
1377 <trkpt lat="50.8909060667" lon="13.9918178333">
1378 <ele>239.5</ele>
1379 <time>2012-09-10T12:10:24Z</time>
1380 <course>165.0</course>
1381 <speed>1.23</speed>
1382 </trkpt>
1383 <trkpt lat="50.8909007167" lon="13.9918287667">
1384 <ele>239.6</ele>
1385 <time>2012-09-10T12:10:25Z</time>
1386 <course>116.0</course>
1387 <speed>1.08</speed>
1388 </trkpt>
1389 <trkpt lat="50.8908996833" lon="13.9918514333">
1390 <ele>239.9</ele>
1391 <time>2012-09-10T12:10:26Z</time>
1392 <course>113.0</course>
1393 <speed>1.08</speed>
1394 </trkpt>
1395 <trkpt lat="50.8908939741" lon="13.9918625222">
1396 <ele>240.7</ele>
1397 <time>2012-09-10T12:10:27Z</time>
1398 <course>101.0</course>
1399 <speed>0.00</speed>
1400 </trkpt>
1401 <trkpt lat="50.8908939741" lon="13.9918625222">
1402 <ele>240.7</ele>
1403 <time>2012-09-10T12:10:36Z</time>
1404 <course>101.0</course>
1405 <speed>0.00</speed>
1406 </trkpt>
1407 <trkpt lat="50.8908883152" lon="13.9918565682">
1408 <ele>241.8</ele>
1409 <time>2012-09-10T12:10:38Z</time>
1410 <course>101.0</course>
1411 <speed>0.00</speed>
1412 </trkpt>
1413 <trkpt lat="50.8908883152" lon="13.9918565682">
1414 <ele>241.8</ele>
1415 <time>2012-09-10T12:10:47Z</time>
1416 <course>101.0</course>
1417 <speed>0.00</speed>
1418 </trkpt>
1419 <trkpt lat="50.8909026833" lon="13.9918440000">
1420 <ele>241.0</ele>
1421 <time>2012-09-10T12:10:49Z</time>
1422 <course>101.0</course>
1423 <speed>0.62</speed>
1424 </trkpt>
1425 <trkpt lat="50.8909161167" lon="13.9918351667">
1426 <ele>241.1</ele>
1427 <time>2012-09-10T12:10:50Z</time>
1428 <course>353.0</course>
1429 <speed>0.82</speed>
1430 </trkpt>
1431 <trkpt lat="50.8909258833" lon="13.9918316000">
1432 <ele>240.9</ele>
1433 <time>2012-09-10T12:10:51Z</time>
1434 <course>356.0</course>
1435 <speed>0.77</speed>
1436 </trkpt>
1437 <trkpt lat="50.8909354333" lon="13.9918246500">
1438 <ele>240.3</ele>
1439 <time>2012-09-10T12:10:52Z</time>
1440 <course>356.0</course>
1441 <speed>0.00</speed>
1442 </trkpt>
1443 <trkpt lat="50.8909354333" lon="13.9918246500">
1444 <ele>240.3</ele>
1445 <time>2012-09-10T12:10:57Z</time>
1446 <course>356.0</course>
1447 <speed>0.00</speed>
1448 </trkpt>
1449 <trkpt lat="50.8909471000" lon="13.9918252667">
1450 <ele>240.1</ele>
1451 <time>2012-09-10T12:10:58Z</time>
1452 <course>356.0</course>
1453 <speed>0.00</speed>
1454 </trkpt>
1455 <trkpt lat="50.8909471000" lon="13.9918252667">
1456 <ele>240.1</ele>
1457 <time>2012-09-10T12:10:58Z</time>
1458 <course>356.0</course>
1459 <speed>0.00</speed>
1460 </trkpt>
1461 <trkpt lat="50.8909442500" lon="13.9918204208">
1462 <ele>240.5</ele>
1463 <time>2012-09-10T12:11:00Z</time>
1464 <course>356.0</course>
1465 <speed>0.00</speed>
1466 </trkpt>
1467 <trkpt lat="50.8909442500" lon="13.9918204208">
1468 <ele>240.5</ele>
1469 <time>2012-09-10T12:11:03Z</time>
1470 <course>356.0</course>
1471 <speed>0.00</speed>
1472 </trkpt>
1473 <trkpt lat="50.8909362083" lon="13.9918244583">
1474 <ele>240.3</ele>
1475 <time>2012-09-10T12:11:04Z</time>
1476 <course>356.0</course>
1477 <speed>0.00</speed>
1478 </trkpt>
1479 <trkpt lat="50.8909362083" lon="13.9918244583">
1480 <ele>240.3</ele>
1481 <time>2012-09-10T12:11:05Z</time>
1482 <course>356.0</course>
1483 <speed>0.00</speed>
1484 </trkpt>
1485 <trkpt lat="50.8909297243" lon="13.9918101665">
1486 <ele>240.6</ele>
1487 <time>2012-09-10T12:11:08Z</time>
1488 <course>356.0</course>
1489 <speed>0.00</speed>
1490 </trkpt>
1491 <trkpt lat="50.8909297243" lon="13.9918101665">
1492 <ele>240.6</ele>
1493 <time>2012-09-10T12:12:38Z</time>
1494 <course>356.0</course>
1495 <speed>0.00</speed>
1496 </trkpt>
1497 <trkpt lat="50.8909403167" lon="13.9917863500">
1498 <ele>239.7</ele>
1499 <time>2012-09-10T12:12:39Z</time>
1500 <course>356.0</course>
1501 <speed>0.00</speed>
1502 </trkpt>
1503 <trkpt lat="50.8909427333" lon="13.9917654667">
1504 <ele>240.2</ele>
1505 <time>2012-09-10T12:12:40Z</time>
1506 <course>310.0</course>
1507 <speed>0.87</speed>
1508 </trkpt>
1509 <trkpt lat="50.8909454500" lon="13.9917475667">
1510 <ele>239.9</ele>
1511 <time>2012-09-10T12:12:40Z</time>
1512 <course>288.0</course>
1513 <speed>0.82</speed>
1514 </trkpt>
1515 <trkpt lat="50.8909854667" lon="13.9917344833">
1516 <ele>240.8</ele>
1517 <time>2012-09-10T12:12:41Z</time>
1518 <course>313.0</course>
1519 <speed>1.75</speed>
1520 </trkpt>
1521 <trkpt lat="50.8910241167" lon="13.9917016000">
1522 <ele>241.5</ele>
1523 <time>2012-09-10T12:12:42Z</time>
1524 <course>322.0</course>
1525 <speed>2.68</speed>
1526 </trkpt>
1527 <trkpt lat="50.8910456000" lon="13.9916721167">
1528 <ele>241.2</ele>
1529 <time>2012-09-10T12:12:44Z</time>
1530 <course>326.0</course>
1531 <speed>2.98</speed>
1532 </trkpt>
1533 <trkpt lat="50.8910803833" lon="13.9916478667">
1534 <ele>240.7</ele>
1535 <time>2012-09-10T12:12:45Z</time>
1536 <course>329.0</course>
1537 <speed>3.29</speed>
1538 </trkpt>
1539 <trkpt lat="50.8911045667" lon="13.9916339667">
1540 <ele>240.6</ele>
1541 <time>2012-09-10T12:12:46Z</time>
1542 <course>333.0</course>
1543 <speed>3.24</speed>
1544 </trkpt>
1545 <trkpt lat="50.8911279333" lon="13.9916221500">
1546 <ele>238.7</ele>
1547 <time>2012-09-10T12:12:46Z</time>
1548 <course>335.0</course>
1549 <speed>3.09</speed>
1550 </trkpt>
1551 <trkpt lat="50.8911514333" lon="13.9916287333">
1552 <ele>238.4</ele>
1553 <time>2012-09-10T12:12:47Z</time>
1554 <course>341.0</course>
1555 <speed>2.62</speed>
1556 </trkpt>
1557 <trkpt lat="50.8911660500" lon="13.9916168000">
1558 <ele>238.3</ele>
1559 <time>2012-09-10T12:12:48Z</time>
1560 <course>341.0</course>
1561 <speed>2.42</speed>
1562 </trkpt>
1563 <trkpt lat="50.8912131833" lon="13.9916176833">
1564 <ele>238.6</ele>
1565 <time>2012-09-10T12:12:50Z</time>
1566 <course>345.0</course>
1567 <speed>3.09</speed>
1568 </trkpt>
1569 <trkpt lat="50.8912656000" lon="13.9916057167">
1570 <ele>239.4</ele>
1571 <time>2012-09-10T12:12:51Z</time>
1572 <course>347.0</course>
1573 <speed>3.76</speed>
1574 </trkpt>
1575 <trkpt lat="50.8913042667" lon="13.9916007333">
1576 <ele>239.3</ele>
1577 <time>2012-09-10T12:12:52Z</time>
1578 <course>349.0</course>
1579 <speed>4.01</speed>
1580 </trkpt>
1581 <trkpt lat="50.8913475333" lon="13.9915939000">
1582 <ele>237.6</ele>
1583 <time>2012-09-10T12:12:52Z</time>
1584 <course>350.0</course>
1585 <speed>4.37</speed>
1586 </trkpt>
1587 <trkpt lat="50.8913854167" lon="13.9915851667">
1588 <ele>237.1</ele>
1589 <time>2012-09-10T12:12:53Z</time>
1590 <course>352.0</course>
1591 <speed>4.17</speed>
1592 </trkpt>
1593 <trkpt lat="50.8914150833" lon="13.9915807667">
1594 <ele>237.1</ele>
1595 <time>2012-09-10T12:12:54Z</time>
1596 <course>355.0</course>
1597 <speed>3.65</speed>
1598 </trkpt>
1599 <trkpt lat="50.8914389167" lon="13.9915820667">
1600 <ele>236.7</ele>
1601 <time>2012-09-10T12:12:56Z</time>
1602 <course>359.0</course>
1603 <speed>3.04</speed>
1604 </trkpt>
1605 <trkpt lat="50.8914592167" lon="13.9915789000">
1606 <ele>236.9</ele>
1607 <time>2012-09-10T12:12:57Z</time>
1608 <course>0.0</course>
1609 <speed>2.62</speed>
1610 </trkpt>
1611 <trkpt lat="50.8914739167" lon="13.9915710500">
1612 <ele>236.9</ele>
1613 <time>2012-09-10T12:12:58Z</time>
1614 <course>356.0</course>
1615 <speed>2.26</speed>
1616 </trkpt>
1617 <trkpt lat="50.8914873333" lon="13.9915668333">
1618 <ele>237.4</ele>
1619 <time>2012-09-10T12:12:59Z</time>
1620 <course>356.0</course>
1621 <speed>1.95</speed>
1622 </trkpt>
1623 <trkpt lat="50.8915044500" lon="13.9915693333">
1624 <ele>237.9</ele>
1625 <time>2012-09-10T12:12:59Z</time>
1626 <course>357.0</course>
1627 <speed>2.11</speed>
1628 </trkpt>
1629 <trkpt lat="50.8915272000" lon="13.9915416500">
1630 <ele>237.5</ele>
1631 <time>2012-09-10T12:13:00Z</time>
1632 <course>350.0</course>
1633 <speed>2.52</speed>
1634 </trkpt>
1635 <trkpt lat="50.8915565000" lon="13.9915179333">
1636 <ele>237.8</ele>
1637 <time>2012-09-10T12:13:01Z</time>
1638 <course>348.0</course>
1639 <speed>3.04</speed>
1640 </trkpt>
1641 <trkpt lat="50.8916054667" lon="13.9915200000">
1642 <ele>237.7</ele>
1643 <time>2012-09-10T12:13:03Z</time>
1644 <course>351.0</course>
1645 <speed>3.60</speed>
1646 </trkpt>
1647 <trkpt lat="50.8916429500" lon="13.9915083833">
1648 <ele>237.9</ele>
1649 <time>2012-09-10T12:13:04Z</time>
1650 <course>350.0</course>
1651 <speed>3.70</speed>
1652 </trkpt>
1653 <trkpt lat="50.8916697500" lon="13.9915219500">
1654 <ele>237.8</ele>
1655 <time>2012-09-10T12:13:05Z</time>
1656 <course>358.0</course>
1657 <speed>3.24</speed>
1658 </trkpt>
1659 <trkpt lat="50.8916870000" lon="13.9915128167">
1660 <ele>238.4</ele>
1661 <time>2012-09-10T12:13:05Z</time>
1662 <course>356.0</course>
1663 <speed>2.78</speed>
1664 </trkpt>
1665 <trkpt lat="50.8917019333" lon="13.9915107333">
1666 <ele>238.2</ele>
1667 <time>2012-09-10T12:13:06Z</time>
1668 <course>355.0</course>
1669 <speed>2.37</speed>
1670 </trkpt>
1671 <trkpt lat="50.8917177833" lon="13.9914900833">
1672 <ele>238.2</ele>
1673 <time>2012-09-10T12:13:07Z</time>
1674 <course>353.0</course>
1675 <speed>2.11</speed>
1676 </trkpt>
1677 <trkpt lat="50.8917333667" lon="13.9914765833">
1678 <ele>237.7</ele>
1679 <time>2012-09-10T12:13:09Z</time>
1680 <course>349.0</course>
1681 <speed>2.11</speed>
1682 </trkpt>
1683 <trkpt lat="50.8917515833" lon="13.9914697833">
1684 <ele>236.7</ele>
1685 <time>2012-09-10T12:13:10Z</time>
1686 <course>344.0</course>
1687 <speed>2.37</speed>
1688 </trkpt>
1689 <trkpt lat="50.8917709833" lon="13.9914577833">
1690 <ele>236.9</ele>
1691 <time>2012-09-10T12:13:11Z</time>
1692 <course>345.0</course>
1693 <speed>2.42</speed>
1694 </trkpt>
1695 <trkpt lat="50.8917943167" lon="13.9914575833">
1696 <ele>236.8</ele>
1697 <time>2012-09-10T12:13:12Z</time>
1698 <course>345.0</course>
1699 <speed>2.57</speed>
1700 </trkpt>
1701 <trkpt lat="50.8918187167" lon="13.9914439500">
1702 <ele>236.7</ele>
1703 <time>2012-09-10T12:13:12Z</time>
1704 <course>345.0</course>
1705 <speed>2.73</speed>
1706 </trkpt>
1707 <trkpt lat="50.8918614500" lon="13.9914156667">
1708 <ele>236.9</ele>
1709 <time>2012-09-10T12:13:13Z</time>
1710 <course>342.0</course>
1711 <speed>3.14</speed>
1712 </trkpt>
1713 <trkpt lat="50.8919014500" lon="13.9913931000">
1714 <ele>237.3</ele>
1715 <time>2012-09-10T12:13:15Z</time>
1716 <course>341.0</course>
1717 <speed>3.29</speed>
1718 </trkpt>
1719 <trkpt lat="50.8919259500" lon="13.9913627167">
1720 <ele>237.9</ele>
1721 <time>2012-09-10T12:13:16Z</time>
1722 <course>340.0</course>
1723 <speed>2.78</speed>
1724 </trkpt>
1725 <trkpt lat="50.8919607667" lon="13.9913453500">
1726 <ele>238.3</ele>
1727 <time>2012-09-10T12:13:17Z</time>
1728 <course>342.0</course>
1729 <speed>2.52</speed>
1730 </trkpt>
1731 <trkpt lat="50.8919754667" lon="13.9913346167">
1732 <ele>238.6</ele>
1733 <time>2012-09-10T12:13:18Z</time>
1734 <course>345.0</course>
1735 <speed>2.11</speed>
1736 </trkpt>
1737 <trkpt lat="50.8919982667" lon="13.9913173333">
1738 <ele>239.3</ele>
1739 <time>2012-09-10T12:13:18Z</time>
1740 <course>347.0</course>
1741 <speed>2.06</speed>
1742 </trkpt>
1743 <trkpt lat="50.8920187833" lon="13.9913143333">
1744 <ele>238.9</ele>
1745 <time>2012-09-10T12:13:19Z</time>
1746 <course>346.0</course>
1747 <speed>2.11</speed>
1748 </trkpt>
1749 <trkpt lat="50.8920339333" lon="13.9912989500">
1750 <ele>239.3</ele>
1751 <time>2012-09-10T12:13:20Z</time>
1752 <course>344.0</course>
1753 <speed>2.21</speed>
1754 </trkpt>
1755 <trkpt lat="50.8920645000" lon="13.9912985000">
1756 <ele>238.0</ele>
1757 <time>2012-09-10T12:13:22Z</time>
1758 <course>346.0</course>
1759 <speed>2.47</speed>
1760 </trkpt>
1761 <trkpt lat="50.8920962000" lon="13.9912867000">
1762 <ele>237.8</ele>
1763 <time>2012-09-10T12:13:23Z</time>
1764 <course>350.0</course>
1765 <speed>2.78</speed>
1766 </trkpt>
1767 <trkpt lat="50.8921090500" lon="13.9912631500">
1768 <ele>237.4</ele>
1769 <time>2012-09-10T12:13:24Z</time>
1770 <course>348.0</course>
1771 <speed>2.68</speed>
1772 </trkpt>
1773 <trkpt lat="50.8921264500" lon="13.9912456500">
1774 <ele>237.0</ele>
1775 <time>2012-09-10T12:13:24Z</time>
1776 <course>349.0</course>
1777 <speed>2.37</speed>
1778 </trkpt>
1779 <trkpt lat="50.8921411833" lon="13.9912127333">
1780 <ele>238.0</ele>
1781 <time>2012-09-10T12:13:26Z</time>
1782 <course>343.0</course>
1783 <speed>1.59</speed>
1784 </trkpt>
1785 <trkpt lat="50.8921412833" lon="13.9911981833">
1786 <ele>238.6</ele>
1787 <time>2012-09-10T12:13:28Z</time>
1788 <course>343.0</course>
1789 <speed>1.18</speed>
1790 </trkpt>
1791 <trkpt lat="50.8921376333" lon="13.9911791333">
1792 <ele>239.1</ele>
1793 <time>2012-09-10T12:13:30Z</time>
1794 <course>334.0</course>
1795 <speed>0.87</speed>
1796 </trkpt>
1797 <trkpt lat="50.8921437500" lon="13.9911702000">
1798 <ele>239.2</ele>
1799 <time>2012-09-10T12:13:30Z</time>
1800 <course>334.0</course>
1801 <speed>1.03</speed>
1802 </trkpt>
1803 <trkpt lat="50.8921452500" lon="13.9911570833">
1804 <ele>239.3</ele>
1805 <time>2012-09-10T12:13:31Z</time>
1806 <course>310.0</course>
1807 <speed>0.87</speed>
1808 </trkpt>
1809 <trkpt lat="50.8921503333" lon="13.9911392167">
1810 <ele>239.6</ele>
1811 <time>2012-09-10T12:13:31Z</time>
1812 <course>310.0</course>
1813 <speed>0.87</speed>
1814 </trkpt>
1815 <trkpt lat="50.8921380667" lon="13.9911078333">
1816 <ele>239.8</ele>
1817 <time>2012-09-10T12:13:33Z</time>
1818 <course>265.0</course>
1819 <speed>0.82</speed>
1820 </trkpt>
1821 <trkpt lat="50.8921225167" lon="13.9911006667">
1822 <ele>240.0</ele>
1823 <time>2012-09-10T12:13:33Z</time>
1824 <course>265.0</course>
1825 <speed>0.87</speed>
1826 </trkpt>
1827 <trkpt lat="50.8921165667" lon="13.9910776833">
1828 <ele>240.7</ele>
1829 <time>2012-09-10T12:13:36Z</time>
1830 <course>213.0</course>
1831 <speed>1.03</speed>
1832 </trkpt>
1833 <trkpt lat="50.8921007833" lon="13.9910793833">
1834 <ele>240.7</ele>
1835 <time>2012-09-10T12:13:36Z</time>
1836 <course>213.0</course>
1837 <speed>1.39</speed>
1838 </trkpt>
1839 <trkpt lat="50.8920703333" lon="13.9910800000">
1840 <ele>240.3</ele>
1841 <time>2012-09-10T12:13:37Z</time>
1842 <course>187.0</course>
1843 <speed>2.01</speed>
1844 </trkpt>
1845 <trkpt lat="50.8920428333" lon="13.9910847167">
1846 <ele>240.7</ele>
1847 <time>2012-09-10T12:13:37Z</time>
1848 <course>187.0</course>
1849 <speed>2.42</speed>
1850 </trkpt>
1851 <trkpt lat="50.8920113667" lon="13.9910937833">
1852 <ele>240.3</ele>
1853 <time>2012-09-10T12:13:38Z</time>
1854 <course>182.0</course>
1855 <speed>2.78</speed>
1856 </trkpt>
1857 <trkpt lat="50.8919760500" lon="13.9911104000">
1858 <ele>239.3</ele>
1859 <time>2012-09-10T12:13:39Z</time>
1860 <course>179.0</course>
1861 <speed>3.24</speed>
1862 </trkpt>
1863 <trkpt lat="50.8919317667" lon="13.9911032000">
1864 <ele>238.3</ele>
1865 <time>2012-09-10T12:13:41Z</time>
1866 <course>182.0</course>
1867 <speed>3.81</speed>
1868 </trkpt>
1869 <trkpt lat="50.8918775333" lon="13.9911043667">
1870 <ele>237.8</ele>
1871 <time>2012-09-10T12:13:42Z</time>
1872 <course>179.0</course>
1873 <speed>4.48</speed>
1874 </trkpt>
1875 <trkpt lat="50.8918246667" lon="13.9911027833">
1876 <ele>238.0</ele>
1877 <time>2012-09-10T12:13:43Z</time>
1878 <course>180.0</course>
1879 <speed>4.89</speed>
1880 </trkpt>
1881 <trkpt lat="50.8917655000" lon="13.9910989667">
1882 <ele>238.0</ele>
1883 <time>2012-09-10T12:13:43Z</time>
1884 <course>181.0</course>
1885 <speed>5.25</speed>
1886 </trkpt>
1887 <trkpt lat="50.8917066500" lon="13.9911094167">
1888 <ele>237.1</ele>
1889 <time>2012-09-10T12:13:44Z</time>
1890 <course>180.0</course>
1891 <speed>5.71</speed>
1892 </trkpt>
1893 <trkpt lat="50.8916461167" lon="13.9910927000">
1894 <ele>236.9</ele>
1895 <time>2012-09-10T12:13:45Z</time>
1896 <course>182.0</course>
1897 <speed>5.97</speed>
1898 </trkpt>
1899 <trkpt lat="50.8915625833" lon="13.9910851333">
1900 <ele>237.4</ele>
1901 <time>2012-09-10T12:13:47Z</time>
1902 <course>183.0</course>
1903 <speed>7.56</speed>
1904 </trkpt>
1905 <trkpt lat="50.8914903167" lon="13.9910672000">
1906 <ele>236.9</ele>
1907 <time>2012-09-10T12:13:48Z</time>
1908 <course>183.0</course>
1909 <speed>7.61</speed>
1910 </trkpt>
1911 <trkpt lat="50.8914110333" lon="13.9910607000">
1912 <ele>236.3</ele>
1913 <time>2012-09-10T12:13:49Z</time>
1914 <course>183.0</course>
1915 <speed>7.92</speed>
1916 </trkpt>
1917 <trkpt lat="50.8913228833" lon="13.9910511167">
1918 <ele>236.0</ele>
1919 <time>2012-09-10T12:13:50Z</time>
1920 <course>182.0</course>
1921 <speed>8.28</speed>
1922 </trkpt>
1923 <trkpt lat="50.8912276833" lon="13.9910434333">
1924 <ele>236.4</ele>
1925 <time>2012-09-10T12:13:50Z</time>
1926 <course>182.0</course>
1927 <speed>9.21</speed>
1928 </trkpt>
1929 <trkpt lat="50.8911254833" lon="13.9910317500">
1930 <ele>237.7</ele>
1931 <time>2012-09-10T12:13:51Z</time>
1932 <course>182.0</course>
1933 <speed>10.08</speed>
1934 </trkpt>
1935 <trkpt lat="50.8910225333" lon="13.9910300167">
1936 <ele>237.5</ele>
1937 <time>2012-09-10T12:13:52Z</time>
1938 <course>182.0</course>
1939 <speed>10.75</speed>
1940 </trkpt>
1941 <trkpt lat="50.8909181333" lon="13.9910244333">
1942 <ele>237.4</ele>
1943 <time>2012-09-10T12:13:54Z</time>
1944 <course>182.0</course>
1945 <speed>11.27</speed>
1946 </trkpt>
1947 <trkpt lat="50.8908216667" lon="13.9910167000">
1948 <ele>237.5</ele>
1949 <time>2012-09-10T12:13:55Z</time>
1950 <course>184.0</course>
1951 <speed>10.96</speed>
1952 </trkpt>
1953 <trkpt lat="50.8907389000" lon="13.9910048000">
1954 <ele>237.5</ele>
1955 <time>2012-09-10T12:13:56Z</time>
1956 <course>186.0</course>
1957 <speed>10.29</speed>
1958 </trkpt>
1959 <trkpt lat="50.8906417167" lon="13.9909815333">
1960 <ele>238.0</ele>
1961 <time>2012-09-10T12:13:56Z</time>
1962 <course>189.0</course>
1963 <speed>10.29</speed>
1964 </trkpt>
1965 <trkpt lat="50.8905385000" lon="13.9909221167">
1966 <ele>237.8</ele>
1967 <time>2012-09-10T12:13:57Z</time>
1968 <course>196.0</course>
1969 <speed>10.65</speed>
1970 </trkpt>
1971 <trkpt lat="50.8904369500" lon="13.9908538833">
1972 <ele>237.6</ele>
1973 <time>2012-09-10T12:13:58Z</time>
1974 <course>200.0</course>
1975 <speed>11.01</speed>
1976 </trkpt>
1977 <trkpt lat="50.8903436333" lon="13.9907824167">
1978 <ele>238.1</ele>
1979 <time>2012-09-10T12:14:00Z</time>
1980 <course>205.0</course>
1981 <speed>11.06</speed>
1982 </trkpt>
1983 <trkpt lat="50.8902476833" lon="13.9906852000">
1984 <ele>238.5</ele>
1985 <time>2012-09-10T12:14:01Z</time>
1986 <course>210.0</course>
1987 <speed>11.27</speed>
1988 </trkpt>
1989 <trkpt lat="50.8901567000" lon="13.9905951000">
1990 <ele>239.1</ele>
1991 <time>2012-09-10T12:14:02Z</time>
1992 <course>214.0</course>
1993 <speed>11.16</speed>
1994 </trkpt>
1995 <trkpt lat="50.8900794833" lon="13.9904845000">
1996 <ele>239.5</ele>
1997 <time>2012-09-10T12:14:02Z</time>
1998 <course>220.0</course>
1999 <speed>11.32</speed>
2000 </trkpt>
2001 <trkpt lat="50.8900043667" lon="13.9903762500">
2002 <ele>239.8</ele>
2003 <time>2012-09-10T12:14:03Z</time>
2004 <course>222.0</course>
2005 <speed>11.37</speed>
2006 </trkpt>
2007 <trkpt lat="50.8899270833" lon="13.9902727333">
2008 <ele>239.6</ele>
2009 <time>2012-09-10T12:14:04Z</time>
2010 <course>222.0</course>
2011 <speed>11.47</speed>
2012 </trkpt>
2013 <trkpt lat="50.8898445000" lon="13.9901352333">
2014 <ele>239.4</ele>
2015 <time>2012-09-10T12:14:06Z</time>
2016 <course>224.0</course>
2017 <speed>11.78</speed>
2018 </trkpt>
2019 <trkpt lat="50.8897708333" lon="13.9900234000">
2020 <ele>239.3</ele>
2021 <time>2012-09-10T12:14:07Z</time>
2022 <course>223.0</course>
2023 <speed>11.42</speed>
2024 </trkpt>
2025 <trkpt lat="50.8897014167" lon="13.9899413500">
2026 <ele>239.7</ele>
2027 <time>2012-09-10T12:14:08Z</time>
2028 <course>221.0</course>
2029 <speed>10.49</speed>
2030 </trkpt>
2031 <trkpt lat="50.8896320333" lon="13.9898568667">
2032 <ele>239.9</ele>
2033 <time>2012-09-10T12:14:09Z</time>
2034 <course>217.0</course>
2035 <speed>9.98</speed>
2036 </trkpt>
2037 <trkpt lat="50.8895362667" lon="13.9897774500">
2038 <ele>239.7</ele>
2039 <time>2012-09-10T12:14:09Z</time>
2040 <course>211.0</course>
2041 <speed>10.29</speed>
2042 </trkpt>
2043 <trkpt lat="50.8894441500" lon="13.9897211500">
2044 <ele>239.8</ele>
2045 <time>2012-09-10T12:14:10Z</time>
2046 <course>205.0</course>
2047 <speed>10.60</speed>
2048 </trkpt>
2049 <trkpt lat="50.8893365167" lon="13.9896797500">
2050 <ele>239.8</ele>
2051 <time>2012-09-10T12:14:11Z</time>
2052 <course>198.0</course>
2053 <speed>11.27</speed>
2054 </trkpt>
2055 <trkpt lat="50.8892371667" lon="13.9896372333">
2056 <ele>240.2</ele>
2057 <time>2012-09-10T12:14:13Z</time>
2058 <course>196.0</course>
2059 <speed>11.57</speed>
2060 </trkpt>
2061 <trkpt lat="50.8891205667" lon="13.9895902500">
2062 <ele>239.8</ele>
2063 <time>2012-09-10T12:14:14Z</time>
2064 <course>196.0</course>
2065 <speed>12.14</speed>
2066 </trkpt>
2067 <trkpt lat="50.8890233833" lon="13.9895590333">
2068 <ele>240.0</ele>
2069 <time>2012-09-10T12:14:15Z</time>
2070 <course>196.0</course>
2071 <speed>12.19</speed>
2072 </trkpt>
2073 <trkpt lat="50.8889101333" lon="13.9895153833">
2074 <ele>240.2</ele>
2075 <time>2012-09-10T12:14:15Z</time>
2076 <course>195.0</course>
2077 <speed>12.60</speed>
2078 </trkpt>
2079 <trkpt lat="50.8888191167" lon="13.9894749833">
2080 <ele>240.8</ele>
2081 <time>2012-09-10T12:14:16Z</time>
2082 <course>196.0</course>
2083 <speed>12.09</speed>
2084 </trkpt>
2085 <trkpt lat="50.8887128000" lon="13.9894199500">
2086 <ele>242.1</ele>
2087 <time>2012-09-10T12:14:17Z</time>
2088 <course>197.0</course>
2089 <speed>11.47</speed>
2090 </trkpt>
2091 <trkpt lat="50.8886125667" lon="13.9893735167">
2092 <ele>241.8</ele>
2093 <time>2012-09-10T12:14:19Z</time>
2094 <course>197.0</course>
2095 <speed>11.47</speed>
2096 </trkpt>
2097 <trkpt lat="50.8885178333" lon="13.9893336500">
2098 <ele>242.0</ele>
2099 <time>2012-09-10T12:14:20Z</time>
2100 <course>197.0</course>
2101 <speed>11.32</speed>
2102 </trkpt>
2103 <trkpt lat="50.8884161167" lon="13.9892902333">
2104 <ele>242.0</ele>
2105 <time>2012-09-10T12:14:21Z</time>
2106 <course>197.0</course>
2107 <speed>11.21</speed>
2108 </trkpt>
2109 <trkpt lat="50.8882985500" lon="13.9892403333">
2110 <ele>242.2</ele>
2111 <time>2012-09-10T12:14:22Z</time>
2112 <course>197.0</course>
2113 <speed>11.63</speed>
2114 </trkpt>
2115 <trkpt lat="50.8881945167" lon="13.9891946333">
2116 <ele>242.3</ele>
2117 <time>2012-09-10T12:14:22Z</time>
2118 <course>197.0</course>
2119 <speed>11.88</speed>
2120 </trkpt>
2121 <trkpt lat="50.8880883167" lon="13.9891391333">
2122 <ele>242.5</ele>
2123 <time>2012-09-10T12:14:23Z</time>
2124 <course>198.0</course>
2125 <speed>12.29</speed>
2126 </trkpt>
2127 <trkpt lat="50.8879895833" lon="13.9890486833">
2128 <ele>242.9</ele>
2129 <time>2012-09-10T12:14:25Z</time>
2130 <course>203.0</course>
2131 <speed>12.40</speed>
2132 </trkpt>
2133 <trkpt lat="50.8878924500" lon="13.9889570333">
2134 <ele>242.7</ele>
2135 <time>2012-09-10T12:14:26Z</time>
2136 <course>208.0</course>
2137 <speed>12.55</speed>
2138 </trkpt>
2139 <trkpt lat="50.8877792000" lon="13.9888669333">
2140 <ele>242.9</ele>
2141 <time>2012-09-10T12:14:27Z</time>
2142 <course>208.0</course>
2143 <speed>12.96</speed>
2144 </trkpt>
2145 <trkpt lat="50.8876759000" lon="13.9887834333">
2146 <ele>242.9</ele>
2147 <time>2012-09-10T12:14:28Z</time>
2148 <course>208.0</course>
2149 <speed>13.02</speed>
2150 </trkpt>
2151 <trkpt lat="50.8875468833" lon="13.9887010167">
2152 <ele>242.7</ele>
2153 <time>2012-09-10T12:14:28Z</time>
2154 <course>204.0</course>
2155 <speed>14.04</speed>
2156 </trkpt>
2157 <trkpt lat="50.8874052333" lon="13.9886239833">
2158 <ele>243.3</ele>
2159 <time>2012-09-10T12:14:29Z</time>
2160 <course>202.0</course>
2161 <speed>14.76</speed>
2162 </trkpt>
2163 <trkpt lat="50.8872646333" lon="13.9885258000">
2164 <ele>243.2</ele>
2165 <time>2012-09-10T12:14:30Z</time>
2166 <course>201.0</course>
2167 <speed>15.38</speed>
2168 </trkpt>
2169 <trkpt lat="50.8871287667" lon="13.9884289833">
2170 <ele>243.1</ele>
2171 <time>2012-09-10T12:14:32Z</time>
2172 <course>203.0</course>
2173 <speed>15.43</speed>
2174 </trkpt>
2175 <trkpt lat="50.8869939167" lon="13.9883289500">
2176 <ele>243.0</ele>
2177 <time>2012-09-10T12:14:33Z</time>
2178 <course>203.0</course>
2179 <speed>15.74</speed>
2180 </trkpt>
2181 <trkpt lat="50.8868576667" lon="13.9882216333">
2182 <ele>243.0</ele>
2183 <time>2012-09-10T12:14:34Z</time>
2184 <course>205.0</course>
2185 <speed>16.10</speed>
2186 </trkpt>
2187 <trkpt lat="50.8867317833" lon="13.9881048667">
2188 <ele>242.6</ele>
2189 <time>2012-09-10T12:14:34Z</time>
2190 <course>207.0</course>
2191 <speed>16.36</speed>
2192 </trkpt>
2193 <trkpt lat="50.8866068833" lon="13.9879912167">
2194 <ele>242.2</ele>
2195 <time>2012-09-10T12:14:35Z</time>
2196 <course>208.0</course>
2197 <speed>16.31</speed>
2198 </trkpt>
2199 <trkpt lat="50.8864669167" lon="13.9878886000">
2200 <ele>242.6</ele>
2201 <time>2012-09-10T12:14:36Z</time>
2202 <course>207.0</course>
2203 <speed>16.67</speed>
2204 </trkpt>
2205 <trkpt lat="50.8863473333" lon="13.9877699000">
2206 <ele>242.7</ele>
2207 <time>2012-09-10T12:14:38Z</time>
2208 <course>208.0</course>
2209 <speed>16.67</speed>
2210 </trkpt>
2211 <trkpt lat="50.8862156000" lon="13.9876504333">
2212 <ele>242.6</ele>
2213 <time>2012-09-10T12:14:39Z</time>
2214 <course>209.0</course>
2215 <speed>16.51</speed>
2216 </trkpt>
2217 <trkpt lat="50.8861023333" lon="13.9875260667">
2218 <ele>242.5</ele>
2219 <time>2012-09-10T12:14:40Z</time>
2220 <course>212.0</course>
2221 <speed>16.41</speed>
2222 </trkpt>
2223 <trkpt lat="50.8859993000" lon="13.9873766000">
2224 <ele>242.3</ele>
2225 <time>2012-09-10T12:14:41Z</time>
2226 <course>216.0</course>
2227 <speed>16.10</speed>
2228 </trkpt>
2229 <trkpt lat="50.8858997500" lon="13.9872164667">
2230 <ele>242.5</ele>
2231 <time>2012-09-10T12:14:41Z</time>
2232 <course>221.0</course>
2233 <speed>16.00</speed>
2234 </trkpt>
2235 <trkpt lat="50.8857734667" lon="13.9870361333">
2236 <ele>242.6</ele>
2237 <time>2012-09-10T12:14:42Z</time>
2238 <course>222.0</course>
2239 <speed>16.41</speed>
2240 </trkpt>
2241 <trkpt lat="50.8856691500" lon="13.9868621833">
2242 <ele>242.5</ele>
2243 <time>2012-09-10T12:14:43Z</time>
2244 <course>226.0</course>
2245 <speed>16.15</speed>
2246 </trkpt>
2247 <trkpt lat="50.8855925333" lon="13.9866693000">
2248 <ele>242.5</ele>
2249 <time>2012-09-10T12:14:45Z</time>
2250 <course>232.0</course>
2251 <speed>15.84</speed>
2252 </trkpt>
2253 <trkpt lat="50.8855049000" lon="13.9864745667">
2254 <ele>242.5</ele>
2255 <time>2012-09-10T12:14:46Z</time>
2256 <course>234.0</course>
2257 <speed>15.90</speed>
2258 </trkpt>
2259 <trkpt lat="50.8854364667" lon="13.9862793667">
2260 <ele>242.7</ele>
2261 <time>2012-09-10T12:14:47Z</time>
2262 <course>238.0</course>
2263 <speed>15.59</speed>
2264 </trkpt>
2265 <trkpt lat="50.8853786500" lon="13.9860875167">
2266 <ele>242.4</ele>
2267 <time>2012-09-10T12:14:47Z</time>
2268 <course>240.0</course>
2269 <speed>15.02</speed>
2270 </trkpt>
2271 <trkpt lat="50.8853296167" lon="13.9859087333">
2272 <ele>242.8</ele>
2273 <time>2012-09-10T12:14:48Z</time>
2274 <course>241.0</course>
2275 <speed>14.61</speed>
2276 </trkpt>
2277 <trkpt lat="50.8852650167" lon="13.9857265167">
2278 <ele>242.8</ele>
2279 <time>2012-09-10T12:14:49Z</time>
2280 <course>240.0</course>
2281 <speed>14.66</speed>
2282 </trkpt>
2283 <trkpt lat="50.8851929500" lon="13.9855512000">
2284 <ele>242.9</ele>
2285 <time>2012-09-10T12:14:51Z</time>
2286 <course>236.0</course>
2287 <speed>14.40</speed>
2288 </trkpt>
2289 <trkpt lat="50.8851127667" lon="13.9853845333">
2290 <ele>242.7</ele>
2291 <time>2012-09-10T12:14:52Z</time>
2292 <course>235.0</course>
2293 <speed>14.56</speed>
2294 </trkpt>
2295 <trkpt lat="50.8850176833" lon="13.9852436000">
2296 <ele>242.9</ele>
2297 <time>2012-09-10T12:14:53Z</time>
2298 <course>229.0</course>
2299 <speed>14.76</speed>
2300 </trkpt>
2301 <trkpt lat="50.8849259333" lon="13.9850608500">
2302 <ele>243.0</ele>
2303 <time>2012-09-10T12:14:53Z</time>
2304 <course>230.0</course>
2305 <speed>15.64</speed>
2306 </trkpt>
2307 <trkpt lat="50.8848612500" lon="13.9848560833">
2308 <ele>243.5</ele>
2309 <time>2012-09-10T12:14:54Z</time>
2310 <course>234.0</course>
2311 <speed>15.90</speed>
2312 </trkpt>
2313 <trkpt lat="50.8847882167" lon="13.9846413500">
2314 <ele>243.4</ele>
2315 <time>2012-09-10T12:14:55Z</time>
2316 <course>238.0</course>
2317 <speed>16.26</speed>
2318 </trkpt>
2319 <trkpt lat="50.8847264833" lon="13.9844253000">
2320 <ele>243.7</ele>
2321 <time>2012-09-10T12:14:57Z</time>
2322 <course>241.0</course>
2323 <speed>16.51</speed>
2324 </trkpt>
2325 <trkpt lat="50.8846720333" lon="13.9841932167">
2326 <ele>243.3</ele>
2327 <time>2012-09-10T12:14:58Z</time>
2328 <course>243.0</course>
2329 <speed>16.92</speed>
2330 </trkpt>
2331 <trkpt lat="50.8846102167" lon="13.9840031167">
2332 <ele>243.1</ele>
2333 <time>2012-09-10T12:14:59Z</time>
2334 <course>245.0</course>
2335 <speed>16.77</speed>
2336 </trkpt>
2337 <trkpt lat="50.8845423500" lon="13.9837762167">
2338 <ele>243.2</ele>
2339 <time>2012-09-10T12:15:00Z</time>
2340 <course>244.0</course>
2341 <speed>16.92</speed>
2342 </trkpt>
2343 <trkpt lat="50.8844717833" lon="13.9835535500">
2344 <ele>243.3</ele>
2345 <time>2012-09-10T12:15:00Z</time>
2346 <course>244.0</course>
2347 <speed>16.98</speed>
2348 </trkpt>
2349 <trkpt lat="50.8844138333" lon="13.9833425833">
2350 <ele>243.1</ele>
2351 <time>2012-09-10T12:15:01Z</time>
2352 <course>244.0</course>
2353 <speed>16.56</speed>
2354 </trkpt>
2355 <trkpt lat="50.8843513333" lon="13.9831250167">
2356 <ele>243.3</ele>
2357 <time>2012-09-10T12:15:02Z</time>
2358 <course>244.0</course>
2359 <speed>16.41</speed>
2360 </trkpt>
2361 <trkpt lat="50.8842650167" lon="13.9828955000">
2362 <ele>243.5</ele>
2363 <time>2012-09-10T12:15:04Z</time>
2364 <course>242.0</course>
2365 <speed>16.20</speed>
2366 </trkpt>
2367 <trkpt lat="50.8841804833" lon="13.9827218000">
2368 <ele>243.3</ele>
2369 <time>2012-09-10T12:15:05Z</time>
2370 <course>237.0</course>
2371 <speed>15.48</speed>
2372 </trkpt>
2373 <trkpt lat="50.8840936500" lon="13.9825566833">
2374 <ele>243.3</ele>
2375 <time>2012-09-10T12:15:06Z</time>
2376 <course>233.0</course>
2377 <speed>15.18</speed>
2378 </trkpt>
2379 <trkpt lat="50.8840023667" lon="13.9824050833">
2380 <ele>243.2</ele>
2381 <time>2012-09-10T12:15:06Z</time>
2382 <course>229.0</course>
2383 <speed>14.76</speed>
2384 </trkpt>
2385 <trkpt lat="50.8839074167" lon="13.9822772500">
2386 <ele>243.1</ele>
2387 <time>2012-09-10T12:15:07Z</time>
2388 <course>224.0</course>
2389 <speed>14.71</speed>
2390 </trkpt>
2391 <trkpt lat="50.8838122167" lon="13.9821438500">
2392 <ele>242.9</ele>
2393 <time>2012-09-10T12:15:08Z</time>
2394 <course>222.0</course>
2395 <speed>14.51</speed>
2396 </trkpt>
2397 <trkpt lat="50.8837116333" lon="13.9820094667">
2398 <ele>243.0</ele>
2399 <time>2012-09-10T12:15:10Z</time>
2400 <course>221.0</course>
2401 <speed>14.35</speed>
2402 </trkpt>
2403 <trkpt lat="50.8836273333" lon="13.9819182333">
2404 <ele>243.0</ele>
2405 <time>2012-09-10T12:15:11Z</time>
2406 <course>219.0</course>
2407 <speed>13.12</speed>
2408 </trkpt>
2409 <trkpt lat="50.8835243333" lon="13.9818114000">
2410 <ele>243.3</ele>
2411 <time>2012-09-10T12:15:12Z</time>
2412 <course>218.0</course>
2413 <speed>12.50</speed>
2414 </trkpt>
2415 <trkpt lat="50.8834490000" lon="13.9816932500">
2416 <ele>242.5</ele>
2417 <time>2012-09-10T12:15:13Z</time>
2418 <course>221.0</course>
2419 <speed>11.68</speed>
2420 </trkpt>
2421 <trkpt lat="50.8833795000" lon="13.9816410167">
2422 <ele>241.0</ele>
2423 <time>2012-09-10T12:15:13Z</time>
2424 <course>224.0</course>
2425 <speed>10.34</speed>
2426 </trkpt>
2427 <trkpt lat="50.8833261333" lon="13.9815256833">
2428 <ele>240.4</ele>
2429 <time>2012-09-10T12:15:14Z</time>
2430 <course>234.0</course>
2431 <speed>9.77</speed>
2432 </trkpt>
2433 <trkpt lat="50.8833098000" lon="13.9814207167">
2434 <ele>239.9</ele>
2435 <time>2012-09-10T12:15:16Z</time>
2436 <course>244.0</course>
2437 <speed>8.69</speed>
2438 </trkpt>
2439 <trkpt lat="50.8833144333" lon="13.9813116667">
2440 <ele>239.5</ele>
2441 <time>2012-09-10T12:15:17Z</time>
2442 <course>256.0</course>
2443 <speed>8.03</speed>
2444 </trkpt>
2445 <trkpt lat="50.8833156833" lon="13.9812311833">
2446 <ele>239.5</ele>
2447 <time>2012-09-10T12:15:18Z</time>
2448 <course>269.0</course>
2449 <speed>7.36</speed>
2450 </trkpt>
2451 <trkpt lat="50.8833331167" lon="13.9811343000">
2452 <ele>240.1</ele>
2453 <time>2012-09-10T12:15:19Z</time>
2454 <course>280.0</course>
2455 <speed>6.94</speed>
2456 </trkpt>
2457 <trkpt lat="50.8833585000" lon="13.9810381500">
2458 <ele>240.6</ele>
2459 <time>2012-09-10T12:15:19Z</time>
2460 <course>288.0</course>
2461 <speed>6.94</speed>
2462 </trkpt>
2463 <trkpt lat="50.8834008500" lon="13.9809742667">
2464 <ele>240.5</ele>
2465 <time>2012-09-10T12:15:20Z</time>
2466 <course>298.0</course>
2467 <speed>6.58</speed>
2468 </trkpt>
2469 <trkpt lat="50.8834565167" lon="13.9808979500">
2470 <ele>240.6</ele>
2471 <time>2012-09-10T12:15:21Z</time>
2472 <course>308.0</course>
2473 <speed>6.84</speed>
2474 </trkpt>
2475 <trkpt lat="50.8835219833" lon="13.9808182000">
2476 <ele>240.7</ele>
2477 <time>2012-09-10T12:15:23Z</time>
2478 <course>311.0</course>
2479 <speed>7.25</speed>
2480 </trkpt>
2481 <trkpt lat="50.8835790333" lon="13.9807335167">
2482 <ele>240.9</ele>
2483 <time>2012-09-10T12:15:24Z</time>
2484 <course>304.0</course>
2485 <speed>8.23</speed>
2486 </trkpt>
2487 <trkpt lat="50.8835978833" lon="13.9805939667">
2488 <ele>240.5</ele>
2489 <time>2012-09-10T12:15:25Z</time>
2490 <course>291.0</course>
2491 <speed>8.69</speed>
2492 </trkpt>
2493 <trkpt lat="50.8836210500" lon="13.9804706667">
2494 <ele>240.5</ele>
2495 <time>2012-09-10T12:15:25Z</time>
2496 <course>288.0</course>
2497 <speed>8.64</speed>
2498 </trkpt>
2499 <trkpt lat="50.8836093167" lon="13.9803087167">
2500 <ele>240.7</ele>
2501 <time>2012-09-10T12:15:26Z</time>
2502 <course>276.0</course>
2503 <speed>9.72</speed>
2504 </trkpt>
2505 <trkpt lat="50.8836013500" lon="13.9801465833">
2506 <ele>241.0</ele>
2507 <time>2012-09-10T12:15:27Z</time>
2508 <course>272.0</course>
2509 <speed>10.65</speed>
2510 </trkpt>
2511 <trkpt lat="50.8836152333" lon="13.9799787833">
2512 <ele>240.9</ele>
2513 <time>2012-09-10T12:15:29Z</time>
2514 <course>274.0</course>
2515 <speed>11.37</speed>
2516 </trkpt>
2517 <trkpt lat="50.8836309500" lon="13.9798160500">
2518 <ele>241.1</ele>
2519 <time>2012-09-10T12:15:30Z</time>
2520 <course>277.0</course>
2521 <speed>11.37</speed>
2522 </trkpt>
2523 <trkpt lat="50.8836724333" lon="13.9796575167">
2524 <ele>240.8</ele>
2525 <time>2012-09-10T12:15:31Z</time>
2526 <course>281.0</course>
2527 <speed>11.83</speed>
2528 </trkpt>
2529 <trkpt lat="50.8836963833" lon="13.9794955833">
2530 <ele>241.0</ele>
2531 <time>2012-09-10T12:15:32Z</time>
2532 <course>282.0</course>
2533 <speed>11.83</speed>
2534 </trkpt>
2535 <trkpt lat="50.8837251833" lon="13.9793148833">
2536 <ele>241.1</ele>
2537 <time>2012-09-10T12:15:32Z</time>
2538 <course>284.0</course>
2539 <speed>12.71</speed>
2540 </trkpt>
2541 <trkpt lat="50.8837534000" lon="13.9791281833">
2542 <ele>240.8</ele>
2543 <time>2012-09-10T12:15:33Z</time>
2544 <course>281.0</course>
2545 <speed>12.50</speed>
2546 </trkpt>
2547 <trkpt lat="50.8837494167" lon="13.9789375333">
2548 <ele>240.7</ele>
2549 <time>2012-09-10T12:15:34Z</time>
2550 <course>275.0</course>
2551 <speed>12.29</speed>
2552 </trkpt>
2553 <trkpt lat="50.8837476000" lon="13.9787355167">
2554 <ele>241.0</ele>
2555 <time>2012-09-10T12:15:36Z</time>
2556 <course>271.0</course>
2557 <speed>12.66</speed>
2558 </trkpt>
2559 <trkpt lat="50.8837346833" lon="13.9785524333">
2560 <ele>241.2</ele>
2561 <time>2012-09-10T12:15:37Z</time>
2562 <course>267.0</course>
2563 <speed>12.45</speed>
2564 </trkpt>
2565 <trkpt lat="50.8837042500" lon="13.9783642667">
2566 <ele>241.2</ele>
2567 <time>2012-09-10T12:15:38Z</time>
2568 <course>261.0</course>
2569 <speed>12.76</speed>
2570 </trkpt>
2571 <trkpt lat="50.8836548833" lon="13.9781589333">
2572 <ele>241.1</ele>
2573 <time>2012-09-10T12:15:38Z</time>
2574 <course>256.0</course>
2575 <speed>13.58</speed>
2576 </trkpt>
2577 <trkpt lat="50.8835904333" lon="13.9779634833">
2578 <ele>241.4</ele>
2579 <time>2012-09-10T12:15:39Z</time>
2580 <course>248.0</course>
2581 <speed>13.89</speed>
2582 </trkpt>
2583 <trkpt lat="50.8835392667" lon="13.9777707667">
2584 <ele>241.4</ele>
2585 <time>2012-09-10T12:15:40Z</time>
2586 <course>247.0</course>
2587 <speed>14.15</speed>
2588 </trkpt>
2589 <trkpt lat="50.8834566000" lon="13.9775813500">
2590 <ele>241.8</ele>
2591 <time>2012-09-10T12:15:42Z</time>
2592 <course>241.0</course>
2593 <speed>14.66</speed>
2594 </trkpt>
2595 <trkpt lat="50.8833557667" lon="13.9773726667">
2596 <ele>242.5</ele>
2597 <time>2012-09-10T12:15:43Z</time>
2598 <course>238.0</course>
2599 <speed>15.23</speed>
2600 </trkpt>
2601 <trkpt lat="50.8832912500" lon="13.9771896167">
2602 <ele>242.3</ele>
2603 <time>2012-09-10T12:15:44Z</time>
2604 <course>239.0</course>
2605 <speed>15.33</speed>
2606 </trkpt>
2607 <trkpt lat="50.8832269667" lon="13.9769884333">
2608 <ele>242.7</ele>
2609 <time>2012-09-10T12:15:44Z</time>
2610 <course>241.0</course>
2611 <speed>15.33</speed>
2612 </trkpt>
2613 <trkpt lat="50.8831524833" lon="13.9768174000">
2614 <ele>243.1</ele>
2615 <time>2012-09-10T12:15:45Z</time>
2616 <course>239.0</course>
2617 <speed>15.02</speed>
2618 </trkpt>
2619 <trkpt lat="50.8830911833" lon="13.9766350167">
2620 <ele>243.1</ele>
2621 <time>2012-09-10T12:15:46Z</time>
2622 <course>238.0</course>
2623 <speed>14.71</speed>
2624 </trkpt>
2625 <trkpt lat="50.8830214167" lon="13.9764605333">
2626 <ele>243.7</ele>
2627 <time>2012-09-10T12:15:48Z</time>
2628 <course>234.0</course>
2629 <speed>14.51</speed>
2630 </trkpt>
2631 <trkpt lat="50.8829225167" lon="13.9763339500">
2632 <ele>244.6</ele>
2633 <time>2012-09-10T12:15:49Z</time>
2634 <course>224.0</course>
2635 <speed>13.63</speed>
2636 </trkpt>
2637 <trkpt lat="50.8828270667" lon="13.9762371833">
2638 <ele>244.2</ele>
2639 <time>2012-09-10T12:15:50Z</time>
2640 <course>219.0</course>
2641 <speed>13.27</speed>
2642 </trkpt>
2643 <trkpt lat="50.8827200000" lon="13.9761389000">
2644 <ele>244.2</ele>
2645 <time>2012-09-10T12:15:51Z</time>
2646 <course>212.0</course>
2647 <speed>13.48</speed>
2648 </trkpt>
2649 <trkpt lat="50.8826185333" lon="13.9760710000">
2650 <ele>244.1</ele>
2651 <time>2012-09-10T12:15:51Z</time>
2652 <course>207.0</course>
2653 <speed>13.12</speed>
2654 </trkpt>
2655 <trkpt lat="50.8825178167" lon="13.9759931167">
2656 <ele>244.1</ele>
2657 <time>2012-09-10T12:15:52Z</time>
2658 <course>206.0</course>
2659 <speed>12.96</speed>
2660 </trkpt>
2661 <trkpt lat="50.8824179333" lon="13.9759163333">
2662 <ele>244.0</ele>
2663 <time>2012-09-10T12:15:53Z</time>
2664 <course>207.0</course>
2665 <speed>12.91</speed>
2666 </trkpt>
2667 <trkpt lat="50.8823122833" lon="13.9757959000">
2668 <ele>244.1</ele>
2669 <time>2012-09-10T12:15:55Z</time>
2670 <course>210.0</course>
2671 <speed>13.12</speed>
2672 </trkpt>
2673 <trkpt lat="50.8822087333" lon="13.9756786500">
2674 <ele>243.9</ele>
2675 <time>2012-09-10T12:15:56Z</time>
2676 <course>216.0</course>
2677 <speed>13.12</speed>
2678 </trkpt>
2679 <trkpt lat="50.8821057167" lon="13.9755396167">
2680 <ele>244.0</ele>
2681 <time>2012-09-10T12:15:57Z</time>
2682 <course>218.0</course>
2683 <speed>13.58</speed>
2684 </trkpt>
2685 <trkpt lat="50.8820309500" lon="13.9753817167">
2686 <ele>244.0</ele>
2687 <time>2012-09-10T12:15:57Z</time>
2688 <course>225.0</course>
2689 <speed>13.58</speed>
2690 </trkpt>
2691 <trkpt lat="50.8819591833" lon="13.9752204500">
2692 <ele>244.2</ele>
2693 <time>2012-09-10T12:15:58Z</time>
2694 <course>229.0</course>
2695 <speed>13.99</speed>
2696 </trkpt>
2697 <trkpt lat="50.8818782833" lon="13.9750377000">
2698 <ele>244.3</ele>
2699 <time>2012-09-10T12:15:59Z</time>
2700 <course>232.0</course>
2701 <speed>14.51</speed>
2702 </trkpt>
2703 <trkpt lat="50.8817685167" lon="13.9748623500">
2704 <ele>244.9</ele>
2705 <time>2012-09-10T12:16:01Z</time>
2706 <course>231.0</course>
2707 <speed>15.02</speed>
2708 </trkpt>
2709 <trkpt lat="50.8816692667" lon="13.9746708333">
2710 <ele>245.1</ele>
2711 <time>2012-09-10T12:16:02Z</time>
2712 <course>231.0</course>
2713 <speed>15.54</speed>
2714 </trkpt>
2715 <trkpt lat="50.8815982333" lon="13.9744467167">
2716 <ele>245.6</ele>
2717 <time>2012-09-10T12:16:03Z</time>
2718 <course>236.0</course>
2719 <speed>16.00</speed>
2720 </trkpt>
2721 <trkpt lat="50.8815308333" lon="13.9742627500">
2722 <ele>245.8</ele>
2723 <time>2012-09-10T12:16:03Z</time>
2724 <course>237.0</course>
2725 <speed>15.90</speed>
2726 </trkpt>
2727 <trkpt lat="50.8814631167" lon="13.9740773333">
2728 <ele>246.1</ele>
2729 <time>2012-09-10T12:16:04Z</time>
2730 <course>240.0</course>
2731 <speed>16.05</speed>
2732 </trkpt>
2733 <trkpt lat="50.8813948000" lon="13.9738653167">
2734 <ele>246.0</ele>
2735 <time>2012-09-10T12:16:05Z</time>
2736 <course>241.0</course>
2737 <speed>16.10</speed>
2738 </trkpt>
2739 <trkpt lat="50.8813214333" lon="13.9736487500">
2740 <ele>245.7</ele>
2741 <time>2012-09-10T12:16:07Z</time>
2742 <course>242.0</course>
2743 <speed>16.15</speed>
2744 </trkpt>
2745 <trkpt lat="50.8812420333" lon="13.9734456333">
2746 <ele>245.4</ele>
2747 <time>2012-09-10T12:16:08Z</time>
2748 <course>242.0</course>
2749 <speed>16.26</speed>
2750 </trkpt>
2751 <trkpt lat="50.8811756500" lon="13.9732269167">
2752 <ele>245.4</ele>
2753 <time>2012-09-10T12:16:09Z</time>
2754 <course>242.0</course>
2755 <speed>16.51</speed>
2756 </trkpt>
2757 <trkpt lat="50.8811091833" lon="13.9730361333">
2758 <ele>245.8</ele>
2759 <time>2012-09-10T12:16:10Z</time>
2760 <course>242.0</course>
2761 <speed>16.15</speed>
2762 </trkpt>
2763 <trkpt lat="50.8810626167" lon="13.9728412500">
2764 <ele>246.7</ele>
2765 <time>2012-09-10T12:16:10Z</time>
2766 <course>244.0</course>
2767 <speed>15.64</speed>
2768 </trkpt>
2769 <trkpt lat="50.8810026500" lon="13.9726405333">
2770 <ele>246.9</ele>
2771 <time>2012-09-10T12:16:11Z</time>
2772 <course>244.0</course>
2773 <speed>15.38</speed>
2774 </trkpt>
2775 <trkpt lat="50.8809558667" lon="13.9724348833">
2776 <ele>247.7</ele>
2777 <time>2012-09-10T12:16:12Z</time>
2778 <course>246.0</course>
2779 <speed>15.02</speed>
2780 </trkpt>
2781 <trkpt lat="50.8809001833" lon="13.9722489333">
2782 <ele>248.5</ele>
2783 <time>2012-09-10T12:16:14Z</time>
2784 <course>246.0</course>
2785 <speed>14.66</speed>
2786 </trkpt>
2787 <trkpt lat="50.8808454500" lon="13.9720603833">
2788 <ele>248.5</ele>
2789 <time>2012-09-10T12:16:15Z</time>
2790 <course>244.0</course>
2791 <speed>14.46</speed>
2792 </trkpt>
2793 <trkpt lat="50.8807755000" lon="13.9718926167">
2794 <ele>249.7</ele>
2795 <time>2012-09-10T12:16:16Z</time>
2796 <course>241.0</course>
2797 <speed>14.20</speed>
2798 </trkpt>
2799 <trkpt lat="50.8806854500" lon="13.9717338500">
2800 <ele>251.0</ele>
2801 <time>2012-09-10T12:16:16Z</time>
2802 <course>235.0</course>
2803 <speed>13.94</speed>
2804 </trkpt>
2805 <trkpt lat="50.8805945833" lon="13.9715725167">
2806 <ele>251.4</ele>
2807 <time>2012-09-10T12:16:17Z</time>
2808 <course>230.0</course>
2809 <speed>14.30</speed>
2810 </trkpt>
2811 <trkpt lat="50.8804979167" lon="13.9714513667">
2812 <ele>251.4</ele>
2813 <time>2012-09-10T12:16:18Z</time>
2814 <course>224.0</course>
2815 <speed>13.99</speed>
2816 </trkpt>
2817 <trkpt lat="50.8803908333" lon="13.9713243333">
2818 <ele>251.5</ele>
2819 <time>2012-09-10T12:16:20Z</time>
2820 <course>222.0</course>
2821 <speed>14.40</speed>
2822 </trkpt>
2823 <trkpt lat="50.8802650833" lon="13.9711776667">
2824 <ele>252.3</ele>
2825 <time>2012-09-10T12:16:21Z</time>
2826 <course>219.0</course>
2827 <speed>15.07</speed>
2828 </trkpt>
2829 <trkpt lat="50.8801601333" lon="13.9710442167">
2830 <ele>252.2</ele>
2831 <time>2012-09-10T12:16:22Z</time>
2832 <course>219.0</course>
2833 <speed>15.23</speed>
2834 </trkpt>
2835 <trkpt lat="50.8800543667" lon="13.9709115833">
2836 <ele>252.2</ele>
2837 <time>2012-09-10T12:16:23Z</time>
2838 <course>218.0</course>
2839 <speed>14.92</speed>
2840 </trkpt>
2841 <trkpt lat="50.8799470500" lon="13.9707792000">
2842 <ele>251.9</ele>
2843 <time>2012-09-10T12:16:23Z</time>
2844 <course>219.0</course>
2845 <speed>14.97</speed>
2846 </trkpt>
2847 <trkpt lat="50.8798360000" lon="13.9706528667">
2848 <ele>252.5</ele>
2849 <time>2012-09-10T12:16:24Z</time>
2850 <course>218.0</course>
2851 <speed>14.76</speed>
2852 </trkpt>
2853 <trkpt lat="50.8797371500" lon="13.9705196000">
2854 <ele>252.5</ele>
2855 <time>2012-09-10T12:16:26Z</time>
2856 <course>219.0</course>
2857 <speed>14.40</speed>
2858 </trkpt>
2859 <trkpt lat="50.8796455667" lon="13.9703815333">
2860 <ele>252.5</ele>
2861 <time>2012-09-10T12:16:27Z</time>
2862 <course>220.0</course>
2863 <speed>14.56</speed>
2864 </trkpt>
2865 <trkpt lat="50.8795339000" lon="13.9702449000">
2866 <ele>253.1</ele>
2867 <time>2012-09-10T12:16:28Z</time>
2868 <course>222.0</course>
2869 <speed>14.71</speed>
2870 </trkpt>
2871 <trkpt lat="50.8794399833" lon="13.9701004167">
2872 <ele>254.8</ele>
2873 <time>2012-09-10T12:16:29Z</time>
2874 <course>224.0</course>
2875 <speed>14.82</speed>
2876 </trkpt>
2877 <trkpt lat="50.8793542500" lon="13.9699164667">
2878 <ele>256.8</ele>
2879 <time>2012-09-10T12:16:29Z</time>
2880 <course>227.0</course>
2881 <speed>15.12</speed>
2882 </trkpt>
2883 <trkpt lat="50.8792604500" lon="13.9697459833">
2884 <ele>257.1</ele>
2885 <time>2012-09-10T12:16:30Z</time>
2886 <course>228.0</course>
2887 <speed>15.18</speed>
2888 </trkpt>
2889 <trkpt lat="50.8791798667" lon="13.9695965333">
2890 <ele>256.5</ele>
2891 <time>2012-09-10T12:16:31Z</time>
2892 <course>229.0</course>
2893 <speed>14.76</speed>
2894 </trkpt>
2895 <trkpt lat="50.8790800500" lon="13.9694327167">
2896 <ele>257.1</ele>
2897 <time>2012-09-10T12:16:33Z</time>
2898 <course>229.0</course>
2899 <speed>14.92</speed>
2900 </trkpt>
2901 <trkpt lat="50.8789893667" lon="13.9692763000">
2902 <ele>257.6</ele>
2903 <time>2012-09-10T12:16:34Z</time>
2904 <course>229.0</course>
2905 <speed>15.07</speed>
2906 </trkpt>
2907 <trkpt lat="50.8789030833" lon="13.9691010667">
2908 <ele>258.3</ele>
2909 <time>2012-09-10T12:16:35Z</time>
2910 <course>229.0</course>
2911 <speed>15.38</speed>
2912 </trkpt>
2913 <trkpt lat="50.8787926667" lon="13.9689221167">
2914 <ele>258.4</ele>
2915 <time>2012-09-10T12:16:35Z</time>
2916 <course>227.0</course>
2917 <speed>15.69</speed>
2918 </trkpt>
2919 <trkpt lat="50.8786918833" lon="13.9687707667">
2920 <ele>258.8</ele>
2921 <time>2012-09-10T12:16:36Z</time>
2922 <course>225.0</course>
2923 <speed>15.90</speed>
2924 </trkpt>
2925 <trkpt lat="50.8785701667" lon="13.9686072167">
2926 <ele>259.9</ele>
2927 <time>2012-09-10T12:16:37Z</time>
2928 <course>222.0</course>
2929 <speed>16.20</speed>
2930 </trkpt>
2931 <trkpt lat="50.8784599667" lon="13.9684588000">
2932 <ele>260.1</ele>
2933 <time>2012-09-10T12:16:39Z</time>
2934 <course>221.0</course>
2935 <speed>16.20</speed>
2936 </trkpt>
2937 <trkpt lat="50.8783537167" lon="13.9683232333">
2938 <ele>261.2</ele>
2939 <time>2012-09-10T12:16:40Z</time>
2940 <course>220.0</course>
2941 <speed>16.15</speed>
2942 </trkpt>
2943 <trkpt lat="50.8782454667" lon="13.9681727500">
2944 <ele>261.8</ele>
2945 <time>2012-09-10T12:16:41Z</time>
2946 <course>220.0</course>
2947 <speed>16.05</speed>
2948 </trkpt>
2949 <trkpt lat="50.8781366500" lon="13.9680050833">
2950 <ele>262.8</ele>
2951 <time>2012-09-10T12:16:42Z</time>
2952 <course>221.0</course>
2953 <speed>16.00</speed>
2954 </trkpt>
2955 <trkpt lat="50.8780372667" lon="13.9678328333">
2956 <ele>263.2</ele>
2957 <time>2012-09-10T12:16:42Z</time>
2958 <course>226.0</course>
2959 <speed>16.20</speed>
2960 </trkpt>
2961 <trkpt lat="50.8779616667" lon="13.9676372167">
2962 <ele>264.6</ele>
2963 <time>2012-09-10T12:16:43Z</time>
2964 <course>232.0</course>
2965 <speed>16.05</speed>
2966 </trkpt>
2967 <trkpt lat="50.8778882833" lon="13.9674654000">
2968 <ele>265.2</ele>
2969 <time>2012-09-10T12:16:44Z</time>
2970 <course>235.0</course>
2971 <speed>15.90</speed>
2972 </trkpt>
2973 <trkpt lat="50.8778188167" lon="13.9672683667">
2974 <ele>265.3</ele>
2975 <time>2012-09-10T12:16:46Z</time>
2976 <course>239.0</course>
2977 <speed>16.05</speed>
2978 </trkpt>
2979 <trkpt lat="50.8777563667" lon="13.9670771667">
2980 <ele>265.2</ele>
2981 <time>2012-09-10T12:16:47Z</time>
2982 <course>241.0</course>
2983 <speed>15.48</speed>
2984 </trkpt>
2985 <trkpt lat="50.8777030333" lon="13.9668764167">
2986 <ele>265.3</ele>
2987 <time>2012-09-10T12:16:48Z</time>
2988 <course>244.0</course>
2989 <speed>15.38</speed>
2990 </trkpt>
2991 <trkpt lat="50.8776675500" lon="13.9666621500">
2992 <ele>265.3</ele>
2993 <time>2012-09-10T12:16:48Z</time>
2994 <course>250.0</course>
2995 <speed>15.48</speed>
2996 </trkpt>
2997 <trkpt lat="50.8776326000" lon="13.9664444000">
2998 <ele>265.5</ele>
2999 <time>2012-09-10T12:16:49Z</time>
3000 <course>252.0</course>
3001 <speed>15.79</speed>
3002 </trkpt>
3003 <trkpt lat="50.8775870000" lon="13.9662110833">
3004 <ele>265.7</ele>
3005 <time>2012-09-10T12:16:50Z</time>
3006 <course>252.0</course>
3007 <speed>16.15</speed>
3008 </trkpt>
3009 <trkpt lat="50.8775561500" lon="13.9660051000">
3010 <ele>265.7</ele>
3011 <time>2012-09-10T12:16:52Z</time>
3012 <course>254.0</course>
3013 <speed>15.79</speed>
3014 </trkpt>
3015 <trkpt lat="50.8775291833" lon="13.9657831833">
3016 <ele>265.7</ele>
3017 <time>2012-09-10T12:16:53Z</time>
3018 <course>255.0</course>
3019 <speed>15.54</speed>
3020 </trkpt>
3021 <trkpt lat="50.8774890500" lon="13.9655481167">
3022 <ele>266.0</ele>
3023 <time>2012-09-10T12:16:54Z</time>
3024 <course>256.0</course>
3025 <speed>16.36</speed>
3026 </trkpt>
3027 <trkpt lat="50.8774810667" lon="13.9653114167">
3028 <ele>266.0</ele>
3029 <time>2012-09-10T12:16:54Z</time>
3030 <course>257.0</course>
3031 <speed>16.67</speed>
3032 </trkpt>
3033 <trkpt lat="50.8774428167" lon="13.9650614667">
3034 <ele>266.4</ele>
3035 <time>2012-09-10T12:16:55Z</time>
3036 <course>257.0</course>
3037 <speed>16.98</speed>
3038 </trkpt>
3039 <trkpt lat="50.8774066833" lon="13.9648138667">
3040 <ele>266.3</ele>
3041 <time>2012-09-10T12:16:56Z</time>
3042 <course>257.0</course>
3043 <speed>16.67</speed>
3044 </trkpt>
3045 <trkpt lat="50.8773775500" lon="13.9645548833">
3046 <ele>266.4</ele>
3047 <time>2012-09-10T12:16:58Z</time>
3048 <course>257.0</course>
3049 <speed>16.98</speed>
3050 </trkpt>
3051 <trkpt lat="50.8773654333" lon="13.9643133167">
3052 <ele>266.0</ele>
3053 <time>2012-09-10T12:16:59Z</time>
3054 <course>258.0</course>
3055 <speed>16.36</speed>
3056 </trkpt>
3057 <trkpt lat="50.8773484667" lon="13.9641021833">
3058 <ele>265.8</ele>
3059 <time>2012-09-10T12:17:00Z</time>
3060 <course>258.0</course>
3061 <speed>15.74</speed>
3062 </trkpt>
3063 <trkpt lat="50.8773330000" lon="13.9638836500">
3064 <ele>265.8</ele>
3065 <time>2012-09-10T12:17:01Z</time>
3066 <course>260.0</course>
3067 <speed>15.28</speed>
3068 </trkpt>
3069 <trkpt lat="50.8773342667" lon="13.9636797167">
3070 <ele>265.7</ele>
3071 <time>2012-09-10T12:17:01Z</time>
3072 <course>262.0</course>
3073 <speed>14.76</speed>
3074 </trkpt>
3075 <trkpt lat="50.8773147667" lon="13.9634687667">
3076 <ele>265.9</ele>
3077 <time>2012-09-10T12:17:02Z</time>
3078 <course>260.0</course>
3079 <speed>14.87</speed>
3080 </trkpt>
3081 <trkpt lat="50.8772728833" lon="13.9632399167">
3082 <ele>265.8</ele>
3083 <time>2012-09-10T12:17:03Z</time>
3084 <course>259.0</course>
3085 <speed>15.28</speed>
3086 </trkpt>
3087 <trkpt lat="50.8772298667" lon="13.9629920667">
3088 <ele>265.2</ele>
3089 <time>2012-09-10T12:17:05Z</time>
3090 <course>258.0</course>
3091 <speed>15.59</speed>
3092 </trkpt>
3093 <trkpt lat="50.8771848333" lon="13.9627590000">
3094 <ele>265.0</ele>
3095 <time>2012-09-10T12:17:06Z</time>
3096 <course>257.0</course>
3097 <speed>15.79</speed>
3098 </trkpt>
3099 <trkpt lat="50.8771514500" lon="13.9625414333">
3100 <ele>265.6</ele>
3101 <time>2012-09-10T12:17:07Z</time>
3102 <course>258.0</course>
3103 <speed>15.69</speed>
3104 </trkpt>
3105 <trkpt lat="50.8771274000" lon="13.9623079667">
3106 <ele>265.9</ele>
3107 <time>2012-09-10T12:17:07Z</time>
3108 <course>259.0</course>
3109 <speed>16.20</speed>
3110 </trkpt>
3111 <trkpt lat="50.8771062667" lon="13.9620721167">
3112 <ele>266.1</ele>
3113 <time>2012-09-10T12:17:08Z</time>
3114 <course>261.0</course>
3115 <speed>16.31</speed>
3116 </trkpt>
3117 <trkpt lat="50.8770990000" lon="13.9618272667">
3118 <ele>266.6</ele>
3119 <time>2012-09-10T12:17:09Z</time>
3120 <course>263.0</course>
3121 <speed>16.41</speed>
3122 </trkpt>
3123 <trkpt lat="50.8770922833" lon="13.9615682667">
3124 <ele>265.9</ele>
3125 <time>2012-09-10T12:17:11Z</time>
3126 <course>266.0</course>
3127 <speed>16.56</speed>
3128 </trkpt>
3129 <trkpt lat="50.8770803667" lon="13.9613184667">
3130 <ele>266.8</ele>
3131 <time>2012-09-10T12:17:12Z</time>
3132 <course>267.0</course>
3133 <speed>16.46</speed>
3134 </trkpt>
3135 <trkpt lat="50.8770668500" lon="13.9610742167">
3136 <ele>267.7</ele>
3137 <time>2012-09-10T12:17:13Z</time>
3138 <course>268.0</course>
3139 <speed>16.46</speed>
3140 </trkpt>
3141 <trkpt lat="50.8770669167" lon="13.9608357333">
3142 <ele>267.7</ele>
3143 <time>2012-09-10T12:17:14Z</time>
3144 <course>269.0</course>
3145 <speed>16.72</speed>
3146 </trkpt>
3147 <trkpt lat="50.8770663333" lon="13.9605736667">
3148 <ele>267.9</ele>
3149 <time>2012-09-10T12:17:14Z</time>
3150 <course>269.0</course>
3151 <speed>17.08</speed>
3152 </trkpt>
3153 <trkpt lat="50.8770594500" lon="13.9603125167">
3154 <ele>268.4</ele>
3155 <time>2012-09-10T12:17:15Z</time>
3156 <course>269.0</course>
3157 <speed>17.23</speed>
3158 </trkpt>
3159 <trkpt lat="50.8770773333" lon="13.9600504833">
3160 <ele>267.9</ele>
3161 <time>2012-09-10T12:17:17Z</time>
3162 <course>270.0</course>
3163 <speed>17.49</speed>
3164 </trkpt>
3165 <trkpt lat="50.8770763167" lon="13.9598058000">
3166 <ele>269.1</ele>
3167 <time>2012-09-10T12:17:18Z</time>
3168 <course>270.0</course>
3169 <speed>17.28</speed>
3170 </trkpt>
3171 <trkpt lat="50.8770821833" lon="13.9595800000">
3172 <ele>269.1</ele>
3173 <time>2012-09-10T12:17:19Z</time>
3174 <course>270.0</course>
3175 <speed>16.67</speed>
3176 </trkpt>
3177 <trkpt lat="50.8770777500" lon="13.9593267333">
3178 <ele>268.6</ele>
3179 <time>2012-09-10T12:17:20Z</time>
3180 <course>269.0</course>
3181 <speed>16.41</speed>
3182 </trkpt>
3183 <trkpt lat="50.8770765333" lon="13.9591131833">
3184 <ele>267.6</ele>
3185 <time>2012-09-10T12:17:20Z</time>
3186 <course>269.0</course>
3187 <speed>16.05</speed>
3188 </trkpt>
3189 <trkpt lat="50.8770779167" lon="13.9588838333">
3190 <ele>266.7</ele>
3191 <time>2012-09-10T12:17:21Z</time>
3192 <course>270.0</course>
3193 <speed>15.64</speed>
3194 </trkpt>
3195 <trkpt lat="50.8770922000" lon="13.9586677167">
3196 <ele>266.3</ele>
3197 <time>2012-09-10T12:17:22Z</time>
3198 <course>271.0</course>
3199 <speed>15.18</speed>
3200 </trkpt>
3201 <trkpt lat="50.8771004833" lon="13.9584622833">
3202 <ele>267.2</ele>
3203 <time>2012-09-10T12:17:24Z</time>
3204 <course>273.0</course>
3205 <speed>15.07</speed>
3206 </trkpt>
3207 <trkpt lat="50.8771219667" lon="13.9582326833">
3208 <ele>266.9</ele>
3209 <time>2012-09-10T12:17:25Z</time>
3210 <course>277.0</course>
3211 <speed>15.18</speed>
3212 </trkpt>
3213 <trkpt lat="50.8771439833" lon="13.9580273667">
3214 <ele>267.2</ele>
3215 <time>2012-09-10T12:17:26Z</time>
3216 <course>280.0</course>
3217 <speed>14.82</speed>
3218 </trkpt>
3219 <trkpt lat="50.8771855667" lon="13.9578035167">
3220 <ele>268.1</ele>
3221 <time>2012-09-10T12:17:26Z</time>
3222 <course>282.0</course>
3223 <speed>14.82</speed>
3224 </trkpt>
3225 <trkpt lat="50.8772282333" lon="13.9576011500">
3226 <ele>267.9</ele>
3227 <time>2012-09-10T12:17:27Z</time>
3228 <course>287.0</course>
3229 <speed>14.87</speed>
3230 </trkpt>
3231 <trkpt lat="50.8772604833" lon="13.9573948333">
3232 <ele>269.0</ele>
3233 <time>2012-09-10T12:17:28Z</time>
3234 <course>285.0</course>
3235 <speed>14.87</speed>
3236 </trkpt>
3237 <trkpt lat="50.8772893833" lon="13.9571894667">
3238 <ele>269.4</ele>
3239 <time>2012-09-10T12:17:30Z</time>
3240 <course>281.0</course>
3241 <speed>14.61</speed>
3242 </trkpt>
3243 <trkpt lat="50.8772936833" lon="13.9569904500">
3244 <ele>271.0</ele>
3245 <time>2012-09-10T12:17:31Z</time>
3246 <course>275.0</course>
3247 <speed>14.04</speed>
3248 </trkpt>
3249 <trkpt lat="50.8773014000" lon="13.9567850500">
3250 <ele>271.5</ele>
3251 <time>2012-09-10T12:17:32Z</time>
3252 <course>271.0</course>
3253 <speed>14.20</speed>
3254 </trkpt>
3255 <trkpt lat="50.8772916500" lon="13.9565760833">
3256 <ele>271.4</ele>
3257 <time>2012-09-10T12:17:33Z</time>
3258 <course>269.0</course>
3259 <speed>14.66</speed>
3260 </trkpt>
3261 <trkpt lat="50.8772759167" lon="13.9563640333">
3262 <ele>272.1</ele>
3263 <time>2012-09-10T12:17:33Z</time>
3264 <course>267.0</course>
3265 <speed>14.82</speed>
3266 </trkpt>
3267 <trkpt lat="50.8772676667" lon="13.9561637167">
3268 <ele>271.6</ele>
3269 <time>2012-09-10T12:17:34Z</time>
3270 <course>266.0</course>
3271 <speed>14.97</speed>
3272 </trkpt>
3273 <trkpt lat="50.8772518333" lon="13.9559425500">
3274 <ele>272.2</ele>
3275 <time>2012-09-10T12:17:35Z</time>
3276 <course>265.0</course>
3277 <speed>15.02</speed>
3278 </trkpt>
3279 <trkpt lat="50.8772442167" lon="13.9557305667">
3280 <ele>272.2</ele>
3281 <time>2012-09-10T12:17:37Z</time>
3282 <course>264.0</course>
3283 <speed>14.82</speed>
3284 </trkpt>
3285 <trkpt lat="50.8772250167" lon="13.9555431333">
3286 <ele>272.6</ele>
3287 <time>2012-09-10T12:17:38Z</time>
3288 <course>264.0</course>
3289 <speed>14.40</speed>
3290 </trkpt>
3291 <trkpt lat="50.8772101667" lon="13.9553326667">
3292 <ele>272.7</ele>
3293 <time>2012-09-10T12:17:39Z</time>
3294 <course>264.0</course>
3295 <speed>14.15</speed>
3296 </trkpt>
3297 <trkpt lat="50.8771746333" lon="13.9551246500">
3298 <ele>272.5</ele>
3299 <time>2012-09-10T12:17:39Z</time>
3300 <course>263.0</course>
3301 <speed>13.94</speed>
3302 </trkpt>
3303 <trkpt lat="50.8771581167" lon="13.9549375667">
3304 <ele>273.3</ele>
3305 <time>2012-09-10T12:17:40Z</time>
3306 <course>263.0</course>
3307 <speed>13.22</speed>
3308 </trkpt>
3309 <trkpt lat="50.8771508167" lon="13.9547664500">
3310 <ele>273.5</ele>
3311 <time>2012-09-10T12:17:41Z</time>
3312 <course>264.0</course>
3313 <speed>12.35</speed>
3314 </trkpt>
3315 <trkpt lat="50.8771340500" lon="13.9546011000">
3316 <ele>273.9</ele>
3317 <time>2012-09-10T12:17:43Z</time>
3318 <course>261.0</course>
3319 <speed>11.93</speed>
3320 </trkpt>
3321 <trkpt lat="50.8771063000" lon="13.9544376833">
3322 <ele>273.9</ele>
3323 <time>2012-09-10T12:17:44Z</time>
3324 <course>257.0</course>
3325 <speed>11.52</speed>
3326 </trkpt>
3327 <trkpt lat="50.8770863167" lon="13.9542890667">
3328 <ele>274.0</ele>
3329 <time>2012-09-10T12:17:45Z</time>
3330 <course>255.0</course>
3331 <speed>11.16</speed>
3332 </trkpt>
3333 <trkpt lat="50.8770517500" lon="13.9541265333">
3334 <ele>273.9</ele>
3335 <time>2012-09-10T12:17:45Z</time>
3336 <course>254.0</course>
3337 <speed>11.37</speed>
3338 </trkpt>
3339 <trkpt lat="50.8770280000" lon="13.9539700000">
3340 <ele>274.5</ele>
3341 <time>2012-09-10T12:17:46Z</time>
3342 <course>253.0</course>
3343 <speed>11.21</speed>
3344 </trkpt>
3345 <trkpt lat="50.8769978167" lon="13.9538230333">
3346 <ele>275.1</ele>
3347 <time>2012-09-10T12:17:47Z</time>
3348 <course>250.0</course>
3349 <speed>11.42</speed>
3350 </trkpt>
3351 <trkpt lat="50.8769615333" lon="13.9536751333">
3352 <ele>274.9</ele>
3353 <time>2012-09-10T12:17:49Z</time>
3354 <course>248.0</course>
3355 <speed>11.42</speed>
3356 </trkpt>
3357 <trkpt lat="50.8769149833" lon="13.9535268167">
3358 <ele>274.8</ele>
3359 <time>2012-09-10T12:17:50Z</time>
3360 <course>246.0</course>
3361 <speed>11.32</speed>
3362 </trkpt>
3363 <trkpt lat="50.8768664500" lon="13.9533729000">
3364 <ele>274.5</ele>
3365 <time>2012-09-10T12:17:51Z</time>
3366 <course>245.0</course>
3367 <speed>11.42</speed>
3368 </trkpt>
3369 <trkpt lat="50.8768225833" lon="13.9532278667">
3370 <ele>274.7</ele>
3371 <time>2012-09-10T12:17:52Z</time>
3372 <course>245.0</course>
3373 <speed>11.52</speed>
3374 </trkpt>
3375 <trkpt lat="50.8767713500" lon="13.9530700667">
3376 <ele>275.0</ele>
3377 <time>2012-09-10T12:17:52Z</time>
3378 <course>244.0</course>
3379 <speed>11.88</speed>
3380 </trkpt>
3381 <trkpt lat="50.8767235667" lon="13.9529172333">
3382 <ele>274.9</ele>
3383 <time>2012-09-10T12:17:53Z</time>
3384 <course>244.0</course>
3385 <speed>12.04</speed>
3386 </trkpt>
3387 <trkpt lat="50.8766645333" lon="13.9527679833">
3388 <ele>274.8</ele>
3389 <time>2012-09-10T12:17:54Z</time>
3390 <course>240.0</course>
3391 <speed>12.29</speed>
3392 </trkpt>
3393 <trkpt lat="50.8766016833" lon="13.9526066500">
3394 <ele>274.7</ele>
3395 <time>2012-09-10T12:17:56Z</time>
3396 <course>241.0</course>
3397 <speed>12.66</speed>
3398 </trkpt>
3399 <trkpt lat="50.8765590833" lon="13.9524367833">
3400 <ele>274.8</ele>
3401 <time>2012-09-10T12:17:57Z</time>
3402 <course>243.0</course>
3403 <speed>12.86</speed>
3404 </trkpt>
3405 <trkpt lat="50.8765037667" lon="13.9522626000">
3406 <ele>275.0</ele>
3407 <time>2012-09-10T12:17:58Z</time>
3408 <course>243.0</course>
3409 <speed>13.27</speed>
3410 </trkpt>
3411 <trkpt lat="50.8764342167" lon="13.9520875333">
3412 <ele>275.0</ele>
3413 <time>2012-09-10T12:17:58Z</time>
3414 <course>241.0</course>
3415 <speed>13.63</speed>
3416 </trkpt>
3417 <trkpt lat="50.8763725833" lon="13.9519181167">
3418 <ele>275.2</ele>
3419 <time>2012-09-10T12:17:59Z</time>
3420 <course>242.0</course>
3421 <speed>13.99</speed>
3422 </trkpt>
3423 <trkpt lat="50.8763110000" lon="13.9517348667">
3424 <ele>275.2</ele>
3425 <time>2012-09-10T12:18:00Z</time>
3426 <course>241.0</course>
3427 <speed>14.40</speed>
3428 </trkpt>
3429 <trkpt lat="50.8762505333" lon="13.9515576000">
3430 <ele>275.3</ele>
3431 <time>2012-09-10T12:18:02Z</time>
3432 <course>241.0</course>
3433 <speed>14.56</speed>
3434 </trkpt>
3435 <trkpt lat="50.8761915833" lon="13.9513562833">
3436 <ele>275.4</ele>
3437 <time>2012-09-10T12:18:03Z</time>
3438 <course>241.0</course>
3439 <speed>15.12</speed>
3440 </trkpt>
3441 <trkpt lat="50.8761169000" lon="13.9511528500">
3442 <ele>275.3</ele>
3443 <time>2012-09-10T12:18:04Z</time>
3444 <course>240.0</course>
3445 <speed>15.69</speed>
3446 </trkpt>
3447 <trkpt lat="50.8760505833" lon="13.9509619000">
3448 <ele>275.0</ele>
3449 <time>2012-09-10T12:18:04Z</time>
3450 <course>241.0</course>
3451 <speed>15.69</speed>
3452 </trkpt>
3453 <trkpt lat="50.8759880333" lon="13.9507729667">
3454 <ele>274.7</ele>
3455 <time>2012-09-10T12:18:05Z</time>
3456 <course>241.0</course>
3457 <speed>15.54</speed>
3458 </trkpt>
3459 <trkpt lat="50.8759133333" lon="13.9505800500">
3460 <ele>274.2</ele>
3461 <time>2012-09-10T12:18:06Z</time>
3462 <course>241.0</course>
3463 <speed>15.43</speed>
3464 </trkpt>
3465 <trkpt lat="50.8758597000" lon="13.9503909000">
3466 <ele>274.0</ele>
3467 <time>2012-09-10T12:18:08Z</time>
3468 <course>241.0</course>
3469 <speed>15.07</speed>
3470 </trkpt>
3471 <trkpt lat="50.8757832000" lon="13.9501976333">
3472 <ele>274.4</ele>
3473 <time>2012-09-10T12:18:09Z</time>
3474 <course>241.0</course>
3475 <speed>15.12</speed>
3476 </trkpt>
3477 <trkpt lat="50.8757171667" lon="13.9500064000">
3478 <ele>273.9</ele>
3479 <time>2012-09-10T12:18:10Z</time>
3480 <course>240.0</course>
3481 <speed>15.02</speed>
3482 </trkpt>
3483 <trkpt lat="50.8756519333" lon="13.9498342333">
3484 <ele>274.0</ele>
3485 <time>2012-09-10T12:18:11Z</time>
3486 <course>240.0</course>
3487 <speed>14.71</speed>
3488 </trkpt>
3489 <trkpt lat="50.8755846167" lon="13.9496399167">
3490 <ele>273.9</ele>
3491 <time>2012-09-10T12:18:11Z</time>
3492 <course>241.0</course>
3493 <speed>14.82</speed>
3494 </trkpt>
3495 <trkpt lat="50.8755277500" lon="13.9494535667">
3496 <ele>274.1</ele>
3497 <time>2012-09-10T12:18:12Z</time>
3498 <course>241.0</course>
3499 <speed>14.61</speed>
3500 </trkpt>
3501 <trkpt lat="50.8754648333" lon="13.9492810667">
3502 <ele>273.9</ele>
3503 <time>2012-09-10T12:18:13Z</time>
3504 <course>241.0</course>
3505 <speed>14.40</speed>
3506 </trkpt>
3507 <trkpt lat="50.8753983167" lon="13.9491011500">
3508 <ele>273.4</ele>
3509 <time>2012-09-10T12:18:15Z</time>
3510 <course>240.0</course>
3511 <speed>14.40</speed>
3512 </trkpt>
3513 <trkpt lat="50.8753424333" lon="13.9489277167">
3514 <ele>273.5</ele>
3515 <time>2012-09-10T12:18:16Z</time>
3516 <course>241.0</course>
3517 <speed>13.99</speed>
3518 </trkpt>
3519 <trkpt lat="50.8752742000" lon="13.9487642667">
3520 <ele>273.1</ele>
3521 <time>2012-09-10T12:18:17Z</time>
3522 <course>240.0</course>
3523 <speed>13.63</speed>
3524 </trkpt>
3525 <trkpt lat="50.8752280833" lon="13.9486075333">
3526 <ele>273.4</ele>
3527 <time>2012-09-10T12:18:17Z</time>
3528 <course>242.0</course>
3529 <speed>12.91</speed>
3530 </trkpt>
3531 <trkpt lat="50.8751855500" lon="13.9484532667">
3532 <ele>273.4</ele>
3533 <time>2012-09-10T12:18:18Z</time>
3534 <course>244.0</course>
3535 <speed>12.29</speed>
3536 </trkpt>
3537 <trkpt lat="50.8751534000" lon="13.9483233833">
3538 <ele>273.5</ele>
3539 <time>2012-09-10T12:18:19Z</time>
3540 <course>247.0</course>
3541 <speed>10.85</speed>
3542 </trkpt>
3543 <trkpt lat="50.8751347333" lon="13.9482068333">
3544 <ele>273.6</ele>
3545 <time>2012-09-10T12:18:21Z</time>
3546 <course>251.0</course>
3547 <speed>9.57</speed>
3548 </trkpt>
3549 <trkpt lat="50.8751313833" lon="13.9481140167">
3550 <ele>273.8</ele>
3551 <time>2012-09-10T12:18:22Z</time>
3552 <course>259.0</course>
3553 <speed>8.18</speed>
3554 </trkpt>
3555 <trkpt lat="50.8751448167" lon="13.9480166333">
3556 <ele>274.3</ele>
3557 <time>2012-09-10T12:18:23Z</time>
3558 <course>268.0</course>
3559 <speed>7.72</speed>
3560 </trkpt>
3561 <trkpt lat="50.8751802000" lon="13.9479217000">
3562 <ele>274.0</ele>
3563 <time>2012-09-10T12:18:24Z</time>
3564 <course>282.0</course>
3565 <speed>7.97</speed>
3566 </trkpt>
3567 <trkpt lat="50.8752320333" lon="13.9478444833">
3568 <ele>273.9</ele>
3569 <time>2012-09-10T12:18:24Z</time>
3570 <course>293.0</course>
3571 <speed>7.72</speed>
3572 </trkpt>
3573 <trkpt lat="50.8752870667" lon="13.9477900167">
3574 <ele>274.2</ele>
3575 <time>2012-09-10T12:18:25Z</time>
3576 <course>303.0</course>
3577 <speed>6.89</speed>
3578 </trkpt>
3579 <trkpt lat="50.8753718167" lon="13.9478251500">
3580 <ele>274.4</ele>
3581 <time>2012-09-10T12:18:27Z</time>
3582 <course>322.0</course>
3583 <speed>5.61</speed>
3584 </trkpt>
3585 <trkpt lat="50.8754749167" lon="13.9478945167">
3586 <ele>274.5</ele>
3587 <time>2012-09-10T12:18:28Z</time>
3588 <course>354.0</course>
3589 <speed>6.17</speed>
3590 </trkpt>
3591 <trkpt lat="50.8755773333" lon="13.9479597667">
3592 <ele>274.7</ele>
3593 <time>2012-09-10T12:18:29Z</time>
3594 <course>8.0</course>
3595 <speed>7.77</speed>
3596 </trkpt>
3597 <trkpt lat="50.8756833667" lon="13.9480375000">
3598 <ele>274.7</ele>
3599 <time>2012-09-10T12:18:30Z</time>
3600 <course>18.0</course>
3601 <speed>9.72</speed>
3602 </trkpt>
3603 <trkpt lat="50.8757967667" lon="13.9481416833">
3604 <ele>275.0</ele>
3605 <time>2012-09-10T12:18:30Z</time>
3606 <course>25.0</course>
3607 <speed>11.06</speed>
3608 </trkpt>
3609 <trkpt lat="50.8758795833" lon="13.9482403167">
3610 <ele>275.0</ele>
3611 <time>2012-09-10T12:18:31Z</time>
3612 <course>31.0</course>
3613 <speed>11.06</speed>
3614 </trkpt>
3615 <trkpt lat="50.8759745333" lon="13.9483443167">
3616 <ele>275.1</ele>
3617 <time>2012-09-10T12:18:32Z</time>
3618 <course>35.0</course>
3619 <speed>11.47</speed>
3620 </trkpt>
3621 <trkpt lat="50.8760700667" lon="13.9484658333">
3622 <ele>275.1</ele>
3623 <time>2012-09-10T12:18:34Z</time>
3624 <course>38.0</course>
3625 <speed>11.99</speed>
3626 </trkpt>
3627 <trkpt lat="50.8761568833" lon="13.9485761667">
3628 <ele>275.1</ele>
3629 <time>2012-09-10T12:18:35Z</time>
3630 <course>40.0</course>
3631 <speed>12.40</speed>
3632 </trkpt>
3633 <trkpt lat="50.8762701500" lon="13.9487425167">
3634 <ele>275.7</ele>
3635 <time>2012-09-10T12:18:36Z</time>
3636 <course>41.0</course>
3637 <speed>13.58</speed>
3638 </trkpt>
3639 <trkpt lat="50.8763675500" lon="13.9488671833">
3640 <ele>276.2</ele>
3641 <time>2012-09-10T12:18:36Z</time>
3642 <course>41.0</course>
3643 <speed>13.74</speed>
3644 </trkpt>
3645 <trkpt lat="50.8764700333" lon="13.9490034000">
3646 <ele>276.0</ele>
3647 <time>2012-09-10T12:18:37Z</time>
3648 <course>41.0</course>
3649 <speed>14.04</speed>
3650 </trkpt>
3651 <trkpt lat="50.8765676333" lon="13.9491439333">
3652 <ele>275.7</ele>
3653 <time>2012-09-10T12:18:38Z</time>
3654 <course>41.0</course>
3655 <speed>14.46</speed>
3656 </trkpt>
3657 <trkpt lat="50.8766858667" lon="13.9492828000">
3658 <ele>276.6</ele>
3659 <time>2012-09-10T12:18:40Z</time>
3660 <course>41.0</course>
3661 <speed>15.43</speed>
3662 </trkpt>
3663 <trkpt lat="50.8767986500" lon="13.9494275833">
3664 <ele>277.0</ele>
3665 <time>2012-09-10T12:18:41Z</time>
3666 <course>41.0</course>
3667 <speed>15.54</speed>
3668 </trkpt>
3669 <trkpt lat="50.8769158000" lon="13.9495721000">
3670 <ele>277.7</ele>
3671 <time>2012-09-10T12:18:42Z</time>
3672 <course>41.0</course>
3673 <speed>16.10</speed>
3674 </trkpt>
3675 <trkpt lat="50.8770285833" lon="13.9497231500">
3676 <ele>277.5</ele>
3677 <time>2012-09-10T12:18:43Z</time>
3678 <course>41.0</course>
3679 <speed>16.15</speed>
3680 </trkpt>
3681 <trkpt lat="50.8771261000" lon="13.9498777667">
3682 <ele>277.3</ele>
3683 <time>2012-09-10T12:18:43Z</time>
3684 <course>41.0</course>
3685 <speed>16.15</speed>
3686 </trkpt>
3687 <trkpt lat="50.8772426167" lon="13.9500358333">
3688 <ele>277.9</ele>
3689 <time>2012-09-10T12:18:44Z</time>
3690 <course>41.0</course>
3691 <speed>16.46</speed>
3692 </trkpt>
3693 <trkpt lat="50.8773603167" lon="13.9501935333">
3694 <ele>279.1</ele>
3695 <time>2012-09-10T12:18:45Z</time>
3696 <course>41.0</course>
3697 <speed>16.67</speed>
3698 </trkpt>
3699 <trkpt lat="50.8774761333" lon="13.9503468667">
3700 <ele>279.1</ele>
3701 <time>2012-09-10T12:18:47Z</time>
3702 <course>41.0</course>
3703 <speed>16.77</speed>
3704 </trkpt>
3705 <trkpt lat="50.8775960500" lon="13.9505125500">
3706 <ele>279.3</ele>
3707 <time>2012-09-10T12:18:48Z</time>
3708 <course>41.0</course>
3709 <speed>17.08</speed>
3710 </trkpt>
3711 <trkpt lat="50.8777045833" lon="13.9506721167">
3712 <ele>279.2</ele>
3713 <time>2012-09-10T12:18:49Z</time>
3714 <course>41.0</course>
3715 <speed>17.03</speed>
3716 </trkpt>
3717 <trkpt lat="50.8778164000" lon="13.9508295167">
3718 <ele>278.7</ele>
3719 <time>2012-09-10T12:18:49Z</time>
3720 <course>41.0</course>
3721 <speed>16.87</speed>
3722 </trkpt>
3723 <trkpt lat="50.8779237167" lon="13.9509740667">
3724 <ele>279.3</ele>
3725 <time>2012-09-10T12:18:50Z</time>
3726 <course>41.0</course>
3727 <speed>16.46</speed>
3728 </trkpt>
3729 <trkpt lat="50.8780290167" lon="13.9511183167">
3730 <ele>279.9</ele>
3731 <time>2012-09-10T12:18:51Z</time>
3732 <course>42.0</course>
3733 <speed>16.15</speed>
3734 </trkpt>
3735 <trkpt lat="50.8781396167" lon="13.9512559500">
3736 <ele>280.9</ele>
3737 <time>2012-09-10T12:18:53Z</time>
3738 <course>41.0</course>
3739 <speed>15.95</speed>
3740 </trkpt>
3741 <trkpt lat="50.8782615167" lon="13.9514113000">
3742 <ele>281.2</ele>
3743 <time>2012-09-10T12:18:54Z</time>
3744 <course>40.0</course>
3745 <speed>16.15</speed>
3746 </trkpt>
3747 <trkpt lat="50.8783701000" lon="13.9515531000">
3748 <ele>281.3</ele>
3749 <time>2012-09-10T12:18:55Z</time>
3750 <course>40.0</course>
3751 <speed>15.95</speed>
3752 </trkpt>
3753 <trkpt lat="50.8784821333" lon="13.9516951500">
3754 <ele>281.2</ele>
3755 <time>2012-09-10T12:18:55Z</time>
3756 <course>39.0</course>
3757 <speed>15.79</speed>
3758 </trkpt>
3759 <trkpt lat="50.8785926500" lon="13.9518242000">
3760 <ele>281.7</ele>
3761 <time>2012-09-10T12:18:56Z</time>
3762 <course>39.0</course>
3763 <speed>15.59</speed>
3764 </trkpt>
3765 <trkpt lat="50.8786981833" lon="13.9519618833">
3766 <ele>282.2</ele>
3767 <time>2012-09-10T12:18:57Z</time>
3768 <course>40.0</course>
3769 <speed>15.07</speed>
3770 </trkpt>
3771 <trkpt lat="50.8787936167" lon="13.9521045667">
3772 <ele>282.3</ele>
3773 <time>2012-09-10T12:18:59Z</time>
3774 <course>40.0</course>
3775 <speed>14.97</speed>
3776 </trkpt>
3777 <trkpt lat="50.8788910500" lon="13.9522367000">
3778 <ele>282.2</ele>
3779 <time>2012-09-10T12:19:00Z</time>
3780 <course>40.0</course>
3781 <speed>15.12</speed>
3782 </trkpt>
3783 <trkpt lat="50.8789929500" lon="13.9523856500">
3784 <ele>282.1</ele>
3785 <time>2012-09-10T12:19:01Z</time>
3786 <course>41.0</course>
3787 <speed>15.23</speed>
3788 </trkpt>
3789 <trkpt lat="50.8790851000" lon="13.9525310000">
3790 <ele>282.3</ele>
3791 <time>2012-09-10T12:19:02Z</time>
3792 <course>43.0</course>
3793 <speed>15.38</speed>
3794 </trkpt>
3795 <trkpt lat="50.8791966833" lon="13.9527004167">
3796 <ele>282.5</ele>
3797 <time>2012-09-10T12:19:02Z</time>
3798 <course>46.0</course>
3799 <speed>15.90</speed>
3800 </trkpt>
3801 <trkpt lat="50.8793026333" lon="13.9528783000">
3802 <ele>282.5</ele>
3803 <time>2012-09-10T12:19:03Z</time>
3804 <course>47.0</course>
3805 <speed>16.36</speed>
3806 </trkpt>
3807 <trkpt lat="50.8794043000" lon="13.9530529833">
3808 <ele>283.2</ele>
3809 <time>2012-09-10T12:19:04Z</time>
3810 <course>49.0</course>
3811 <speed>16.67</speed>
3812 </trkpt>
3813 <trkpt lat="50.8794928167" lon="13.9532654167">
3814 <ele>283.7</ele>
3815 <time>2012-09-10T12:19:06Z</time>
3816 <course>52.0</course>
3817 <speed>16.92</speed>
3818 </trkpt>
3819 <trkpt lat="50.8795878667" lon="13.9534713833">
3820 <ele>284.6</ele>
3821 <time>2012-09-10T12:19:07Z</time>
3822 <course>55.0</course>
3823 <speed>17.34</speed>
3824 </trkpt>
3825 <trkpt lat="50.8796606333" lon="13.9536860167">
3826 <ele>284.6</ele>
3827 <time>2012-09-10T12:19:08Z</time>
3828 <course>60.0</course>
3829 <speed>17.54</speed>
3830 </trkpt>
3831 <trkpt lat="50.8797329167" lon="13.9539211333">
3832 <ele>284.6</ele>
3833 <time>2012-09-10T12:19:08Z</time>
3834 <course>64.0</course>
3835 <speed>17.70</speed>
3836 </trkpt>
3837 <trkpt lat="50.8797773000" lon="13.9541536333">
3838 <ele>284.6</ele>
3839 <time>2012-09-10T12:19:09Z</time>
3840 <course>68.0</course>
3841 <speed>17.80</speed>
3842 </trkpt>
3843 <trkpt lat="50.8798247500" lon="13.9544134833">
3844 <ele>284.7</ele>
3845 <time>2012-09-10T12:19:10Z</time>
3846 <course>70.0</course>
3847 <speed>18.31</speed>
3848 </trkpt>
3849 <trkpt lat="50.8798736333" lon="13.9546756333">
3850 <ele>284.9</ele>
3851 <time>2012-09-10T12:19:12Z</time>
3852 <course>71.0</course>
3853 <speed>18.26</speed>
3854 </trkpt>
3855 <trkpt lat="50.8799321000" lon="13.9549249500">
3856 <ele>285.0</ele>
3857 <time>2012-09-10T12:19:13Z</time>
3858 <course>71.0</course>
3859 <speed>18.21</speed>
3860 </trkpt>
3861 <trkpt lat="50.8799963167" lon="13.9551618333">
3862 <ele>285.1</ele>
3863 <time>2012-09-10T12:19:14Z</time>
3864 <course>69.0</course>
3865 <speed>18.01</speed>
3866 </trkpt>
3867 <trkpt lat="50.8800536500" lon="13.9553932000">
3868 <ele>284.8</ele>
3869 <time>2012-09-10T12:19:15Z</time>
3870 <course>67.0</course>
3871 <speed>17.54</speed>
3872 </trkpt>
3873 <trkpt lat="50.8801235000" lon="13.9556121000">
3874 <ele>285.5</ele>
3875 <time>2012-09-10T12:19:15Z</time>
3876 <course>62.0</course>
3877 <speed>16.87</speed>
3878 </trkpt>
3879 <trkpt lat="50.8802056167" lon="13.9557795000">
3880 <ele>286.7</ele>
3881 <time>2012-09-10T12:19:16Z</time>
3882 <course>58.0</course>
3883 <speed>15.43</speed>
3884 </trkpt>
3885 <trkpt lat="50.8802882833" lon="13.9559550667">
3886 <ele>287.1</ele>
3887 <time>2012-09-10T12:19:18Z</time>
3888 <course>55.0</course>
3889 <speed>14.46</speed>
3890 </trkpt>
3891 <trkpt lat="50.8803755333" lon="13.9560735167">
3892 <ele>287.5</ele>
3893 <time>2012-09-10T12:19:19Z</time>
3894 <course>50.0</course>
3895 <speed>13.48</speed>
3896 </trkpt>
3897 <trkpt lat="50.8805067667" lon="13.9561097167">
3898 <ele>288.1</ele>
3899 <time>2012-09-10T12:19:20Z</time>
3900 <course>40.0</course>
3901 <speed>12.71</speed>
3902 </trkpt>
3903 <trkpt lat="50.8806028333" lon="13.9562027833">
3904 <ele>288.8</ele>
3905 <time>2012-09-10T12:19:21Z</time>
3906 <course>37.0</course>
3907 <speed>12.35</speed>
3908 </trkpt>
3909 <trkpt lat="50.8807136500" lon="13.9562477167">
3910 <ele>288.5</ele>
3911 <time>2012-09-10T12:19:21Z</time>
3912 <course>32.0</course>
3913 <speed>12.04</speed>
3914 </trkpt>
3915 <trkpt lat="50.8808423333" lon="13.9561979167">
3916 <ele>288.5</ele>
3917 <time>2012-09-10T12:19:22Z</time>
3918 <course>17.0</course>
3919 <speed>11.42</speed>
3920 </trkpt>
3921 <trkpt lat="50.8809721167" lon="13.9561469833">
3922 <ele>288.6</ele>
3923 <time>2012-09-10T12:19:23Z</time>
3924 <course>6.0</course>
3925 <speed>11.78</speed>
3926 </trkpt>
3927 <trkpt lat="50.8811133833" lon="13.9560816333">
3928 <ele>289.0</ele>
3929 <time>2012-09-10T12:19:25Z</time>
3930 <course>0.0</course>
3931 <speed>12.71</speed>
3932 </trkpt>
3933 <trkpt lat="50.8813288333" lon="13.9559317167">
3934 <ele>290.2</ele>
3935 <time>2012-09-10T12:19:26Z</time>
3936 <course>350.0</course>
3937 <speed>16.10</speed>
3938 </trkpt>
3939 <trkpt lat="50.8814828167" lon="13.9558638167">
3940 <ele>291.4</ele>
3941 <time>2012-09-10T12:19:27Z</time>
3942 <course>349.0</course>
3943 <speed>16.77</speed>
3944 </trkpt>
3945 <trkpt lat="50.8816365000" lon="13.9558022833">
3946 <ele>291.5</ele>
3947 <time>2012-09-10T12:19:27Z</time>
3948 <course>350.0</course>
3949 <speed>16.92</speed>
3950 </trkpt>
3951 <trkpt lat="50.8817936000" lon="13.9557611667">
3952 <ele>291.6</ele>
3953 <time>2012-09-10T12:19:28Z</time>
3954 <course>349.0</course>
3955 <speed>17.23</speed>
3956 </trkpt>
3957 <trkpt lat="50.8819374167" lon="13.9557187833">
3958 <ele>291.7</ele>
3959 <time>2012-09-10T12:19:29Z</time>
3960 <course>349.0</course>
3961 <speed>17.39</speed>
3962 </trkpt>
3963 <trkpt lat="50.8820869167" lon="13.9556453833">
3964 <ele>292.1</ele>
3965 <time>2012-09-10T12:19:31Z</time>
3966 <course>348.0</course>
3967 <speed>17.65</speed>
3968 </trkpt>
3969 <trkpt lat="50.8822468167" lon="13.9555752333">
3970 <ele>292.9</ele>
3971 <time>2012-09-10T12:19:32Z</time>
3972 <course>348.0</course>
3973 <speed>18.06</speed>
3974 </trkpt>
3975 <trkpt lat="50.8824182667" lon="13.9555029500">
3976 <ele>293.0</ele>
3977 <time>2012-09-10T12:19:33Z</time>
3978 <course>348.0</course>
3979 <speed>18.47</speed>
3980 </trkpt>
3981 <trkpt lat="50.8825915833" lon="13.9554342500">
3982 <ele>293.1</ele>
3983 <time>2012-09-10T12:19:34Z</time>
3984 <course>348.0</course>
3985 <speed>19.03</speed>
3986 </trkpt>
3987 <trkpt lat="50.8827662667" lon="13.9553708667">
3988 <ele>292.8</ele>
3989 <time>2012-09-10T12:19:34Z</time>
3990 <course>348.0</course>
3991 <speed>19.39</speed>
3992 </trkpt>
3993 <trkpt lat="50.8829355667" lon="13.9553190667">
3994 <ele>293.3</ele>
3995 <time>2012-09-10T12:19:35Z</time>
3996 <course>349.0</course>
3997 <speed>19.55</speed>
3998 </trkpt>
3999 <trkpt lat="50.8831304500" lon="13.9552527500">
4000 <ele>293.5</ele>
4001 <time>2012-09-10T12:19:36Z</time>
4002 <course>349.0</course>
4003 <speed>19.81</speed>
4004 </trkpt>
4005 <trkpt lat="50.8832884500" lon="13.9551936333">
4006 <ele>293.9</ele>
4007 <time>2012-09-10T12:19:38Z</time>
4008 <course>349.0</course>
4009 <speed>19.39</speed>
4010 </trkpt>
4011 <trkpt lat="50.8834547333" lon="13.9551225667">
4012 <ele>295.2</ele>
4013 <time>2012-09-10T12:19:39Z</time>
4014 <course>349.0</course>
4015 <speed>18.88</speed>
4016 </trkpt>
4017 <trkpt lat="50.8836131000" lon="13.9550671500">
4018 <ele>296.7</ele>
4019 <time>2012-09-10T12:19:40Z</time>
4020 <course>349.0</course>
4021 <speed>18.47</speed>
4022 </trkpt>
4023 <trkpt lat="50.8837766833" lon="13.9550265333">
4024 <ele>297.5</ele>
4025 <time>2012-09-10T12:19:40Z</time>
4026 <course>349.0</course>
4027 <speed>18.11</speed>
4028 </trkpt>
4029 <trkpt lat="50.8839574500" lon="13.9549579667">
4030 <ele>299.1</ele>
4031 <time>2012-09-10T12:19:41Z</time>
4032 <course>348.0</course>
4033 <speed>17.85</speed>
4034 </trkpt>
4035 <trkpt lat="50.8841241000" lon="13.9548679833">
4036 <ele>301.9</ele>
4037 <time>2012-09-10T12:19:42Z</time>
4038 <course>346.0</course>
4039 <speed>17.54</speed>
4040 </trkpt>
4041 <trkpt lat="50.8842655833" lon="13.9547801000">
4042 <ele>301.6</ele>
4043 <time>2012-09-10T12:19:44Z</time>
4044 <course>342.0</course>
4045 <speed>17.13</speed>
4046 </trkpt>
4047 <trkpt lat="50.8843890167" lon="13.9546788500">
4048 <ele>302.2</ele>
4049 <time>2012-09-10T12:19:45Z</time>
4050 <course>338.0</course>
4051 <speed>16.56</speed>
4052 </trkpt>
4053 <trkpt lat="50.8845163167" lon="13.9545824500">
4054 <ele>302.8</ele>
4055 <time>2012-09-10T12:19:46Z</time>
4056 <course>337.0</course>
4057 <speed>15.79</speed>
4058 </trkpt>
4059 <trkpt lat="50.8846356667" lon="13.9544719667">
4060 <ele>302.9</ele>
4061 <time>2012-09-10T12:19:46Z</time>
4062 <course>334.0</course>
4063 <speed>15.79</speed>
4064 </trkpt>
4065 <trkpt lat="50.8847666167" lon="13.9543784833">
4066 <ele>303.1</ele>
4067 <time>2012-09-10T12:19:47Z</time>
4068 <course>335.0</course>
4069 <speed>15.95</speed>
4070 </trkpt>
4071 <trkpt lat="50.8848891667" lon="13.9542550500">
4072 <ele>303.3</ele>
4073 <time>2012-09-10T12:19:48Z</time>
4074 <course>332.0</course>
4075 <speed>16.31</speed>
4076 </trkpt>
4077 <trkpt lat="50.8849985833" lon="13.9540906333">
4078 <ele>305.1</ele>
4079 <time>2012-09-10T12:19:50Z</time>
4080 <course>332.0</course>
4081 <speed>16.62</speed>
4082 </trkpt>
4083 <trkpt lat="50.8851418833" lon="13.9539941333">
4084 <ele>306.5</ele>
4085 <time>2012-09-10T12:19:51Z</time>
4086 <course>335.0</course>
4087 <speed>16.82</speed>
4088 </trkpt>
4089 <trkpt lat="50.8852819833" lon="13.9538839833">
4090 <ele>305.9</ele>
4091 <time>2012-09-10T12:19:52Z</time>
4092 <course>337.0</course>
4093 <speed>17.18</speed>
4094 </trkpt>
4095 <trkpt lat="50.8854450833" lon="13.9537889667">
4096 <ele>305.8</ele>
4097 <time>2012-09-10T12:19:53Z</time>
4098 <course>340.0</course>
4099 <speed>18.26</speed>
4100 </trkpt>
4101 <trkpt lat="50.8856026333" lon="13.9537065833">
4102 <ele>305.7</ele>
4103 <time>2012-09-10T12:19:53Z</time>
4104 <course>341.0</course>
4105 <speed>18.67</speed>
4106 </trkpt>
4107 <trkpt lat="50.8857701500" lon="13.9536308500">
4108 <ele>306.0</ele>
4109 <time>2012-09-10T12:19:54Z</time>
4110 <course>343.0</course>
4111 <speed>19.34</speed>
4112 </trkpt>
4113 <trkpt lat="50.8859333167" lon="13.9535462167">
4114 <ele>305.8</ele>
4115 <time>2012-09-10T12:19:55Z</time>
4116 <course>343.0</course>
4117 <speed>19.60</speed>
4118 </trkpt>
4119 <trkpt lat="50.8861172000" lon="13.9534624167">
4120 <ele>306.1</ele>
4121 <time>2012-09-10T12:19:57Z</time>
4122 <course>343.0</course>
4123 <speed>20.11</speed>
4124 </trkpt>
4125 <trkpt lat="50.8862988333" lon="13.9533655333">
4126 <ele>306.3</ele>
4127 <time>2012-09-10T12:19:58Z</time>
4128 <course>342.0</course>
4129 <speed>20.63</speed>
4130 </trkpt>
4131 <trkpt lat="50.8864872667" lon="13.9532732833">
4132 <ele>306.5</ele>
4133 <time>2012-09-10T12:19:59Z</time>
4134 <course>342.0</course>
4135 <speed>21.19</speed>
4136 </trkpt>
4137 <trkpt lat="50.8866613833" lon="13.9531825167">
4138 <ele>306.3</ele>
4139 <time>2012-09-10T12:19:59Z</time>
4140 <course>343.0</course>
4141 <speed>20.89</speed>
4142 </trkpt>
4143 <trkpt lat="50.8868575333" lon="13.9530986833">
4144 <ele>306.3</ele>
4145 <time>2012-09-10T12:20:00Z</time>
4146 <course>343.0</course>
4147 <speed>21.25</speed>
4148 </trkpt>
4149 <trkpt lat="50.8870319667" lon="13.9529818333">
4150 <ele>306.5</ele>
4151 <time>2012-09-10T12:20:01Z</time>
4152 <course>343.0</course>
4153 <speed>21.61</speed>
4154 </trkpt>
4155 <trkpt lat="50.8872280000" lon="13.9528913333">
4156 <ele>306.8</ele>
4157 <time>2012-09-10T12:20:03Z</time>
4158 <course>344.0</course>
4159 <speed>22.02</speed>
4160 </trkpt>
4161 <trkpt lat="50.8874320667" lon="13.9528218833">
4162 <ele>307.5</ele>
4163 <time>2012-09-10T12:20:04Z</time>
4164 <course>345.0</course>
4165 <speed>22.27</speed>
4166 </trkpt>
4167 <trkpt lat="50.8876241667" lon="13.9527107667">
4168 <ele>307.7</ele>
4169 <time>2012-09-10T12:20:05Z</time>
4170 <course>343.0</course>
4171 <speed>22.89</speed>
4172 </trkpt>
4173 <trkpt lat="50.8878348000" lon="13.9526099333">
4174 <ele>307.9</ele>
4175 <time>2012-09-10T12:20:05Z</time>
4176 <course>344.0</course>
4177 <speed>23.41</speed>
4178 </trkpt>
4179 <trkpt lat="50.8880696000" lon="13.9525362333">
4180 <ele>308.3</ele>
4181 <time>2012-09-10T12:20:06Z</time>
4182 <course>344.0</course>
4183 <speed>24.13</speed>
4184 </trkpt>
4185 <trkpt lat="50.8882686000" lon="13.9524544667">
4186 <ele>310.0</ele>
4187 <time>2012-09-10T12:20:07Z</time>
4188 <course>346.0</course>
4189 <speed>24.38</speed>
4190 </trkpt>
4191 <trkpt lat="50.8885127333" lon="13.9524360000">
4192 <ele>310.1</ele>
4193 <time>2012-09-10T12:20:09Z</time>
4194 <course>350.0</course>
4195 <speed>24.85</speed>
4196 </trkpt>
4197 <trkpt lat="50.8887694833" lon="13.9524077667">
4198 <ele>310.4</ele>
4199 <time>2012-09-10T12:20:10Z</time>
4200 <course>352.0</course>
4201 <speed>25.31</speed>
4202 </trkpt>
4203 <trkpt lat="50.8889952667" lon="13.9523804167">
4204 <ele>310.6</ele>
4205 <time>2012-09-10T12:20:11Z</time>
4206 <course>354.0</course>
4207 <speed>25.10</speed>
4208 </trkpt>
4209 <trkpt lat="50.8892072833" lon="13.9523526000">
4210 <ele>311.0</ele>
4211 <time>2012-09-10T12:20:12Z</time>
4212 <course>354.0</course>
4213 <speed>24.54</speed>
4214 </trkpt>
4215 <trkpt lat="50.8894194000" lon="13.9523143833">
4216 <ele>311.7</ele>
4217 <time>2012-09-10T12:20:12Z</time>
4218 <course>355.0</course>
4219 <speed>24.13</speed>
4220 </trkpt>
4221 <trkpt lat="50.8896183333" lon="13.9522864500">
4222 <ele>312.7</ele>
4223 <time>2012-09-10T12:20:13Z</time>
4224 <course>355.0</course>
4225 <speed>23.66</speed>
4226 </trkpt>
4227 <trkpt lat="50.8898271333" lon="13.9522667167">
4228 <ele>313.0</ele>
4229 <time>2012-09-10T12:20:14Z</time>
4230 <course>355.0</course>
4231 <speed>23.56</speed>
4232 </trkpt>
4233 <trkpt lat="50.8900454833" lon="13.9522527833">
4234 <ele>313.3</ele>
4235 <time>2012-09-10T12:20:16Z</time>
4236 <course>356.0</course>
4237 <speed>23.30</speed>
4238 </trkpt>
4239 <trkpt lat="50.8902551167" lon="13.9522363667">
4240 <ele>313.4</ele>
4241 <time>2012-09-10T12:20:17Z</time>
4242 <course>356.0</course>
4243 <speed>23.05</speed>
4244 </trkpt>
4245 <trkpt lat="50.8904510333" lon="13.9522145333">
4246 <ele>313.9</ele>
4247 <time>2012-09-10T12:20:18Z</time>
4248 <course>355.0</course>
4249 <speed>22.79</speed>
4250 </trkpt>
4251 <trkpt lat="50.8906494667" lon="13.9521572333">
4252 <ele>314.3</ele>
4253 <time>2012-09-10T12:20:18Z</time>
4254 <course>352.0</course>
4255 <speed>22.64</speed>
4256 </trkpt>
4257 <trkpt lat="50.8908528500" lon="13.9520618833">
4258 <ele>314.2</ele>
4259 <time>2012-09-10T12:20:19Z</time>
4260 <course>348.0</course>
4261 <speed>22.64</speed>
4262 </trkpt>
4263 <trkpt lat="50.8910543833" lon="13.9519735833">
4264 <ele>314.1</ele>
4265 <time>2012-09-10T12:20:20Z</time>
4266 <course>346.0</course>
4267 <speed>23.00</speed>
4268 </trkpt>
4269 <trkpt lat="50.8912218000" lon="13.9518606333">
4270 <ele>314.9</ele>
4271 <time>2012-09-10T12:20:22Z</time>
4272 <course>343.0</course>
4273 <speed>22.69</speed>
4274 </trkpt>
4275 <trkpt lat="50.8913848500" lon="13.9517081000">
4276 <ele>314.9</ele>
4277 <time>2012-09-10T12:20:23Z</time>
4278 <course>340.0</course>
4279 <speed>22.27</speed>
4280 </trkpt>
4281 <trkpt lat="50.8915375500" lon="13.9515586167">
4282 <ele>314.8</ele>
4283 <time>2012-09-10T12:20:24Z</time>
4284 <course>336.0</course>
4285 <speed>21.55</speed>
4286 </trkpt>
4287 <trkpt lat="50.8916525167" lon="13.9513805500">
4288 <ele>315.1</ele>
4289 <time>2012-09-10T12:20:25Z</time>
4290 <course>333.0</course>
4291 <speed>20.47</speed>
4292 </trkpt>
4293 <trkpt lat="50.8917537000" lon="13.9511560333">
4294 <ele>316.1</ele>
4295 <time>2012-09-10T12:20:25Z</time>
4296 <course>327.0</course>
4297 <speed>20.27</speed>
4298 </trkpt>
4299 <trkpt lat="50.8918399000" lon="13.9508866833">
4300 <ele>316.3</ele>
4301 <time>2012-09-10T12:20:26Z</time>
4302 <course>320.0</course>
4303 <speed>20.01</speed>
4304 </trkpt>
4305 <trkpt lat="50.8918885500" lon="13.9505432667">
4306 <ele>317.4</ele>
4307 <time>2012-09-10T12:20:28Z</time>
4308 <course>308.0</course>
4309 <speed>20.22</speed>
4310 </trkpt>
4311 <trkpt lat="50.8919855333" lon="13.9502860333">
4312 <ele>318.5</ele>
4313 <time>2012-09-10T12:20:29Z</time>
4314 <course>305.0</course>
4315 <speed>20.22</speed>
4316 </trkpt>
4317 <trkpt lat="50.8920643333" lon="13.9500172167">
4318 <ele>317.8</ele>
4319 <time>2012-09-10T12:20:30Z</time>
4320 <course>300.0</course>
4321 <speed>20.11</speed>
4322 </trkpt>
4323 <trkpt lat="50.8921482333" lon="13.9497652167">
4324 <ele>316.9</ele>
4325 <time>2012-09-10T12:20:31Z</time>
4326 <course>300.0</course>
4327 <speed>20.01</speed>
4328 </trkpt>
4329 <trkpt lat="50.8922299667" lon="13.9495064333">
4330 <ele>317.3</ele>
4331 <time>2012-09-10T12:20:31Z</time>
4332 <course>300.0</course>
4333 <speed>20.01</speed>
4334 </trkpt>
4335 <trkpt lat="50.8923164000" lon="13.9492329000">
4336 <ele>317.7</ele>
4337 <time>2012-09-10T12:20:32Z</time>
4338 <course>301.0</course>
4339 <speed>20.01</speed>
4340 </trkpt>
4341 <trkpt lat="50.8924128500" lon="13.9490052833">
4342 <ele>317.8</ele>
4343 <time>2012-09-10T12:20:33Z</time>
4344 <course>304.0</course>
4345 <speed>20.11</speed>
4346 </trkpt>
4347 <trkpt lat="50.8925223667" lon="13.9487814667">
4348 <ele>318.2</ele>
4349 <time>2012-09-10T12:20:35Z</time>
4350 <course>308.0</course>
4351 <speed>20.06</speed>
4352 </trkpt>
4353 <trkpt lat="50.8926420833" lon="13.9485636500">
4354 <ele>319.5</ele>
4355 <time>2012-09-10T12:20:36Z</time>
4356 <course>311.0</course>
4357 <speed>19.65</speed>
4358 </trkpt>
4359 <trkpt lat="50.8927887500" lon="13.9484049500">
4360 <ele>319.7</ele>
4361 <time>2012-09-10T12:20:37Z</time>
4362 <course>318.0</course>
4363 <speed>19.39</speed>
4364 </trkpt>
4365 <trkpt lat="50.8929343833" lon="13.9482574500">
4366 <ele>319.4</ele>
4367 <time>2012-09-10T12:20:37Z</time>
4368 <course>323.0</course>
4369 <speed>19.29</speed>
4370 </trkpt>
4371 <trkpt lat="50.8930815000" lon="13.9481038167">
4372 <ele>319.5</ele>
4373 <time>2012-09-10T12:20:38Z</time>
4374 <course>324.0</course>
4375 <speed>19.39</speed>
4376 </trkpt>
4377 <trkpt lat="50.8932382167" lon="13.9479498333">
4378 <ele>319.7</ele>
4379 <time>2012-09-10T12:20:39Z</time>
4380 <course>326.0</course>
4381 <speed>19.65</speed>
4382 </trkpt>
4383 <trkpt lat="50.8933883167" lon="13.9477895500">
4384 <ele>319.6</ele>
4385 <time>2012-09-10T12:20:41Z</time>
4386 <course>326.0</course>
4387 <speed>19.91</speed>
4388 </trkpt>
4389 <trkpt lat="50.8935336667" lon="13.9476321333">
4390 <ele>319.6</ele>
4391 <time>2012-09-10T12:20:42Z</time>
4392 <course>326.0</course>
4393 <speed>19.75</speed>
4394 </trkpt>
4395 <trkpt lat="50.8936915000" lon="13.9474879167">
4396 <ele>319.5</ele>
4397 <time>2012-09-10T12:20:43Z</time>
4398 <course>327.0</course>
4399 <speed>19.91</speed>
4400 </trkpt>
4401 <trkpt lat="50.8938497667" lon="13.9473370167">
4402 <ele>319.5</ele>
4403 <time>2012-09-10T12:20:44Z</time>
4404 <course>328.0</course>
4405 <speed>20.22</speed>
4406 </trkpt>
4407 <trkpt lat="50.8940155000" lon="13.9471833000">
4408 <ele>319.3</ele>
4409 <time>2012-09-10T12:20:44Z</time>
4410 <course>329.0</course>
4411 <speed>20.63</speed>
4412 </trkpt>
4413 <trkpt lat="50.8941817833" lon="13.9470611167">
4414 <ele>318.3</ele>
4415 <time>2012-09-10T12:20:45Z</time>
4416 <course>331.0</course>
4417 <speed>20.68</speed>
4418 </trkpt>
4419 <trkpt lat="50.8943445833" lon="13.9469621833">
4420 <ele>317.6</ele>
4421 <time>2012-09-10T12:20:46Z</time>
4422 <course>333.0</course>
4423 <speed>20.47</speed>
4424 </trkpt>
4425 <trkpt lat="50.8945191833" lon="13.9468442833">
4426 <ele>317.4</ele>
4427 <time>2012-09-10T12:20:48Z</time>
4428 <course>335.0</course>
4429 <speed>20.58</speed>
4430 </trkpt>
4431 <trkpt lat="50.8947004167" lon="13.9467327167">
4432 <ele>317.5</ele>
4433 <time>2012-09-10T12:20:49Z</time>
4434 <course>335.0</course>
4435 <speed>20.78</speed>
4436 </trkpt>
4437 <trkpt lat="50.8948701333" lon="13.9466228333">
4438 <ele>317.6</ele>
4439 <time>2012-09-10T12:20:50Z</time>
4440 <course>336.0</course>
4441 <speed>20.73</speed>
4442 </trkpt>
4443 <trkpt lat="50.8950503000" lon="13.9465105500">
4444 <ele>317.2</ele>
4445 <time>2012-09-10T12:20:50Z</time>
4446 <course>336.0</course>
4447 <speed>20.99</speed>
4448 </trkpt>
4449 <trkpt lat="50.8952293333" lon="13.9463921667">
4450 <ele>317.2</ele>
4451 <time>2012-09-10T12:20:51Z</time>
4452 <course>336.0</course>
4453 <speed>21.09</speed>
4454 </trkpt>
4455 <trkpt lat="50.8953984167" lon="13.9462681833">
4456 <ele>316.8</ele>
4457 <time>2012-09-10T12:20:52Z</time>
4458 <course>337.0</course>
4459 <speed>20.99</speed>
4460 </trkpt>
4461 <trkpt lat="50.8955696833" lon="13.9461452167">
4462 <ele>317.0</ele>
4463 <time>2012-09-10T12:20:54Z</time>
4464 <course>337.0</course>
4465 <speed>20.68</speed>
4466 </trkpt>
4467 <trkpt lat="50.8957433500" lon="13.9460079500">
4468 <ele>316.4</ele>
4469 <time>2012-09-10T12:20:55Z</time>
4470 <course>337.0</course>
4471 <speed>20.53</speed>
4472 </trkpt>
4473 <trkpt lat="50.8959093167" lon="13.9459192333">
4474 <ele>315.8</ele>
4475 <time>2012-09-10T12:20:56Z</time>
4476 <course>338.0</course>
4477 <speed>19.81</speed>
4478 </trkpt>
4479 <trkpt lat="50.8960597833" lon="13.9458240000">
4480 <ele>315.8</ele>
4481 <time>2012-09-10T12:20:56Z</time>
4482 <course>341.0</course>
4483 <speed>18.67</speed>
4484 </trkpt>
4485 <trkpt lat="50.8962441333" lon="13.9457993500">
4486 <ele>314.2</ele>
4487 <time>2012-09-10T12:20:57Z</time>
4488 <course>348.0</course>
4489 <speed>17.90</speed>
4490 </trkpt>
4491 <trkpt lat="50.8964046000" lon="13.9457660500">
4492 <ele>314.0</ele>
4493 <time>2012-09-10T12:20:58Z</time>
4494 <course>352.0</course>
4495 <speed>18.01</speed>
4496 </trkpt>
4497 <trkpt lat="50.8965603500" lon="13.9457776500">
4498 <ele>312.7</ele>
4499 <time>2012-09-10T12:21:00Z</time>
4500 <course>359.0</course>
4501 <speed>17.39</speed>
4502 </trkpt>
4503 <trkpt lat="50.8967139000" lon="13.9457747000">
4504 <ele>312.7</ele>
4505 <time>2012-09-10T12:21:01Z</time>
4506 <course>0.0</course>
4507 <speed>17.23</speed>
4508 </trkpt>
4509 <trkpt lat="50.8968844000" lon="13.9457844000">
4510 <ele>311.0</ele>
4511 <time>2012-09-10T12:21:02Z</time>
4512 <course>2.0</course>
4513 <speed>17.34</speed>
4514 </trkpt>
4515 <trkpt lat="50.8970448667" lon="13.9458027667">
4516 <ele>310.0</ele>
4517 <time>2012-09-10T12:21:03Z</time>
4518 <course>3.0</course>
4519 <speed>17.23</speed>
4520 </trkpt>
4521 <trkpt lat="50.8971938333" lon="13.9458208000">
4522 <ele>307.8</ele>
4523 <time>2012-09-10T12:21:03Z</time>
4524 <course>3.0</course>
4525 <speed>17.28</speed>
4526 </trkpt>
4527 <trkpt lat="50.8973382833" lon="13.9458284000">
4528 <ele>306.1</ele>
4529 <time>2012-09-10T12:21:04Z</time>
4530 <course>3.0</course>
4531 <speed>17.03</speed>
4532 </trkpt>
4533 <trkpt lat="50.8974853167" lon="13.9458379167">
4534 <ele>304.9</ele>
4535 <time>2012-09-10T12:21:05Z</time>
4536 <course>4.0</course>
4537 <speed>16.77</speed>
4538 </trkpt>
4539 <trkpt lat="50.8976277667" lon="13.9458505500">
4540 <ele>304.4</ele>
4541 <time>2012-09-10T12:21:07Z</time>
4542 <course>2.0</course>
4543 <speed>16.62</speed>
4544 </trkpt>
4545 <trkpt lat="50.8977742667" lon="13.9458666167">
4546 <ele>303.7</ele>
4547 <time>2012-09-10T12:21:08Z</time>
4548 <course>3.0</course>
4549 <speed>16.26</speed>
4550 </trkpt>
4551 <trkpt lat="50.8979160667" lon="13.9458751833">
4552 <ele>302.3</ele>
4553 <time>2012-09-10T12:21:09Z</time>
4554 <course>3.0</course>
4555 <speed>15.54</speed>
4556 </trkpt>
4557 <trkpt lat="50.8980588000" lon="13.9458759333">
4558 <ele>300.9</ele>
4559 <time>2012-09-10T12:21:09Z</time>
4560 <course>3.0</course>
4561 <speed>15.23</speed>
4562 </trkpt>
4563 <trkpt lat="50.8981978167" lon="13.9458861167">
4564 <ele>299.8</ele>
4565 <time>2012-09-10T12:21:10Z</time>
4566 <course>2.0</course>
4567 <speed>15.23</speed>
4568 </trkpt>
4569 <trkpt lat="50.8983314667" lon="13.9458893500">
4570 <ele>299.5</ele>
4571 <time>2012-09-10T12:21:11Z</time>
4572 <course>2.0</course>
4573 <speed>15.18</speed>
4574 </trkpt>
4575 <trkpt lat="50.8984687167" lon="13.9458983667">
4576 <ele>299.4</ele>
4577 <time>2012-09-10T12:21:13Z</time>
4578 <course>1.0</course>
4579 <speed>15.12</speed>
4580 </trkpt>
4581 <trkpt lat="50.8986030833" lon="13.9459095333">
4582 <ele>299.5</ele>
4583 <time>2012-09-10T12:21:14Z</time>
4584 <course>0.0</course>
4585 <speed>14.87</speed>
4586 </trkpt>
4587 <trkpt lat="50.8987320500" lon="13.9459052333">
4588 <ele>299.6</ele>
4589 <time>2012-09-10T12:21:15Z</time>
4590 <course>359.0</course>
4591 <speed>14.30</speed>
4592 </trkpt>
4593 <trkpt lat="50.8988495333" lon="13.9458883667">
4594 <ele>299.3</ele>
4595 <time>2012-09-10T12:21:16Z</time>
4596 <course>356.0</course>
4597 <speed>13.53</speed>
4598 </trkpt>
4599 <trkpt lat="50.8989467833" lon="13.9458765667">
4600 <ele>299.1</ele>
4601 <time>2012-09-10T12:21:16Z</time>
4602 <course>355.0</course>
4603 <speed>12.14</speed>
4604 </trkpt>
4605 <trkpt lat="50.8990419333" lon="13.9458628000">
4606 <ele>298.6</ele>
4607 <time>2012-09-10T12:21:17Z</time>
4608 <course>354.0</course>
4609 <speed>10.96</speed>
4610 </trkpt>
4611 <trkpt lat="50.8991264333" lon="13.9458326500">
4612 <ele>298.5</ele>
4613 <time>2012-09-10T12:21:19Z</time>
4614 <course>352.0</course>
4615 <speed>10.29</speed>
4616 </trkpt>
4617 <trkpt lat="50.8992108333" lon="13.9458163000">
4618 <ele>298.5</ele>
4619 <time>2012-09-10T12:21:20Z</time>
4620 <course>354.0</course>
4621 <speed>9.47</speed>
4622 </trkpt>
4623 <trkpt lat="50.8992942833" lon="13.9458336667">
4624 <ele>297.9</ele>
4625 <time>2012-09-10T12:21:21Z</time>
4626 <course>3.0</course>
4627 <speed>8.80</speed>
4628 </trkpt>
4629 <trkpt lat="50.8993720167" lon="13.9458706333">
4630 <ele>297.2</ele>
4631 <time>2012-09-10T12:21:22Z</time>
4632 <course>17.0</course>
4633 <speed>7.77</speed>
4634 </trkpt>
4635 <trkpt lat="50.8994402667" lon="13.9458888000">
4636 <ele>297.2</ele>
4637 <time>2012-09-10T12:21:22Z</time>
4638 <course>14.0</course>
4639 <speed>7.41</speed>
4640 </trkpt>
4641 <trkpt lat="50.8995008500" lon="13.9458956333">
4642 <ele>296.6</ele>
4643 <time>2012-09-10T12:21:23Z</time>
4644 <course>6.0</course>
4645 <speed>7.25</speed>
4646 </trkpt>
4647 <trkpt lat="50.8995651667" lon="13.9458951000">
4648 <ele>296.6</ele>
4649 <time>2012-09-10T12:21:24Z</time>
4650 <course>4.0</course>
4651 <speed>7.15</speed>
4652 </trkpt>
4653 <trkpt lat="50.8996145000" lon="13.9458385667">
4654 <ele>296.9</ele>
4655 <time>2012-09-10T12:21:26Z</time>
4656 <course>351.0</course>
4657 <speed>6.58</speed>
4658 </trkpt>
4659 <trkpt lat="50.8996413000" lon="13.9457751833">
4660 <ele>296.5</ele>
4661 <time>2012-09-10T12:21:27Z</time>
4662 <course>347.0</course>
4663 <speed>4.99</speed>
4664 </trkpt>
4665 <trkpt lat="50.8996449000" lon="13.9457125333">
4666 <ele>296.7</ele>
4667 <time>2012-09-10T12:21:28Z</time>
4668 <course>337.0</course>
4669 <speed>3.29</speed>
4670 </trkpt>
4671 <trkpt lat="50.8996026500" lon="13.9455808000">
4672 <ele>295.8</ele>
4673 <time>2012-09-10T12:21:28Z</time>
4674 <course>290.0</course>
4675 <speed>4.48</speed>
4676 </trkpt>
4677 <trkpt lat="50.8995819333" lon="13.9454680833">
4678 <ele>295.9</ele>
4679 <time>2012-09-10T12:21:29Z</time>
4680 <course>278.0</course>
4681 <speed>5.92</speed>
4682 </trkpt>
4683 <trkpt lat="50.8995276333" lon="13.9452850667">
4684 <ele>295.3</ele>
4685 <time>2012-09-10T12:21:30Z</time>
4686 <course>268.0</course>
4687 <speed>8.69</speed>
4688 </trkpt>
4689 <trkpt lat="50.8994641333" lon="13.9450745667">
4690 <ele>294.7</ele>
4691 <time>2012-09-10T12:21:32Z</time>
4692 <course>263.0</course>
4693 <speed>10.65</speed>
4694 </trkpt>
4695 <trkpt lat="50.8994253500" lon="13.9448746333">
4696 <ele>294.1</ele>
4697 <time>2012-09-10T12:21:33Z</time>
4698 <course>263.0</course>
4699 <speed>11.63</speed>
4700 </trkpt>
4701 <trkpt lat="50.8994027333" lon="13.9446740667">
4702 <ele>293.5</ele>
4703 <time>2012-09-10T12:21:34Z</time>
4704 <course>266.0</course>
4705 <speed>12.81</speed>
4706 </trkpt>
4707 <trkpt lat="50.8993925833" lon="13.9444590333">
4708 <ele>293.0</ele>
4709 <time>2012-09-10T12:21:35Z</time>
4710 <course>268.0</course>
4711 <speed>13.94</speed>
4712 </trkpt>
4713 <trkpt lat="50.8993783333" lon="13.9442115833">
4714 <ele>292.3</ele>
4715 <time>2012-09-10T12:21:35Z</time>
4716 <course>271.0</course>
4717 <speed>15.38</speed>
4718 </trkpt>
4719 <trkpt lat="50.8993862667" lon="13.9439732667">
4720 <ele>291.5</ele>
4721 <time>2012-09-10T12:21:36Z</time>
4722 <course>273.0</course>
4723 <speed>15.95</speed>
4724 </trkpt>
4725 <trkpt lat="50.8993832833" lon="13.9437256500">
4726 <ele>291.2</ele>
4727 <time>2012-09-10T12:21:38Z</time>
4728 <course>273.0</course>
4729 <speed>16.00</speed>
4730 </trkpt>
4731 <trkpt lat="50.8993903833" lon="13.9435036333">
4732 <ele>291.2</ele>
4733 <time>2012-09-10T12:21:39Z</time>
4734 <course>274.0</course>
4735 <speed>15.84</speed>
4736 </trkpt>
4737 <trkpt lat="50.8993983333" lon="13.9432671667">
4738 <ele>291.1</ele>
4739 <time>2012-09-10T12:21:40Z</time>
4740 <course>274.0</course>
4741 <speed>16.20</speed>
4742 </trkpt>
4743 <trkpt lat="50.8994101667" lon="13.9430314000">
4744 <ele>291.5</ele>
4745 <time>2012-09-10T12:21:41Z</time>
4746 <course>274.0</course>
4747 <speed>16.72</speed>
4748 </trkpt>
4749 <trkpt lat="50.8994084833" lon="13.9427755500">
4750 <ele>291.1</ele>
4751 <time>2012-09-10T12:21:41Z</time>
4752 <course>273.0</course>
4753 <speed>17.39</speed>
4754 </trkpt>
4755 <trkpt lat="50.8994147167" lon="13.9424881167">
4756 <ele>290.8</ele>
4757 <time>2012-09-10T12:21:42Z</time>
4758 <course>269.0</course>
4759 <speed>18.98</speed>
4760 </trkpt>
4761 <trkpt lat="50.8994228667" lon="13.9422025000">
4762 <ele>289.9</ele>
4763 <time>2012-09-10T12:21:43Z</time>
4764 <course>267.0</course>
4765 <speed>19.91</speed>
4766 </trkpt>
4767 <trkpt lat="50.8994124333" lon="13.9419166667">
4768 <ele>289.8</ele>
4769 <time>2012-09-10T12:21:45Z</time>
4770 <course>266.0</course>
4771 <speed>20.11</speed>
4772 </trkpt>
4773 <trkpt lat="50.8993977167" lon="13.9416328333">
4774 <ele>289.3</ele>
4775 <time>2012-09-10T12:21:46Z</time>
4776 <course>266.0</course>
4777 <speed>20.47</speed>
4778 </trkpt>
4779 <trkpt lat="50.8993793500" lon="13.9413412833">
4780 <ele>289.5</ele>
4781 <time>2012-09-10T12:21:47Z</time>
4782 <course>265.0</course>
4783 <speed>20.73</speed>
4784 </trkpt>
4785 <trkpt lat="50.8993325333" lon="13.9410579833">
4786 <ele>288.9</ele>
4787 <time>2012-09-10T12:21:47Z</time>
4788 <course>261.0</course>
4789 <speed>20.78</speed>
4790 </trkpt>
4791 <trkpt lat="50.8992931500" lon="13.9407658500">
4792 <ele>288.9</ele>
4793 <time>2012-09-10T12:21:48Z</time>
4794 <course>259.0</course>
4795 <speed>20.89</speed>
4796 </trkpt>
4797 <trkpt lat="50.8992480333" lon="13.9404683500">
4798 <ele>288.9</ele>
4799 <time>2012-09-10T12:21:49Z</time>
4800 <course>258.0</course>
4801 <speed>20.89</speed>
4802 </trkpt>
4803 <trkpt lat="50.8991949333" lon="13.9401702500">
4804 <ele>288.9</ele>
4805 <time>2012-09-10T12:21:51Z</time>
4806 <course>256.0</course>
4807 <speed>21.14</speed>
4808 </trkpt>
4809 <trkpt lat="50.8991256167" lon="13.9398745000">
4810 <ele>287.9</ele>
4811 <time>2012-09-10T12:21:52Z</time>
4812 <course>255.0</course>
4813 <speed>21.71</speed>
4814 </trkpt>
4815 <trkpt lat="50.8990711333" lon="13.9395462333">
4816 <ele>287.9</ele>
4817 <time>2012-09-10T12:21:53Z</time>
4818 <course>255.0</course>
4819 <speed>22.27</speed>
4820 </trkpt>
4821 <trkpt lat="50.8990291167" lon="13.9392422333">
4822 <ele>288.4</ele>
4823 <time>2012-09-10T12:21:54Z</time>
4824 <course>256.0</course>
4825 <speed>22.22</speed>
4826 </trkpt>
4827 <trkpt lat="50.8989879167" lon="13.9389274000">
4828 <ele>288.5</ele>
4829 <time>2012-09-10T12:21:54Z</time>
4830 <course>257.0</course>
4831 <speed>22.53</speed>
4832 </trkpt>
4833 <trkpt lat="50.8989732167" lon="13.9386240833">
4834 <ele>288.6</ele>
4835 <time>2012-09-10T12:21:55Z</time>
4836 <course>260.0</course>
4837 <speed>22.38</speed>
4838 </trkpt>
4839 <trkpt lat="50.8989625833" lon="13.9383261000">
4840 <ele>288.5</ele>
4841 <time>2012-09-10T12:21:56Z</time>
4842 <course>262.0</course>
4843 <speed>22.48</speed>
4844 </trkpt>
4845 <trkpt lat="50.8989433833" lon="13.9380090667">
4846 <ele>288.4</ele>
4847 <time>2012-09-10T12:21:58Z</time>
4848 <course>263.0</course>
4849 <speed>22.89</speed>
4850 </trkpt>
4851 <trkpt lat="50.8989275000" lon="13.9376672000">
4852 <ele>288.6</ele>
4853 <time>2012-09-10T12:21:59Z</time>
4854 <course>265.0</course>
4855 <speed>23.72</speed>
4856 </trkpt>
4857 <trkpt lat="50.8989079000" lon="13.9373195000">
4858 <ele>288.9</ele>
4859 <time>2012-09-10T12:22:00Z</time>
4860 <course>266.0</course>
4861 <speed>24.08</speed>
4862 </trkpt>
4863 <trkpt lat="50.8989165500" lon="13.9369573333">
4864 <ele>287.7</ele>
4865 <time>2012-09-10T12:22:00Z</time>
4866 <course>269.0</course>
4867 <speed>24.80</speed>
4868 </trkpt>
4869 <trkpt lat="50.8989232833" lon="13.9365954500">
4870 <ele>287.7</ele>
4871 <time>2012-09-10T12:22:01Z</time>
4872 <course>271.0</course>
4873 <speed>25.52</speed>
4874 </trkpt>
4875 <trkpt lat="50.8989428167" lon="13.9362144833">
4876 <ele>288.1</ele>
4877 <time>2012-09-10T12:22:02Z</time>
4878 <course>273.0</course>
4879 <speed>26.29</speed>
4880 </trkpt>
4881 <trkpt lat="50.8989617333" lon="13.9358256833">
4882 <ele>288.2</ele>
4883 <time>2012-09-10T12:22:04Z</time>
4884 <course>274.0</course>
4885 <speed>27.06</speed>
4886 </trkpt>
4887 <trkpt lat="50.8989798167" lon="13.9354361667">
4888 <ele>289.4</ele>
4889 <time>2012-09-10T12:22:05Z</time>
4890 <course>276.0</course>
4891 <speed>27.68</speed>
4892 </trkpt>
4893 <trkpt lat="50.8990027000" lon="13.9350218167">
4894 <ele>290.1</ele>
4895 <time>2012-09-10T12:22:06Z</time>
4896 <course>276.0</course>
4897 <speed>28.29</speed>
4898 </trkpt>
4899 <trkpt lat="50.8990168000" lon="13.9345894333">
4900 <ele>289.9</ele>
4901 <time>2012-09-10T12:22:06Z</time>
4902 <course>276.0</course>
4903 <speed>28.86</speed>
4904 </trkpt>
4905 <trkpt lat="50.8990437333" lon="13.9341625333">
4906 <ele>289.4</ele>
4907 <time>2012-09-10T12:22:07Z</time>
4908 <course>276.0</course>
4909 <speed>29.12</speed>
4910 </trkpt>
4911 <trkpt lat="50.8990670667" lon="13.9337266500">
4912 <ele>288.3</ele>
4913 <time>2012-09-10T12:22:08Z</time>
4914 <course>276.0</course>
4915 <speed>29.94</speed>
4916 </trkpt>
4917 <trkpt lat="50.8990912833" lon="13.9332860500">
4918 <ele>287.1</ele>
4919 <time>2012-09-10T12:22:10Z</time>
4920 <course>276.0</course>
4921 <speed>30.35</speed>
4922 </trkpt>
4923 <trkpt lat="50.8991189500" lon="13.9328604333">
4924 <ele>285.9</ele>
4925 <time>2012-09-10T12:22:11Z</time>
4926 <course>276.0</course>
4927 <speed>30.76</speed>
4928 </trkpt>
4929 <trkpt lat="50.8991476000" lon="13.9324311667">
4930 <ele>284.9</ele>
4931 <time>2012-09-10T12:22:12Z</time>
4932 <course>276.0</course>
4933 <speed>30.92</speed>
4934 </trkpt>
4935 <trkpt lat="50.8991816167" lon="13.9319979833">
4936 <ele>284.6</ele>
4937 <time>2012-09-10T12:22:13Z</time>
4938 <course>276.0</course>
4939 <speed>30.87</speed>
4940 </trkpt>
4941 <trkpt lat="50.8992085500" lon="13.9315675500">
4942 <ele>284.7</ele>
4943 <time>2012-09-10T12:22:13Z</time>
4944 <course>276.0</course>
4945 <speed>30.66</speed>
4946 </trkpt>
4947 <trkpt lat="50.8992440667" lon="13.9311409000">
4948 <ele>284.2</ele>
4949 <time>2012-09-10T12:22:14Z</time>
4950 <course>277.0</course>
4951 <speed>30.56</speed>
4952 </trkpt>
4953 <trkpt lat="50.8992731500" lon="13.9307212500">
4954 <ele>284.3</ele>
4955 <time>2012-09-10T12:22:15Z</time>
4956 <course>277.0</course>
4957 <speed>30.25</speed>
4958 </trkpt>
4959 <trkpt lat="50.8993061833" lon="13.9302924500">
4960 <ele>284.9</ele>
4961 <time>2012-09-10T12:22:17Z</time>
4962 <course>276.0</course>
4963 <speed>30.09</speed>
4964 </trkpt>
4965 <trkpt lat="50.8993344833" lon="13.9298725500">
4966 <ele>284.9</ele>
4967 <time>2012-09-10T12:22:18Z</time>
4968 <course>276.0</course>
4969 <speed>29.73</speed>
4970 </trkpt>
4971 <trkpt lat="50.8993598667" lon="13.9294565167">
4972 <ele>285.4</ele>
4973 <time>2012-09-10T12:22:19Z</time>
4974 <course>276.0</course>
4975 <speed>29.48</speed>
4976 </trkpt>
4977 <trkpt lat="50.8994015000" lon="13.9290507000">
4978 <ele>285.0</ele>
4979 <time>2012-09-10T12:22:19Z</time>
4980 <course>276.0</course>
4981 <speed>29.27</speed>
4982 </trkpt>
4983 <trkpt lat="50.8994258667" lon="13.9286348833">
4984 <ele>284.1</ele>
4985 <time>2012-09-10T12:22:20Z</time>
4986 <course>276.0</course>
4987 <speed>29.17</speed>
4988 </trkpt>
4989 <trkpt lat="50.8994628000" lon="13.9282380500">
4990 <ele>283.4</ele>
4991 <time>2012-09-10T12:22:21Z</time>
4992 <course>276.0</course>
4993 <speed>28.76</speed>
4994 </trkpt>
4995 <trkpt lat="50.8994806667" lon="13.9278352167">
4996 <ele>283.9</ele>
4997 <time>2012-09-10T12:22:23Z</time>
4998 <course>276.0</course>
4999 <speed>28.65</speed>
5000 </trkpt>
5001 <trkpt lat="50.8995105500" lon="13.9274352500">
5002 <ele>283.4</ele>
5003 <time>2012-09-10T12:22:24Z</time>
5004 <course>276.0</course>
5005 <speed>28.50</speed>
5006 </trkpt>
5007 <trkpt lat="50.8995404833" lon="13.9270248833">
5008 <ele>282.8</ele>
5009 <time>2012-09-10T12:22:25Z</time>
5010 <course>276.0</course>
5011 <speed>28.35</speed>
5012 </trkpt>
5013 <trkpt lat="50.8995758500" lon="13.9266492167">
5014 <ele>282.6</ele>
5015 <time>2012-09-10T12:22:26Z</time>
5016 <course>276.0</course>
5017 <speed>27.83</speed>
5018 </trkpt>
5019 <trkpt lat="50.8996009333" lon="13.9262556000">
5020 <ele>282.5</ele>
5021 <time>2012-09-10T12:22:26Z</time>
5022 <course>276.0</course>
5023 <speed>27.57</speed>
5024 </trkpt>
5025 <trkpt lat="50.8996344500" lon="13.9258775833">
5026 <ele>282.6</ele>
5027 <time>2012-09-10T12:22:27Z</time>
5028 <course>276.0</course>
5029 <speed>27.21</speed>
5030 </trkpt>
5031 <trkpt lat="50.8996674833" lon="13.9255014667">
5032 <ele>282.2</ele>
5033 <time>2012-09-10T12:22:29Z</time>
5034 <course>276.0</course>
5035 <speed>27.01</speed>
5036 </trkpt>
5037 <trkpt lat="50.8996982167" lon="13.9251210500">
5038 <ele>282.4</ele>
5039 <time>2012-09-10T12:22:30Z</time>
5040 <course>277.0</course>
5041 <speed>27.16</speed>
5042 </trkpt>
5043 <trkpt lat="50.8997222167" lon="13.9247410667">
5044 <ele>282.3</ele>
5045 <time>2012-09-10T12:22:31Z</time>
5046 <course>277.0</course>
5047 <speed>27.16</speed>
5048 </trkpt>
5049 <trkpt lat="50.8997461833" lon="13.9243590667">
5050 <ele>281.7</ele>
5051 <time>2012-09-10T12:22:32Z</time>
5052 <course>277.0</course>
5053 <speed>27.42</speed>
5054 </trkpt>
5055 <trkpt lat="50.8997679333" lon="13.9239586667">
5056 <ele>280.4</ele>
5057 <time>2012-09-10T12:22:32Z</time>
5058 <course>276.0</course>
5059 <speed>27.68</speed>
5060 </trkpt>
5061 <trkpt lat="50.8997781500" lon="13.9235360833">
5062 <ele>279.5</ele>
5063 <time>2012-09-10T12:22:33Z</time>
5064 <course>276.0</course>
5065 <speed>27.93</speed>
5066 </trkpt>
5067 <trkpt lat="50.8997871667" lon="13.9231390833">
5068 <ele>278.4</ele>
5069 <time>2012-09-10T12:22:34Z</time>
5070 <course>274.0</course>
5071 <speed>27.93</speed>
5072 </trkpt>
5073 <trkpt lat="50.8998071500" lon="13.9227562000">
5074 <ele>278.1</ele>
5075 <time>2012-09-10T12:22:36Z</time>
5076 <course>273.0</course>
5077 <speed>27.78</speed>
5078 </trkpt>
5079 <trkpt lat="50.8998099500" lon="13.9223660000">
5080 <ele>278.0</ele>
5081 <time>2012-09-10T12:22:37Z</time>
5082 <course>271.0</course>
5083 <speed>27.57</speed>
5084 </trkpt>
5085 <trkpt lat="50.8997968000" lon="13.9219757500">
5086 <ele>277.1</ele>
5087 <time>2012-09-10T12:22:38Z</time>
5088 <course>268.0</course>
5089 <speed>27.42</speed>
5090 </trkpt>
5091 <trkpt lat="50.8997558000" lon="13.9215991167">
5092 <ele>276.8</ele>
5093 <time>2012-09-10T12:22:38Z</time>
5094 <course>264.0</course>
5095 <speed>27.21</speed>
5096 </trkpt>
5097 <trkpt lat="50.8996984667" lon="13.9212207000">
5098 <ele>276.4</ele>
5099 <time>2012-09-10T12:22:39Z</time>
5100 <course>261.0</course>
5101 <speed>27.21</speed>
5102 </trkpt>
5103 <trkpt lat="50.8996541667" lon="13.9208285167">
5104 <ele>276.0</ele>
5105 <time>2012-09-10T12:22:40Z</time>
5106 <course>260.0</course>
5107 <speed>27.68</speed>
5108 </trkpt>
5109 <trkpt lat="50.8996145667" lon="13.9204272333">
5110 <ele>275.7</ele>
5111 <time>2012-09-10T12:22:42Z</time>
5112 <course>261.0</course>
5113 <speed>27.99</speed>
5114 </trkpt>
5115 <trkpt lat="50.8995827000" lon="13.9200255500">
5116 <ele>275.2</ele>
5117 <time>2012-09-10T12:22:43Z</time>
5118 <course>263.0</course>
5119 <speed>28.09</speed>
5120 </trkpt>
5121 <trkpt lat="50.8995733667" lon="13.9196303167">
5122 <ele>274.6</ele>
5123 <time>2012-09-10T12:22:44Z</time>
5124 <course>266.0</course>
5125 <speed>27.83</speed>
5126 </trkpt>
5127 <trkpt lat="50.8995825167" lon="13.9192560000">
5128 <ele>273.4</ele>
5129 <time>2012-09-10T12:22:45Z</time>
5130 <course>268.0</course>
5131 <speed>27.01</speed>
5132 </trkpt>
5133 <trkpt lat="50.8996066167" lon="13.9188786667">
5134 <ele>273.1</ele>
5135 <time>2012-09-10T12:22:45Z</time>
5136 <course>272.0</course>
5137 <speed>27.16</speed>
5138 </trkpt>
5139 <trkpt lat="50.8996372167" lon="13.9184926500">
5140 <ele>272.5</ele>
5141 <time>2012-09-10T12:22:46Z</time>
5142 <course>275.0</course>
5143 <speed>27.37</speed>
5144 </trkpt>
5145 <trkpt lat="50.8996778167" lon="13.9181183667">
5146 <ele>272.3</ele>
5147 <time>2012-09-10T12:22:47Z</time>
5148 <course>278.0</course>
5149 <speed>27.26</speed>
5150 </trkpt>
5151 <trkpt lat="50.8997300167" lon="13.9177484000">
5152 <ele>271.9</ele>
5153 <time>2012-09-10T12:22:49Z</time>
5154 <course>281.0</course>
5155 <speed>27.42</speed>
5156 </trkpt>
5157 <trkpt lat="50.8998083167" lon="13.9173840667">
5158 <ele>271.6</ele>
5159 <time>2012-09-10T12:22:50Z</time>
5160 <course>285.0</course>
5161 <speed>27.26</speed>
5162 </trkpt>
5163 <trkpt lat="50.8998699167" lon="13.9169977500">
5164 <ele>271.5</ele>
5165 <time>2012-09-10T12:22:51Z</time>
5166 <course>287.0</course>
5167 <speed>27.42</speed>
5168 </trkpt>
5169 <trkpt lat="50.8999442833" lon="13.9166256167">
5170 <ele>271.6</ele>
5171 <time>2012-09-10T12:22:51Z</time>
5172 <course>288.0</course>
5173 <speed>27.57</speed>
5174 </trkpt>
5175 <trkpt lat="50.9000259167" lon="13.9162558000">
5176 <ele>271.4</ele>
5177 <time>2012-09-10T12:22:52Z</time>
5178 <course>288.0</course>
5179 <speed>27.68</speed>
5180 </trkpt>
5181 <trkpt lat="50.9001089667" lon="13.9158771833">
5182 <ele>271.6</ele>
5183 <time>2012-09-10T12:22:53Z</time>
5184 <course>289.0</course>
5185 <speed>28.04</speed>
5186 </trkpt>
5187 <trkpt lat="50.9002023833" lon="13.9155065000">
5188 <ele>271.7</ele>
5189 <time>2012-09-10T12:22:55Z</time>
5190 <course>290.0</course>
5191 <speed>28.24</speed>
5192 </trkpt>
5193 <trkpt lat="50.9003722500" lon="13.9147506000">
5194 <ele>271.7</ele>
5195 <time>2012-09-10T12:22:57Z</time>
5196 <course>290.0</course>
5197 <speed>28.19</speed>
5198 </trkpt>
5199 <trkpt lat="50.9004714500" lon="13.9143492333">
5200 <ele>272.0</ele>
5201 <time>2012-09-10T12:22:57Z</time>
5202 <course>290.0</course>
5203 <speed>28.96</speed>
5204 </trkpt>
5205 <trkpt lat="50.9005495167" lon="13.9139650333">
5206 <ele>271.6</ele>
5207 <time>2012-09-10T12:22:58Z</time>
5208 <course>290.0</course>
5209 <speed>29.22</speed>
5210 </trkpt>
5211 <trkpt lat="50.9006313500" lon="13.9135662167">
5212 <ele>271.3</ele>
5213 <time>2012-09-10T12:22:59Z</time>
5214 <course>290.0</course>
5215 <speed>29.43</speed>
5216 </trkpt>
5217 <trkpt lat="50.9007451000" lon="13.9131742667">
5218 <ele>271.3</ele>
5219 <time>2012-09-10T12:23:01Z</time>
5220 <course>290.0</course>
5221 <speed>29.73</speed>
5222 </trkpt>
5223 <trkpt lat="50.9008371667" lon="13.9127658833">
5224 <ele>271.1</ele>
5225 <time>2012-09-10T12:23:02Z</time>
5226 <course>290.0</course>
5227 <speed>29.99</speed>
5228 </trkpt>
5229 <trkpt lat="50.9009324167" lon="13.9123485833">
5230 <ele>270.9</ele>
5231 <time>2012-09-10T12:23:03Z</time>
5232 <course>290.0</course>
5233 <speed>30.20</speed>
5234 </trkpt>
5235 <trkpt lat="50.9010247667" lon="13.9119535667">
5236 <ele>270.9</ele>
5237 <time>2012-09-10T12:23:04Z</time>
5238 <course>290.0</course>
5239 <speed>30.09</speed>
5240 </trkpt>
5241 <trkpt lat="50.9011168500" lon="13.9115612833">
5242 <ele>271.0</ele>
5243 <time>2012-09-10T12:23:04Z</time>
5244 <course>290.0</course>
5245 <speed>29.79</speed>
5246 </trkpt>
5247 <trkpt lat="50.9012011333" lon="13.9111653000">
5248 <ele>270.9</ele>
5249 <time>2012-09-10T12:23:05Z</time>
5250 <course>290.0</course>
5251 <speed>29.27</speed>
5252 </trkpt>
5253 <trkpt lat="50.9012860000" lon="13.9107638667">
5254 <ele>270.9</ele>
5255 <time>2012-09-10T12:23:06Z</time>
5256 <course>290.0</course>
5257 <speed>28.91</speed>
5258 </trkpt>
5259 <trkpt lat="50.9013598833" lon="13.9103942500">
5260 <ele>270.9</ele>
5261 <time>2012-09-10T12:23:08Z</time>
5262 <course>289.0</course>
5263 <speed>28.19</speed>
5264 </trkpt>
5265 <trkpt lat="50.9014484667" lon="13.9100184500">
5266 <ele>270.6</ele>
5267 <time>2012-09-10T12:23:09Z</time>
5268 <course>290.0</course>
5269 <speed>27.78</speed>
5270 </trkpt>
5271 <trkpt lat="50.9015405000" lon="13.9096464167">
5272 <ele>270.6</ele>
5273 <time>2012-09-10T12:23:10Z</time>
5274 <course>290.0</course>
5275 <speed>27.57</speed>
5276 </trkpt>
5277 <trkpt lat="50.9016032000" lon="13.9092788833">
5278 <ele>270.7</ele>
5279 <time>2012-09-10T12:23:10Z</time>
5280 <course>287.0</course>
5281 <speed>26.96</speed>
5282 </trkpt>
5283 <trkpt lat="50.9016671167" lon="13.9089130833">
5284 <ele>270.0</ele>
5285 <time>2012-09-10T12:23:11Z</time>
5286 <course>286.0</course>
5287 <speed>26.65</speed>
5288 </trkpt>
5289 <trkpt lat="50.9017262833" lon="13.9085479667">
5290 <ele>269.5</ele>
5291 <time>2012-09-10T12:23:12Z</time>
5292 <course>284.0</course>
5293 <speed>26.54</speed>
5294 </trkpt>
5295 <trkpt lat="50.9017618667" lon="13.9081776833">
5296 <ele>269.6</ele>
5297 <time>2012-09-10T12:23:14Z</time>
5298 <course>281.0</course>
5299 <speed>26.54</speed>
5300 </trkpt>
5301 <trkpt lat="50.9017977167" lon="13.9078012000">
5302 <ele>269.5</ele>
5303 <time>2012-09-10T12:23:15Z</time>
5304 <course>279.0</course>
5305 <speed>26.70</speed>
5306 </trkpt>
5307 <trkpt lat="50.9018067167" lon="13.9074219667">
5308 <ele>269.3</ele>
5309 <time>2012-09-10T12:23:16Z</time>
5310 <course>275.0</course>
5311 <speed>26.44</speed>
5312 </trkpt>
5313 <trkpt lat="50.9018152167" lon="13.9070439500">
5314 <ele>269.3</ele>
5315 <time>2012-09-10T12:23:16Z</time>
5316 <course>273.0</course>
5317 <speed>26.54</speed>
5318 </trkpt>
5319 <trkpt lat="50.9017911667" lon="13.9066454167">
5320 <ele>268.7</ele>
5321 <time>2012-09-10T12:23:17Z</time>
5322 <course>267.0</course>
5323 <speed>27.01</speed>
5324 </trkpt>
5325 <trkpt lat="50.9017787667" lon="13.9062633833">
5326 <ele>269.1</ele>
5327 <time>2012-09-10T12:23:18Z</time>
5328 <course>267.0</course>
5329 <speed>26.90</speed>
5330 </trkpt>
5331 <trkpt lat="50.9017635167" lon="13.9058807167">
5332 <ele>269.4</ele>
5333 <time>2012-09-10T12:23:20Z</time>
5334 <course>265.0</course>
5335 <speed>26.80</speed>
5336 </trkpt>
5337 <trkpt lat="50.9017372833" lon="13.9055057833">
5338 <ele>269.6</ele>
5339 <time>2012-09-10T12:23:21Z</time>
5340 <course>264.0</course>
5341 <speed>26.39</speed>
5342 </trkpt>
5343 <trkpt lat="50.9017042667" lon="13.9051436833">
5344 <ele>269.7</ele>
5345 <time>2012-09-10T12:23:22Z</time>
5346 <course>262.0</course>
5347 <speed>26.24</speed>
5348 </trkpt>
5349 <trkpt lat="50.9016469833" lon="13.9047679167">
5350 <ele>269.8</ele>
5351 <time>2012-09-10T12:23:23Z</time>
5352 <course>259.0</course>
5353 <speed>26.44</speed>
5354 </trkpt>
5355 <trkpt lat="50.9015612833" lon="13.9043900500">
5356 <ele>269.5</ele>
5357 <time>2012-09-10T12:23:23Z</time>
5358 <course>255.0</course>
5359 <speed>26.70</speed>
5360 </trkpt>
5361 <trkpt lat="50.9014502500" lon="13.9040220500">
5362 <ele>271.0</ele>
5363 <time>2012-09-10T12:23:24Z</time>
5364 <course>249.0</course>
5365 <speed>27.21</speed>
5366 </trkpt>
5367 <trkpt lat="50.9013652000" lon="13.9036731333">
5368 <ele>272.6</ele>
5369 <time>2012-09-10T12:23:25Z</time>
5370 <course>247.0</course>
5371 <speed>27.21</speed>
5372 </trkpt>
5373 <trkpt lat="50.9012595833" lon="13.9033157167">
5374 <ele>272.7</ele>
5375 <time>2012-09-10T12:23:27Z</time>
5376 <course>246.0</course>
5377 <speed>27.32</speed>
5378 </trkpt>
5379 <trkpt lat="50.9011532167" lon="13.9029668833">
5380 <ele>272.9</ele>
5381 <time>2012-09-10T12:23:28Z</time>
5382 <course>245.0</course>
5383 <speed>27.37</speed>
5384 </trkpt>
5385 <trkpt lat="50.9010351833" lon="13.9026260667">
5386 <ele>272.5</ele>
5387 <time>2012-09-10T12:23:29Z</time>
5388 <course>243.0</course>
5389 <speed>27.26</speed>
5390 </trkpt>
5391 <trkpt lat="50.9009111167" lon="13.9022809000">
5392 <ele>272.3</ele>
5393 <time>2012-09-10T12:23:29Z</time>
5394 <course>241.0</course>
5395 <speed>27.42</speed>
5396 </trkpt>
5397 <trkpt lat="50.9007902333" lon="13.9019322167">
5398 <ele>272.5</ele>
5399 <time>2012-09-10T12:23:30Z</time>
5400 <course>241.0</course>
5401 <speed>27.57</speed>
5402 </trkpt>
5403 <trkpt lat="50.9006713500" lon="13.9015814167">
5404 <ele>272.5</ele>
5405 <time>2012-09-10T12:23:31Z</time>
5406 <course>241.0</course>
5407 <speed>27.68</speed>
5408 </trkpt>
5409 <trkpt lat="50.9005456833" lon="13.9012600667">
5410 <ele>272.3</ele>
5411 <time>2012-09-10T12:23:33Z</time>
5412 <course>240.0</course>
5413 <speed>27.52</speed>
5414 </trkpt>
5415 <trkpt lat="50.9004213667" lon="13.9009120167">
5416 <ele>272.2</ele>
5417 <time>2012-09-10T12:23:34Z</time>
5418 <course>240.0</course>
5419 <speed>27.78</speed>
5420 </trkpt>
5421 <trkpt lat="50.9002896500" lon="13.9005706833">
5422 <ele>272.2</ele>
5423 <time>2012-09-10T12:23:35Z</time>
5424 <course>240.0</course>
5425 <speed>27.88</speed>
5426 </trkpt>
5427 <trkpt lat="50.9001724833" lon="13.9002243833">
5428 <ele>272.2</ele>
5429 <time>2012-09-10T12:23:36Z</time>
5430 <course>240.0</course>
5431 <speed>27.88</speed>
5432 </trkpt>
5433 <trkpt lat="50.9000513167" lon="13.8998827333">
5434 <ele>272.1</ele>
5435 <time>2012-09-10T12:23:36Z</time>
5436 <course>240.0</course>
5437 <speed>27.88</speed>
5438 </trkpt>
5439 <trkpt lat="50.8999103000" lon="13.8995482333">
5440 <ele>271.8</ele>
5441 <time>2012-09-10T12:23:37Z</time>
5442 <course>240.0</course>
5443 <speed>28.04</speed>
5444 </trkpt>
5445 <trkpt lat="50.8997831333" lon="13.8992005667">
5446 <ele>272.0</ele>
5447 <time>2012-09-10T12:23:39Z</time>
5448 <course>240.0</course>
5449 <speed>28.09</speed>
5450 </trkpt>
5451 <trkpt lat="50.8996589333" lon="13.8988516667">
5452 <ele>272.1</ele>
5453 <time>2012-09-10T12:23:40Z</time>
5454 <course>240.0</course>
5455 <speed>28.09</speed>
5456 </trkpt>
5457 <trkpt lat="50.8995240167" lon="13.8985032333">
5458 <ele>272.4</ele>
5459 <time>2012-09-10T12:23:41Z</time>
5460 <course>240.0</course>
5461 <speed>27.99</speed>
5462 </trkpt>
5463 <trkpt lat="50.8994074500" lon="13.8981649667">
5464 <ele>272.5</ele>
5465 <time>2012-09-10T12:23:42Z</time>
5466 <course>240.0</course>
5467 <speed>27.32</speed>
5468 </trkpt>
5469 <trkpt lat="50.8992929500" lon="13.8978409000">
5470 <ele>272.5</ele>
5471 <time>2012-09-10T12:23:42Z</time>
5472 <course>240.0</course>
5473 <speed>26.60</speed>
5474 </trkpt>
5475 <trkpt lat="50.8991676000" lon="13.8975106000">
5476 <ele>272.3</ele>
5477 <time>2012-09-10T12:23:43Z</time>
5478 <course>240.0</course>
5479 <speed>26.18</speed>
5480 </trkpt>
5481 <trkpt lat="50.8990519000" lon="13.8972097167">
5482 <ele>272.1</ele>
5483 <time>2012-09-10T12:23:44Z</time>
5484 <course>239.0</course>
5485 <speed>25.31</speed>
5486 </trkpt>
5487 <trkpt lat="50.8989335167" lon="13.8969263667">
5488 <ele>274.4</ele>
5489 <time>2012-09-10T12:23:46Z</time>
5490 <course>241.0</course>
5491 <speed>24.13</speed>
5492 </trkpt>
5493 <trkpt lat="50.8988152167" lon="13.8966387167">
5494 <ele>276.3</ele>
5495 <time>2012-09-10T12:23:47Z</time>
5496 <course>243.0</course>
5497 <speed>23.51</speed>
5498 </trkpt>
5499 <trkpt lat="50.8987261667" lon="13.8963440333">
5500 <ele>276.3</ele>
5501 <time>2012-09-10T12:23:48Z</time>
5502 <course>245.0</course>
5503 <speed>22.94</speed>
5504 </trkpt>
5505 <trkpt lat="50.8986377667" lon="13.8960499333">
5506 <ele>277.4</ele>
5507 <time>2012-09-10T12:23:48Z</time>
5508 <course>247.0</course>
5509 <speed>22.43</speed>
5510 </trkpt>
5511 <trkpt lat="50.8985629167" lon="13.8957608000">
5512 <ele>277.5</ele>
5513 <time>2012-09-10T12:23:49Z</time>
5514 <course>250.0</course>
5515 <speed>21.91</speed>
5516 </trkpt>
5517 <trkpt lat="50.8984960500" lon="13.8954654000">
5518 <ele>277.8</ele>
5519 <time>2012-09-10T12:23:50Z</time>
5520 <course>250.0</course>
5521 <speed>21.81</speed>
5522 </trkpt>
5523 <trkpt lat="50.8984384667" lon="13.8951719500">
5524 <ele>278.0</ele>
5525 <time>2012-09-10T12:23:52Z</time>
5526 <course>251.0</course>
5527 <speed>21.40</speed>
5528 </trkpt>
5529 <trkpt lat="50.8983883167" lon="13.8948939667">
5530 <ele>278.1</ele>
5531 <time>2012-09-10T12:23:53Z</time>
5532 <course>253.0</course>
5533 <speed>20.53</speed>
5534 </trkpt>
5535 <trkpt lat="50.8983529833" lon="13.8946380667">
5536 <ele>277.8</ele>
5537 <time>2012-09-10T12:23:54Z</time>
5538 <course>256.0</course>
5539 <speed>19.09</speed>
5540 </trkpt>
5541 <trkpt lat="50.8983256500" lon="13.8943855833">
5542 <ele>278.1</ele>
5543 <time>2012-09-10T12:23:55Z</time>
5544 <course>258.0</course>
5545 <speed>18.62</speed>
5546 </trkpt>
5547 <trkpt lat="50.8983214833" lon="13.8941458833">
5548 <ele>278.2</ele>
5549 <time>2012-09-10T12:23:55Z</time>
5550 <course>261.0</course>
5551 <speed>17.90</speed>
5552 </trkpt>
5553 <trkpt lat="50.8983103667" lon="13.8939175667">
5554 <ele>277.9</ele>
5555 <time>2012-09-10T12:23:56Z</time>
5556 <course>262.0</course>
5557 <speed>17.39</speed>
5558 </trkpt>
5559 <trkpt lat="50.8983161000" lon="13.8937426667">
5560 <ele>278.0</ele>
5561 <time>2012-09-10T12:23:57Z</time>
5562 <course>263.0</course>
5563 <speed>15.69</speed>
5564 </trkpt>
5565 <trkpt lat="50.8983575167" lon="13.8936068500">
5566 <ele>277.7</ele>
5567 <time>2012-09-10T12:23:59Z</time>
5568 <course>266.0</course>
5569 <speed>13.58</speed>
5570 </trkpt>
5571 <trkpt lat="50.8984363833" lon="13.8935458667">
5572 <ele>276.9</ele>
5573 <time>2012-09-10T12:24:00Z</time>
5574 <course>274.0</course>
5575 <speed>11.27</speed>
5576 </trkpt>
5577 <trkpt lat="50.8985770667" lon="13.8935649000">
5578 <ele>277.2</ele>
5579 <time>2012-09-10T12:24:01Z</time>
5580 <course>293.0</course>
5581 <speed>9.41</speed>
5582 </trkpt>
5583 <trkpt lat="50.8987803167" lon="13.8936577500">
5584 <ele>278.2</ele>
5585 <time>2012-09-10T12:24:01Z</time>
5586 <course>324.0</course>
5587 <speed>10.03</speed>
5588 </trkpt>
5589 <trkpt lat="50.8989481667" lon="13.8936784333">
5590 <ele>279.0</ele>
5591 <time>2012-09-10T12:24:02Z</time>
5592 <course>341.0</course>
5593 <speed>11.57</speed>
5594 </trkpt>
5595 <trkpt lat="50.8990610500" lon="13.8936386667">
5596 <ele>279.7</ele>
5597 <time>2012-09-10T12:24:03Z</time>
5598 <course>339.0</course>
5599 <speed>12.09</speed>
5600 </trkpt>
5601 <trkpt lat="50.8992253833" lon="13.8935959500">
5602 <ele>280.0</ele>
5603 <time>2012-09-10T12:24:05Z</time>
5604 <course>335.0</course>
5605 <speed>14.51</speed>
5606 </trkpt>
5607 <trkpt lat="50.8993666500" lon="13.8934993833">
5608 <ele>279.9</ele>
5609 <time>2012-09-10T12:24:06Z</time>
5610 <course>334.0</course>
5611 <speed>14.92</speed>
5612 </trkpt>
5613 <trkpt lat="50.8994608833" lon="13.8933698833">
5614 <ele>280.1</ele>
5615 <time>2012-09-10T12:24:07Z</time>
5616 <course>329.0</course>
5617 <speed>14.04</speed>
5618 </trkpt>
5619 <trkpt lat="50.8995720500" lon="13.8932591000">
5620 <ele>280.5</ele>
5621 <time>2012-09-10T12:24:07Z</time>
5622 <course>327.0</course>
5623 <speed>14.20</speed>
5624 </trkpt>
5625 <trkpt lat="50.8996782167" lon="13.8931135167">
5626 <ele>280.3</ele>
5627 <time>2012-09-10T12:24:08Z</time>
5628 <course>325.0</course>
5629 <speed>15.28</speed>
5630 </trkpt>
5631 <trkpt lat="50.8998009667" lon="13.8929873833">
5632 <ele>280.7</ele>
5633 <time>2012-09-10T12:24:09Z</time>
5634 <course>328.0</course>
5635 <speed>15.69</speed>
5636 </trkpt>
5637 <trkpt lat="50.8999394000" lon="13.8929064667">
5638 <ele>280.7</ele>
5639 <time>2012-09-10T12:24:11Z</time>
5640 <course>332.0</course>
5641 <speed>15.48</speed>
5642 </trkpt>
5643 <trkpt lat="50.9000833167" lon="13.8928513833">
5644 <ele>280.6</ele>
5645 <time>2012-09-10T12:24:12Z</time>
5646 <course>338.0</course>
5647 <speed>14.76</speed>
5648 </trkpt>
5649 <trkpt lat="50.9002305833" lon="13.8928256833">
5650 <ele>280.8</ele>
5651 <time>2012-09-10T12:24:13Z</time>
5652 <course>345.0</course>
5653 <speed>14.25</speed>
5654 </trkpt>
5655 <trkpt lat="50.9004185667" lon="13.8928590167">
5656 <ele>281.3</ele>
5657 <time>2012-09-10T12:24:14Z</time>
5658 <course>352.0</course>
5659 <speed>16.20</speed>
5660 </trkpt>
5661 <trkpt lat="50.9006135833" lon="13.8929313333">
5662 <ele>281.1</ele>
5663 <time>2012-09-10T12:24:14Z</time>
5664 <course>0.0</course>
5665 <speed>17.28</speed>
5666 </trkpt>
5667 <trkpt lat="50.9008185333" lon="13.8929876500">
5668 <ele>281.3</ele>
5669 <time>2012-09-10T12:24:15Z</time>
5670 <course>0.0</course>
5671 <speed>20.06</speed>
5672 </trkpt>
5673 <trkpt lat="50.9010390000" lon="13.8930769333">
5674 <ele>281.5</ele>
5675 <time>2012-09-10T12:24:16Z</time>
5676 <course>6.0</course>
5677 <speed>21.91</speed>
5678 </trkpt>
5679 <trkpt lat="50.9012665833" lon="13.8931784000">
5680 <ele>281.5</ele>
5681 <time>2012-09-10T12:24:18Z</time>
5682 <course>10.0</course>
5683 <speed>23.41</speed>
5684 </trkpt>
5685 <trkpt lat="50.9014955667" lon="13.8932237667">
5686 <ele>281.2</ele>
5687 <time>2012-09-10T12:24:19Z</time>
5688 <course>9.0</course>
5689 <speed>24.28</speed>
5690 </trkpt>
5691 <trkpt lat="50.9017317667" lon="13.8932852667">
5692 <ele>280.8</ele>
5693 <time>2012-09-10T12:24:20Z</time>
5694 <course>8.0</course>
5695 <speed>25.16</speed>
5696 </trkpt>
5697 <trkpt lat="50.9019726000" lon="13.8933387667">
5698 <ele>280.3</ele>
5699 <time>2012-09-10T12:24:20Z</time>
5700 <course>8.0</course>
5701 <speed>26.03</speed>
5702 </trkpt>
5703 <trkpt lat="50.9022227667" lon="13.8934120167">
5704 <ele>280.1</ele>
5705 <time>2012-09-10T12:24:21Z</time>
5706 <course>8.0</course>
5707 <speed>27.11</speed>
5708 </trkpt>
5709 <trkpt lat="50.9024772333" lon="13.8934731000">
5710 <ele>279.7</ele>
5711 <time>2012-09-10T12:24:22Z</time>
5712 <course>8.0</course>
5713 <speed>27.78</speed>
5714 </trkpt>
5715 <trkpt lat="50.9027471000" lon="13.8935349167">
5716 <ele>279.6</ele>
5717 <time>2012-09-10T12:24:24Z</time>
5718 <course>7.0</course>
5719 <speed>28.91</speed>
5720 </trkpt>
5721 <trkpt lat="50.9030165167" lon="13.8935879667">
5722 <ele>279.5</ele>
5723 <time>2012-09-10T12:24:25Z</time>
5724 <course>7.0</course>
5725 <speed>29.84</speed>
5726 </trkpt>
5727 <trkpt lat="50.9032961000" lon="13.8936543000">
5728 <ele>279.7</ele>
5729 <time>2012-09-10T12:24:26Z</time>
5730 <course>6.0</course>
5731 <speed>30.71</speed>
5732 </trkpt>
5733 <trkpt lat="50.9035826500" lon="13.8937094000">
5734 <ele>279.4</ele>
5735 <time>2012-09-10T12:24:27Z</time>
5736 <course>5.0</course>
5737 <speed>31.38</speed>
5738 </trkpt>
5739 <trkpt lat="50.9038776333" lon="13.8937596500">
5740 <ele>279.1</ele>
5741 <time>2012-09-10T12:24:27Z</time>
5742 <course>5.0</course>
5743 <speed>32.05</speed>
5744 </trkpt>
5745 <trkpt lat="50.9041809000" lon="13.8938074833">
5746 <ele>279.1</ele>
5747 <time>2012-09-10T12:24:28Z</time>
5748 <course>4.0</course>
5749 <speed>32.72</speed>
5750 </trkpt>
5751 <trkpt lat="50.9044822667" lon="13.8938386000">
5752 <ele>279.3</ele>
5753 <time>2012-09-10T12:24:30Z</time>
5754 <course>3.0</course>
5755 <speed>33.18</speed>
5756 </trkpt>
5757 <trkpt lat="50.9047746167" lon="13.8938570833">
5758 <ele>279.3</ele>
5759 <time>2012-09-10T12:24:31Z</time>
5760 <course>2.0</course>
5761 <speed>33.23</speed>
5762 </trkpt>
5763 <trkpt lat="50.9050762000" lon="13.8938645500">
5764 <ele>279.6</ele>
5765 <time>2012-09-10T12:24:32Z</time>
5766 <course>1.0</course>
5767 <speed>33.54</speed>
5768 </trkpt>
5769 <trkpt lat="50.9053989667" lon="13.8938794167">
5770 <ele>279.5</ele>
5771 <time>2012-09-10T12:24:33Z</time>
5772 <course>0.0</course>
5773 <speed>34.16</speed>
5774 </trkpt>
5775 <trkpt lat="50.9057079333" lon="13.8938736000">
5776 <ele>279.2</ele>
5777 <time>2012-09-10T12:24:33Z</time>
5778 <course>0.0</course>
5779 <speed>34.21</speed>
5780 </trkpt>
5781 <trkpt lat="50.9060153167" lon="13.8938681333">
5782 <ele>279.4</ele>
5783 <time>2012-09-10T12:24:34Z</time>
5784 <course>359.0</course>
5785 <speed>34.26</speed>
5786 </trkpt>
5787 <trkpt lat="50.9063272667" lon="13.8938540667">
5788 <ele>278.9</ele>
5789 <time>2012-09-10T12:24:35Z</time>
5790 <course>359.0</course>
5791 <speed>34.31</speed>
5792 </trkpt>
5793 <trkpt lat="50.9066245167" lon="13.8938203000">
5794 <ele>278.6</ele>
5795 <time>2012-09-10T12:24:37Z</time>
5796 <course>358.0</course>
5797 <speed>34.16</speed>
5798 </trkpt>
5799 <trkpt lat="50.9069345167" lon="13.8937905833">
5800 <ele>279.1</ele>
5801 <time>2012-09-10T12:24:38Z</time>
5802 <course>357.0</course>
5803 <speed>34.31</speed>
5804 </trkpt>
5805 <trkpt lat="50.9072471833" lon="13.8937651000">
5806 <ele>279.0</ele>
5807 <time>2012-09-10T12:24:39Z</time>
5808 <course>357.0</course>
5809 <speed>34.47</speed>
5810 </trkpt>
5811 <trkpt lat="50.9075587833" lon="13.8937222667">
5812 <ele>279.1</ele>
5813 <time>2012-09-10T12:24:39Z</time>
5814 <course>356.0</course>
5815 <speed>34.52</speed>
5816 </trkpt>
5817 <trkpt lat="50.9078802167" lon="13.8936782833">
5818 <ele>278.8</ele>
5819 <time>2012-09-10T12:24:40Z</time>
5820 <course>355.0</course>
5821 <speed>34.67</speed>
5822 </trkpt>
5823 <trkpt lat="50.9081948667" lon="13.8936303833">
5824 <ele>278.6</ele>
5825 <time>2012-09-10T12:24:41Z</time>
5826 <course>355.0</course>
5827 <speed>34.67</speed>
5828 </trkpt>
5829 <trkpt lat="50.9085047667" lon="13.8935801833">
5830 <ele>278.8</ele>
5831 <time>2012-09-10T12:24:43Z</time>
5832 <course>354.0</course>
5833 <speed>34.67</speed>
5834 </trkpt>
5835 <trkpt lat="50.9088122667" lon="13.8935337500">
5836 <ele>278.8</ele>
5837 <time>2012-09-10T12:24:44Z</time>
5838 <course>354.0</course>
5839 <speed>34.57</speed>
5840 </trkpt>
5841 <trkpt lat="50.9091217333" lon="13.8934728333">
5842 <ele>278.7</ele>
5843 <time>2012-09-10T12:24:45Z</time>
5844 <course>354.0</course>
5845 <speed>34.47</speed>
5846 </trkpt>
5847 <trkpt lat="50.9094320500" lon="13.8934149667">
5848 <ele>278.5</ele>
5849 <time>2012-09-10T12:24:46Z</time>
5850 <course>354.0</course>
5851 <speed>34.57</speed>
5852 </trkpt>
5853 <trkpt lat="50.9097444833" lon="13.8933636333">
5854 <ele>278.3</ele>
5855 <time>2012-09-10T12:24:46Z</time>
5856 <course>354.0</course>
5857 <speed>34.62</speed>
5858 </trkpt>
5859 <trkpt lat="50.9100623167" lon="13.8933092000">
5860 <ele>278.4</ele>
5861 <time>2012-09-10T12:24:47Z</time>
5862 <course>354.0</course>
5863 <speed>34.78</speed>
5864 </trkpt>
5865 <trkpt lat="50.9103685500" lon="13.8932459833">
5866 <ele>279.0</ele>
5867 <time>2012-09-10T12:24:48Z</time>
5868 <course>354.0</course>
5869 <speed>34.57</speed>
5870 </trkpt>
5871 <trkpt lat="50.9106705000" lon="13.8931758500">
5872 <ele>279.3</ele>
5873 <time>2012-09-10T12:24:50Z</time>
5874 <course>353.0</course>
5875 <speed>34.47</speed>
5876 </trkpt>
5877 <trkpt lat="50.9109662667" lon="13.8931163000">
5878 <ele>278.9</ele>
5879 <time>2012-09-10T12:24:51Z</time>
5880 <course>353.0</course>
5881 <speed>34.31</speed>
5882 </trkpt>
5883 <trkpt lat="50.9112789500" lon="13.8930683500">
5884 <ele>279.4</ele>
5885 <time>2012-09-10T12:24:52Z</time>
5886 <course>353.0</course>
5887 <speed>34.36</speed>
5888 </trkpt>
5889 <trkpt lat="50.9115978667" lon="13.8930004500">
5890 <ele>279.4</ele>
5891 <time>2012-09-10T12:24:52Z</time>
5892 <course>353.0</course>
5893 <speed>34.47</speed>
5894 </trkpt>
5895 <trkpt lat="50.9118953500" lon="13.8929528333">
5896 <ele>279.7</ele>
5897 <time>2012-09-10T12:24:53Z</time>
5898 <course>354.0</course>
5899 <speed>34.26</speed>
5900 </trkpt>
5901 <trkpt lat="50.9122157000" lon="13.8928931333">
5902 <ele>279.3</ele>
5903 <time>2012-09-10T12:24:54Z</time>
5904 <course>353.0</course>
5905 <speed>34.52</speed>
5906 </trkpt>
5907 <trkpt lat="50.9125174333" lon="13.8928393167">
5908 <ele>278.9</ele>
5909 <time>2012-09-10T12:24:56Z</time>
5910 <course>354.0</course>
5911 <speed>34.36</speed>
5912 </trkpt>
5913 <trkpt lat="50.9128306000" lon="13.8927845833">
5914 <ele>278.5</ele>
5915 <time>2012-09-10T12:24:57Z</time>
5916 <course>353.0</course>
5917 <speed>34.72</speed>
5918 </trkpt>
5919 <trkpt lat="50.9131440667" lon="13.8927349000">
5920 <ele>278.3</ele>
5921 <time>2012-09-10T12:24:58Z</time>
5922 <course>354.0</course>
5923 <speed>34.72</speed>
5924 </trkpt>
5925 <trkpt lat="50.9134415500" lon="13.8926859667">
5926 <ele>278.3</ele>
5927 <time>2012-09-10T12:24:58Z</time>
5928 <course>354.0</course>
5929 <speed>34.47</speed>
5930 </trkpt>
5931 <trkpt lat="50.9137615667" lon="13.8926472833">
5932 <ele>278.2</ele>
5933 <time>2012-09-10T12:24:59Z</time>
5934 <course>355.0</course>
5935 <speed>34.67</speed>
5936 </trkpt>
5937 <trkpt lat="50.9140778833" lon="13.8926176500">
5938 <ele>278.9</ele>
5939 <time>2012-09-10T12:25:00Z</time>
5940 <course>356.0</course>
5941 <speed>34.72</speed>
5942 </trkpt>
5943 <trkpt lat="50.9143836000" lon="13.8925786333">
5944 <ele>278.3</ele>
5945 <time>2012-09-10T12:25:02Z</time>
5946 <course>355.0</course>
5947 <speed>34.67</speed>
5948 </trkpt>
5949 <trkpt lat="50.9146955000" lon="13.8925309167">
5950 <ele>278.8</ele>
5951 <time>2012-09-10T12:25:03Z</time>
5952 <course>354.0</course>
5953 <speed>34.62</speed>
5954 </trkpt>
5955 <trkpt lat="50.9149953000" lon="13.8924518167">
5956 <ele>278.6</ele>
5957 <time>2012-09-10T12:25:04Z</time>
5958 <course>354.0</course>
5959 <speed>34.42</speed>
5960 </trkpt>
5961 <trkpt lat="50.9152983167" lon="13.8923931167">
5962 <ele>278.2</ele>
5963 <time>2012-09-10T12:25:05Z</time>
5964 <course>354.0</course>
5965 <speed>34.26</speed>
5966 </trkpt>
5967 <trkpt lat="50.9156165833" lon="13.8923269667">
5968 <ele>278.4</ele>
5969 <time>2012-09-10T12:25:05Z</time>
5970 <course>353.0</course>
5971 <speed>34.47</speed>
5972 </trkpt>
5973 <trkpt lat="50.9159305333" lon="13.8922795667">
5974 <ele>278.6</ele>
5975 <time>2012-09-10T12:25:06Z</time>
5976 <course>354.0</course>
5977 <speed>34.62</speed>
5978 </trkpt>
5979 <trkpt lat="50.9162359500" lon="13.8922053833">
5980 <ele>278.6</ele>
5981 <time>2012-09-10T12:25:07Z</time>
5982 <course>353.0</course>
5983 <speed>34.67</speed>
5984 </trkpt>
5985 <trkpt lat="50.9165475333" lon="13.8921401667">
5986 <ele>278.3</ele>
5987 <time>2012-09-10T12:25:09Z</time>
5988 <course>353.0</course>
5989 <speed>34.72</speed>
5990 </trkpt>
5991 <trkpt lat="50.9168554500" lon="13.8920746500">
5992 <ele>277.9</ele>
5993 <time>2012-09-10T12:25:10Z</time>
5994 <course>353.0</course>
5995 <speed>34.57</speed>
5996 </trkpt>
5997 <trkpt lat="50.9171545167" lon="13.8920217667">
5998 <ele>278.3</ele>
5999 <time>2012-09-10T12:25:11Z</time>
6000 <course>354.0</course>
6001 <speed>34.26</speed>
6002 </trkpt>
6003 <trkpt lat="50.9174583667" lon="13.8919475000">
6004 <ele>278.2</ele>
6005 <time>2012-09-10T12:25:11Z</time>
6006 <course>353.0</course>
6007 <speed>34.93</speed>
6008 </trkpt>
6009 <trkpt lat="50.9177714833" lon="13.8918781333">
6010 <ele>278.1</ele>
6011 <time>2012-09-10T12:25:12Z</time>
6012 <course>353.0</course>
6013 <speed>35.03</speed>
6014 </trkpt>
6015 <trkpt lat="50.9180780000" lon="13.8918294833">
6016 <ele>278.0</ele>
6017 <time>2012-09-10T12:25:13Z</time>
6018 <course>353.0</course>
6019 <speed>34.88</speed>
6020 </trkpt>
6021 <trkpt lat="50.9183970000" lon="13.8917563333">
6022 <ele>277.5</ele>
6023 <time>2012-09-10T12:25:15Z</time>
6024 <course>353.0</course>
6025 <speed>35.19</speed>
6026 </trkpt>
6027 <trkpt lat="50.9187081500" lon="13.8917015333">
6028 <ele>277.2</ele>
6029 <time>2012-09-10T12:25:16Z</time>
6030 <course>353.0</course>
6031 <speed>34.88</speed>
6032 </trkpt>
6033 <trkpt lat="50.9190150167" lon="13.8916433333">
6034 <ele>277.6</ele>
6035 <time>2012-09-10T12:25:17Z</time>
6036 <course>353.0</course>
6037 <speed>34.52</speed>
6038 </trkpt>
6039 <trkpt lat="50.9193588667" lon="13.8916375500">
6040 <ele>273.8</ele>
6041 <time>2012-09-10T12:25:17Z</time>
6042 <course>354.0</course>
6043 <speed>34.67</speed>
6044 </trkpt>
6045 <trkpt lat="50.9196729333" lon="13.8916139500">
6046 <ele>271.8</ele>
6047 <time>2012-09-10T12:25:18Z</time>
6048 <course>354.0</course>
6049 <speed>34.21</speed>
6050 </trkpt>
6051 <trkpt lat="50.9199761167" lon="13.8915624667">
6052 <ele>270.6</ele>
6053 <time>2012-09-10T12:25:19Z</time>
6054 <course>354.0</course>
6055 <speed>33.80</speed>
6056 </trkpt>
6057 <trkpt lat="50.9202845500" lon="13.8915039833">
6058 <ele>270.2</ele>
6059 <time>2012-09-10T12:25:21Z</time>
6060 <course>354.0</course>
6061 <speed>33.44</speed>
6062 </trkpt>
6063 <trkpt lat="50.9205841833" lon="13.8914477167">
6064 <ele>269.9</ele>
6065 <time>2012-09-10T12:25:22Z</time>
6066 <course>353.0</course>
6067 <speed>33.34</speed>
6068 </trkpt>
6069 <trkpt lat="50.9208837000" lon="13.8913975000">
6070 <ele>269.3</ele>
6071 <time>2012-09-10T12:25:23Z</time>
6072 <course>353.0</course>
6073 <speed>33.34</speed>
6074 </trkpt>
6075 <trkpt lat="50.9211694833" lon="13.8913552667">
6076 <ele>268.6</ele>
6077 <time>2012-09-10T12:25:24Z</time>
6078 <course>353.0</course>
6079 <speed>33.08</speed>
6080 </trkpt>
6081 <trkpt lat="50.9214707667" lon="13.8912927000">
6082 <ele>267.3</ele>
6083 <time>2012-09-10T12:25:24Z</time>
6084 <course>353.0</course>
6085 <speed>32.82</speed>
6086 </trkpt>
6087 <trkpt lat="50.9217512333" lon="13.8912453167">
6088 <ele>265.7</ele>
6089 <time>2012-09-10T12:25:25Z</time>
6090 <course>354.0</course>
6091 <speed>32.46</speed>
6092 </trkpt>
6093 <trkpt lat="50.9220243833" lon="13.8912102500">
6094 <ele>264.9</ele>
6095 <time>2012-09-10T12:25:26Z</time>
6096 <course>354.0</course>
6097 <speed>32.20</speed>
6098 </trkpt>
6099 <trkpt lat="50.9223173167" lon="13.8911685000">
6100 <ele>264.0</ele>
6101 <time>2012-09-10T12:25:28Z</time>
6102 <course>354.0</course>
6103 <speed>32.25</speed>
6104 </trkpt>
6105 <trkpt lat="50.9226061000" lon="13.8911228500">
6106 <ele>262.7</ele>
6107 <time>2012-09-10T12:25:29Z</time>
6108 <course>354.0</course>
6109 <speed>32.41</speed>
6110 </trkpt>
6111 <trkpt lat="50.9229001833" lon="13.8910681333">
6112 <ele>261.6</ele>
6113 <time>2012-09-10T12:25:30Z</time>
6114 <course>354.0</course>
6115 <speed>32.51</speed>
6116 </trkpt>
6117 <trkpt lat="50.9231865167" lon="13.8910224500">
6118 <ele>260.4</ele>
6119 <time>2012-09-10T12:25:30Z</time>
6120 <course>354.0</course>
6121 <speed>32.56</speed>
6122 </trkpt>
6123 <trkpt lat="50.9234851667" lon="13.8909686333">
6124 <ele>258.8</ele>
6125 <time>2012-09-10T12:25:31Z</time>
6126 <course>354.0</course>
6127 <speed>32.82</speed>
6128 </trkpt>
6129 <trkpt lat="50.9237752500" lon="13.8909129000">
6130 <ele>258.2</ele>
6131 <time>2012-09-10T12:25:32Z</time>
6132 <course>354.0</course>
6133 <speed>32.92</speed>
6134 </trkpt>
6135 <trkpt lat="50.9240676500" lon="13.8908586333">
6136 <ele>257.2</ele>
6137 <time>2012-09-10T12:25:34Z</time>
6138 <course>354.0</course>
6139 <speed>33.08</speed>
6140 </trkpt>
6141 <trkpt lat="50.9243615167" lon="13.8908140167">
6142 <ele>256.7</ele>
6143 <time>2012-09-10T12:25:35Z</time>
6144 <course>354.0</course>
6145 <speed>33.13</speed>
6146 </trkpt>
6147 <trkpt lat="50.9246527167" lon="13.8907653333">
6148 <ele>255.8</ele>
6149 <time>2012-09-10T12:25:36Z</time>
6150 <course>354.0</course>
6151 <speed>33.08</speed>
6152 </trkpt>
6153 <trkpt lat="50.9249453167" lon="13.8907213167">
6154 <ele>255.6</ele>
6155 <time>2012-09-10T12:25:37Z</time>
6156 <course>354.0</course>
6157 <speed>33.23</speed>
6158 </trkpt>
6159 <trkpt lat="50.9252327667" lon="13.8906710000">
6160 <ele>254.4</ele>
6161 <time>2012-09-10T12:25:37Z</time>
6162 <course>354.0</course>
6163 <speed>33.28</speed>
6164 </trkpt>
6165 <trkpt lat="50.9255296000" lon="13.8906246333">
6166 <ele>253.4</ele>
6167 <time>2012-09-10T12:25:38Z</time>
6168 <course>354.0</course>
6169 <speed>33.34</speed>
6170 </trkpt>
6171 <trkpt lat="50.9258346667" lon="13.8905591500">
6172 <ele>252.4</ele>
6173 <time>2012-09-10T12:25:40Z</time>
6174 <course>354.0</course>
6175 <speed>34.06</speed>
6176 </trkpt>
6177 <trkpt lat="50.9261437333" lon="13.8905023167">
6178 <ele>252.0</ele>
6179 <time>2012-09-10T12:25:41Z</time>
6180 <course>354.0</course>
6181 <speed>34.21</speed>
6182 </trkpt>
6183 <trkpt lat="50.9264493500" lon="13.8904426667">
6184 <ele>250.8</ele>
6185 <time>2012-09-10T12:25:42Z</time>
6186 <course>353.0</course>
6187 <speed>34.31</speed>
6188 </trkpt>
6189 <trkpt lat="50.9267593167" lon="13.8903669667">
6190 <ele>249.9</ele>
6191 <time>2012-09-10T12:25:43Z</time>
6192 <course>353.0</course>
6193 <speed>34.26</speed>
6194 </trkpt>
6195 <trkpt lat="50.9270705000" lon="13.8902915500">
6196 <ele>249.4</ele>
6197 <time>2012-09-10T12:25:43Z</time>
6198 <course>352.0</course>
6199 <speed>34.36</speed>
6200 </trkpt>
6201 <trkpt lat="50.9273837667" lon="13.8902000833">
6202 <ele>248.0</ele>
6203 <time>2012-09-10T12:25:44Z</time>
6204 <course>352.0</course>
6205 <speed>34.57</speed>
6206 </trkpt>
6207 <trkpt lat="50.9276863167" lon="13.8901128167">
6208 <ele>247.1</ele>
6209 <time>2012-09-10T12:25:45Z</time>
6210 <course>351.0</course>
6211 <speed>34.31</speed>
6212 </trkpt>
6213 <trkpt lat="50.9279913833" lon="13.8900314667">
6214 <ele>245.6</ele>
6215 <time>2012-09-10T12:25:47Z</time>
6216 <course>351.0</course>
6217 <speed>34.47</speed>
6218 </trkpt>
6219 <trkpt lat="50.9282958500" lon="13.8899444333">
6220 <ele>244.3</ele>
6221 <time>2012-09-10T12:25:48Z</time>
6222 <course>350.0</course>
6223 <speed>34.47</speed>
6224 </trkpt>
6225 <trkpt lat="50.9285997667" lon="13.8898505000">
6226 <ele>243.3</ele>
6227 <time>2012-09-10T12:25:49Z</time>
6228 <course>349.0</course>
6229 <speed>34.52</speed>
6230 </trkpt>
6231 <trkpt lat="50.9289086500" lon="13.8897557167">
6232 <ele>242.3</ele>
6233 <time>2012-09-10T12:25:49Z</time>
6234 <course>348.0</course>
6235 <speed>34.88</speed>
6236 </trkpt>
6237 <trkpt lat="50.9292201833" lon="13.8896514833">
6238 <ele>241.1</ele>
6239 <time>2012-09-10T12:25:50Z</time>
6240 <course>348.0</course>
6241 <speed>35.03</speed>
6242 </trkpt>
6243 <trkpt lat="50.9295216167" lon="13.8895457167">
6244 <ele>239.4</ele>
6245 <time>2012-09-10T12:25:51Z</time>
6246 <course>347.0</course>
6247 <speed>34.88</speed>
6248 </trkpt>
6249 <trkpt lat="50.9298331000" lon="13.8894206167">
6250 <ele>238.8</ele>
6251 <time>2012-09-10T12:25:53Z</time>
6252 <course>346.0</course>
6253 <speed>34.88</speed>
6254 </trkpt>
6255 <trkpt lat="50.9301398500" lon="13.8893039667">
6256 <ele>237.4</ele>
6257 <time>2012-09-10T12:25:54Z</time>
6258 <course>345.0</course>
6259 <speed>34.78</speed>
6260 </trkpt>
6261 <trkpt lat="50.9304323333" lon="13.8891584167">
6262 <ele>236.8</ele>
6263 <time>2012-09-10T12:25:55Z</time>
6264 <course>344.0</course>
6265 <speed>34.67</speed>
6266 </trkpt>
6267 <trkpt lat="50.9307184000" lon="13.8889986833">
6268 <ele>235.5</ele>
6269 <time>2012-09-10T12:25:56Z</time>
6270 <course>343.0</course>
6271 <speed>34.57</speed>
6272 </trkpt>
6273 <trkpt lat="50.9310104000" lon="13.8888302167">
6274 <ele>234.7</ele>
6275 <time>2012-09-10T12:25:56Z</time>
6276 <course>342.0</course>
6277 <speed>34.72</speed>
6278 </trkpt>
6279 <trkpt lat="50.9312972000" lon="13.8886557000">
6280 <ele>233.8</ele>
6281 <time>2012-09-10T12:25:57Z</time>
6282 <course>341.0</course>
6283 <speed>34.83</speed>
6284 </trkpt>
6285 <trkpt lat="50.9315822333" lon="13.8884661833">
6286 <ele>232.8</ele>
6287 <time>2012-09-10T12:25:58Z</time>
6288 <course>340.0</course>
6289 <speed>34.98</speed>
6290 </trkpt>
6291 <trkpt lat="50.9318531333" lon="13.8882892000">
6292 <ele>230.7</ele>
6293 <time>2012-09-10T12:26:00Z</time>
6294 <course>339.0</course>
6295 <speed>34.78</speed>
6296 </trkpt>
6297 <trkpt lat="50.9321453833" lon="13.8881078167">
6298 <ele>229.9</ele>
6299 <time>2012-09-10T12:26:01Z</time>
6300 <course>338.0</course>
6301 <speed>35.14</speed>
6302 </trkpt>
6303 <trkpt lat="50.9324443667" lon="13.8879128167">
6304 <ele>229.3</ele>
6305 <time>2012-09-10T12:26:02Z</time>
6306 <course>337.0</course>
6307 <speed>35.75</speed>
6308 </trkpt>
6309 <trkpt lat="50.9327360500" lon="13.8877113000">
6310 <ele>228.8</ele>
6311 <time>2012-09-10T12:26:02Z</time>
6312 <course>336.0</course>
6313 <speed>35.80</speed>
6314 </trkpt>
6315 <trkpt lat="50.9330360500" lon="13.8874842167">
6316 <ele>228.3</ele>
6317 <time>2012-09-10T12:26:03Z</time>
6318 <course>335.0</course>
6319 <speed>36.27</speed>
6320 </trkpt>
6321 <trkpt lat="50.9333221000" lon="13.8872777833">
6322 <ele>227.3</ele>
6323 <time>2012-09-10T12:26:04Z</time>
6324 <course>335.0</course>
6325 <speed>36.27</speed>
6326 </trkpt>
6327 <trkpt lat="50.9336118500" lon="13.8870593833">
6328 <ele>226.2</ele>
6329 <time>2012-09-10T12:26:06Z</time>
6330 <course>335.0</course>
6331 <speed>36.32</speed>
6332 </trkpt>
6333 <trkpt lat="50.9338972833" lon="13.8868290667">
6334 <ele>225.9</ele>
6335 <time>2012-09-10T12:26:07Z</time>
6336 <course>334.0</course>
6337 <speed>36.32</speed>
6338 </trkpt>
6339 <trkpt lat="50.9341750833" lon="13.8865850833">
6340 <ele>225.5</ele>
6341 <time>2012-09-10T12:26:08Z</time>
6342 <course>333.0</course>
6343 <speed>35.91</speed>
6344 </trkpt>
6345 <trkpt lat="50.9344620667" lon="13.8863607167">
6346 <ele>224.6</ele>
6347 <time>2012-09-10T12:26:08Z</time>
6348 <course>333.0</course>
6349 <speed>35.39</speed>
6350 </trkpt>
6351 <trkpt lat="50.9347379500" lon="13.8861403167">
6352 <ele>223.4</ele>
6353 <time>2012-09-10T12:26:09Z</time>
6354 <course>333.0</course>
6355 <speed>35.08</speed>
6356 </trkpt>
6357 <trkpt lat="50.9350085167" lon="13.8859006500">
6358 <ele>223.0</ele>
6359 <time>2012-09-10T12:26:10Z</time>
6360 <course>333.0</course>
6361 <speed>34.72</speed>
6362 </trkpt>
6363 <trkpt lat="50.9352766333" lon="13.8856634667">
6364 <ele>222.9</ele>
6365 <time>2012-09-10T12:26:12Z</time>
6366 <course>331.0</course>
6367 <speed>34.42</speed>
6368 </trkpt>
6369 <trkpt lat="50.9355516833" lon="13.8854272333">
6370 <ele>222.5</ele>
6371 <time>2012-09-10T12:26:13Z</time>
6372 <course>330.0</course>
6373 <speed>34.21</speed>
6374 </trkpt>
6375 <trkpt lat="50.9358071333" lon="13.8851818833">
6376 <ele>221.8</ele>
6377 <time>2012-09-10T12:26:14Z</time>
6378 <course>329.0</course>
6379 <speed>33.70</speed>
6380 </trkpt>
6381 <trkpt lat="50.9360691333" lon="13.8849041500">
6382 <ele>220.4</ele>
6383 <time>2012-09-10T12:26:15Z</time>
6384 <course>328.0</course>
6385 <speed>33.70</speed>
6386 </trkpt>
6387 <trkpt lat="50.9363145167" lon="13.8846273333">
6388 <ele>219.3</ele>
6389 <time>2012-09-10T12:26:15Z</time>
6390 <course>326.0</course>
6391 <speed>33.44</speed>
6392 </trkpt>
6393 <trkpt lat="50.9365567833" lon="13.8843468833">
6394 <ele>218.0</ele>
6395 <time>2012-09-10T12:26:16Z</time>
6396 <course>326.0</course>
6397 <speed>33.28</speed>
6398 </trkpt>
6399 <trkpt lat="50.9367973667" lon="13.8840696333">
6400 <ele>217.7</ele>
6401 <time>2012-09-10T12:26:17Z</time>
6402 <course>325.0</course>
6403 <speed>33.18</speed>
6404 </trkpt>
6405 <trkpt lat="50.9370205500" lon="13.8837837833">
6406 <ele>217.0</ele>
6407 <time>2012-09-10T12:26:19Z</time>
6408 <course>324.0</course>
6409 <speed>33.03</speed>
6410 </trkpt>
6411 <trkpt lat="50.9372554167" lon="13.8834841667">
6412 <ele>216.1</ele>
6413 <time>2012-09-10T12:26:20Z</time>
6414 <course>323.0</course>
6415 <speed>33.08</speed>
6416 </trkpt>
6417 <trkpt lat="50.9374845000" lon="13.8831760833">
6418 <ele>214.9</ele>
6419 <time>2012-09-10T12:26:21Z</time>
6420 <course>321.0</course>
6421 <speed>32.98</speed>
6422 </trkpt>
6423 <trkpt lat="50.9377170167" lon="13.8828909333">
6424 <ele>213.4</ele>
6425 <time>2012-09-10T12:26:21Z</time>
6426 <course>321.0</course>
6427 <speed>32.92</speed>
6428 </trkpt>
6429 <trkpt lat="50.9379446333" lon="13.8825993167">
6430 <ele>212.8</ele>
6431 <time>2012-09-10T12:26:22Z</time>
6432 <course>320.0</course>
6433 <speed>32.92</speed>
6434 </trkpt>
6435 <trkpt lat="50.9381764000" lon="13.8823033833">
6436 <ele>211.2</ele>
6437 <time>2012-09-10T12:26:23Z</time>
6438 <course>320.0</course>
6439 <speed>32.92</speed>
6440 </trkpt>
6441 <trkpt lat="50.9384006000" lon="13.8819966333">
6442 <ele>210.2</ele>
6443 <time>2012-09-10T12:26:25Z</time>
6444 <course>319.0</course>
6445 <speed>32.92</speed>
6446 </trkpt>
6447 <trkpt lat="50.9386209667" lon="13.8816904500">
6448 <ele>209.3</ele>
6449 <time>2012-09-10T12:26:26Z</time>
6450 <course>318.0</course>
6451 <speed>32.98</speed>
6452 </trkpt>
6453 <trkpt lat="50.9388403167" lon="13.8813753167">
6454 <ele>208.5</ele>
6455 <time>2012-09-10T12:26:27Z</time>
6456 <course>318.0</course>
6457 <speed>33.03</speed>
6458 </trkpt>
6459 <trkpt lat="50.9390580500" lon="13.8810576667">
6460 <ele>208.2</ele>
6461 <time>2012-09-10T12:26:28Z</time>
6462 <course>317.0</course>
6463 <speed>33.08</speed>
6464 </trkpt>
6465 <trkpt lat="50.9392725667" lon="13.8807412000">
6466 <ele>208.0</ele>
6467 <time>2012-09-10T12:26:28Z</time>
6468 <course>317.0</course>
6469 <speed>33.03</speed>
6470 </trkpt>
6471 <trkpt lat="50.9394899500" lon="13.8804200167">
6472 <ele>207.3</ele>
6473 <time>2012-09-10T12:26:29Z</time>
6474 <course>317.0</course>
6475 <speed>33.08</speed>
6476 </trkpt>
6477 <trkpt lat="50.9397100500" lon="13.8800975500">
6478 <ele>207.1</ele>
6479 <time>2012-09-10T12:26:31Z</time>
6480 <course>317.0</course>
6481 <speed>33.13</speed>
6482 </trkpt>
6483 <trkpt lat="50.9399347000" lon="13.8797745000">
6484 <ele>206.3</ele>
6485 <time>2012-09-10T12:26:32Z</time>
6486 <course>317.0</course>
6487 <speed>33.13</speed>
6488 </trkpt>
6489 <trkpt lat="50.9401365833" lon="13.8794304000">
6490 <ele>205.6</ele>
6491 <time>2012-09-10T12:26:33Z</time>
6492 <course>316.0</course>
6493 <speed>33.08</speed>
6494 </trkpt>
6495 <trkpt lat="50.9403546667" lon="13.8791021667">
6496 <ele>205.5</ele>
6497 <time>2012-09-10T12:26:34Z</time>
6498 <course>316.0</course>
6499 <speed>32.98</speed>
6500 </trkpt>
6501 <trkpt lat="50.9405605833" lon="13.8787706500">
6502 <ele>205.5</ele>
6503 <time>2012-09-10T12:26:34Z</time>
6504 <course>316.0</course>
6505 <speed>32.98</speed>
6506 </trkpt>
6507 <trkpt lat="50.9407626667" lon="13.8784422333">
6508 <ele>204.9</ele>
6509 <time>2012-09-10T12:26:35Z</time>
6510 <course>316.0</course>
6511 <speed>32.77</speed>
6512 </trkpt>
6513 <trkpt lat="50.9409773333" lon="13.8781171500">
6514 <ele>204.7</ele>
6515 <time>2012-09-10T12:26:36Z</time>
6516 <course>317.0</course>
6517 <speed>32.82</speed>
6518 </trkpt>
6519 <trkpt lat="50.9411936000" lon="13.8777959500">
6520 <ele>204.7</ele>
6521 <time>2012-09-10T12:26:38Z</time>
6522 <course>317.0</course>
6523 <speed>32.51</speed>
6524 </trkpt>
6525 <trkpt lat="50.9414023500" lon="13.8774723833">
6526 <ele>204.6</ele>
6527 <time>2012-09-10T12:26:39Z</time>
6528 <course>317.0</course>
6529 <speed>32.10</speed>
6530 </trkpt>
6531 <trkpt lat="50.9416187500" lon="13.8771661333">
6532 <ele>204.8</ele>
6533 <time>2012-09-10T12:26:40Z</time>
6534 <course>318.0</course>
6535 <speed>32.00</speed>
6536 </trkpt>
6537 <trkpt lat="50.9418313833" lon="13.8768757667">
6538 <ele>204.6</ele>
6539 <time>2012-09-10T12:26:40Z</time>
6540 <course>319.0</course>
6541 <speed>31.69</speed>
6542 </trkpt>
6543 <trkpt lat="50.9420519000" lon="13.8766032167">
6544 <ele>204.4</ele>
6545 <time>2012-09-10T12:26:41Z</time>
6546 <course>321.0</course>
6547 <speed>31.53</speed>
6548 </trkpt>
6549 <trkpt lat="50.9422873000" lon="13.8763517333">
6550 <ele>204.4</ele>
6551 <time>2012-09-10T12:26:42Z</time>
6552 <course>324.0</course>
6553 <speed>31.33</speed>
6554 </trkpt>
6555 <trkpt lat="50.9425455167" lon="13.8761119667">
6556 <ele>203.6</ele>
6557 <time>2012-09-10T12:26:44Z</time>
6558 <course>326.0</course>
6559 <speed>31.48</speed>
6560 </trkpt>
6561 <trkpt lat="50.9427764000" lon="13.8758576000">
6562 <ele>203.8</ele>
6563 <time>2012-09-10T12:26:45Z</time>
6564 <course>327.0</course>
6565 <speed>31.33</speed>
6566 </trkpt>
6567 <trkpt lat="50.9430194833" lon="13.8756254000">
6568 <ele>203.9</ele>
6569 <time>2012-09-10T12:26:46Z</time>
6570 <course>328.0</course>
6571 <speed>31.48</speed>
6572 </trkpt>
6573 <trkpt lat="50.9432591167" lon="13.8753941833">
6574 <ele>203.7</ele>
6575 <time>2012-09-10T12:26:47Z</time>
6576 <course>328.0</course>
6577 <speed>31.38</speed>
6578 </trkpt>
6579 <trkpt lat="50.9435038667" lon="13.8751598000">
6580 <ele>203.7</ele>
6581 <time>2012-09-10T12:26:47Z</time>
6582 <course>329.0</course>
6583 <speed>31.38</speed>
6584 </trkpt>
6585 <trkpt lat="50.9437448167" lon="13.8749302167">
6586 <ele>203.5</ele>
6587 <time>2012-09-10T12:26:48Z</time>
6588 <course>330.0</course>
6589 <speed>31.23</speed>
6590 </trkpt>
6591 <trkpt lat="50.9439902333" lon="13.8747125833">
6592 <ele>203.0</ele>
6593 <time>2012-09-10T12:26:49Z</time>
6594 <course>332.0</course>
6595 <speed>31.53</speed>
6596 </trkpt>
6597 <trkpt lat="50.9442466833" lon="13.8745044500">
6598 <ele>202.9</ele>
6599 <time>2012-09-10T12:26:51Z</time>
6600 <course>333.0</course>
6601 <speed>31.79</speed>
6602 </trkpt>
6603 <trkpt lat="50.9444964000" lon="13.8743101500">
6604 <ele>202.5</ele>
6605 <time>2012-09-10T12:26:52Z</time>
6606 <course>334.0</course>
6607 <speed>31.48</speed>
6608 </trkpt>
6609 <trkpt lat="50.9447507167" lon="13.8741196833">
6610 <ele>202.1</ele>
6611 <time>2012-09-10T12:26:53Z</time>
6612 <course>335.0</course>
6613 <speed>31.53</speed>
6614 </trkpt>
6615 <trkpt lat="50.9450023000" lon="13.8739418333">
6616 <ele>200.9</ele>
6617 <time>2012-09-10T12:26:53Z</time>
6618 <course>336.0</course>
6619 <speed>31.53</speed>
6620 </trkpt>
6621 <trkpt lat="50.9452585833" lon="13.8737683833">
6622 <ele>200.8</ele>
6623 <time>2012-09-10T12:26:54Z</time>
6624 <course>337.0</course>
6625 <speed>31.74</speed>
6626 </trkpt>
6627 <trkpt lat="50.9455224833" lon="13.8736004167">
6628 <ele>200.6</ele>
6629 <time>2012-09-10T12:26:55Z</time>
6630 <course>338.0</course>
6631 <speed>31.95</speed>
6632 </trkpt>
6633 <trkpt lat="50.9458040667" lon="13.8734428833">
6634 <ele>200.5</ele>
6635 <time>2012-09-10T12:26:57Z</time>
6636 <course>339.0</course>
6637 <speed>32.36</speed>
6638 </trkpt>
6639 <trkpt lat="50.9460776167" lon="13.8733040833">
6640 <ele>200.5</ele>
6641 <time>2012-09-10T12:26:58Z</time>
6642 <course>341.0</course>
6643 <speed>32.61</speed>
6644 </trkpt>
6645 <trkpt lat="50.9463477500" lon="13.8731595500">
6646 <ele>200.3</ele>
6647 <time>2012-09-10T12:26:59Z</time>
6648 <course>342.0</course>
6649 <speed>32.67</speed>
6650 </trkpt>
6651 <trkpt lat="50.9466363500" lon="13.8730086167">
6652 <ele>200.3</ele>
6653 <time>2012-09-10T12:26:59Z</time>
6654 <course>343.0</course>
6655 <speed>33.13</speed>
6656 </trkpt>
6657 <trkpt lat="50.9469288833" lon="13.8728797667">
6658 <ele>200.7</ele>
6659 <time>2012-09-10T12:27:00Z</time>
6660 <course>344.0</course>
6661 <speed>33.03</speed>
6662 </trkpt>
6663 <trkpt lat="50.9472256667" lon="13.8727622167">
6664 <ele>200.3</ele>
6665 <time>2012-09-10T12:27:01Z</time>
6666 <course>346.0</course>
6667 <speed>33.39</speed>
6668 </trkpt>
6669 <trkpt lat="50.9475213833" lon="13.8726686667">
6670 <ele>200.3</ele>
6671 <time>2012-09-10T12:27:03Z</time>
6672 <course>347.0</course>
6673 <speed>33.49</speed>
6674 </trkpt>
6675 <trkpt lat="50.9478189500" lon="13.8725943667">
6676 <ele>201.2</ele>
6677 <time>2012-09-10T12:27:04Z</time>
6678 <course>349.0</course>
6679 <speed>33.70</speed>
6680 </trkpt>
6681 <trkpt lat="50.9481289833" lon="13.8725169167">
6682 <ele>201.3</ele>
6683 <time>2012-09-10T12:27:05Z</time>
6684 <course>350.0</course>
6685 <speed>34.11</speed>
6686 </trkpt>
6687 <trkpt lat="50.9484355500" lon="13.8724384833">
6688 <ele>202.4</ele>
6689 <time>2012-09-10T12:27:06Z</time>
6690 <course>351.0</course>
6691 <speed>34.47</speed>
6692 </trkpt>
6693 <trkpt lat="50.9487457167" lon="13.8723773833">
6694 <ele>202.6</ele>
6695 <time>2012-09-10T12:27:06Z</time>
6696 <course>352.0</course>
6697 <speed>34.72</speed>
6698 </trkpt>
6699 <trkpt lat="50.9490585000" lon="13.8723185500">
6700 <ele>202.7</ele>
6701 <time>2012-09-10T12:27:07Z</time>
6702 <course>353.0</course>
6703 <speed>34.83</speed>
6704 </trkpt>
6705 <trkpt lat="50.9493701000" lon="13.8722532667">
6706 <ele>202.7</ele>
6707 <time>2012-09-10T12:27:08Z</time>
6708 <course>352.0</course>
6709 <speed>34.88</speed>
6710 </trkpt>
6711 <trkpt lat="50.9496847667" lon="13.8721811833">
6712 <ele>202.7</ele>
6713 <time>2012-09-10T12:27:10Z</time>
6714 <course>352.0</course>
6715 <speed>35.03</speed>
6716 </trkpt>
6717 <trkpt lat="50.9499986500" lon="13.8720968500">
6718 <ele>203.5</ele>
6719 <time>2012-09-10T12:27:11Z</time>
6720 <course>351.0</course>
6721 <speed>35.08</speed>
6722 </trkpt>
6723 <trkpt lat="50.9503144500" lon="13.8720152667">
6724 <ele>203.4</ele>
6725 <time>2012-09-10T12:27:12Z</time>
6726 <course>351.0</course>
6727 <speed>35.14</speed>
6728 </trkpt>
6729 <trkpt lat="50.9506289167" lon="13.8719336500">
6730 <ele>203.0</ele>
6731 <time>2012-09-10T12:27:12Z</time>
6732 <course>350.0</course>
6733 <speed>35.24</speed>
6734 </trkpt>
6735 <trkpt lat="50.9509406333" lon="13.8718277333">
6736 <ele>202.8</ele>
6737 <time>2012-09-10T12:27:13Z</time>
6738 <course>350.0</course>
6739 <speed>35.29</speed>
6740 </trkpt>
6741 <trkpt lat="50.9512670333" lon="13.8717261333">
6742 <ele>203.0</ele>
6743 <time>2012-09-10T12:27:14Z</time>
6744 <course>349.0</course>
6745 <speed>35.65</speed>
6746 </trkpt>
6747 <trkpt lat="50.9515793833" lon="13.8715994167">
6748 <ele>202.3</ele>
6749 <time>2012-09-10T12:27:16Z</time>
6750 <course>347.0</course>
6751 <speed>35.96</speed>
6752 </trkpt>
6753 <trkpt lat="50.9518888833" lon="13.8714803667">
6754 <ele>201.5</ele>
6755 <time>2012-09-10T12:27:17Z</time>
6756 <course>346.0</course>
6757 <speed>36.11</speed>
6758 </trkpt>
6759 <trkpt lat="50.9522075333" lon="13.8713406000">
6760 <ele>201.3</ele>
6761 <time>2012-09-10T12:27:18Z</time>
6762 <course>344.0</course>
6763 <speed>36.27</speed>
6764 </trkpt>
6765 <trkpt lat="50.9525192833" lon="13.8711896000">
6766 <ele>201.1</ele>
6767 <time>2012-09-10T12:27:18Z</time>
6768 <course>343.0</course>
6769 <speed>36.47</speed>
6770 </trkpt>
6771 <trkpt lat="50.9528304333" lon="13.8710265333">
6772 <ele>200.4</ele>
6773 <time>2012-09-10T12:27:19Z</time>
6774 <course>342.0</course>
6775 <speed>36.63</speed>
6776 </trkpt>
6777 <trkpt lat="50.9531380333" lon="13.8708508833">
6778 <ele>200.3</ele>
6779 <time>2012-09-10T12:27:20Z</time>
6780 <course>341.0</course>
6781 <speed>36.63</speed>
6782 </trkpt>
6783 <trkpt lat="50.9534412667" lon="13.8706804667">
6784 <ele>199.9</ele>
6785 <time>2012-09-10T12:27:22Z</time>
6786 <course>340.0</course>
6787 <speed>36.42</speed>
6788 </trkpt>
6789 <trkpt lat="50.9537420333" lon="13.8704815667">
6790 <ele>199.6</ele>
6791 <time>2012-09-10T12:27:23Z</time>
6792 <course>337.0</course>
6793 <speed>36.42</speed>
6794 </trkpt>
6795 <trkpt lat="50.9540443500" lon="13.8702892167">
6796 <ele>198.9</ele>
6797 <time>2012-09-10T12:27:24Z</time>
6798 <course>336.0</course>
6799 <speed>36.58</speed>
6800 </trkpt>
6801 <trkpt lat="50.9543394833" lon="13.8700686500">
6802 <ele>198.9</ele>
6803 <time>2012-09-10T12:27:25Z</time>
6804 <course>335.0</course>
6805 <speed>36.68</speed>
6806 </trkpt>
6807 <trkpt lat="50.9546407833" lon="13.8698347000">
6808 <ele>198.9</ele>
6809 <time>2012-09-10T12:27:25Z</time>
6810 <course>334.0</course>
6811 <speed>36.88</speed>
6812 </trkpt>
6813 <trkpt lat="50.9549281667" lon="13.8695860167">
6814 <ele>198.8</ele>
6815 <time>2012-09-10T12:27:26Z</time>
6816 <course>332.0</course>
6817 <speed>36.73</speed>
6818 </trkpt>
6819 <trkpt lat="50.9552081500" lon="13.8693233000">
6820 <ele>198.6</ele>
6821 <time>2012-09-10T12:27:27Z</time>
6822 <course>331.0</course>
6823 <speed>36.73</speed>
6824 </trkpt>
6825 <trkpt lat="50.9554867500" lon="13.8690549000">
6826 <ele>198.1</ele>
6827 <time>2012-09-10T12:27:29Z</time>
6828 <course>330.0</course>
6829 <speed>36.63</speed>
6830 </trkpt>
6831 <trkpt lat="50.9557685333" lon="13.8687774167">
6832 <ele>198.1</ele>
6833 <time>2012-09-10T12:27:30Z</time>
6834 <course>329.0</course>
6835 <speed>36.63</speed>
6836 </trkpt>
6837 <trkpt lat="50.9560501500" lon="13.8684947833">
6838 <ele>197.9</ele>
6839 <time>2012-09-10T12:27:31Z</time>
6840 <course>329.0</course>
6841 <speed>36.99</speed>
6842 </trkpt>
6843 <trkpt lat="50.9563311833" lon="13.8682117000">
6844 <ele>197.3</ele>
6845 <time>2012-09-10T12:27:31Z</time>
6846 <course>328.0</course>
6847 <speed>36.99</speed>
6848 </trkpt>
6849 <trkpt lat="50.9566007500" lon="13.8679027000">
6850 <ele>197.2</ele>
6851 <time>2012-09-10T12:27:32Z</time>
6852 <course>326.0</course>
6853 <speed>37.09</speed>
6854 </trkpt>
6855 <trkpt lat="50.9568812500" lon="13.8676049167">
6856 <ele>196.1</ele>
6857 <time>2012-09-10T12:27:33Z</time>
6858 <course>326.0</course>
6859 <speed>37.71</speed>
6860 </trkpt>
6861 <trkpt lat="50.9571478500" lon="13.8672835000">
6862 <ele>194.4</ele>
6863 <time>2012-09-10T12:27:35Z</time>
6864 <course>326.0</course>
6865 <speed>37.86</speed>
6866 </trkpt>
6867 <trkpt lat="50.9574177500" lon="13.8669618167">
6868 <ele>193.4</ele>
6869 <time>2012-09-10T12:27:36Z</time>
6870 <course>325.0</course>
6871 <speed>38.02</speed>
6872 </trkpt>
6873 <trkpt lat="50.9576642833" lon="13.8666050500">
6874 <ele>192.0</ele>
6875 <time>2012-09-10T12:27:37Z</time>
6876 <course>323.0</course>
6877 <speed>37.91</speed>
6878 </trkpt>
6879 <trkpt lat="50.9578816833" lon="13.8662207000">
6880 <ele>190.7</ele>
6881 <time>2012-09-10T12:27:38Z</time>
6882 <course>319.0</course>
6883 <speed>37.45</speed>
6884 </trkpt>
6885 <trkpt lat="50.9581070500" lon="13.8658397500">
6886 <ele>190.0</ele>
6887 <time>2012-09-10T12:27:38Z</time>
6888 <course>316.0</course>
6889 <speed>37.45</speed>
6890 </trkpt>
6891 <trkpt lat="50.9583404500" lon="13.8654589167">
6892 <ele>189.6</ele>
6893 <time>2012-09-10T12:27:39Z</time>
6894 <course>315.0</course>
6895 <speed>37.60</speed>
6896 </trkpt>
6897 <trkpt lat="50.9585614500" lon="13.8650604167">
6898 <ele>189.3</ele>
6899 <time>2012-09-10T12:27:41Z</time>
6900 <course>313.0</course>
6901 <speed>37.60</speed>
6902 </trkpt>
6903 <trkpt lat="50.9587785000" lon="13.8646534667">
6904 <ele>189.8</ele>
6905 <time>2012-09-10T12:27:42Z</time>
6906 <course>312.0</course>
6907 <speed>37.55</speed>
6908 </trkpt>
6909 <trkpt lat="50.9590082833" lon="13.8642423833">
6910 <ele>189.2</ele>
6911 <time>2012-09-10T12:27:43Z</time>
6912 <course>311.0</course>
6913 <speed>37.66</speed>
6914 </trkpt>
6915 <trkpt lat="50.9592229833" lon="13.8638046833">
6916 <ele>188.4</ele>
6917 <time>2012-09-10T12:27:44Z</time>
6918 <course>309.0</course>
6919 <speed>37.81</speed>
6920 </trkpt>
6921 <trkpt lat="50.9594348000" lon="13.8633577500">
6922 <ele>188.1</ele>
6923 <time>2012-09-10T12:27:44Z</time>
6924 <course>308.0</course>
6925 <speed>37.97</speed>
6926 </trkpt>
6927 <trkpt lat="50.9596405333" lon="13.8629246167">
6928 <ele>187.4</ele>
6929 <time>2012-09-10T12:27:45Z</time>
6930 <course>308.0</course>
6931 <speed>37.86</speed>
6932 </trkpt>
6933 <trkpt lat="50.9598486500" lon="13.8625051167">
6934 <ele>186.7</ele>
6935 <time>2012-09-10T12:27:46Z</time>
6936 <course>308.0</course>
6937 <speed>37.71</speed>
6938 </trkpt>
6939 <trkpt lat="50.9600546667" lon="13.8620724500">
6940 <ele>185.7</ele>
6941 <time>2012-09-10T12:27:48Z</time>
6942 <course>308.0</course>
6943 <speed>37.71</speed>
6944 </trkpt>
6945 <trkpt lat="50.9602619833" lon="13.8616478500">
6946 <ele>184.6</ele>
6947 <time>2012-09-10T12:27:49Z</time>
6948 <course>308.0</course>
6949 <speed>37.71</speed>
6950 </trkpt>
6951 <trkpt lat="50.9604725667" lon="13.8612187000">
6952 <ele>183.4</ele>
6953 <time>2012-09-10T12:27:50Z</time>
6954 <course>308.0</course>
6955 <speed>37.71</speed>
6956 </trkpt>
6957 <trkpt lat="50.9606815667" lon="13.8607877000">
6958 <ele>182.1</ele>
6959 <time>2012-09-10T12:27:50Z</time>
6960 <course>308.0</course>
6961 <speed>37.81</speed>
6962 </trkpt>
6963 <trkpt lat="50.9608932167" lon="13.8603664000">
6964 <ele>181.1</ele>
6965 <time>2012-09-10T12:27:51Z</time>
6966 <course>308.0</course>
6967 <speed>37.86</speed>
6968 </trkpt>
6969 <trkpt lat="50.9610988833" lon="13.8599342500">
6970 <ele>180.3</ele>
6971 <time>2012-09-10T12:27:52Z</time>
6972 <course>308.0</course>
6973 <speed>38.02</speed>
6974 </trkpt>
6975 <trkpt lat="50.9613103500" lon="13.8595166833">
6976 <ele>179.5</ele>
6977 <time>2012-09-10T12:27:54Z</time>
6978 <course>308.0</course>
6979 <speed>37.91</speed>
6980 </trkpt>
6981 <trkpt lat="50.9615215333" lon="13.8591048333">
6982 <ele>178.8</ele>
6983 <time>2012-09-10T12:27:55Z</time>
6984 <course>308.0</course>
6985 <speed>37.91</speed>
6986 </trkpt>
6987 <trkpt lat="50.9617259000" lon="13.8586723000">
6988 <ele>178.0</ele>
6989 <time>2012-09-10T12:27:56Z</time>
6990 <course>308.0</course>
6991 <speed>37.81</speed>
6992 </trkpt>
6993 <trkpt lat="50.9619218500" lon="13.8582596500">
6994 <ele>177.3</ele>
6995 <time>2012-09-10T12:27:57Z</time>
6996 <course>308.0</course>
6997 <speed>37.45</speed>
6998 </trkpt>
6999 <trkpt lat="50.9621232500" lon="13.8578409333">
7000 <ele>176.3</ele>
7001 <time>2012-09-10T12:27:57Z</time>
7002 <course>308.0</course>
7003 <speed>37.19</speed>
7004 </trkpt>
7005 <trkpt lat="50.9623183667" lon="13.8574287167">
7006 <ele>174.9</ele>
7007 <time>2012-09-10T12:27:58Z</time>
7008 <course>307.0</course>
7009 <speed>36.42</speed>
7010 </trkpt>
7011 <trkpt lat="50.9625162333" lon="13.8570253833">
7012 <ele>173.4</ele>
7013 <time>2012-09-10T12:27:59Z</time>
7014 <course>307.0</course>
7015 <speed>36.27</speed>
7016 </trkpt>
7017 <trkpt lat="50.9627160500" lon="13.8566272667">
7018 <ele>173.3</ele>
7019 <time>2012-09-10T12:28:01Z</time>
7020 <course>308.0</course>
7021 <speed>35.86</speed>
7022 </trkpt>
7023 <trkpt lat="50.9629148833" lon="13.8562511000">
7024 <ele>172.7</ele>
7025 <time>2012-09-10T12:28:02Z</time>
7026 <course>308.0</course>
7027 <speed>34.72</speed>
7028 </trkpt>
7029 <trkpt lat="50.9631031667" lon="13.8558629000">
7030 <ele>172.3</ele>
7031 <time>2012-09-10T12:28:03Z</time>
7032 <course>308.0</course>
7033 <speed>34.21</speed>
7034 </trkpt>
7035 <trkpt lat="50.9632965000" lon="13.8554869500">
7036 <ele>170.8</ele>
7037 <time>2012-09-10T12:28:03Z</time>
7038 <course>308.0</course>
7039 <speed>34.06</speed>
7040 </trkpt>
7041 <trkpt lat="50.9634784000" lon="13.8551132000">
7042 <ele>170.2</ele>
7043 <time>2012-09-10T12:28:04Z</time>
7044 <course>308.0</course>
7045 <speed>33.70</speed>
7046 </trkpt>
7047 <trkpt lat="50.9636632833" lon="13.8547451333">
7048 <ele>169.5</ele>
7049 <time>2012-09-10T12:28:05Z</time>
7050 <course>308.0</course>
7051 <speed>33.34</speed>
7052 </trkpt>
7053 <trkpt lat="50.9638466667" lon="13.8543718000">
7054 <ele>168.4</ele>
7055 <time>2012-09-10T12:28:07Z</time>
7056 <course>308.0</course>
7057 <speed>33.03</speed>
7058 </trkpt>
7059 <trkpt lat="50.9640227500" lon="13.8540107500">
7060 <ele>168.1</ele>
7061 <time>2012-09-10T12:28:08Z</time>
7062 <course>308.0</course>
7063 <speed>32.56</speed>
7064 </trkpt>
7065 <trkpt lat="50.9642002500" lon="13.8536652333">
7066 <ele>167.1</ele>
7067 <time>2012-09-10T12:28:09Z</time>
7068 <course>308.0</course>
7069 <speed>32.00</speed>
7070 </trkpt>
7071 <trkpt lat="50.9643640667" lon="13.8533087333">
7072 <ele>167.3</ele>
7073 <time>2012-09-10T12:28:09Z</time>
7074 <course>308.0</course>
7075 <speed>31.53</speed>
7076 </trkpt>
7077 <trkpt lat="50.9645412000" lon="13.8529512000">
7078 <ele>167.1</ele>
7079 <time>2012-09-10T12:28:10Z</time>
7080 <course>308.0</course>
7081 <speed>31.43</speed>
7082 </trkpt>
7083 <trkpt lat="50.9647097500" lon="13.8525957667">
7084 <ele>166.1</ele>
7085 <time>2012-09-10T12:28:11Z</time>
7086 <course>308.0</course>
7087 <speed>31.33</speed>
7088 </trkpt>
7089 <trkpt lat="50.9648612167" lon="13.8522492333">
7090 <ele>165.1</ele>
7091 <time>2012-09-10T12:28:13Z</time>
7092 <course>308.0</course>
7093 <speed>30.87</speed>
7094 </trkpt>
7095 <trkpt lat="50.9650271833" lon="13.8519065667">
7096 <ele>164.8</ele>
7097 <time>2012-09-10T12:28:14Z</time>
7098 <course>308.0</course>
7099 <speed>30.66</speed>
7100 </trkpt>
7101 <trkpt lat="50.9651816500" lon="13.8515548833">
7102 <ele>164.1</ele>
7103 <time>2012-09-10T12:28:15Z</time>
7104 <course>307.0</course>
7105 <speed>30.45</speed>
7106 </trkpt>
7107 <trkpt lat="50.9653413000" lon="13.8512118833">
7108 <ele>162.7</ele>
7109 <time>2012-09-10T12:28:16Z</time>
7110 <course>307.0</course>
7111 <speed>30.25</speed>
7112 </trkpt>
7113 <trkpt lat="50.9655004667" lon="13.8508506333">
7114 <ele>161.8</ele>
7115 <time>2012-09-10T12:28:16Z</time>
7116 <course>307.0</course>
7117 <speed>30.25</speed>
7118 </trkpt>
7119 <trkpt lat="50.9656543000" lon="13.8505116000">
7120 <ele>161.4</ele>
7121 <time>2012-09-10T12:28:17Z</time>
7122 <course>307.0</course>
7123 <speed>29.99</speed>
7124 </trkpt>
7125 <trkpt lat="50.9658064667" lon="13.8501762833">
7126 <ele>160.6</ele>
7127 <time>2012-09-10T12:28:18Z</time>
7128 <course>306.0</course>
7129 <speed>29.84</speed>
7130 </trkpt>
7131 <trkpt lat="50.9659521667" lon="13.8498443500">
7132 <ele>159.9</ele>
7133 <time>2012-09-10T12:28:20Z</time>
7134 <course>305.0</course>
7135 <speed>29.58</speed>
7136 </trkpt>
7137 <trkpt lat="50.9661039000" lon="13.8495039500">
7138 <ele>159.6</ele>
7139 <time>2012-09-10T12:28:21Z</time>
7140 <course>305.0</course>
7141 <speed>29.58</speed>
7142 </trkpt>
7143 <trkpt lat="50.9662462000" lon="13.8491382167">
7144 <ele>158.8</ele>
7145 <time>2012-09-10T12:28:22Z</time>
7146 <course>304.0</course>
7147 <speed>29.63</speed>
7148 </trkpt>
7149 <trkpt lat="50.9663855000" lon="13.8487846667">
7150 <ele>158.1</ele>
7151 <time>2012-09-10T12:28:22Z</time>
7152 <course>303.0</course>
7153 <speed>29.48</speed>
7154 </trkpt>
7155 <trkpt lat="50.9665245167" lon="13.8484282167">
7156 <ele>158.2</ele>
7157 <time>2012-09-10T12:28:23Z</time>
7158 <course>302.0</course>
7159 <speed>29.48</speed>
7160 </trkpt>
7161 <trkpt lat="50.9666565000" lon="13.8480653333">
7162 <ele>158.2</ele>
7163 <time>2012-09-10T12:28:24Z</time>
7164 <course>301.0</course>
7165 <speed>29.48</speed>
7166 </trkpt>
7167 <trkpt lat="50.9667887333" lon="13.8477087500">
7168 <ele>158.2</ele>
7169 <time>2012-09-10T12:28:26Z</time>
7170 <course>301.0</course>
7171 <speed>29.43</speed>
7172 </trkpt>
7173 <trkpt lat="50.9669109833" lon="13.8473381500">
7174 <ele>158.3</ele>
7175 <time>2012-09-10T12:28:27Z</time>
7176 <course>299.0</course>
7177 <speed>29.48</speed>
7178 </trkpt>
7179 <trkpt lat="50.9670311667" lon="13.8469791833">
7180 <ele>158.2</ele>
7181 <time>2012-09-10T12:28:28Z</time>
7182 <course>299.0</course>
7183 <speed>29.37</speed>
7184 </trkpt>
7185 <trkpt lat="50.9671555000" lon="13.8466139667">
7186 <ele>158.6</ele>
7187 <time>2012-09-10T12:28:29Z</time>
7188 <course>298.0</course>
7189 <speed>29.43</speed>
7190 </trkpt>
7191 <trkpt lat="50.9672763500" lon="13.8462518833">
7192 <ele>158.4</ele>
7193 <time>2012-09-10T12:28:29Z</time>
7194 <course>297.0</course>
7195 <speed>29.27</speed>
7196 </trkpt>
7197 <trkpt lat="50.9673979000" lon="13.8458775000">
7198 <ele>158.6</ele>
7199 <time>2012-09-10T12:28:30Z</time>
7200 <course>297.0</course>
7201 <speed>29.27</speed>
7202 </trkpt>
7203 <trkpt lat="50.9678315833" lon="13.8443586167">
7204 <ele>158.9</ele>
7205 <time>2012-09-10T12:28:35Z</time>
7206 <course>294.0</course>
7207 <speed>29.12</speed>
7208 </trkpt>
7209 <trkpt lat="50.9679225500" lon="13.8439748833">
7210 <ele>159.0</ele>
7211 <time>2012-09-10T12:28:35Z</time>
7212 <course>294.0</course>
7213 <speed>29.37</speed>
7214 </trkpt>
7215 <trkpt lat="50.9679997167" lon="13.8435813833">
7216 <ele>158.8</ele>
7217 <time>2012-09-10T12:28:36Z</time>
7218 <course>291.0</course>
7219 <speed>29.53</speed>
7220 </trkpt>
7221 <trkpt lat="50.9680878500" lon="13.8431672833">
7222 <ele>159.3</ele>
7223 <time>2012-09-10T12:28:37Z</time>
7224 <course>289.0</course>
7225 <speed>29.79</speed>
7226 </trkpt>
7227 <trkpt lat="50.9681862167" lon="13.8427651667">
7228 <ele>159.8</ele>
7229 <time>2012-09-10T12:28:39Z</time>
7230 <course>289.0</course>
7231 <speed>29.99</speed>
7232 </trkpt>
7233 <trkpt lat="50.9682766333" lon="13.8423624333">
7234 <ele>159.6</ele>
7235 <time>2012-09-10T12:28:40Z</time>
7236 <course>288.0</course>
7237 <speed>30.15</speed>
7238 </trkpt>
7239 <trkpt lat="50.9683605500" lon="13.8419612833">
7240 <ele>160.1</ele>
7241 <time>2012-09-10T12:28:41Z</time>
7242 <course>287.0</course>
7243 <speed>30.30</speed>
7244 </trkpt>
7245 <trkpt lat="50.9684429500" lon="13.8415427000">
7246 <ele>161.1</ele>
7247 <time>2012-09-10T12:28:41Z</time>
7248 <course>287.0</course>
7249 <speed>30.35</speed>
7250 </trkpt>
7251 <trkpt lat="50.9685190333" lon="13.8411182167">
7252 <ele>161.1</ele>
7253 <time>2012-09-10T12:28:42Z</time>
7254 <course>287.0</course>
7255 <speed>30.45</speed>
7256 </trkpt>
7257 <trkpt lat="50.9685910000" lon="13.8407000500">
7258 <ele>161.5</ele>
7259 <time>2012-09-10T12:28:43Z</time>
7260 <course>286.0</course>
7261 <speed>30.56</speed>
7262 </trkpt>
7263 <trkpt lat="50.9686593667" lon="13.8402772667">
7264 <ele>161.7</ele>
7265 <time>2012-09-10T12:28:45Z</time>
7266 <course>285.0</course>
7267 <speed>30.76</speed>
7268 </trkpt>
7269 <trkpt lat="50.9687323833" lon="13.8398528333">
7270 <ele>162.3</ele>
7271 <time>2012-09-10T12:28:46Z</time>
7272 <course>285.0</course>
7273 <speed>30.71</speed>
7274 </trkpt>
7275 <trkpt lat="50.9687901167" lon="13.8394158833">
7276 <ele>163.1</ele>
7277 <time>2012-09-10T12:28:47Z</time>
7278 <course>282.0</course>
7279 <speed>30.92</speed>
7280 </trkpt>
7281 <trkpt lat="50.9688490000" lon="13.8389806333">
7282 <ele>164.1</ele>
7283 <time>2012-09-10T12:28:48Z</time>
7284 <course>281.0</course>
7285 <speed>31.07</speed>
7286 </trkpt>
7287 <trkpt lat="50.9688937000" lon="13.8385463500">
7288 <ele>164.9</ele>
7289 <time>2012-09-10T12:28:48Z</time>
7290 <course>280.0</course>
7291 <speed>31.17</speed>
7292 </trkpt>
7293 <trkpt lat="50.9689377667" lon="13.8381105833">
7294 <ele>165.2</ele>
7295 <time>2012-09-10T12:28:49Z</time>
7296 <course>279.0</course>
7297 <speed>31.33</speed>
7298 </trkpt>
7299 <trkpt lat="50.9689782167" lon="13.8376709833">
7300 <ele>166.1</ele>
7301 <time>2012-09-10T12:28:50Z</time>
7302 <course>278.0</course>
7303 <speed>31.48</speed>
7304 </trkpt>
7305 <trkpt lat="50.9690172667" lon="13.8372210167">
7306 <ele>166.6</ele>
7307 <time>2012-09-10T12:28:52Z</time>
7308 <course>278.0</course>
7309 <speed>31.64</speed>
7310 </trkpt>
7311 <trkpt lat="50.9690567833" lon="13.8367728000">
7312 <ele>167.0</ele>
7313 <time>2012-09-10T12:28:53Z</time>
7314 <course>278.0</course>
7315 <speed>31.79</speed>
7316 </trkpt>
7317 <trkpt lat="50.9690955667" lon="13.8363271000">
7318 <ele>166.8</ele>
7319 <time>2012-09-10T12:28:54Z</time>
7320 <course>278.0</course>
7321 <speed>31.89</speed>
7322 </trkpt>
7323 <trkpt lat="50.9691301500" lon="13.8358796500">
7324 <ele>167.2</ele>
7325 <time>2012-09-10T12:28:54Z</time>
7326 <course>277.0</course>
7327 <speed>31.84</speed>
7328 </trkpt>
7329 <trkpt lat="50.9691616833" lon="13.8354330000">
7330 <ele>166.8</ele>
7331 <time>2012-09-10T12:28:55Z</time>
7332 <course>277.0</course>
7333 <speed>31.74</speed>
7334 </trkpt>
7335 <trkpt lat="50.9691883833" lon="13.8349721000">
7336 <ele>165.7</ele>
7337 <time>2012-09-10T12:28:56Z</time>
7338 <course>276.0</course>
7339 <speed>32.15</speed>
7340 </trkpt>
7341 <trkpt lat="50.9692161667" lon="13.8345051833">
7342 <ele>166.0</ele>
7343 <time>2012-09-10T12:28:58Z</time>
7344 <course>276.0</course>
7345 <speed>32.46</speed>
7346 </trkpt>
7347 <trkpt lat="50.9692291167" lon="13.8340506500">
7348 <ele>166.1</ele>
7349 <time>2012-09-10T12:28:59Z</time>
7350 <course>275.0</course>
7351 <speed>32.56</speed>
7352 </trkpt>
7353 <trkpt lat="50.9692582500" lon="13.8335854667">
7354 <ele>166.3</ele>
7355 <time>2012-09-10T12:29:00Z</time>
7356 <course>275.0</course>
7357 <speed>32.82</speed>
7358 </trkpt>
7359 <trkpt lat="50.9692918333" lon="13.8331194167">
7360 <ele>167.1</ele>
7361 <time>2012-09-10T12:29:00Z</time>
7362 <course>276.0</course>
7363 <speed>32.92</speed>
7364 </trkpt>
7365 <trkpt lat="50.9693178833" lon="13.8326500167">
7366 <ele>167.6</ele>
7367 <time>2012-09-10T12:29:01Z</time>
7368 <course>276.0</course>
7369 <speed>32.92</speed>
7370 </trkpt>
7371 <trkpt lat="50.9693429167" lon="13.8321724000">
7372 <ele>168.8</ele>
7373 <time>2012-09-10T12:29:02Z</time>
7374 <course>277.0</course>
7375 <speed>33.59</speed>
7376 </trkpt>
7377 <trkpt lat="50.9693889167" lon="13.8316832500">
7378 <ele>169.6</ele>
7379 <time>2012-09-10T12:29:04Z</time>
7380 <course>277.0</course>
7381 <speed>33.70</speed>
7382 </trkpt>
7383 <trkpt lat="50.9694220500" lon="13.8312169500">
7384 <ele>171.6</ele>
7385 <time>2012-09-10T12:29:05Z</time>
7386 <course>277.0</course>
7387 <speed>33.54</speed>
7388 </trkpt>
7389 <trkpt lat="50.9694604667" lon="13.8307431500">
7390 <ele>173.1</ele>
7391 <time>2012-09-10T12:29:06Z</time>
7392 <course>277.0</course>
7393 <speed>33.64</speed>
7394 </trkpt>
7395 <trkpt lat="50.9695047000" lon="13.8302778167">
7396 <ele>173.9</ele>
7397 <time>2012-09-10T12:29:07Z</time>
7398 <course>278.0</course>
7399 <speed>34.00</speed>
7400 </trkpt>
7401 <trkpt lat="50.9695612667" lon="13.8298195167">
7402 <ele>174.5</ele>
7403 <time>2012-09-10T12:29:07Z</time>
7404 <course>279.0</course>
7405 <speed>33.75</speed>
7406 </trkpt>
7407 <trkpt lat="50.9696043667" lon="13.8293420000">
7408 <ele>175.4</ele>
7409 <time>2012-09-10T12:29:08Z</time>
7410 <course>280.0</course>
7411 <speed>33.80</speed>
7412 </trkpt>
7413 <trkpt lat="50.9696631167" lon="13.8288794000">
7414 <ele>177.0</ele>
7415 <time>2012-09-10T12:29:09Z</time>
7416 <course>280.0</course>
7417 <speed>33.95</speed>
7418 </trkpt>
7419 <trkpt lat="50.9697181000" lon="13.8284029000">
7420 <ele>177.6</ele>
7421 <time>2012-09-10T12:29:11Z</time>
7422 <course>280.0</course>
7423 <speed>33.75</speed>
7424 </trkpt>
7425 <trkpt lat="50.9697785167" lon="13.8279356000">
7426 <ele>179.0</ele>
7427 <time>2012-09-10T12:29:12Z</time>
7428 <course>282.0</course>
7429 <speed>33.90</speed>
7430 </trkpt>
7431 <trkpt lat="50.9698504667" lon="13.8274635167">
7432 <ele>179.6</ele>
7433 <time>2012-09-10T12:29:13Z</time>
7434 <course>283.0</course>
7435 <speed>34.16</speed>
7436 </trkpt>
7437 <trkpt lat="50.9699360500" lon="13.8269880333">
7438 <ele>180.0</ele>
7439 <time>2012-09-10T12:29:13Z</time>
7440 <course>285.0</course>
7441 <speed>34.36</speed>
7442 </trkpt>
7443 <trkpt lat="50.9700230000" lon="13.8265114000">
7444 <ele>180.8</ele>
7445 <time>2012-09-10T12:29:14Z</time>
7446 <course>286.0</course>
7447 <speed>34.57</speed>
7448 </trkpt>
7449 <trkpt lat="50.9701163833" lon="13.8260382000">
7450 <ele>181.0</ele>
7451 <time>2012-09-10T12:29:15Z</time>
7452 <course>287.0</course>
7453 <speed>34.93</speed>
7454 </trkpt>
7455 <trkpt lat="50.9702254000" lon="13.8255764000">
7456 <ele>182.8</ele>
7457 <time>2012-09-10T12:29:17Z</time>
7458 <course>289.0</course>
7459 <speed>34.72</speed>
7460 </trkpt>
7461 <trkpt lat="50.9703342000" lon="13.8251176500">
7462 <ele>183.5</ele>
7463 <time>2012-09-10T12:29:18Z</time>
7464 <course>290.0</course>
7465 <speed>34.93</speed>
7466 </trkpt>
7467 <trkpt lat="50.9704471833" lon="13.8246568333">
7468 <ele>185.1</ele>
7469 <time>2012-09-10T12:29:19Z</time>
7470 <course>291.0</course>
7471 <speed>35.19</speed>
7472 </trkpt>
7473 <trkpt lat="50.9705669333" lon="13.8241933500">
7474 <ele>186.0</ele>
7475 <time>2012-09-10T12:29:19Z</time>
7476 <course>292.0</course>
7477 <speed>35.44</speed>
7478 </trkpt>
7479 <trkpt lat="50.9706899500" lon="13.8237261833">
7480 <ele>186.7</ele>
7481 <time>2012-09-10T12:29:20Z</time>
7482 <course>293.0</course>
7483 <speed>35.60</speed>
7484 </trkpt>
7485 <trkpt lat="50.9708160500" lon="13.8232562333">
7486 <ele>186.9</ele>
7487 <time>2012-09-10T12:29:21Z</time>
7488 <course>293.0</course>
7489 <speed>35.86</speed>
7490 </trkpt>
7491 <trkpt lat="50.9709492667" lon="13.8227873167">
7492 <ele>187.5</ele>
7493 <time>2012-09-10T12:29:23Z</time>
7494 <course>294.0</course>
7495 <speed>35.91</speed>
7496 </trkpt>
7497 <trkpt lat="50.9710961667" lon="13.8223257500">
7498 <ele>187.5</ele>
7499 <time>2012-09-10T12:29:24Z</time>
7500 <course>296.0</course>
7501 <speed>36.16</speed>
7502 </trkpt>
7503 <trkpt lat="50.9712507000" lon="13.8218417500">
7504 <ele>188.4</ele>
7505 <time>2012-09-10T12:29:25Z</time>
7506 <course>297.0</course>
7507 <speed>36.83</speed>
7508 </trkpt>
7509 <trkpt lat="50.9714074667" lon="13.8213776833">
7510 <ele>188.5</ele>
7511 <time>2012-09-10T12:29:26Z</time>
7512 <course>298.0</course>
7513 <speed>36.78</speed>
7514 </trkpt>
7515 <trkpt lat="50.9715895667" lon="13.8209183167">
7516 <ele>188.4</ele>
7517 <time>2012-09-10T12:29:26Z</time>
7518 <course>300.0</course>
7519 <speed>36.99</speed>
7520 </trkpt>
7521 <trkpt lat="50.9717640833" lon="13.8204715500">
7522 <ele>188.3</ele>
7523 <time>2012-09-10T12:29:27Z</time>
7524 <course>301.0</course>
7525 <speed>36.94</speed>
7526 </trkpt>
7527 <trkpt lat="50.9719474667" lon="13.8200276000">
7528 <ele>188.9</ele>
7529 <time>2012-09-10T12:29:28Z</time>
7530 <course>301.0</course>
7531 <speed>37.04</speed>
7532 </trkpt>
7533 <trkpt lat="50.9721283167" lon="13.8195865333">
7534 <ele>189.4</ele>
7535 <time>2012-09-10T12:29:30Z</time>
7536 <course>302.0</course>
7537 <speed>36.83</speed>
7538 </trkpt>
7539 <trkpt lat="50.9723097667" lon="13.8191537167">
7540 <ele>190.3</ele>
7541 <time>2012-09-10T12:29:31Z</time>
7542 <course>302.0</course>
7543 <speed>36.73</speed>
7544 </trkpt>
7545 <trkpt lat="50.9724862000" lon="13.8187291000">
7546 <ele>190.8</ele>
7547 <time>2012-09-10T12:29:32Z</time>
7548 <course>303.0</course>
7549 <speed>36.32</speed>
7550 </trkpt>
7551 <trkpt lat="50.9726718500" lon="13.8183106833">
7552 <ele>190.6</ele>
7553 <time>2012-09-10T12:29:32Z</time>
7554 <course>303.0</course>
7555 <speed>36.06</speed>
7556 </trkpt>
7557 <trkpt lat="50.9728411000" lon="13.8179006333">
7558 <ele>191.5</ele>
7559 <time>2012-09-10T12:29:33Z</time>
7560 <course>303.0</course>
7561 <speed>35.75</speed>
7562 </trkpt>
7563 <trkpt lat="50.9730278333" lon="13.8174716500">
7564 <ele>191.8</ele>
7565 <time>2012-09-10T12:29:34Z</time>
7566 <course>303.0</course>
7567 <speed>35.91</speed>
7568 </trkpt>
7569 <trkpt lat="50.9731942500" lon="13.8170373000">
7570 <ele>190.8</ele>
7571 <time>2012-09-10T12:29:36Z</time>
7572 <course>303.0</course>
7573 <speed>35.65</speed>
7574 </trkpt>
7575 <trkpt lat="50.9733619000" lon="13.8166121333">
7576 <ele>190.5</ele>
7577 <time>2012-09-10T12:29:37Z</time>
7578 <course>302.0</course>
7579 <speed>35.34</speed>
7580 </trkpt>
7581 <trkpt lat="50.9735439833" lon="13.8162012333">
7582 <ele>191.4</ele>
7583 <time>2012-09-10T12:29:38Z</time>
7584 <course>302.0</course>
7585 <speed>35.39</speed>
7586 </trkpt>
7587 <trkpt lat="50.9737070833" lon="13.8157711667">
7588 <ele>191.3</ele>
7589 <time>2012-09-10T12:29:39Z</time>
7590 <course>302.0</course>
7591 <speed>35.29</speed>
7592 </trkpt>
7593 <trkpt lat="50.9738827167" lon="13.8153478667">
7594 <ele>191.9</ele>
7595 <time>2012-09-10T12:29:39Z</time>
7596 <course>302.0</course>
7597 <speed>35.34</speed>
7598 </trkpt>
7599 <trkpt lat="50.9740468167" lon="13.8149315000">
7600 <ele>192.2</ele>
7601 <time>2012-09-10T12:29:40Z</time>
7602 <course>301.0</course>
7603 <speed>35.50</speed>
7604 </trkpt>
7605 <trkpt lat="50.9742101333" lon="13.8144884500">
7606 <ele>191.8</ele>
7607 <time>2012-09-10T12:29:42Z</time>
7608 <course>301.0</course>
7609 <speed>35.44</speed>
7610 </trkpt>
7611 <trkpt lat="50.9743723833" lon="13.8140625833">
7612 <ele>191.8</ele>
7613 <time>2012-09-10T12:29:43Z</time>
7614 <course>301.0</course>
7615 <speed>35.39</speed>
7616 </trkpt>
7617 <trkpt lat="50.9745366667" lon="13.8136264667">
7618 <ele>192.1</ele>
7619 <time>2012-09-10T12:29:44Z</time>
7620 <course>300.0</course>
7621 <speed>35.50</speed>
7622 </trkpt>
7623 <trkpt lat="50.9746962833" lon="13.8131953000">
7624 <ele>192.6</ele>
7625 <time>2012-09-10T12:29:45Z</time>
7626 <course>300.0</course>
7627 <speed>35.55</speed>
7628 </trkpt>
7629 <trkpt lat="50.9748463167" lon="13.8127527000">
7630 <ele>192.8</ele>
7631 <time>2012-09-10T12:29:45Z</time>
7632 <course>298.0</course>
7633 <speed>35.55</speed>
7634 </trkpt>
7635 <trkpt lat="50.9749881333" lon="13.8123019833">
7636 <ele>193.8</ele>
7637 <time>2012-09-10T12:29:46Z</time>
7638 <course>297.0</course>
7639 <speed>35.34</speed>
7640 </trkpt>
7641 <trkpt lat="50.9751310167" lon="13.8118399667">
7642 <ele>194.1</ele>
7643 <time>2012-09-10T12:29:47Z</time>
7644 <course>296.0</course>
7645 <speed>35.55</speed>
7646 </trkpt>
7647 <trkpt lat="50.9752579000" lon="13.8113939500">
7648 <ele>194.3</ele>
7649 <time>2012-09-10T12:29:49Z</time>
7650 <course>296.0</course>
7651 <speed>35.50</speed>
7652 </trkpt>
7653 <trkpt lat="50.9753979500" lon="13.8109373333">
7654 <ele>194.3</ele>
7655 <time>2012-09-10T12:29:50Z</time>
7656 <course>296.0</course>
7657 <speed>35.50</speed>
7658 </trkpt>
7659 <trkpt lat="50.9755369167" lon="13.8104643333">
7660 <ele>193.9</ele>
7661 <time>2012-09-10T12:29:51Z</time>
7662 <course>295.0</course>
7663 <speed>35.60</speed>
7664 </trkpt>
7665 <trkpt lat="50.9756546000" lon="13.8099938833">
7666 <ele>194.4</ele>
7667 <time>2012-09-10T12:29:51Z</time>
7668 <course>294.0</course>
7669 <speed>35.55</speed>
7670 </trkpt>
7671 <trkpt lat="50.9757788000" lon="13.8095244500">
7672 <ele>194.5</ele>
7673 <time>2012-09-10T12:29:52Z</time>
7674 <course>293.0</course>
7675 <speed>35.60</speed>
7676 </trkpt>
7677 <trkpt lat="50.9758891000" lon="13.8090641500">
7678 <ele>195.0</ele>
7679 <time>2012-09-10T12:29:53Z</time>
7680 <course>292.0</course>
7681 <speed>35.39</speed>
7682 </trkpt>
7683 <trkpt lat="50.9759898000" lon="13.8085780833">
7684 <ele>195.5</ele>
7685 <time>2012-09-10T12:29:55Z</time>
7686 <course>291.0</course>
7687 <speed>35.60</speed>
7688 </trkpt>
7689 <trkpt lat="50.9760899500" lon="13.8080874000">
7690 <ele>195.6</ele>
7691 <time>2012-09-10T12:29:56Z</time>
7692 <course>290.0</course>
7693 <speed>35.55</speed>
7694 </trkpt>
7695 <trkpt lat="50.9761933833" lon="13.8076132333">
7696 <ele>196.2</ele>
7697 <time>2012-09-10T12:29:57Z</time>
7698 <course>289.0</course>
7699 <speed>35.44</speed>
7700 </trkpt>
7701 <trkpt lat="50.9762890167" lon="13.8071309167">
7702 <ele>196.6</ele>
7703 <time>2012-09-10T12:29:58Z</time>
7704 <course>288.0</course>
7705 <speed>35.55</speed>
7706 </trkpt>
7707 <trkpt lat="50.9763898667" lon="13.8066452167">
7708 <ele>198.1</ele>
7709 <time>2012-09-10T12:29:58Z</time>
7710 <course>288.0</course>
7711 <speed>35.70</speed>
7712 </trkpt>
7713 <trkpt lat="50.9764922500" lon="13.8061601500">
7714 <ele>199.2</ele>
7715 <time>2012-09-10T12:29:59Z</time>
7716 <course>287.0</course>
7717 <speed>35.91</speed>
7718 </trkpt>
7719 <trkpt lat="50.9765826000" lon="13.8056639833">
7720 <ele>199.2</ele>
7721 <time>2012-09-10T12:30:00Z</time>
7722 <course>287.0</course>
7723 <speed>36.01</speed>
7724 </trkpt>
7725 <trkpt lat="50.9766769333" lon="13.8051795333">
7726 <ele>199.8</ele>
7727 <time>2012-09-10T12:30:02Z</time>
7728 <course>287.0</course>
7729 <speed>36.11</speed>
7730 </trkpt>
7731 <trkpt lat="50.9767702167" lon="13.8046838333">
7732 <ele>199.9</ele>
7733 <time>2012-09-10T12:30:03Z</time>
7734 <course>287.0</course>
7735 <speed>36.27</speed>
7736 </trkpt>
7737 <trkpt lat="50.9768709000" lon="13.8041955500">
7738 <ele>200.1</ele>
7739 <time>2012-09-10T12:30:04Z</time>
7740 <course>287.0</course>
7741 <speed>36.42</speed>
7742 </trkpt>
7743 <trkpt lat="50.9769644500" lon="13.8036876000">
7744 <ele>200.0</ele>
7745 <time>2012-09-10T12:30:04Z</time>
7746 <course>287.0</course>
7747 <speed>36.78</speed>
7748 </trkpt>
7749 <trkpt lat="50.9770585667" lon="13.8031811667">
7750 <ele>199.9</ele>
7751 <time>2012-09-10T12:30:05Z</time>
7752 <course>286.0</course>
7753 <speed>37.19</speed>
7754 </trkpt>
7755 <trkpt lat="50.9771542833" lon="13.8026719333">
7756 <ele>200.6</ele>
7757 <time>2012-09-10T12:30:06Z</time>
7758 <course>286.0</course>
7759 <speed>37.24</speed>
7760 </trkpt>
7761 <trkpt lat="50.9772524167" lon="13.8021653333">
7762 <ele>201.3</ele>
7763 <time>2012-09-10T12:30:08Z</time>
7764 <course>287.0</course>
7765 <speed>37.30</speed>
7766 </trkpt>
7767 <trkpt lat="50.9773581667" lon="13.8016536500">
7768 <ele>201.7</ele>
7769 <time>2012-09-10T12:30:09Z</time>
7770 <course>287.0</course>
7771 <speed>37.66</speed>
7772 </trkpt>
7773 <trkpt lat="50.9774645000" lon="13.8011429333">
7774 <ele>202.0</ele>
7775 <time>2012-09-10T12:30:10Z</time>
7776 <course>288.0</course>
7777 <speed>37.66</speed>
7778 </trkpt>
7779 <trkpt lat="50.9775758167" lon="13.8006313000">
7780 <ele>202.6</ele>
7781 <time>2012-09-10T12:30:10Z</time>
7782 <course>289.0</course>
7783 <speed>37.55</speed>
7784 </trkpt>
7785 <trkpt lat="50.9776936833" lon="13.8001400000">
7786 <ele>203.4</ele>
7787 <time>2012-09-10T12:30:11Z</time>
7788 <course>291.0</course>
7789 <speed>37.14</speed>
7790 </trkpt>
7791 <trkpt lat="50.9778096833" lon="13.7996483500">
7792 <ele>203.7</ele>
7793 <time>2012-09-10T12:30:12Z</time>
7794 <course>291.0</course>
7795 <speed>36.88</speed>
7796 </trkpt>
7797 <trkpt lat="50.9779320000" lon="13.7991626667">
7798 <ele>204.1</ele>
7799 <time>2012-09-10T12:30:14Z</time>
7800 <course>292.0</course>
7801 <speed>36.63</speed>
7802 </trkpt>
7803 <trkpt lat="50.9780593833" lon="13.7986814500">
7804 <ele>204.4</ele>
7805 <time>2012-09-10T12:30:15Z</time>
7806 <course>293.0</course>
7807 <speed>36.68</speed>
7808 </trkpt>
7809 <trkpt lat="50.9781867333" lon="13.7981954833">
7810 <ele>204.6</ele>
7811 <time>2012-09-10T12:30:16Z</time>
7812 <course>294.0</course>
7813 <speed>36.47</speed>
7814 </trkpt>
7815 <trkpt lat="50.9783188500" lon="13.7977140500">
7816 <ele>205.0</ele>
7817 <time>2012-09-10T12:30:17Z</time>
7818 <course>295.0</course>
7819 <speed>36.58</speed>
7820 </trkpt>
7821 <trkpt lat="50.9784639000" lon="13.7972379167">
7822 <ele>205.2</ele>
7823 <time>2012-09-10T12:30:17Z</time>
7824 <course>296.0</course>
7825 <speed>36.63</speed>
7826 </trkpt>
7827 <trkpt lat="50.9786102000" lon="13.7967655833">
7828 <ele>205.4</ele>
7829 <time>2012-09-10T12:30:18Z</time>
7830 <course>296.0</course>
7831 <speed>36.63</speed>
7832 </trkpt>
7833 <trkpt lat="50.9787709833" lon="13.7963051667">
7834 <ele>205.3</ele>
7835 <time>2012-09-10T12:30:19Z</time>
7836 <course>297.0</course>
7837 <speed>36.73</speed>
7838 </trkpt>
7839 <trkpt lat="50.9789270500" lon="13.7958504000">
7840 <ele>205.1</ele>
7841 <time>2012-09-10T12:30:21Z</time>
7842 <course>298.0</course>
7843 <speed>36.52</speed>
7844 </trkpt>
7845 <trkpt lat="50.9790818500" lon="13.7953893667">
7846 <ele>205.4</ele>
7847 <time>2012-09-10T12:30:22Z</time>
7848 <course>299.0</course>
7849 <speed>36.68</speed>
7850 </trkpt>
7851 <trkpt lat="50.9792478000" lon="13.7949394333">
7852 <ele>205.1</ele>
7853 <time>2012-09-10T12:30:23Z</time>
7854 <course>300.0</course>
7855 <speed>36.73</speed>
7856 </trkpt>
7857 <trkpt lat="50.9794164667" lon="13.7944826833">
7858 <ele>204.8</ele>
7859 <time>2012-09-10T12:30:23Z</time>
7860 <course>301.0</course>
7861 <speed>36.73</speed>
7862 </trkpt>
7863 <trkpt lat="50.9795995167" lon="13.7940413000">
7864 <ele>204.7</ele>
7865 <time>2012-09-10T12:30:24Z</time>
7866 <course>302.0</course>
7867 <speed>36.83</speed>
7868 </trkpt>
7869 <trkpt lat="50.9797915500" lon="13.7936146167">
7870 <ele>204.6</ele>
7871 <time>2012-09-10T12:30:25Z</time>
7872 <course>303.0</course>
7873 <speed>36.94</speed>
7874 </trkpt>
7875 <trkpt lat="50.9799832500" lon="13.7931852833">
7876 <ele>204.7</ele>
7877 <time>2012-09-10T12:30:27Z</time>
7878 <course>304.0</course>
7879 <speed>37.04</speed>
7880 </trkpt>
7881 <trkpt lat="50.9801715333" lon="13.7927495000">
7882 <ele>204.9</ele>
7883 <time>2012-09-10T12:30:28Z</time>
7884 <course>305.0</course>
7885 <speed>37.09</speed>
7886 </trkpt>
7887 <trkpt lat="50.9803682833" lon="13.7923158667">
7888 <ele>204.5</ele>
7889 <time>2012-09-10T12:30:29Z</time>
7890 <course>305.0</course>
7891 <speed>37.19</speed>
7892 </trkpt>
7893 <trkpt lat="50.9805632333" lon="13.7918934500">
7894 <ele>204.5</ele>
7895 <time>2012-09-10T12:30:30Z</time>
7896 <course>306.0</course>
7897 <speed>37.09</speed>
7898 </trkpt>
7899 <trkpt lat="50.9807661667" lon="13.7914654667">
7900 <ele>204.6</ele>
7901 <time>2012-09-10T12:30:30Z</time>
7902 <course>307.0</course>
7903 <speed>37.30</speed>
7904 </trkpt>
7905 <trkpt lat="50.9809829500" lon="13.7910577167">
7906 <ele>204.2</ele>
7907 <time>2012-09-10T12:30:31Z</time>
7908 <course>308.0</course>
7909 <speed>37.40</speed>
7910 </trkpt>
7911 <trkpt lat="50.9811917000" lon="13.7906313167">
7912 <ele>203.9</ele>
7913 <time>2012-09-10T12:30:33Z</time>
7914 <course>309.0</course>
7915 <speed>37.35</speed>
7916 </trkpt>
7917 <trkpt lat="50.9814120500" lon="13.7902164167">
7918 <ele>203.8</ele>
7919 <time>2012-09-10T12:30:34Z</time>
7920 <course>309.0</course>
7921 <speed>37.19</speed>
7922 </trkpt>
7923 <trkpt lat="50.9816293000" lon="13.7898133333">
7924 <ele>203.1</ele>
7925 <time>2012-09-10T12:30:35Z</time>
7926 <course>310.0</course>
7927 <speed>37.04</speed>
7928 </trkpt>
7929 <trkpt lat="50.9818349167" lon="13.7894060167">
7930 <ele>203.4</ele>
7931 <time>2012-09-10T12:30:36Z</time>
7932 <course>310.0</course>
7933 <speed>36.99</speed>
7934 </trkpt>
7935 <trkpt lat="50.9820467167" lon="13.7890075333">
7936 <ele>203.6</ele>
7937 <time>2012-09-10T12:30:36Z</time>
7938 <course>310.0</course>
7939 <speed>36.94</speed>
7940 </trkpt>
7941 <trkpt lat="50.9822539333" lon="13.7886205833">
7942 <ele>204.0</ele>
7943 <time>2012-09-10T12:30:37Z</time>
7944 <course>310.0</course>
7945 <speed>36.83</speed>
7946 </trkpt>
7947 <trkpt lat="50.9824721000" lon="13.7882323333">
7948 <ele>203.3</ele>
7949 <time>2012-09-10T12:30:38Z</time>
7950 <course>310.0</course>
7951 <speed>36.88</speed>
7952 </trkpt>
7953 <trkpt lat="50.9826808167" lon="13.7878233000">
7954 <ele>203.3</ele>
7955 <time>2012-09-10T12:30:40Z</time>
7956 <course>310.0</course>
7957 <speed>37.09</speed>
7958 </trkpt>
7959 <trkpt lat="50.9828986333" lon="13.7874160500">
7960 <ele>203.5</ele>
7961 <time>2012-09-10T12:30:41Z</time>
7962 <course>310.0</course>
7963 <speed>37.35</speed>
7964 </trkpt>
7965 <trkpt lat="50.9831129167" lon="13.7870041667">
7966 <ele>203.9</ele>
7967 <time>2012-09-10T12:30:42Z</time>
7968 <course>309.0</course>
7969 <speed>37.50</speed>
7970 </trkpt>
7971 <trkpt lat="50.9833248500" lon="13.7865840000">
7972 <ele>204.0</ele>
7973 <time>2012-09-10T12:30:42Z</time>
7974 <course>309.0</course>
7975 <speed>37.60</speed>
7976 </trkpt>
7977 <trkpt lat="50.9835323167" lon="13.7861720000">
7978 <ele>203.5</ele>
7979 <time>2012-09-10T12:30:43Z</time>
7980 <course>308.0</course>
7981 <speed>37.76</speed>
7982 </trkpt>
7983 <trkpt lat="50.9837330667" lon="13.7857504000">
7984 <ele>203.3</ele>
7985 <time>2012-09-10T12:30:44Z</time>
7986 <course>308.0</course>
7987 <speed>37.76</speed>
7988 </trkpt>
7989 <trkpt lat="50.9839372000" lon="13.7853173833">
7990 <ele>203.6</ele>
7991 <time>2012-09-10T12:30:46Z</time>
7992 <course>308.0</course>
7993 <speed>37.86</speed>
7994 </trkpt>
7995 <trkpt lat="50.9841344167" lon="13.7848931333">
7996 <ele>203.4</ele>
7997 <time>2012-09-10T12:30:47Z</time>
7998 <course>307.0</course>
7999 <speed>37.81</speed>
8000 </trkpt>
8001 <trkpt lat="50.9843332833" lon="13.7844598833">
8002 <ele>203.0</ele>
8003 <time>2012-09-10T12:30:48Z</time>
8004 <course>306.0</course>
8005 <speed>37.71</speed>
8006 </trkpt>
8007 <trkpt lat="50.9845256833" lon="13.7840157833">
8008 <ele>202.3</ele>
8009 <time>2012-09-10T12:30:49Z</time>
8010 <course>305.0</course>
8011 <speed>37.71</speed>
8012 </trkpt>
8013 <trkpt lat="50.9847302500" lon="13.7835769833">
8014 <ele>202.9</ele>
8015 <time>2012-09-10T12:30:49Z</time>
8016 <course>305.0</course>
8017 <speed>37.76</speed>
8018 </trkpt>
8019 <trkpt lat="50.9849251667" lon="13.7831278833">
8020 <ele>202.8</ele>
8021 <time>2012-09-10T12:30:50Z</time>
8022 <course>305.0</course>
8023 <speed>37.71</speed>
8024 </trkpt>
8025 <trkpt lat="50.9851148667" lon="13.7826835500">
8026 <ele>202.9</ele>
8027 <time>2012-09-10T12:30:51Z</time>
8028 <course>305.0</course>
8029 <speed>37.60</speed>
8030 </trkpt>
8031 <trkpt lat="50.9853012167" lon="13.7822311000">
8032 <ele>201.7</ele>
8033 <time>2012-09-10T12:30:53Z</time>
8034 <course>305.0</course>
8035 <speed>37.50</speed>
8036 </trkpt>
8037 <trkpt lat="50.9854893833" lon="13.7817887000">
8038 <ele>200.8</ele>
8039 <time>2012-09-10T12:30:54Z</time>
8040 <course>304.0</course>
8041 <speed>37.55</speed>
8042 </trkpt>
8043 <trkpt lat="50.9856707000" lon="13.7813481333">
8044 <ele>201.0</ele>
8045 <time>2012-09-10T12:30:55Z</time>
8046 <course>304.0</course>
8047 <speed>37.24</speed>
8048 </trkpt>
8049 <trkpt lat="50.9858478333" lon="13.7808968333">
8050 <ele>200.6</ele>
8051 <time>2012-09-10T12:30:55Z</time>
8052 <course>302.0</course>
8053 <speed>37.14</speed>
8054 </trkpt>
8055 <trkpt lat="50.9860236000" lon="13.7804567000">
8056 <ele>200.8</ele>
8057 <time>2012-09-10T12:30:56Z</time>
8058 <course>302.0</course>
8059 <speed>36.99</speed>
8060 </trkpt>
8061 <trkpt lat="50.9862048667" lon="13.7800040667">
8062 <ele>201.0</ele>
8063 <time>2012-09-10T12:30:57Z</time>
8064 <course>301.0</course>
8065 <speed>36.83</speed>
8066 </trkpt>
8067 <trkpt lat="50.9863791167" lon="13.7795559333">
8068 <ele>201.0</ele>
8069 <time>2012-09-10T12:30:59Z</time>
8070 <course>302.0</course>
8071 <speed>36.73</speed>
8072 </trkpt>
8073 <trkpt lat="50.9865437667" lon="13.7791262500">
8074 <ele>200.7</ele>
8075 <time>2012-09-10T12:31:00Z</time>
8076 <course>302.0</course>
8077 <speed>36.63</speed>
8078 </trkpt>
8079 <trkpt lat="50.9867298000" lon="13.7786904167">
8080 <ele>199.8</ele>
8081 <time>2012-09-10T12:31:01Z</time>
8082 <course>302.0</course>
8083 <speed>36.78</speed>
8084 </trkpt>
8085 <trkpt lat="50.9869123500" lon="13.7782561500">
8086 <ele>200.1</ele>
8087 <time>2012-09-10T12:31:01Z</time>
8088 <course>303.0</course>
8089 <speed>36.73</speed>
8090 </trkpt>
8091 <trkpt lat="50.9870795500" lon="13.7778265167">
8092 <ele>200.5</ele>
8093 <time>2012-09-10T12:31:02Z</time>
8094 <course>303.0</course>
8095 <speed>36.52</speed>
8096 </trkpt>
8097 <trkpt lat="50.9872673333" lon="13.7774000500">
8098 <ele>200.0</ele>
8099 <time>2012-09-10T12:31:03Z</time>
8100 <course>303.0</course>
8101 <speed>36.47</speed>
8102 </trkpt>
8103 <trkpt lat="50.9874497000" lon="13.7769576000">
8104 <ele>199.7</ele>
8105 <time>2012-09-10T12:31:05Z</time>
8106 <course>304.0</course>
8107 <speed>36.63</speed>
8108 </trkpt>
8109 <trkpt lat="50.9876371500" lon="13.7765379000">
8110 <ele>200.3</ele>
8111 <time>2012-09-10T12:31:06Z</time>
8112 <course>304.0</course>
8113 <speed>36.52</speed>
8114 </trkpt>
8115 <trkpt lat="50.9878255333" lon="13.7761022833">
8116 <ele>200.6</ele>
8117 <time>2012-09-10T12:31:07Z</time>
8118 <course>305.0</course>
8119 <speed>36.63</speed>
8120 </trkpt>
8121 <trkpt lat="50.9880159500" lon="13.7756848500">
8122 <ele>200.8</ele>
8123 <time>2012-09-10T12:31:08Z</time>
8124 <course>306.0</course>
8125 <speed>36.47</speed>
8126 </trkpt>
8127 <trkpt lat="50.9882209333" lon="13.7752848833">
8128 <ele>201.6</ele>
8129 <time>2012-09-10T12:31:08Z</time>
8130 <course>308.0</course>
8131 <speed>36.37</speed>
8132 </trkpt>
8133 <trkpt lat="50.9884242500" lon="13.7748920833">
8134 <ele>202.7</ele>
8135 <time>2012-09-10T12:31:09Z</time>
8136 <course>308.0</course>
8137 <speed>36.27</speed>
8138 </trkpt>
8139 <trkpt lat="50.9886292000" lon="13.7744981833">
8140 <ele>203.0</ele>
8141 <time>2012-09-10T12:31:10Z</time>
8142 <course>309.0</course>
8143 <speed>36.27</speed>
8144 </trkpt>
8145 <trkpt lat="50.9888460333" lon="13.7741036167">
8146 <ele>202.9</ele>
8147 <time>2012-09-10T12:31:12Z</time>
8148 <course>309.0</course>
8149 <speed>36.32</speed>
8150 </trkpt>
8151 <trkpt lat="50.9890629167" lon="13.7737145000">
8152 <ele>202.9</ele>
8153 <time>2012-09-10T12:31:13Z</time>
8154 <course>310.0</course>
8155 <speed>36.16</speed>
8156 </trkpt>
8157 <trkpt lat="50.9892747500" lon="13.7733280833">
8158 <ele>203.0</ele>
8159 <time>2012-09-10T12:31:14Z</time>
8160 <course>311.0</course>
8161 <speed>36.16</speed>
8162 </trkpt>
8163 <trkpt lat="50.9894852333" lon="13.7729392167">
8164 <ele>203.1</ele>
8165 <time>2012-09-10T12:31:14Z</time>
8166 <course>311.0</course>
8167 <speed>36.11</speed>
8168 </trkpt>
8169 <trkpt lat="50.9897055333" lon="13.7725599667">
8170 <ele>203.3</ele>
8171 <time>2012-09-10T12:31:15Z</time>
8172 <course>312.0</course>
8173 <speed>36.27</speed>
8174 </trkpt>
8175 <trkpt lat="50.9899282667" lon="13.7721963000">
8176 <ele>203.6</ele>
8177 <time>2012-09-10T12:31:16Z</time>
8178 <course>313.0</course>
8179 <speed>36.22</speed>
8180 </trkpt>
8181 <trkpt lat="50.9901547167" lon="13.7718184000">
8182 <ele>203.5</ele>
8183 <time>2012-09-10T12:31:18Z</time>
8184 <course>313.0</course>
8185 <speed>36.16</speed>
8186 </trkpt>
8187 <trkpt lat="50.9903978167" lon="13.7714742667">
8188 <ele>203.4</ele>
8189 <time>2012-09-10T12:31:19Z</time>
8190 <course>315.0</course>
8191 <speed>36.32</speed>
8192 </trkpt>
8193 <trkpt lat="50.9906443500" lon="13.7711274333">
8194 <ele>203.6</ele>
8195 <time>2012-09-10T12:31:20Z</time>
8196 <course>316.0</course>
8197 <speed>36.47</speed>
8198 </trkpt>
8199 <trkpt lat="50.9908941167" lon="13.7707879333">
8200 <ele>203.9</ele>
8201 <time>2012-09-10T12:31:20Z</time>
8202 <course>316.0</course>
8203 <speed>36.68</speed>
8204 </trkpt>
8205 <trkpt lat="50.9911446000" lon="13.7704561000">
8206 <ele>203.8</ele>
8207 <time>2012-09-10T12:31:21Z</time>
8208 <course>317.0</course>
8209 <speed>36.78</speed>
8210 </trkpt>
8211 <trkpt lat="50.9913863667" lon="13.7700818167">
8212 <ele>203.6</ele>
8213 <time>2012-09-10T12:31:22Z</time>
8214 <course>318.0</course>
8215 <speed>36.94</speed>
8216 </trkpt>
8217 <trkpt lat="50.9916374833" lon="13.7697289833">
8218 <ele>203.7</ele>
8219 <time>2012-09-10T12:31:24Z</time>
8220 <course>318.0</course>
8221 <speed>37.04</speed>
8222 </trkpt>
8223 <trkpt lat="50.9918818333" lon="13.7693660833">
8224 <ele>204.2</ele>
8225 <time>2012-09-10T12:31:25Z</time>
8226 <course>317.0</course>
8227 <speed>36.99</speed>
8228 </trkpt>
8229 <trkpt lat="50.9921131833" lon="13.7689841500">
8230 <ele>204.5</ele>
8231 <time>2012-09-10T12:31:26Z</time>
8232 <course>317.0</course>
8233 <speed>36.94</speed>
8234 </trkpt>
8235 <trkpt lat="50.9923491833" lon="13.7686142167">
8236 <ele>204.3</ele>
8237 <time>2012-09-10T12:31:27Z</time>
8238 <course>317.0</course>
8239 <speed>36.83</speed>
8240 </trkpt>
8241 <trkpt lat="50.9925863167" lon="13.7682630000">
8242 <ele>204.3</ele>
8243 <time>2012-09-10T12:31:27Z</time>
8244 <course>317.0</course>
8245 <speed>36.63</speed>
8246 </trkpt>
8247 <trkpt lat="50.9928320167" lon="13.7679110667">
8248 <ele>204.7</ele>
8249 <time>2012-09-10T12:31:28Z</time>
8250 <course>316.0</course>
8251 <speed>36.47</speed>
8252 </trkpt>
8253 <trkpt lat="50.9930649167" lon="13.7675432833">
8254 <ele>204.1</ele>
8255 <time>2012-09-10T12:31:29Z</time>
8256 <course>316.0</course>
8257 <speed>36.32</speed>
8258 </trkpt>
8259 <trkpt lat="50.9932937167" lon="13.7671700333">
8260 <ele>204.0</ele>
8261 <time>2012-09-10T12:31:31Z</time>
8262 <course>315.0</course>
8263 <speed>36.16</speed>
8264 </trkpt>
8265 <trkpt lat="50.9935212167" lon="13.7668035167">
8266 <ele>203.6</ele>
8267 <time>2012-09-10T12:31:32Z</time>
8268 <course>315.0</course>
8269 <speed>36.11</speed>
8270 </trkpt>
8271 <trkpt lat="50.9937509333" lon="13.7664388500">
8272 <ele>203.4</ele>
8273 <time>2012-09-10T12:31:33Z</time>
8274 <course>314.0</course>
8275 <speed>36.16</speed>
8276 </trkpt>
8277 <trkpt lat="50.9939707167" lon="13.7660593833">
8278 <ele>203.6</ele>
8279 <time>2012-09-10T12:31:33Z</time>
8280 <course>313.0</course>
8281 <speed>36.27</speed>
8282 </trkpt>
8283 <trkpt lat="50.9941928333" lon="13.7656831500">
8284 <ele>203.8</ele>
8285 <time>2012-09-10T12:31:34Z</time>
8286 <course>313.0</course>
8287 <speed>36.32</speed>
8288 </trkpt>
8289 <trkpt lat="50.9944173333" lon="13.7652951333">
8290 <ele>204.0</ele>
8291 <time>2012-09-10T12:31:35Z</time>
8292 <course>312.0</course>
8293 <speed>36.47</speed>
8294 </trkpt>
8295 <trkpt lat="50.9946258667" lon="13.7648801667">
8296 <ele>203.8</ele>
8297 <time>2012-09-10T12:31:37Z</time>
8298 <course>311.0</course>
8299 <speed>36.63</speed>
8300 </trkpt>
8301 <trkpt lat="50.9948341167" lon="13.7644791000">
8302 <ele>203.9</ele>
8303 <time>2012-09-10T12:31:38Z</time>
8304 <course>310.0</course>
8305 <speed>36.78</speed>
8306 </trkpt>
8307 <trkpt lat="50.9950485833" lon="13.7640722167">
8308 <ele>203.8</ele>
8309 <time>2012-09-10T12:31:39Z</time>
8310 <course>309.0</course>
8311 <speed>37.04</speed>
8312 </trkpt>
8313 <trkpt lat="50.9952458333" lon="13.7636447500">
8314 <ele>203.6</ele>
8315 <time>2012-09-10T12:31:40Z</time>
8316 <course>308.0</course>
8317 <speed>37.19</speed>
8318 </trkpt>
8319 <trkpt lat="50.9954441000" lon="13.7632124000">
8320 <ele>203.1</ele>
8321 <time>2012-09-10T12:31:40Z</time>
8322 <course>307.0</course>
8323 <speed>37.30</speed>
8324 </trkpt>
8325 <trkpt lat="50.9956531167" lon="13.7627818167">
8326 <ele>203.0</ele>
8327 <time>2012-09-10T12:31:41Z</time>
8328 <course>307.0</course>
8329 <speed>37.60</speed>
8330 </trkpt>
8331 <trkpt lat="50.9958465667" lon="13.7623283000">
8332 <ele>202.8</ele>
8333 <time>2012-09-10T12:31:43Z</time>
8334 <course>306.0</course>
8335 <speed>37.81</speed>
8336 </trkpt>
8337 <trkpt lat="50.9960361000" lon="13.7618822167">
8338 <ele>202.3</ele>
8339 <time>2012-09-10T12:31:44Z</time>
8340 <course>305.0</course>
8341 <speed>37.91</speed>
8342 </trkpt>
8343 <trkpt lat="50.9962175167" lon="13.7614428000">
8344 <ele>201.7</ele>
8345 <time>2012-09-10T12:31:45Z</time>
8346 <course>303.0</course>
8347 <speed>37.81</speed>
8348 </trkpt>
8349 <trkpt lat="50.9964059833" lon="13.7609898833">
8350 <ele>201.8</ele>
8351 <time>2012-09-10T12:31:46Z</time>
8352 <course>303.0</course>
8353 <speed>37.86</speed>
8354 </trkpt>
8355 <trkpt lat="50.9965852333" lon="13.7605275000">
8356 <ele>202.0</ele>
8357 <time>2012-09-10T12:31:46Z</time>
8358 <course>302.0</course>
8359 <speed>37.97</speed>
8360 </trkpt>
8361 <trkpt lat="50.9967620833" lon="13.7600612000">
8362 <ele>202.0</ele>
8363 <time>2012-09-10T12:31:47Z</time>
8364 <course>301.0</course>
8365 <speed>38.07</speed>
8366 </trkpt>
8367 <trkpt lat="50.9969332667" lon="13.7595935667">
8368 <ele>201.8</ele>
8369 <time>2012-09-10T12:31:48Z</time>
8370 <course>300.0</course>
8371 <speed>38.17</speed>
8372 </trkpt>
8373 <trkpt lat="50.9970951500" lon="13.7591251000">
8374 <ele>201.0</ele>
8375 <time>2012-09-10T12:31:50Z</time>
8376 <course>300.0</course>
8377 <speed>37.91</speed>
8378 </trkpt>
8379 <trkpt lat="50.9972622500" lon="13.7586654000">
8380 <ele>201.6</ele>
8381 <time>2012-09-10T12:31:51Z</time>
8382 <course>299.0</course>
8383 <speed>37.71</speed>
8384 </trkpt>
8385 <trkpt lat="50.9974162333" lon="13.7582020333">
8386 <ele>202.1</ele>
8387 <time>2012-09-10T12:31:52Z</time>
8388 <course>298.0</course>
8389 <speed>37.14</speed>
8390 </trkpt>
8391 <trkpt lat="50.9975596833" lon="13.7577314333">
8392 <ele>201.8</ele>
8393 <time>2012-09-10T12:31:52Z</time>
8394 <course>297.0</course>
8395 <speed>36.73</speed>
8396 </trkpt>
8397 <trkpt lat="50.9976977667" lon="13.7572642500">
8398 <ele>202.0</ele>
8399 <time>2012-09-10T12:31:53Z</time>
8400 <course>296.0</course>
8401 <speed>36.42</speed>
8402 </trkpt>
8403 <trkpt lat="50.9978257000" lon="13.7567960333">
8404 <ele>201.8</ele>
8405 <time>2012-09-10T12:31:54Z</time>
8406 <course>294.0</course>
8407 <speed>36.22</speed>
8408 </trkpt>
8409 <trkpt lat="50.9979558000" lon="13.7563279500">
8410 <ele>201.8</ele>
8411 <time>2012-09-10T12:31:56Z</time>
8412 <course>294.0</course>
8413 <speed>36.06</speed>
8414 </trkpt>
8415 <trkpt lat="50.9980875000" lon="13.7558556167">
8416 <ele>201.6</ele>
8417 <time>2012-09-10T12:31:57Z</time>
8418 <course>294.0</course>
8419 <speed>36.06</speed>
8420 </trkpt>
8421 <trkpt lat="50.9982175833" lon="13.7553882500">
8422 <ele>201.2</ele>
8423 <time>2012-09-10T12:31:58Z</time>
8424 <course>294.0</course>
8425 <speed>36.06</speed>
8426 </trkpt>
8427 <trkpt lat="50.9983481833" lon="13.7549138500">
8428 <ele>201.4</ele>
8429 <time>2012-09-10T12:31:59Z</time>
8430 <course>294.0</course>
8431 <speed>36.01</speed>
8432 </trkpt>
8433 <trkpt lat="50.9984669500" lon="13.7544537833">
8434 <ele>201.8</ele>
8435 <time>2012-09-10T12:31:59Z</time>
8436 <course>294.0</course>
8437 <speed>35.91</speed>
8438 </trkpt>
8439 <trkpt lat="50.9986065500" lon="13.7539982500">
8440 <ele>201.8</ele>
8441 <time>2012-09-10T12:32:00Z</time>
8442 <course>294.0</course>
8443 <speed>35.91</speed>
8444 </trkpt>
8445 <trkpt lat="50.9987391333" lon="13.7535353500">
8446 <ele>202.0</ele>
8447 <time>2012-09-10T12:32:01Z</time>
8448 <course>295.0</course>
8449 <speed>35.91</speed>
8450 </trkpt>
8451 <trkpt lat="50.9988753333" lon="13.7530675333">
8452 <ele>202.3</ele>
8453 <time>2012-09-10T12:32:03Z</time>
8454 <course>295.0</course>
8455 <speed>35.96</speed>
8456 </trkpt>
8457 <trkpt lat="50.9990247333" lon="13.7526140333">
8458 <ele>201.8</ele>
8459 <time>2012-09-10T12:32:04Z</time>
8460 <course>296.0</course>
8461 <speed>35.86</speed>
8462 </trkpt>
8463 <trkpt lat="50.9991722000" lon="13.7521394500">
8464 <ele>201.4</ele>
8465 <time>2012-09-10T12:32:05Z</time>
8466 <course>296.0</course>
8467 <speed>36.01</speed>
8468 </trkpt>
8469 <trkpt lat="50.9993102333" lon="13.7516798167">
8470 <ele>201.1</ele>
8471 <time>2012-09-10T12:32:05Z</time>
8472 <course>297.0</course>
8473 <speed>35.86</speed>
8474 </trkpt>
8475 <trkpt lat="50.9994655667" lon="13.7512214833">
8476 <ele>200.6</ele>
8477 <time>2012-09-10T12:32:06Z</time>
8478 <course>298.0</course>
8479 <speed>35.91</speed>
8480 </trkpt>
8481 <trkpt lat="50.9996169167" lon="13.7507818833">
8482 <ele>200.2</ele>
8483 <time>2012-09-10T12:32:07Z</time>
8484 <course>299.0</course>
8485 <speed>35.86</speed>
8486 </trkpt>
8487 <trkpt lat="50.9997699833" lon="13.7503381333">
8488 <ele>199.2</ele>
8489 <time>2012-09-10T12:32:09Z</time>
8490 <course>299.0</course>
8491 <speed>36.06</speed>
8492 </trkpt>
8493 <trkpt lat="50.9999399333" lon="13.7498886500">
8494 <ele>199.4</ele>
8495 <time>2012-09-10T12:32:10Z</time>
8496 <course>300.0</course>
8497 <speed>36.37</speed>
8498 </trkpt>
8499 <trkpt lat="51.0001138833" lon="13.7494476000">
8500 <ele>198.0</ele>
8501 <time>2012-09-10T12:32:11Z</time>
8502 <course>302.0</course>
8503 <speed>36.58</speed>
8504 </trkpt>
8505 <trkpt lat="51.0002834500" lon="13.7490103333">
8506 <ele>198.0</ele>
8507 <time>2012-09-10T12:32:11Z</time>
8508 <course>303.0</course>
8509 <speed>36.42</speed>
8510 </trkpt>
8511 <trkpt lat="51.0004588000" lon="13.7485708333">
8512 <ele>197.4</ele>
8513 <time>2012-09-10T12:32:12Z</time>
8514 <course>303.0</course>
8515 <speed>36.58</speed>
8516 </trkpt>
8517 <trkpt lat="51.0006461167" lon="13.7481443667">
8518 <ele>197.0</ele>
8519 <time>2012-09-10T12:32:13Z</time>
8520 <course>304.0</course>
8521 <speed>36.63</speed>
8522 </trkpt>
8523 <trkpt lat="51.0008386000" lon="13.7477103167">
8524 <ele>196.0</ele>
8525 <time>2012-09-10T12:32:15Z</time>
8526 <course>305.0</course>
8527 <speed>36.47</speed>
8528 </trkpt>
8529 <trkpt lat="51.0010406000" lon="13.7472957833">
8530 <ele>195.8</ele>
8531 <time>2012-09-10T12:32:16Z</time>
8532 <course>307.0</course>
8533 <speed>36.32</speed>
8534 </trkpt>
8535 <trkpt lat="51.0012408000" lon="13.7468921167">
8536 <ele>196.2</ele>
8537 <time>2012-09-10T12:32:17Z</time>
8538 <course>308.0</course>
8539 <speed>36.06</speed>
8540 </trkpt>
8541 <trkpt lat="51.0014494167" lon="13.7464915333">
8542 <ele>196.0</ele>
8543 <time>2012-09-10T12:32:18Z</time>
8544 <course>310.0</course>
8545 <speed>35.91</speed>
8546 </trkpt>
8547 <trkpt lat="51.0016603667" lon="13.7461073333">
8548 <ele>196.8</ele>
8549 <time>2012-09-10T12:32:18Z</time>
8550 <course>310.0</course>
8551 <speed>35.75</speed>
8552 </trkpt>
8553 <trkpt lat="51.0018645667" lon="13.7457178833">
8554 <ele>196.7</ele>
8555 <time>2012-09-10T12:32:19Z</time>
8556 <course>310.0</course>
8557 <speed>35.70</speed>
8558 </trkpt>
8559 <trkpt lat="51.0020783500" lon="13.7453290333">
8560 <ele>196.3</ele>
8561 <time>2012-09-10T12:32:20Z</time>
8562 <course>312.0</course>
8563 <speed>35.60</speed>
8564 </trkpt>
8565 <trkpt lat="51.0022854500" lon="13.7449585500">
8566 <ele>196.3</ele>
8567 <time>2012-09-10T12:32:22Z</time>
8568 <course>312.0</course>
8569 <speed>35.14</speed>
8570 </trkpt>
8571 <trkpt lat="51.0025046000" lon="13.7445972167">
8572 <ele>196.5</ele>
8573 <time>2012-09-10T12:32:23Z</time>
8574 <course>313.0</course>
8575 <speed>34.93</speed>
8576 </trkpt>
8577 <trkpt lat="51.0027203167" lon="13.7442320833">
8578 <ele>196.6</ele>
8579 <time>2012-09-10T12:32:24Z</time>
8580 <course>313.0</course>
8581 <speed>34.83</speed>
8582 </trkpt>
8583 <trkpt lat="51.0029413833" lon="13.7438802167">
8584 <ele>197.2</ele>
8585 <time>2012-09-10T12:32:24Z</time>
8586 <course>314.0</course>
8587 <speed>34.67</speed>
8588 </trkpt>
8589 <trkpt lat="51.0031610333" lon="13.7435319500">
8590 <ele>197.4</ele>
8591 <time>2012-09-10T12:32:25Z</time>
8592 <course>314.0</course>
8593 <speed>34.16</speed>
8594 </trkpt>
8595 <trkpt lat="51.0033642167" lon="13.7432046667">
8596 <ele>198.1</ele>
8597 <time>2012-09-10T12:32:26Z</time>
8598 <course>314.0</course>
8599 <speed>33.59</speed>
8600 </trkpt>
8601 <trkpt lat="51.0035688667" lon="13.7428594167">
8602 <ele>198.0</ele>
8603 <time>2012-09-10T12:32:28Z</time>
8604 <course>315.0</course>
8605 <speed>33.39</speed>
8606 </trkpt>
8607 <trkpt lat="51.0037626333" lon="13.7425272333">
8608 <ele>197.5</ele>
8609 <time>2012-09-10T12:32:29Z</time>
8610 <course>314.0</course>
8611 <speed>33.13</speed>
8612 </trkpt>
8613 <trkpt lat="51.0039756333" lon="13.7421831833">
8614 <ele>197.3</ele>
8615 <time>2012-09-10T12:32:30Z</time>
8616 <course>314.0</course>
8617 <speed>33.08</speed>
8618 </trkpt>
8619 <trkpt lat="51.0041804333" lon="13.7418496500">
8620 <ele>197.6</ele>
8621 <time>2012-09-10T12:32:31Z</time>
8622 <course>314.0</course>
8623 <speed>33.08</speed>
8624 </trkpt>
8625 <trkpt lat="51.0043968667" lon="13.7414911167">
8626 <ele>197.5</ele>
8627 <time>2012-09-10T12:32:31Z</time>
8628 <course>313.0</course>
8629 <speed>33.39</speed>
8630 </trkpt>
8631 <trkpt lat="51.0045930333" lon="13.7411349333">
8632 <ele>197.5</ele>
8633 <time>2012-09-10T12:32:32Z</time>
8634 <course>312.0</course>
8635 <speed>33.34</speed>
8636 </trkpt>
8637 <trkpt lat="51.0047960833" lon="13.7407670500">
8638 <ele>197.5</ele>
8639 <time>2012-09-10T12:32:34Z</time>
8640 <course>311.0</course>
8641 <speed>33.44</speed>
8642 </trkpt>
8643 <trkpt lat="51.0049849167" lon="13.7403964500">
8644 <ele>197.8</ele>
8645 <time>2012-09-10T12:32:35Z</time>
8646 <course>308.0</course>
8647 <speed>33.34</speed>
8648 </trkpt>
8649 <trkpt lat="51.0051606000" lon="13.7400030000">
8650 <ele>198.3</ele>
8651 <time>2012-09-10T12:32:36Z</time>
8652 <course>307.0</course>
8653 <speed>33.34</speed>
8654 </trkpt>
8655 <trkpt lat="51.0053350833" lon="13.7396132333">
8656 <ele>198.6</ele>
8657 <time>2012-09-10T12:32:37Z</time>
8658 <course>306.0</course>
8659 <speed>33.44</speed>
8660 </trkpt>
8661 <trkpt lat="51.0055078500" lon="13.7392214333">
8662 <ele>199.4</ele>
8663 <time>2012-09-10T12:32:37Z</time>
8664 <course>305.0</course>
8665 <speed>33.49</speed>
8666 </trkpt>
8667 <trkpt lat="51.0056757167" lon="13.7388421667">
8668 <ele>199.3</ele>
8669 <time>2012-09-10T12:32:38Z</time>
8670 <course>304.0</course>
8671 <speed>33.03</speed>
8672 </trkpt>
8673 <trkpt lat="51.0058228000" lon="13.7384369833">
8674 <ele>199.2</ele>
8675 <time>2012-09-10T12:32:39Z</time>
8676 <course>302.0</course>
8677 <speed>32.82</speed>
8678 </trkpt>
8679 <trkpt lat="51.0059682000" lon="13.7380385333">
8680 <ele>198.8</ele>
8681 <time>2012-09-10T12:32:41Z</time>
8682 <course>302.0</course>
8683 <speed>32.82</speed>
8684 </trkpt>
8685 <trkpt lat="51.0061105333" lon="13.7376383333">
8686 <ele>198.7</ele>
8687 <time>2012-09-10T12:32:42Z</time>
8688 <course>300.0</course>
8689 <speed>32.87</speed>
8690 </trkpt>
8691 <trkpt lat="51.0062368000" lon="13.7372283667">
8692 <ele>198.5</ele>
8693 <time>2012-09-10T12:32:43Z</time>
8694 <course>299.0</course>
8695 <speed>32.92</speed>
8696 </trkpt>
8697 <trkpt lat="51.0063761333" lon="13.7368178167">
8698 <ele>198.8</ele>
8699 <time>2012-09-10T12:32:43Z</time>
8700 <course>298.0</course>
8701 <speed>32.77</speed>
8702 </trkpt>
8703 <trkpt lat="51.0065051000" lon="13.7364034333">
8704 <ele>199.0</ele>
8705 <time>2012-09-10T12:32:44Z</time>
8706 <course>297.0</course>
8707 <speed>32.82</speed>
8708 </trkpt>
8709 <trkpt lat="51.0066263000" lon="13.7359818833">
8710 <ele>199.4</ele>
8711 <time>2012-09-10T12:32:45Z</time>
8712 <course>295.0</course>
8713 <speed>32.67</speed>
8714 </trkpt>
8715 <trkpt lat="51.0067434167" lon="13.7355607333">
8716 <ele>199.5</ele>
8717 <time>2012-09-10T12:32:47Z</time>
8718 <course>295.0</course>
8719 <speed>32.67</speed>
8720 </trkpt>
8721 <trkpt lat="51.0068555167" lon="13.7351264833">
8722 <ele>199.7</ele>
8723 <time>2012-09-10T12:32:48Z</time>
8724 <course>293.0</course>
8725 <speed>32.77</speed>
8726 </trkpt>
8727 <trkpt lat="51.0069703500" lon="13.7346922000">
8728 <ele>200.4</ele>
8729 <time>2012-09-10T12:32:49Z</time>
8730 <course>292.0</course>
8731 <speed>32.92</speed>
8732 </trkpt>
8733 <trkpt lat="51.0070709667" lon="13.7342441333">
8734 <ele>200.7</ele>
8735 <time>2012-09-10T12:32:50Z</time>
8736 <course>290.0</course>
8737 <speed>33.13</speed>
8738 </trkpt>
8739 <trkpt lat="51.0071698167" lon="13.7338050833">
8740 <ele>200.9</ele>
8741 <time>2012-09-10T12:32:50Z</time>
8742 <course>290.0</course>
8743 <speed>33.08</speed>
8744 </trkpt>
8745 <trkpt lat="51.0072734833" lon="13.7333466167">
8746 <ele>201.2</ele>
8747 <time>2012-09-10T12:32:51Z</time>
8748 <course>288.0</course>
8749 <speed>33.34</speed>
8750 </trkpt>
8751 <trkpt lat="51.0073691000" lon="13.7328961667">
8752 <ele>200.5</ele>
8753 <time>2012-09-10T12:32:53Z</time>
8754 <course>288.0</course>
8755 <speed>33.34</speed>
8756 </trkpt>
8757 <trkpt lat="51.0074536667" lon="13.7324491333">
8758 <ele>200.1</ele>
8759 <time>2012-09-10T12:32:54Z</time>
8760 <course>288.0</course>
8761 <speed>33.23</speed>
8762 </trkpt>
8763 <trkpt lat="51.0075317167" lon="13.7319860167">
8764 <ele>200.0</ele>
8765 <time>2012-09-10T12:32:55Z</time>
8766 <course>288.0</course>
8767 <speed>33.13</speed>
8768 </trkpt>
8769 <trkpt lat="51.0076130000" lon="13.7315342500">
8770 <ele>199.5</ele>
8771 <time>2012-09-10T12:32:56Z</time>
8772 <course>288.0</course>
8773 <speed>33.03</speed>
8774 </trkpt>
8775 <trkpt lat="51.0077080833" lon="13.7310964833">
8776 <ele>199.0</ele>
8777 <time>2012-09-10T12:32:56Z</time>
8778 <course>288.0</course>
8779 <speed>32.87</speed>
8780 </trkpt>
8781 <trkpt lat="51.0078042500" lon="13.7306510500">
8782 <ele>199.2</ele>
8783 <time>2012-09-10T12:32:57Z</time>
8784 <course>288.0</course>
8785 <speed>32.46</speed>
8786 </trkpt>
8787 <trkpt lat="51.0078865167" lon="13.7302071833">
8788 <ele>199.1</ele>
8789 <time>2012-09-10T12:32:58Z</time>
8790 <course>288.0</course>
8791 <speed>32.25</speed>
8792 </trkpt>
8793 <trkpt lat="51.0079749500" lon="13.7297774167">
8794 <ele>199.7</ele>
8795 <time>2012-09-10T12:33:00Z</time>
8796 <course>288.0</course>
8797 <speed>31.79</speed>
8798 </trkpt>
8799 <trkpt lat="51.0080708833" lon="13.7293586333">
8800 <ele>200.4</ele>
8801 <time>2012-09-10T12:33:01Z</time>
8802 <course>288.0</course>
8803 <speed>31.43</speed>
8804 </trkpt>
8805 <trkpt lat="51.0081528167" lon="13.7289373833">
8806 <ele>201.2</ele>
8807 <time>2012-09-10T12:33:02Z</time>
8808 <course>288.0</course>
8809 <speed>30.66</speed>
8810 </trkpt>
8811 <trkpt lat="51.0082396333" lon="13.7285207000">
8812 <ele>201.2</ele>
8813 <time>2012-09-10T12:33:02Z</time>
8814 <course>290.0</course>
8815 <speed>30.25</speed>
8816 </trkpt>
8817 <trkpt lat="51.0083305167" lon="13.7281147667">
8818 <ele>200.9</ele>
8819 <time>2012-09-10T12:33:03Z</time>
8820 <course>290.0</course>
8821 <speed>30.25</speed>
8822 </trkpt>
8823 <trkpt lat="51.0085109500" lon="13.7273192167">
8824 <ele>201.0</ele>
8825 <time>2012-09-10T12:33:06Z</time>
8826 <course>290.0</course>
8827 <speed>29.68</speed>
8828 </trkpt>
8829 <trkpt lat="51.0086159667" lon="13.7269442500">
8830 <ele>200.9</ele>
8831 <time>2012-09-10T12:33:08Z</time>
8832 <course>293.0</course>
8833 <speed>29.27</speed>
8834 </trkpt>
8835 <trkpt lat="51.0087414500" lon="13.7265701833">
8836 <ele>200.9</ele>
8837 <time>2012-09-10T12:33:08Z</time>
8838 <course>293.0</course>
8839 <speed>28.91</speed>
8840 </trkpt>
8841 <trkpt lat="51.0088570333" lon="13.7262015167">
8842 <ele>200.7</ele>
8843 <time>2012-09-10T12:33:09Z</time>
8844 <course>296.0</course>
8845 <speed>28.50</speed>
8846 </trkpt>
8847 <trkpt lat="51.0089980000" lon="13.7258838000">
8848 <ele>200.9</ele>
8849 <time>2012-09-10T12:33:09Z</time>
8850 <course>298.0</course>
8851 <speed>28.14</speed>
8852 </trkpt>
8853 <trkpt lat="51.0091181500" lon="13.7255326667">
8854 <ele>201.0</ele>
8855 <time>2012-09-10T12:33:10Z</time>
8856 <course>299.0</course>
8857 <speed>27.83</speed>
8858 </trkpt>
8859 <trkpt lat="51.0092532000" lon="13.7252044000">
8860 <ele>200.8</ele>
8861 <time>2012-09-10T12:33:11Z</time>
8862 <course>301.0</course>
8863 <speed>27.62</speed>
8864 </trkpt>
8865 <trkpt lat="51.0093835000" lon="13.7248753000">
8866 <ele>200.5</ele>
8867 <time>2012-09-10T12:33:13Z</time>
8868 <course>301.0</course>
8869 <speed>27.37</speed>
8870 </trkpt>
8871 <trkpt lat="51.0095213500" lon="13.7245767333">
8872 <ele>200.6</ele>
8873 <time>2012-09-10T12:33:14Z</time>
8874 <course>303.0</course>
8875 <speed>27.16</speed>
8876 </trkpt>
8877 <trkpt lat="51.0096559667" lon="13.7242683833">
8878 <ele>200.1</ele>
8879 <time>2012-09-10T12:33:15Z</time>
8880 <course>304.0</course>
8881 <speed>27.01</speed>
8882 </trkpt>
8883 <trkpt lat="51.0097999833" lon="13.7239612000">
8884 <ele>200.3</ele>
8885 <time>2012-09-10T12:33:15Z</time>
8886 <course>306.0</course>
8887 <speed>26.90</speed>
8888 </trkpt>
8889 <trkpt lat="51.0099545167" lon="13.7236623667">
8890 <ele>200.1</ele>
8891 <time>2012-09-10T12:33:16Z</time>
8892 <course>308.0</course>
8893 <speed>26.90</speed>
8894 </trkpt>
8895 <trkpt lat="51.0101049667" lon="13.7233627167">
8896 <ele>199.9</ele>
8897 <time>2012-09-10T12:33:17Z</time>
8898 <course>309.0</course>
8899 <speed>26.60</speed>
8900 </trkpt>
8901 <trkpt lat="51.0102646500" lon="13.7230674833">
8902 <ele>200.0</ele>
8903 <time>2012-09-10T12:33:19Z</time>
8904 <course>310.0</course>
8905 <speed>26.44</speed>
8906 </trkpt>
8907 <trkpt lat="51.0104208333" lon="13.7227853333">
8908 <ele>199.8</ele>
8909 <time>2012-09-10T12:33:20Z</time>
8910 <course>311.0</course>
8911 <speed>26.49</speed>
8912 </trkpt>
8913 <trkpt lat="51.0105834167" lon="13.7224944667">
8914 <ele>199.8</ele>
8915 <time>2012-09-10T12:33:21Z</time>
8916 <course>311.0</course>
8917 <speed>26.49</speed>
8918 </trkpt>
8919 <trkpt lat="51.0107399167" lon="13.7222122167">
8920 <ele>199.9</ele>
8921 <time>2012-09-10T12:33:21Z</time>
8922 <course>311.0</course>
8923 <speed>26.44</speed>
8924 </trkpt>
8925 <trkpt lat="51.0109112167" lon="13.7219379667">
8926 <ele>200.3</ele>
8927 <time>2012-09-10T12:33:22Z</time>
8928 <course>313.0</course>
8929 <speed>26.70</speed>
8930 </trkpt>
8931 <trkpt lat="51.0110867667" lon="13.7216654833">
8932 <ele>200.1</ele>
8933 <time>2012-09-10T12:33:23Z</time>
8934 <course>314.0</course>
8935 <speed>27.01</speed>
8936 </trkpt>
8937 <trkpt lat="51.0112603333" lon="13.7213775167">
8938 <ele>199.6</ele>
8939 <time>2012-09-10T12:33:25Z</time>
8940 <course>314.0</course>
8941 <speed>27.32</speed>
8942 </trkpt>
8943 <trkpt lat="51.0114314000" lon="13.7210910000">
8944 <ele>199.0</ele>
8945 <time>2012-09-10T12:33:26Z</time>
8946 <course>314.0</course>
8947 <speed>27.52</speed>
8948 </trkpt>
8949 <trkpt lat="51.0115958667" lon="13.7208044000">
8950 <ele>198.8</ele>
8951 <time>2012-09-10T12:33:27Z</time>
8952 <course>313.0</course>
8953 <speed>27.62</speed>
8954 </trkpt>
8955 <trkpt lat="51.0117524333" lon="13.7204973167">
8956 <ele>198.1</ele>
8957 <time>2012-09-10T12:33:28Z</time>
8958 <course>312.0</course>
8959 <speed>27.88</speed>
8960 </trkpt>
8961 <trkpt lat="51.0119046667" lon="13.7201842000">
8962 <ele>197.3</ele>
8963 <time>2012-09-10T12:33:28Z</time>
8964 <course>311.0</course>
8965 <speed>28.04</speed>
8966 </trkpt>
8967 <trkpt lat="51.0120575333" lon="13.7198728500">
8968 <ele>196.4</ele>
8969 <time>2012-09-10T12:33:29Z</time>
8970 <course>309.0</course>
8971 <speed>28.14</speed>
8972 </trkpt>
8973 <trkpt lat="51.0122267667" lon="13.7195723000">
8974 <ele>196.1</ele>
8975 <time>2012-09-10T12:33:30Z</time>
8976 <course>308.0</course>
8977 <speed>28.04</speed>
8978 </trkpt>
8979 <trkpt lat="51.0123736167" lon="13.7192441000">
8980 <ele>195.6</ele>
8981 <time>2012-09-10T12:33:32Z</time>
8982 <course>307.0</course>
8983 <speed>28.04</speed>
8984 </trkpt>
8985 <trkpt lat="51.0125189333" lon="13.7189435500">
8986 <ele>194.6</ele>
8987 <time>2012-09-10T12:33:33Z</time>
8988 <course>306.0</course>
8989 <speed>27.52</speed>
8990 </trkpt>
8991 <trkpt lat="51.0126478500" lon="13.7186116167">
8992 <ele>194.2</ele>
8993 <time>2012-09-10T12:33:34Z</time>
8994 <course>305.0</course>
8995 <speed>27.26</speed>
8996 </trkpt>
8997 <trkpt lat="51.0127865333" lon="13.7182914500">
8998 <ele>194.3</ele>
8999 <time>2012-09-10T12:33:34Z</time>
9000 <course>305.0</course>
9001 <speed>27.26</speed>
9002 </trkpt>
9003 <trkpt lat="51.0129261667" lon="13.7179720167">
9004 <ele>194.2</ele>
9005 <time>2012-09-10T12:33:35Z</time>
9006 <course>304.0</course>
9007 <speed>27.01</speed>
9008 </trkpt>
9009 <trkpt lat="51.0130583500" lon="13.7176460667">
9010 <ele>193.5</ele>
9011 <time>2012-09-10T12:33:36Z</time>
9012 <course>302.0</course>
9013 <speed>26.70</speed>
9014 </trkpt>
9015 <trkpt lat="51.0131734167" lon="13.7172984333">
9016 <ele>193.2</ele>
9017 <time>2012-09-10T12:33:38Z</time>
9018 <course>300.0</course>
9019 <speed>26.70</speed>
9020 </trkpt>
9021 <trkpt lat="51.0132829500" lon="13.7169577333">
9022 <ele>193.2</ele>
9023 <time>2012-09-10T12:33:39Z</time>
9024 <course>299.0</course>
9025 <speed>26.44</speed>
9026 </trkpt>
9027 <trkpt lat="51.0133957167" lon="13.7166317833">
9028 <ele>193.2</ele>
9029 <time>2012-09-10T12:33:40Z</time>
9030 <course>299.0</course>
9031 <speed>26.24</speed>
9032 </trkpt>
9033 </trkseg>
9034 <trkseg>
9035 <trkpt lat="51.0223478667" lon="13.6879220500">
9036 <ele>194.9</ele>
9037 <time>2012-09-10T12:35:14Z</time>
9038 <course>312.0</course>
9039 <speed>23.30</speed>
9040 </trkpt>
9041 <trkpt lat="51.0226135500" lon="13.6878402500">
9042 <ele>193.8</ele>
9043 <time>2012-09-10T12:35:15Z</time>
9044 <course>335.0</course>
9045 <speed>25.16</speed>
9046 </trkpt>
9047 <trkpt lat="51.0228056167" lon="13.6877072833">
9048 <ele>192.9</ele>
9049 <time>2012-09-10T12:35:16Z</time>
9050 <course>335.0</course>
9051 <speed>25.31</speed>
9052 </trkpt>
9053 <trkpt lat="51.0230086667" lon="13.6875540500">
9054 <ele>191.9</ele>
9055 <time>2012-09-10T12:35:16Z</time>
9056 <course>335.0</course>
9057 <speed>25.41</speed>
9058 </trkpt>
9059 <trkpt lat="51.0232177667" lon="13.6873799667">
9060 <ele>190.8</ele>
9061 <time>2012-09-10T12:35:17Z</time>
9062 <course>335.0</course>
9063 <speed>25.62</speed>
9064 </trkpt>
9065 <trkpt lat="51.0234133333" lon="13.6872087833">
9066 <ele>190.1</ele>
9067 <time>2012-09-10T12:35:18Z</time>
9068 <course>335.0</course>
9069 <speed>25.46</speed>
9070 </trkpt>
9071 <trkpt lat="51.0236198000" lon="13.6870526667">
9072 <ele>190.1</ele>
9073 <time>2012-09-10T12:35:20Z</time>
9074 <course>335.0</course>
9075 <speed>25.46</speed>
9076 </trkpt>
9077 </trkseg>
9078 <trkseg>
9079 <trkpt lat="51.0287898833" lon="13.6741476833">
9080 <ele>195.1</ele>
9081 <time>2012-09-10T12:36:02Z</time>
9082 <course>297.0</course>
9083 <speed>26.03</speed>
9084 </trkpt>
9085 <trkpt lat="51.0288816833" lon="13.6737754167">
9086 <ele>197.1</ele>
9087 <time>2012-09-10T12:36:03Z</time>
9088 <course>299.0</course>
9089 <speed>26.49</speed>
9090 </trkpt>
9091 <trkpt lat="51.0289681667" lon="13.6734717167">
9092 <ele>196.2</ele>
9093 <time>2012-09-10T12:36:05Z</time>
9094 <course>300.0</course>
9095 <speed>26.90</speed>
9096 </trkpt>
9097 <trkpt lat="51.0291011333" lon="13.6731596833">
9098 <ele>198.3</ele>
9099 <time>2012-09-10T12:36:06Z</time>
9100 <course>302.0</course>
9101 <speed>27.73</speed>
9102 </trkpt>
9103 <trkpt lat="51.0292668167" lon="13.6728147667">
9104 <ele>199.6</ele>
9105 <time>2012-09-10T12:36:07Z</time>
9106 <course>304.0</course>
9107 <speed>28.55</speed>
9108 </trkpt>
9109 <trkpt lat="51.0294428333" lon="13.6725017500">
9110 <ele>201.2</ele>
9111 <time>2012-09-10T12:36:07Z</time>
9112 <course>306.0</course>
9113 <speed>29.07</speed>
9114 </trkpt>
9115 <trkpt lat="51.0296131000" lon="13.6721769000">
9116 <ele>201.7</ele>
9117 <time>2012-09-10T12:36:08Z</time>
9118 <course>308.0</course>
9119 <speed>29.63</speed>
9120 </trkpt>
9121 <trkpt lat="51.0297798833" lon="13.6718401167">
9122 <ele>202.3</ele>
9123 <time>2012-09-10T12:36:09Z</time>
9124 <course>308.0</course>
9125 <speed>30.09</speed>
9126 </trkpt>
9127 <trkpt lat="51.0299749000" lon="13.6715139500">
9128 <ele>202.2</ele>
9129 <time>2012-09-10T12:36:11Z</time>
9130 <course>311.0</course>
9131 <speed>30.87</speed>
9132 </trkpt>
9133 <trkpt lat="51.0301973167" lon="13.6712100167">
9134 <ele>204.0</ele>
9135 <time>2012-09-10T12:36:12Z</time>
9136 <course>314.0</course>
9137 <speed>31.43</speed>
9138 </trkpt>
9139 <trkpt lat="51.0304042500" lon="13.6709152500">
9140 <ele>203.8</ele>
9141 <time>2012-09-10T12:36:13Z</time>
9142 <course>317.0</course>
9143 <speed>31.33</speed>
9144 </trkpt>
9145 <trkpt lat="51.0306251500" lon="13.6706203500">
9146 <ele>205.2</ele>
9147 <time>2012-09-10T12:36:13Z</time>
9148 <course>319.0</course>
9149 <speed>31.84</speed>
9150 </trkpt>
9151 <trkpt lat="51.0308654500" lon="13.6703570500">
9152 <ele>205.7</ele>
9153 <time>2012-09-10T12:36:14Z</time>
9154 <course>322.0</course>
9155 <speed>32.36</speed>
9156 </trkpt>
9157 <trkpt lat="51.0310999000" lon="13.6700842667">
9158 <ele>207.0</ele>
9159 <time>2012-09-10T12:36:15Z</time>
9160 <course>323.0</course>
9161 <speed>32.25</speed>
9162 </trkpt>
9163 <trkpt lat="51.0313273500" lon="13.6698136167">
9164 <ele>206.4</ele>
9165 <time>2012-09-10T12:36:17Z</time>
9166 <course>325.0</course>
9167 <speed>31.95</speed>
9168 </trkpt>
9169 <trkpt lat="51.0315676167" lon="13.6695605333">
9170 <ele>206.9</ele>
9171 <time>2012-09-10T12:36:18Z</time>
9172 <course>326.0</course>
9173 <speed>31.74</speed>
9174 </trkpt>
9175 <trkpt lat="51.0318071833" lon="13.6693228667">
9176 <ele>208.1</ele>
9177 <time>2012-09-10T12:36:19Z</time>
9178 <course>327.0</course>
9179 <speed>31.43</speed>
9180 </trkpt>
9181 <trkpt lat="51.0320348500" lon="13.6690876667">
9182 <ele>209.4</ele>
9183 <time>2012-09-10T12:36:20Z</time>
9184 <course>327.0</course>
9185 <speed>30.81</speed>
9186 </trkpt>
9187 <trkpt lat="51.0322549000" lon="13.6688583667">
9188 <ele>209.8</ele>
9189 <time>2012-09-10T12:36:20Z</time>
9190 <course>326.0</course>
9191 <speed>30.51</speed>
9192 </trkpt>
9193 <trkpt lat="51.0324819667" lon="13.6686108333">
9194 <ele>210.0</ele>
9195 <time>2012-09-10T12:36:21Z</time>
9196 <course>325.0</course>
9197 <speed>30.56</speed>
9198 </trkpt>
9199 <trkpt lat="51.0327071667" lon="13.6683412167">
9200 <ele>210.0</ele>
9201 <time>2012-09-10T12:36:22Z</time>
9202 <course>324.0</course>
9203 <speed>30.56</speed>
9204 </trkpt>
9205 <trkpt lat="51.0329330667" lon="13.6680636167">
9206 <ele>210.6</ele>
9207 <time>2012-09-10T12:36:24Z</time>
9208 <course>322.0</course>
9209 <speed>30.71</speed>
9210 </trkpt>
9211 <trkpt lat="51.0331382000" lon="13.6677579000">
9212 <ele>211.1</ele>
9213 <time>2012-09-10T12:36:25Z</time>
9214 <course>319.0</course>
9215 <speed>30.76</speed>
9216 </trkpt>
9217 <trkpt lat="51.0333467500" lon="13.6674579833">
9218 <ele>212.8</ele>
9219 <time>2012-09-10T12:36:26Z</time>
9220 <course>317.0</course>
9221 <speed>30.97</speed>
9222 </trkpt>
9223 <trkpt lat="51.0335481833" lon="13.6671510667">
9224 <ele>213.8</ele>
9225 <time>2012-09-10T12:36:26Z</time>
9226 <course>317.0</course>
9227 <speed>31.17</speed>
9228 </trkpt>
9229 <trkpt lat="51.0337530500" lon="13.6668412000">
9230 <ele>213.6</ele>
9231 <time>2012-09-10T12:36:27Z</time>
9232 <course>316.0</course>
9233 <speed>31.43</speed>
9234 </trkpt>
9235 <trkpt lat="51.0339505667" lon="13.6665255000">
9236 <ele>213.5</ele>
9237 <time>2012-09-10T12:36:28Z</time>
9238 <course>315.0</course>
9239 <speed>31.48</speed>
9240 </trkpt>
9241 <trkpt lat="51.0341453833" lon="13.6661851500">
9242 <ele>213.6</ele>
9243 <time>2012-09-10T12:36:30Z</time>
9244 <course>313.0</course>
9245 <speed>31.89</speed>
9246 </trkpt>
9247 <trkpt lat="51.0343246833" lon="13.6658193500">
9248 <ele>213.4</ele>
9249 <time>2012-09-10T12:36:31Z</time>
9250 <course>310.0</course>
9251 <speed>32.10</speed>
9252 </trkpt>
9253 <trkpt lat="51.0345058500" lon="13.6654554500">
9254 <ele>213.9</ele>
9255 <time>2012-09-10T12:36:32Z</time>
9256 <course>309.0</course>
9257 <speed>32.51</speed>
9258 </trkpt>
9259 <trkpt lat="51.0346870500" lon="13.6650894833">
9260 <ele>214.1</ele>
9261 <time>2012-09-10T12:36:32Z</time>
9262 <course>308.0</course>
9263 <speed>32.82</speed>
9264 </trkpt>
9265 <trkpt lat="51.0348431667" lon="13.6646699000">
9266 <ele>214.2</ele>
9267 <time>2012-09-10T12:36:33Z</time>
9268 <course>305.0</course>
9269 <speed>33.23</speed>
9270 </trkpt>
9271 <trkpt lat="51.0349940500" lon="13.6642499167">
9272 <ele>214.5</ele>
9273 <time>2012-09-10T12:36:34Z</time>
9274 <course>303.0</course>
9275 <speed>33.64</speed>
9276 </trkpt>
9277 <trkpt lat="51.0351492167" lon="13.6638404500">
9278 <ele>214.9</ele>
9279 <time>2012-09-10T12:36:36Z</time>
9280 <course>301.0</course>
9281 <speed>33.59</speed>
9282 </trkpt>
9283 <trkpt lat="51.0352795500" lon="13.6634034833">
9284 <ele>215.5</ele>
9285 <time>2012-09-10T12:36:37Z</time>
9286 <course>297.0</course>
9287 <speed>33.70</speed>
9288 </trkpt>
9289 <trkpt lat="51.0354158333" lon="13.6629653833">
9290 <ele>217.3</ele>
9291 <time>2012-09-10T12:36:38Z</time>
9292 <course>296.0</course>
9293 <speed>33.80</speed>
9294 </trkpt>
9295 <trkpt lat="51.0355459833" lon="13.6625342000">
9296 <ele>217.6</ele>
9297 <time>2012-09-10T12:36:39Z</time>
9298 <course>295.0</course>
9299 <speed>33.54</speed>
9300 </trkpt>
9301 <trkpt lat="51.0356713667" lon="13.6620883167">
9302 <ele>217.8</ele>
9303 <time>2012-09-10T12:36:39Z</time>
9304 <course>294.0</course>
9305 <speed>33.49</speed>
9306 </trkpt>
9307 <trkpt lat="51.0357395667" lon="13.6616280167">
9308 <ele>217.7</ele>
9309 <time>2012-09-10T12:36:40Z</time>
9310 <course>289.0</course>
9311 <speed>33.23</speed>
9312 </trkpt>
9313 <trkpt lat="51.0358303500" lon="13.6611655167">
9314 <ele>218.2</ele>
9315 <time>2012-09-10T12:36:41Z</time>
9316 <course>287.0</course>
9317 <speed>33.18</speed>
9318 </trkpt>
9319 <trkpt lat="51.0359094833" lon="13.6607171667">
9320 <ele>218.8</ele>
9321 <time>2012-09-10T12:36:43Z</time>
9322 <course>286.0</course>
9323 <speed>33.34</speed>
9324 </trkpt>
9325 <trkpt lat="51.0359843833" lon="13.6602545167">
9326 <ele>219.0</ele>
9327 <time>2012-09-10T12:36:44Z</time>
9328 <course>284.0</course>
9329 <speed>33.23</speed>
9330 </trkpt>
9331 <trkpt lat="51.0360438667" lon="13.6597941333">
9332 <ele>219.5</ele>
9333 <time>2012-09-10T12:36:45Z</time>
9334 <course>282.0</course>
9335 <speed>32.72</speed>
9336 </trkpt>
9337 <trkpt lat="51.0361008167" lon="13.6593339500">
9338 <ele>219.7</ele>
9339 <time>2012-09-10T12:36:45Z</time>
9340 <course>280.0</course>
9341 <speed>32.00</speed>
9342 </trkpt>
9343 <trkpt lat="51.0361514000" lon="13.6588924333">
9344 <ele>220.3</ele>
9345 <time>2012-09-10T12:36:46Z</time>
9346 <course>279.0</course>
9347 <speed>31.33</speed>
9348 </trkpt>
9349 <trkpt lat="51.0361910333" lon="13.6584534000">
9350 <ele>220.5</ele>
9351 <time>2012-09-10T12:36:47Z</time>
9352 <course>278.0</course>
9353 <speed>31.02</speed>
9354 </trkpt>
9355 <trkpt lat="51.0362210500" lon="13.6580221000">
9356 <ele>220.5</ele>
9357 <time>2012-09-10T12:36:49Z</time>
9358 <course>277.0</course>
9359 <speed>30.56</speed>
9360 </trkpt>
9361 <trkpt lat="51.0362426000" lon="13.6575976500">
9362 <ele>220.4</ele>
9363 <time>2012-09-10T12:36:50Z</time>
9364 <course>275.0</course>
9365 <speed>29.89</speed>
9366 </trkpt>
9367 <trkpt lat="51.0362558000" lon="13.6571877667">
9368 <ele>220.1</ele>
9369 <time>2012-09-10T12:36:51Z</time>
9370 <course>274.0</course>
9371 <speed>29.12</speed>
9372 </trkpt>
9373 <trkpt lat="51.0362645500" lon="13.6567779500">
9374 <ele>220.1</ele>
9375 <time>2012-09-10T12:36:52Z</time>
9376 <course>273.0</course>
9377 <speed>28.50</speed>
9378 </trkpt>
9379 <trkpt lat="51.0362728833" lon="13.6563849167">
9380 <ele>219.8</ele>
9381 <time>2012-09-10T12:36:52Z</time>
9382 <course>272.0</course>
9383 <speed>27.83</speed>
9384 </trkpt>
9385 <trkpt lat="51.0362868167" lon="13.6560002667">
9386 <ele>220.5</ele>
9387 <time>2012-09-10T12:36:53Z</time>
9388 <course>271.0</course>
9389 <speed>27.21</speed>
9390 </trkpt>
9391 <trkpt lat="51.0362885000" lon="13.6556247167">
9392 <ele>220.4</ele>
9393 <time>2012-09-10T12:36:55Z</time>
9394 <course>271.0</course>
9395 <speed>26.54</speed>
9396 </trkpt>
9397 <trkpt lat="51.0362887000" lon="13.6552496667">
9398 <ele>220.6</ele>
9399 <time>2012-09-10T12:36:56Z</time>
9400 <course>270.0</course>
9401 <speed>26.08</speed>
9402 </trkpt>
9403 <trkpt lat="51.0362803500" lon="13.6548976833">
9404 <ele>220.0</ele>
9405 <time>2012-09-10T12:36:57Z</time>
9406 <course>269.0</course>
9407 <speed>25.26</speed>
9408 </trkpt>
9409 <trkpt lat="51.0362786500" lon="13.6545689500">
9410 <ele>220.5</ele>
9411 <time>2012-09-10T12:36:58Z</time>
9412 <course>267.0</course>
9413 <speed>24.54</speed>
9414 </trkpt>
9415 <trkpt lat="51.0362708833" lon="13.6542291833">
9416 <ele>221.1</ele>
9417 <time>2012-09-10T12:36:58Z</time>
9418 <course>267.0</course>
9419 <speed>24.02</speed>
9420 </trkpt>
9421 <trkpt lat="51.0362626667" lon="13.6538913833">
9422 <ele>221.5</ele>
9423 <time>2012-09-10T12:36:59Z</time>
9424 <course>266.0</course>
9425 <speed>23.77</speed>
9426 </trkpt>
9427 <trkpt lat="51.0362506833" lon="13.6535787000">
9428 <ele>222.0</ele>
9429 <time>2012-09-10T12:37:00Z</time>
9430 <course>266.0</course>
9431 <speed>23.10</speed>
9432 </trkpt>
9433 <trkpt lat="51.0362279667" lon="13.6532646833">
9434 <ele>223.3</ele>
9435 <time>2012-09-10T12:37:02Z</time>
9436 <course>265.0</course>
9437 <speed>22.48</speed>
9438 </trkpt>
9439 <trkpt lat="51.0362099167" lon="13.6529497500">
9440 <ele>223.7</ele>
9441 <time>2012-09-10T12:37:03Z</time>
9442 <course>264.0</course>
9443 <speed>22.43</speed>
9444 </trkpt>
9445 <trkpt lat="51.0361859667" lon="13.6526270833">
9446 <ele>223.7</ele>
9447 <time>2012-09-10T12:37:04Z</time>
9448 <course>263.0</course>
9449 <speed>22.53</speed>
9450 </trkpt>
9451 <trkpt lat="51.0361582000" lon="13.6523286000">
9452 <ele>224.5</ele>
9453 <time>2012-09-10T12:37:04Z</time>
9454 <course>263.0</course>
9455 <speed>22.22</speed>
9456 </trkpt>
9457 <trkpt lat="51.0361285000" lon="13.6520206667">
9458 <ele>224.7</ele>
9459 <time>2012-09-10T12:37:05Z</time>
9460 <course>263.0</course>
9461 <speed>22.12</speed>
9462 </trkpt>
9463 <trkpt lat="51.0361003833" lon="13.6517120167">
9464 <ele>225.3</ele>
9465 <time>2012-09-10T12:37:06Z</time>
9466 <course>263.0</course>
9467 <speed>21.97</speed>
9468 </trkpt>
9469 <trkpt lat="51.0360720000" lon="13.6514105167">
9470 <ele>226.2</ele>
9471 <time>2012-09-10T12:37:08Z</time>
9472 <course>262.0</course>
9473 <speed>21.86</speed>
9474 </trkpt>
9475 <trkpt lat="51.0360387833" lon="13.6511056833">
9476 <ele>227.9</ele>
9477 <time>2012-09-10T12:37:09Z</time>
9478 <course>261.0</course>
9479 <speed>21.61</speed>
9480 </trkpt>
9481 <trkpt lat="51.0360093667" lon="13.6508007000">
9482 <ele>228.6</ele>
9483 <time>2012-09-10T12:37:10Z</time>
9484 <course>261.0</course>
9485 <speed>21.66</speed>
9486 </trkpt>
9487 <trkpt lat="51.0359798667" lon="13.6504921500">
9488 <ele>228.7</ele>
9489 <time>2012-09-10T12:37:11Z</time>
9490 <course>260.0</course>
9491 <speed>21.50</speed>
9492 </trkpt>
9493 <trkpt lat="51.0359499667" lon="13.6501826333">
9494 <ele>229.0</ele>
9495 <time>2012-09-10T12:37:11Z</time>
9496 <course>261.0</course>
9497 <speed>21.81</speed>
9498 </trkpt>
9499 <trkpt lat="51.0359147167" lon="13.6498638833">
9500 <ele>228.9</ele>
9501 <time>2012-09-10T12:37:12Z</time>
9502 <course>261.0</course>
9503 <speed>22.17</speed>
9504 </trkpt>
9505 <trkpt lat="51.0358884333" lon="13.6495486000">
9506 <ele>229.3</ele>
9507 <time>2012-09-10T12:37:13Z</time>
9508 <course>262.0</course>
9509 <speed>22.33</speed>
9510 </trkpt>
9511 <trkpt lat="51.0358610833" lon="13.6492373000">
9512 <ele>229.6</ele>
9513 <time>2012-09-10T12:37:15Z</time>
9514 <course>262.0</course>
9515 <speed>22.48</speed>
9516 </trkpt>
9517 <trkpt lat="51.0358314167" lon="13.6489199333">
9518 <ele>229.6</ele>
9519 <time>2012-09-10T12:37:16Z</time>
9520 <course>262.0</course>
9521 <speed>22.48</speed>
9522 </trkpt>
9523 <trkpt lat="51.0358017667" lon="13.6486027000">
9524 <ele>229.6</ele>
9525 <time>2012-09-10T12:37:17Z</time>
9526 <course>262.0</course>
9527 <speed>22.48</speed>
9528 </trkpt>
9529 </trkseg>
9530 <trkseg>
9531 <trkpt lat="51.0353749833" lon="13.6438490167">
9532 <ele>233.5</ele>
9533 <time>2012-09-10T12:37:31Z</time>
9534 <course>264.0</course>
9535 <speed>22.94</speed>
9536 </trkpt>
9537 <trkpt lat="51.0353588333" lon="13.6435375667">
9538 <ele>235.1</ele>
9539 <time>2012-09-10T12:37:32Z</time>
9540 <course>265.0</course>
9541 <speed>23.41</speed>
9542 </trkpt>
9543 <trkpt lat="51.0353478833" lon="13.6432097833">
9544 <ele>237.2</ele>
9545 <time>2012-09-10T12:37:34Z</time>
9546 <course>265.0</course>
9547 <speed>23.97</speed>
9548 </trkpt>
9549 <trkpt lat="51.0353215167" lon="13.6428399000">
9550 <ele>239.4</ele>
9551 <time>2012-09-10T12:37:35Z</time>
9552 <course>263.0</course>
9553 <speed>24.49</speed>
9554 </trkpt>
9555 <trkpt lat="51.0352936500" lon="13.6424741333">
9556 <ele>240.9</ele>
9557 <time>2012-09-10T12:37:36Z</time>
9558 <course>262.0</course>
9559 <speed>24.95</speed>
9560 </trkpt>
9561 <trkpt lat="51.0352656167" lon="13.6421273333">
9562 <ele>243.1</ele>
9563 <time>2012-09-10T12:37:36Z</time>
9564 <course>261.0</course>
9565 <speed>25.36</speed>
9566 </trkpt>
9567 <trkpt lat="51.0352290000" lon="13.6417697333">
9568 <ele>244.8</ele>
9569 <time>2012-09-10T12:37:37Z</time>
9570 <course>262.0</course>
9571 <speed>25.77</speed>
9572 </trkpt>
9573 <trkpt lat="51.0351889167" lon="13.6414033667">
9574 <ele>246.2</ele>
9575 <time>2012-09-10T12:37:38Z</time>
9576 <course>262.0</course>
9577 <speed>26.24</speed>
9578 </trkpt>
9579 <trkpt lat="51.0351580333" lon="13.6410230000">
9580 <ele>248.5</ele>
9581 <time>2012-09-10T12:37:40Z</time>
9582 <course>262.0</course>
9583 <speed>26.75</speed>
9584 </trkpt>
9585 <trkpt lat="51.0351281333" lon="13.6406368000">
9586 <ele>250.5</ele>
9587 <time>2012-09-10T12:37:41Z</time>
9588 <course>262.0</course>
9589 <speed>27.21</speed>
9590 </trkpt>
9591 <trkpt lat="51.0350917667" lon="13.6402427167">
9592 <ele>252.3</ele>
9593 <time>2012-09-10T12:37:42Z</time>
9594 <course>263.0</course>
9595 <speed>27.73</speed>
9596 </trkpt>
9597 <trkpt lat="51.0350549667" lon="13.6398408167">
9598 <ele>254.6</ele>
9599 <time>2012-09-10T12:37:43Z</time>
9600 <course>264.0</course>
9601 <speed>28.19</speed>
9602 </trkpt>
9603 <trkpt lat="51.0350288833" lon="13.6394418667">
9604 <ele>256.5</ele>
9605 <time>2012-09-10T12:37:43Z</time>
9606 <course>265.0</course>
9607 <speed>28.65</speed>
9608 </trkpt>
9609 <trkpt lat="51.0350081667" lon="13.6390353667">
9610 <ele>257.9</ele>
9611 <time>2012-09-10T12:37:44Z</time>
9612 <course>266.0</course>
9613 <speed>28.86</speed>
9614 </trkpt>
9615 <trkpt lat="51.0349965833" lon="13.6386144500">
9616 <ele>258.1</ele>
9617 <time>2012-09-10T12:37:46Z</time>
9618 <course>268.0</course>
9619 <speed>29.63</speed>
9620 </trkpt>
9621 <trkpt lat="51.0349952833" lon="13.6381871667">
9622 <ele>258.1</ele>
9623 <time>2012-09-10T12:37:47Z</time>
9624 <course>269.0</course>
9625 <speed>30.04</speed>
9626 </trkpt>
9627 <trkpt lat="51.0350006500" lon="13.6377523333">
9628 <ele>259.1</ele>
9629 <time>2012-09-10T12:37:48Z</time>
9630 <course>271.0</course>
9631 <speed>30.30</speed>
9632 </trkpt>
9633 <trkpt lat="51.0350282500" lon="13.6373327500">
9634 <ele>259.2</ele>
9635 <time>2012-09-10T12:37:49Z</time>
9636 <course>275.0</course>
9637 <speed>30.25</speed>
9638 </trkpt>
9639 <trkpt lat="51.0350495833" lon="13.6368962667">
9640 <ele>259.8</ele>
9641 <time>2012-09-10T12:37:49Z</time>
9642 <course>275.0</course>
9643 <speed>30.40</speed>
9644 </trkpt>
9645 <trkpt lat="51.0350922500" lon="13.6364621833">
9646 <ele>260.7</ele>
9647 <time>2012-09-10T12:37:50Z</time>
9648 <course>279.0</course>
9649 <speed>30.87</speed>
9650 </trkpt>
9651 <trkpt lat="51.0351409000" lon="13.6360356333">
9652 <ele>261.7</ele>
9653 <time>2012-09-10T12:37:51Z</time>
9654 <course>280.0</course>
9655 <speed>30.87</speed>
9656 </trkpt>
9657 <trkpt lat="51.0351961500" lon="13.6356054000">
9658 <ele>263.1</ele>
9659 <time>2012-09-10T12:37:53Z</time>
9660 <course>281.0</course>
9661 <speed>31.02</speed>
9662 </trkpt>
9663 <trkpt lat="51.0352653833" lon="13.6351794333">
9664 <ele>264.5</ele>
9665 <time>2012-09-10T12:37:54Z</time>
9666 <course>284.0</course>
9667 <speed>31.02</speed>
9668 </trkpt>
9669 <trkpt lat="51.0353426333" lon="13.6347504333">
9670 <ele>266.8</ele>
9671 <time>2012-09-10T12:37:55Z</time>
9672 <course>287.0</course>
9673 <speed>31.17</speed>
9674 </trkpt>
9675 <trkpt lat="51.0354283167" lon="13.6343246000">
9676 <ele>268.8</ele>
9677 <time>2012-09-10T12:37:55Z</time>
9678 <course>288.0</course>
9679 <speed>31.38</speed>
9680 </trkpt>
9681 <trkpt lat="51.0355130000" lon="13.6338884500">
9682 <ele>269.6</ele>
9683 <time>2012-09-10T12:37:56Z</time>
9684 <course>289.0</course>
9685 <speed>31.74</speed>
9686 </trkpt>
9687 <trkpt lat="51.0356103167" lon="13.6334573000">
9688 <ele>269.9</ele>
9689 <time>2012-09-10T12:37:57Z</time>
9690 <course>290.0</course>
9691 <speed>31.95</speed>
9692 </trkpt>
9693 <trkpt lat="51.0357107000" lon="13.6330171333">
9694 <ele>270.8</ele>
9695 <time>2012-09-10T12:37:59Z</time>
9696 <course>291.0</course>
9697 <speed>32.31</speed>
9698 </trkpt>
9699 <trkpt lat="51.0358188833" lon="13.6325787667">
9700 <ele>270.9</ele>
9701 <time>2012-09-10T12:38:00Z</time>
9702 <course>291.0</course>
9703 <speed>32.72</speed>
9704 </trkpt>
9705 <trkpt lat="51.0359331833" lon="13.6321275000">
9706 <ele>271.0</ele>
9707 <time>2012-09-10T12:38:01Z</time>
9708 <course>292.0</course>
9709 <speed>33.49</speed>
9710 </trkpt>
9711 <trkpt lat="51.0360520167" lon="13.6316750667">
9712 <ele>271.2</ele>
9713 <time>2012-09-10T12:38:02Z</time>
9714 <course>292.0</course>
9715 <speed>33.95</speed>
9716 </trkpt>
9717 <trkpt lat="51.0361826000" lon="13.6312113333">
9718 <ele>271.2</ele>
9719 <time>2012-09-10T12:38:02Z</time>
9720 <course>293.0</course>
9721 <speed>34.42</speed>
9722 </trkpt>
9723 <trkpt lat="51.0363100000" lon="13.6307341333">
9724 <ele>271.3</ele>
9725 <time>2012-09-10T12:38:03Z</time>
9726 <course>293.0</course>
9727 <speed>35.24</speed>
9728 </trkpt>
9729 <trkpt lat="51.0364239833" lon="13.6302489500">
9730 <ele>271.4</ele>
9731 <time>2012-09-10T12:38:04Z</time>
9732 <course>292.0</course>
9733 <speed>35.70</speed>
9734 </trkpt>
9735 <trkpt lat="51.0365398667" lon="13.6297534000">
9736 <ele>271.7</ele>
9737 <time>2012-09-10T12:38:06Z</time>
9738 <course>291.0</course>
9739 <speed>36.16</speed>
9740 </trkpt>
9741 <trkpt lat="51.0366517000" lon="13.6292951500">
9742 <ele>272.4</ele>
9743 <time>2012-09-10T12:38:07Z</time>
9744 <course>291.0</course>
9745 <speed>36.01</speed>
9746 </trkpt>
9747 <trkpt lat="51.0367658333" lon="13.6288237333">
9748 <ele>273.1</ele>
9749 <time>2012-09-10T12:38:08Z</time>
9750 <course>289.0</course>
9751 <speed>35.19</speed>
9752 </trkpt>
9753 <trkpt lat="51.0368660000" lon="13.6283523000">
9754 <ele>274.3</ele>
9755 <time>2012-09-10T12:38:08Z</time>
9756 <course>288.0</course>
9757 <speed>34.16</speed>
9758 </trkpt>
9759 <trkpt lat="51.0369473167" lon="13.6278573333">
9760 <ele>274.1</ele>
9761 <time>2012-09-10T12:38:09Z</time>
9762 <course>285.0</course>
9763 <speed>34.78</speed>
9764 </trkpt>
9765 <trkpt lat="51.0370156833" lon="13.6273715333">
9766 <ele>273.6</ele>
9767 <time>2012-09-10T12:38:10Z</time>
9768 <course>283.0</course>
9769 <speed>34.52</speed>
9770 </trkpt>
9771 <trkpt lat="51.0370686667" lon="13.6268949500">
9772 <ele>273.6</ele>
9773 <time>2012-09-10T12:38:12Z</time>
9774 <course>282.0</course>
9775 <speed>34.06</speed>
9776 </trkpt>
9777 <trkpt lat="51.0371047833" lon="13.6264283000">
9778 <ele>274.7</ele>
9779 <time>2012-09-10T12:38:13Z</time>
9780 <course>279.0</course>
9781 <speed>33.54</speed>
9782 </trkpt>
9783 <trkpt lat="51.0371411167" lon="13.6259583667">
9784 <ele>274.8</ele>
9785 <time>2012-09-10T12:38:14Z</time>
9786 <course>278.0</course>
9787 <speed>33.18</speed>
9788 </trkpt>
9789 <trkpt lat="51.0371766167" lon="13.6254920000">
9790 <ele>274.6</ele>
9791 <time>2012-09-10T12:38:14Z</time>
9792 <course>276.0</course>
9793 <speed>32.82</speed>
9794 </trkpt>
9795 <trkpt lat="51.0372027500" lon="13.6250355000">
9796 <ele>275.6</ele>
9797 <time>2012-09-10T12:38:15Z</time>
9798 <course>276.0</course>
9799 <speed>32.56</speed>
9800 </trkpt>
9801 <trkpt lat="51.0372333500" lon="13.6245741000">
9802 <ele>275.8</ele>
9803 <time>2012-09-10T12:38:16Z</time>
9804 <course>275.0</course>
9805 <speed>32.25</speed>
9806 </trkpt>
9807 <trkpt lat="51.0372472333" lon="13.6241240667">
9808 <ele>276.2</ele>
9809 <time>2012-09-10T12:38:18Z</time>
9810 <course>274.0</course>
9811 <speed>31.89</speed>
9812 </trkpt>
9813 <trkpt lat="51.0372577500" lon="13.6236803333">
9814 <ele>276.2</ele>
9815 <time>2012-09-10T12:38:19Z</time>
9816 <course>273.0</course>
9817 <speed>31.28</speed>
9818 </trkpt>
9819 <trkpt lat="51.0372535333" lon="13.6232337167">
9820 <ele>275.8</ele>
9821 <time>2012-09-10T12:38:20Z</time>
9822 <course>271.0</course>
9823 <speed>30.66</speed>
9824 </trkpt>
9825 <trkpt lat="51.0372608000" lon="13.6228212167">
9826 <ele>276.3</ele>
9827 <time>2012-09-10T12:38:21Z</time>
9828 <course>270.0</course>
9829 <speed>29.43</speed>
9830 </trkpt>
9831 <trkpt lat="51.0372635333" lon="13.6224157333">
9832 <ele>276.9</ele>
9833 <time>2012-09-10T12:38:21Z</time>
9834 <course>269.0</course>
9835 <speed>28.29</speed>
9836 </trkpt>
9837 <trkpt lat="51.0372485167" lon="13.6220295667">
9838 <ele>277.5</ele>
9839 <time>2012-09-10T12:38:22Z</time>
9840 <course>268.0</course>
9841 <speed>27.01</speed>
9842 </trkpt>
9843 <trkpt lat="51.0372432500" lon="13.6216741000">
9844 <ele>278.1</ele>
9845 <time>2012-09-10T12:38:23Z</time>
9846 <course>268.0</course>
9847 <speed>25.62</speed>
9848 </trkpt>
9849 <trkpt lat="51.0372325333" lon="13.6213317500">
9850 <ele>278.0</ele>
9851 <time>2012-09-10T12:38:25Z</time>
9852 <course>267.0</course>
9853 <speed>24.64</speed>
9854 </trkpt>
9855 <trkpt lat="51.0372105500" lon="13.6209950000">
9856 <ele>278.8</ele>
9857 <time>2012-09-10T12:38:26Z</time>
9858 <course>266.0</course>
9859 <speed>23.51</speed>
9860 </trkpt>
9861 <trkpt lat="51.0371910000" lon="13.6206627167">
9862 <ele>278.8</ele>
9863 <time>2012-09-10T12:38:27Z</time>
9864 <course>266.0</course>
9865 <speed>23.30</speed>
9866 </trkpt>
9867 <trkpt lat="51.0371831833" lon="13.6203378167">
9868 <ele>278.6</ele>
9869 <time>2012-09-10T12:38:27Z</time>
9870 <course>266.0</course>
9871 <speed>23.25</speed>
9872 </trkpt>
9873 <trkpt lat="51.0371708667" lon="13.6200122667">
9874 <ele>278.9</ele>
9875 <time>2012-09-10T12:38:28Z</time>
9876 <course>266.0</course>
9877 <speed>23.15</speed>
9878 </trkpt>
9879 <trkpt lat="51.0371505167" lon="13.6196901167">
9880 <ele>278.7</ele>
9881 <time>2012-09-10T12:38:29Z</time>
9882 <course>266.0</course>
9883 <speed>23.15</speed>
9884 </trkpt>
9885 <trkpt lat="51.0371348833" lon="13.6193571500">
9886 <ele>278.7</ele>
9887 <time>2012-09-10T12:38:31Z</time>
9888 <course>266.0</course>
9889 <speed>23.20</speed>
9890 </trkpt>
9891 <trkpt lat="51.0371249667" lon="13.6190290167">
9892 <ele>279.1</ele>
9893 <time>2012-09-10T12:38:32Z</time>
9894 <course>267.0</course>
9895 <speed>23.30</speed>
9896 </trkpt>
9897 <trkpt lat="51.0371301167" lon="13.6187023667">
9898 <ele>279.7</ele>
9899 <time>2012-09-10T12:38:33Z</time>
9900 <course>269.0</course>
9901 <speed>23.20</speed>
9902 </trkpt>
9903 <trkpt lat="51.0371313167" lon="13.6183588000">
9904 <ele>280.1</ele>
9905 <time>2012-09-10T12:38:33Z</time>
9906 <course>270.0</course>
9907 <speed>23.56</speed>
9908 </trkpt>
9909 <trkpt lat="51.0371553000" lon="13.6180522667">
9910 <ele>281.0</ele>
9911 <time>2012-09-10T12:38:34Z</time>
9912 <course>273.0</course>
9913 <speed>22.94</speed>
9914 </trkpt>
9915 <trkpt lat="51.0371626333" lon="13.6177215167">
9916 <ele>281.8</ele>
9917 <time>2012-09-10T12:38:35Z</time>
9918 <course>273.0</course>
9919 <speed>23.66</speed>
9920 </trkpt>
9921 <trkpt lat="51.0371669000" lon="13.6173700500">
9922 <ele>282.5</ele>
9923 <time>2012-09-10T12:38:37Z</time>
9924 <course>274.0</course>
9925 <speed>23.77</speed>
9926 </trkpt>
9927 <trkpt lat="51.0371884167" lon="13.6170238167">
9928 <ele>282.8</ele>
9929 <time>2012-09-10T12:38:38Z</time>
9930 <course>276.0</course>
9931 <speed>23.97</speed>
9932 </trkpt>
9933 <trkpt lat="51.0372084500" lon="13.6166813000">
9934 <ele>283.1</ele>
9935 <time>2012-09-10T12:38:39Z</time>
9936 <course>277.0</course>
9937 <speed>24.08</speed>
9938 </trkpt>
9939 <trkpt lat="51.0372410000" lon="13.6163436333">
9940 <ele>282.9</ele>
9941 <time>2012-09-10T12:38:40Z</time>
9942 <course>279.0</course>
9943 <speed>24.23</speed>
9944 </trkpt>
9945 <trkpt lat="51.0372867000" lon="13.6160059333">
9946 <ele>283.5</ele>
9947 <time>2012-09-10T12:38:40Z</time>
9948 <course>281.0</course>
9949 <speed>24.38</speed>
9950 </trkpt>
9951 <trkpt lat="51.0373569167" lon="13.6156809000">
9952 <ele>283.4</ele>
9953 <time>2012-09-10T12:38:41Z</time>
9954 <course>286.0</course>
9955 <speed>24.33</speed>
9956 </trkpt>
9957 <trkpt lat="51.0374122833" lon="13.6153343000">
9958 <ele>283.7</ele>
9959 <time>2012-09-10T12:38:42Z</time>
9960 <course>289.0</course>
9961 <speed>23.97</speed>
9962 </trkpt>
9963 <trkpt lat="51.0374725000" lon="13.6149994833">
9964 <ele>283.7</ele>
9965 <time>2012-09-10T12:38:44Z</time>
9966 <course>289.0</course>
9967 <speed>23.87</speed>
9968 </trkpt>
9969 <trkpt lat="51.0375442167" lon="13.6146788500">
9970 <ele>283.7</ele>
9971 <time>2012-09-10T12:38:45Z</time>
9972 <course>290.0</course>
9973 <speed>23.56</speed>
9974 </trkpt>
9975 <trkpt lat="51.0376185500" lon="13.6143689667">
9976 <ele>284.6</ele>
9977 <time>2012-09-10T12:38:46Z</time>
9978 <course>292.0</course>
9979 <speed>23.36</speed>
9980 </trkpt>
9981 <trkpt lat="51.0376963167" lon="13.6140603333">
9982 <ele>284.6</ele>
9983 <time>2012-09-10T12:38:46Z</time>
9984 <course>293.0</course>
9985 <speed>23.30</speed>
9986 </trkpt>
9987 <trkpt lat="51.0377879667" lon="13.6137577167">
9988 <ele>284.4</ele>
9989 <time>2012-09-10T12:38:47Z</time>
9990 <course>295.0</course>
9991 <speed>23.05</speed>
9992 </trkpt>
9993 <trkpt lat="51.0378741000" lon="13.6134653833">
9994 <ele>284.7</ele>
9995 <time>2012-09-10T12:38:48Z</time>
9996 <course>296.0</course>
9997 <speed>22.89</speed>
9998 </trkpt>
9999 <trkpt lat="51.0379701667" lon="13.6131784667">
10000 <ele>284.8</ele>
10001 <time>2012-09-10T12:38:50Z</time>
10002 <course>298.0</course>
10003 <speed>22.74</speed>
10004 </trkpt>
10005 <trkpt lat="51.0380634167" lon="13.6128942000">
10006 <ele>284.8</ele>
10007 <time>2012-09-10T12:38:51Z</time>
10008 <course>298.0</course>
10009 <speed>22.53</speed>
10010 </trkpt>
10011 <trkpt lat="51.0381587833" lon="13.6126383500">
10012 <ele>284.7</ele>
10013 <time>2012-09-10T12:38:52Z</time>
10014 <course>300.0</course>
10015 <speed>21.55</speed>
10016 </trkpt>
10017 <trkpt lat="51.0382682833" lon="13.6124122667">
10018 <ele>284.8</ele>
10019 <time>2012-09-10T12:38:53Z</time>
10020 <course>303.0</course>
10021 <speed>20.63</speed>
10022 </trkpt>
10023 <trkpt lat="51.0383915500" lon="13.6121977500">
10024 <ele>284.8</ele>
10025 <time>2012-09-10T12:38:53Z</time>
10026 <course>309.0</course>
10027 <speed>19.91</speed>
10028 </trkpt>
10029 <trkpt lat="51.0385215000" lon="13.6120202167">
10030 <ele>285.0</ele>
10031 <time>2012-09-10T12:38:54Z</time>
10032 <course>311.0</course>
10033 <speed>19.29</speed>
10034 </trkpt>
10035 <trkpt lat="51.0386507167" lon="13.6118417167">
10036 <ele>285.6</ele>
10037 <time>2012-09-10T12:38:56Z</time>
10038 <course>313.0</course>
10039 <speed>18.31</speed>
10040 </trkpt>
10041 <trkpt lat="51.0387914167" lon="13.6117215333">
10042 <ele>285.4</ele>
10043 <time>2012-09-10T12:38:57Z</time>
10044 <course>319.0</course>
10045 <speed>17.70</speed>
10046 </trkpt>
10047 <trkpt lat="51.0389336500" lon="13.6116262000">
10048 <ele>285.9</ele>
10049 <time>2012-09-10T12:38:58Z</time>
10050 <course>324.0</course>
10051 <speed>16.51</speed>
10052 </trkpt>
10053 <trkpt lat="51.0391253667" lon="13.6116837000">
10054 <ele>286.1</ele>
10055 <time>2012-09-10T12:38:59Z</time>
10056 <course>340.0</course>
10057 <speed>16.00</speed>
10058 </trkpt>
10059 <trkpt lat="51.0392753167" lon="13.6117143000">
10060 <ele>285.1</ele>
10061 <time>2012-09-10T12:38:59Z</time>
10062 <course>347.0</course>
10063 <speed>15.48</speed>
10064 </trkpt>
10065 <trkpt lat="51.0394492667" lon="13.6117868333">
10066 <ele>284.7</ele>
10067 <time>2012-09-10T12:39:00Z</time>
10068 <course>355.0</course>
10069 <speed>15.74</speed>
10070 </trkpt>
10071 <trkpt lat="51.0395918667" lon="13.6119904833">
10072 <ele>285.4</ele>
10073 <time>2012-09-10T12:39:01Z</time>
10074 <course>10.0</course>
10075 <speed>15.74</speed>
10076 </trkpt>
10077 <trkpt lat="51.0397364500" lon="13.6122171167">
10078 <ele>285.8</ele>
10079 <time>2012-09-10T12:39:03Z</time>
10080 <course>21.0</course>
10081 <speed>16.77</speed>
10082 </trkpt>
10083 <trkpt lat="51.0398446167" lon="13.6125728333">
10084 <ele>285.1</ele>
10085 <time>2012-09-10T12:39:04Z</time>
10086 <course>37.0</course>
10087 <speed>18.42</speed>
10088 </trkpt>
10089 <trkpt lat="51.0399295833" lon="13.6127956500">
10090 <ele>285.9</ele>
10091 <time>2012-09-10T12:39:05Z</time>
10092 <course>43.0</course>
10093 <speed>17.28</speed>
10094 </trkpt>
10095 <trkpt lat="51.0399418333" lon="13.6130451333">
10096 <ele>286.5</ele>
10097 <time>2012-09-10T12:39:05Z</time>
10098 <course>53.0</course>
10099 <speed>15.54</speed>
10100 </trkpt>
10101 <trkpt lat="51.0399162500" lon="13.6133449833">
10102 <ele>286.1</ele>
10103 <time>2012-09-10T12:39:06Z</time>
10104 <course>64.0</course>
10105 <speed>15.33</speed>
10106 </trkpt>
10107 <trkpt lat="51.0398470833" lon="13.6136915500">
10108 <ele>285.7</ele>
10109 <time>2012-09-10T12:39:07Z</time>
10110 <course>78.0</course>
10111 <speed>16.20</speed>
10112 </trkpt>
10113 <trkpt lat="51.0397594500" lon="13.6139842333">
10114 <ele>286.8</ele>
10115 <time>2012-09-10T12:39:09Z</time>
10116 <course>91.0</course>
10117 <speed>16.62</speed>
10118 </trkpt>
10119 <trkpt lat="51.0396279000" lon="13.6142234000">
10120 <ele>288.3</ele>
10121 <time>2012-09-10T12:39:10Z</time>
10122 <course>102.0</course>
10123 <speed>16.77</speed>
10124 </trkpt>
10125 <trkpt lat="51.0394578333" lon="13.6144291000">
10126 <ele>288.3</ele>
10127 <time>2012-09-10T12:39:12Z</time>
10128 <course>116.0</course>
10129 <speed>17.08</speed>
10130 </trkpt>
10131 <trkpt lat="51.0393415167" lon="13.6146059167">
10132 <ele>289.6</ele>
10133 <time>2012-09-10T12:39:12Z</time>
10134 <course>116.0</course>
10135 <speed>16.10</speed>
10136 </trkpt>
10137 <trkpt lat="51.0392361167" lon="13.6147397667">
10138 <ele>290.6</ele>
10139 <time>2012-09-10T12:39:12Z</time>
10140 <course>125.0</course>
10141 <speed>14.56</speed>
10142 </trkpt>
10143 <trkpt lat="51.0391017833" lon="13.6148177000">
10144 <ele>291.1</ele>
10145 <time>2012-09-10T12:39:13Z</time>
10146 <course>133.0</course>
10147 <speed>13.38</speed>
10148 </trkpt>
10149 <trkpt lat="51.0389564000" lon="13.6148317167">
10150 <ele>291.3</ele>
10151 <time>2012-09-10T12:39:14Z</time>
10152 <course>146.0</course>
10153 <speed>12.40</speed>
10154 </trkpt>
10155 <trkpt lat="51.0388123667" lon="13.6148028000">
10156 <ele>290.7</ele>
10157 <time>2012-09-10T12:39:16Z</time>
10158 <course>157.0</course>
10159 <speed>11.47</speed>
10160 </trkpt>
10161 <trkpt lat="51.0387163333" lon="13.6148119667">
10162 <ele>290.4</ele>
10163 <time>2012-09-10T12:39:17Z</time>
10164 <course>159.0</course>
10165 <speed>9.83</speed>
10166 </trkpt>
10167 <trkpt lat="51.0386260833" lon="13.6148248500">
10168 <ele>290.3</ele>
10169 <time>2012-09-10T12:39:18Z</time>
10170 <course>161.0</course>
10171 <speed>8.90</speed>
10172 </trkpt>
10173 <trkpt lat="51.0385905000" lon="13.6148331167">
10174 <ele>290.3</ele>
10175 <time>2012-09-10T12:39:18Z</time>
10176 <course>161.0</course>
10177 <speed>0.00</speed>
10178 </trkpt>
10179 <trkpt lat="51.0386062333" lon="13.6148182500">
10180 <ele>290.1</ele>
10181 <time>2012-09-10T12:39:19Z</time>
10182 <course>161.0</course>
10183 <speed>0.00</speed>
10184 </trkpt>
10185 <trkpt lat="51.0386156500" lon="13.6148107500">
10186 <ele>290.1</ele>
10187 <time>2012-09-10T12:39:20Z</time>
10188 <course>161.0</course>
10189 <speed>0.00</speed>
10190 </trkpt>
10191 <trkpt lat="51.0386305000" lon="13.6147897167">
10192 <ele>290.2</ele>
10193 <time>2012-09-10T12:39:22Z</time>
10194 <course>161.0</course>
10195 <speed>0.00</speed>
10196 </trkpt>
10197 <trkpt lat="51.0386471333" lon="13.6147647000">
10198 <ele>290.2</ele>
10199 <time>2012-09-10T12:39:24Z</time>
10200 <course>161.0</course>
10201 <speed>0.00</speed>
10202 </trkpt>
10203 <trkpt lat="51.0386471333" lon="13.6147647000">
10204 <ele>290.2</ele>
10205 <time>2012-09-10T12:39:24Z</time>
10206 <course>161.0</course>
10207 <speed>0.00</speed>
10208 </trkpt>
10209 <trkpt lat="51.0386549833" lon="13.6147506333">
10210 <ele>290.1</ele>
10211 <time>2012-09-10T12:39:24Z</time>
10212 <course>161.0</course>
10213 <speed>0.00</speed>
10214 </trkpt>
10215 <trkpt lat="51.0386579500" lon="13.6147398000">
10216 <ele>290.2</ele>
10217 <time>2012-09-10T12:39:24Z</time>
10218 <course>161.0</course>
10219 <speed>0.00</speed>
10220 </trkpt>
10221 <trkpt lat="51.0386545333" lon="13.6147119667">
10222 <ele>290.3</ele>
10223 <time>2012-09-10T12:39:26Z</time>
10224 <course>161.0</course>
10225 <speed>0.00</speed>
10226 </trkpt>
10227 <trkpt lat="51.0386545333" lon="13.6147119667">
10228 <ele>290.3</ele>
10229 <time>2012-09-10T12:39:26Z</time>
10230 <course>161.0</course>
10231 <speed>0.00</speed>
10232 </trkpt>
10233 <trkpt lat="51.0386542028" lon="13.6146977250">
10234 <ele>290.5</ele>
10235 <time>2012-09-10T12:39:29Z</time>
10236 <course>161.0</course>
10237 <speed>0.00</speed>
10238 </trkpt>
10239 <trkpt lat="51.0386542028" lon="13.6146977250">
10240 <ele>290.5</ele>
10241 <time>2012-09-10T12:39:50Z</time>
10242 <course>161.0</course>
10243 <speed>0.00</speed>
10244 </trkpt>
10245 <trkpt lat="51.0386563889" lon="13.6146957037">
10246 <ele>290.6</ele>
10247 <time>2012-09-10T12:39:52Z</time>
10248 <course>161.0</course>
10249 <speed>0.00</speed>
10250 </trkpt>
10251 <trkpt lat="51.0386563889" lon="13.6146957037">
10252 <ele>290.6</ele>
10253 <time>2012-09-10T12:40:09Z</time>
10254 <course>161.0</course>
10255 <speed>0.00</speed>
10256 </trkpt>
10257 <trkpt lat="51.0386226333" lon="13.6146827333">
10258 <ele>290.5</ele>
10259 <time>2012-09-10T12:40:09Z</time>
10260 <course>161.0</course>
10261 <speed>1.03</speed>
10262 </trkpt>
10263 <trkpt lat="51.0385879333" lon="13.6146664833">
10264 <ele>290.3</ele>
10265 <time>2012-09-10T12:40:10Z</time>
10266 <course>183.0</course>
10267 <speed>1.85</speed>
10268 </trkpt>
10269 <trkpt lat="51.0385643167" lon="13.6147139167">
10270 <ele>291.0</ele>
10271 <time>2012-09-10T12:40:11Z</time>
10272 <course>137.0</course>
10273 <speed>2.31</speed>
10274 </trkpt>
10275 <trkpt lat="51.0385281000" lon="13.6147454167">
10276 <ele>290.7</ele>
10277 <time>2012-09-10T12:40:13Z</time>
10278 <course>138.0</course>
10279 <speed>2.62</speed>
10280 </trkpt>
10281 <trkpt lat="51.0384813500" lon="13.6147933833">
10282 <ele>289.9</ele>
10283 <time>2012-09-10T12:40:14Z</time>
10284 <course>139.0</course>
10285 <speed>3.14</speed>
10286 </trkpt>
10287 <trkpt lat="51.0384223667" lon="13.6148793500">
10288 <ele>289.5</ele>
10289 <time>2012-09-10T12:40:15Z</time>
10290 <course>137.0</course>
10291 <speed>4.78</speed>
10292 </trkpt>
10293 <trkpt lat="51.0383799333" lon="13.6150007000">
10294 <ele>288.7</ele>
10295 <time>2012-09-10T12:40:15Z</time>
10296 <course>133.0</course>
10297 <speed>6.17</speed>
10298 </trkpt>
10299 <trkpt lat="51.0383577500" lon="13.6151385167">
10300 <ele>287.7</ele>
10301 <time>2012-09-10T12:40:16Z</time>
10302 <course>125.0</course>
10303 <speed>7.41</speed>
10304 </trkpt>
10305 <trkpt lat="51.0383431333" lon="13.6152953667">
10306 <ele>287.8</ele>
10307 <time>2012-09-10T12:40:17Z</time>
10308 <course>118.0</course>
10309 <speed>9.11</speed>
10310 </trkpt>
10311 <trkpt lat="51.0383107833" lon="13.6154617667">
10312 <ele>286.8</ele>
10313 <time>2012-09-10T12:40:19Z</time>
10314 <course>115.0</course>
10315 <speed>10.75</speed>
10316 </trkpt>
10317 <trkpt lat="51.0383076667" lon="13.6157090667">
10318 <ele>285.2</ele>
10319 <time>2012-09-10T12:40:20Z</time>
10320 <course>109.0</course>
10321 <speed>12.91</speed>
10322 </trkpt>
10323 <trkpt lat="51.0384033667" lon="13.6161266000">
10324 <ele>284.5</ele>
10325 <time>2012-09-10T12:40:21Z</time>
10326 <course>96.0</course>
10327 <speed>16.77</speed>
10328 </trkpt>
10329 <trkpt lat="51.0385290000" lon="13.6166051833">
10330 <ele>284.8</ele>
10331 <time>2012-09-10T12:40:22Z</time>
10332 <course>84.0</course>
10333 <speed>21.97</speed>
10334 </trkpt>
10335 <trkpt lat="51.0385776000" lon="13.6169930000">
10336 <ele>285.7</ele>
10337 <time>2012-09-10T12:40:22Z</time>
10338 <course>85.0</course>
10339 <speed>23.36</speed>
10340 </trkpt>
10341 <trkpt lat="51.0386134667" lon="13.6173815333">
10342 <ele>285.4</ele>
10343 <time>2012-09-10T12:40:23Z</time>
10344 <course>87.0</course>
10345 <speed>24.69</speed>
10346 </trkpt>
10347 <trkpt lat="51.0386339000" lon="13.6177594000">
10348 <ele>285.0</ele>
10349 <time>2012-09-10T12:40:24Z</time>
10350 <course>88.0</course>
10351 <speed>25.62</speed>
10352 </trkpt>
10353 <trkpt lat="51.0386466833" lon="13.6181342167">
10354 <ele>284.7</ele>
10355 <time>2012-09-10T12:40:26Z</time>
10356 <course>88.0</course>
10357 <speed>25.57</speed>
10358 </trkpt>
10359 <trkpt lat="51.0386661167" lon="13.6185260667">
10360 <ele>285.4</ele>
10361 <time>2012-09-10T12:40:27Z</time>
10362 <course>89.0</course>
10363 <speed>25.57</speed>
10364 </trkpt>
10365 <trkpt lat="51.0386600500" lon="13.6189050000">
10366 <ele>284.2</ele>
10367 <time>2012-09-10T12:40:28Z</time>
10368 <course>92.0</course>
10369 <speed>25.82</speed>
10370 </trkpt>
10371 <trkpt lat="51.0386522500" lon="13.6192813667">
10372 <ele>283.4</ele>
10373 <time>2012-09-10T12:40:28Z</time>
10374 <course>94.0</course>
10375 <speed>26.24</speed>
10376 </trkpt>
10377 <trkpt lat="51.0386373167" lon="13.6196532833">
10378 <ele>283.0</ele>
10379 <time>2012-09-10T12:40:29Z</time>
10380 <course>96.0</course>
10381 <speed>26.44</speed>
10382 </trkpt>
10383 <trkpt lat="51.0386124000" lon="13.6200318000">
10384 <ele>283.1</ele>
10385 <time>2012-09-10T12:40:30Z</time>
10386 <course>96.0</course>
10387 <speed>26.49</speed>
10388 </trkpt>
10389 <trkpt lat="51.0385862833" lon="13.6204014833">
10390 <ele>283.0</ele>
10391 <time>2012-09-10T12:40:32Z</time>
10392 <course>97.0</course>
10393 <speed>26.39</speed>
10394 </trkpt>
10395 <trkpt lat="51.0385486167" lon="13.6207639833">
10396 <ele>282.6</ele>
10397 <time>2012-09-10T12:40:33Z</time>
10398 <course>100.0</course>
10399 <speed>25.93</speed>
10400 </trkpt>
10401 <trkpt lat="51.0385091167" lon="13.6211327000">
10402 <ele>283.2</ele>
10403 <time>2012-09-10T12:40:34Z</time>
10404 <course>100.0</course>
10405 <speed>26.03</speed>
10406 </trkpt>
10407 <trkpt lat="51.0384637167" lon="13.6214985333">
10408 <ele>283.0</ele>
10409 <time>2012-09-10T12:40:34Z</time>
10410 <course>101.0</course>
10411 <speed>26.39</speed>
10412 </trkpt>
10413 <trkpt lat="51.0384055500" lon="13.6218719000">
10414 <ele>283.5</ele>
10415 <time>2012-09-10T12:40:35Z</time>
10416 <course>103.0</course>
10417 <speed>26.70</speed>
10418 </trkpt>
10419 <trkpt lat="51.0383481167" lon="13.6222418667">
10420 <ele>284.1</ele>
10421 <time>2012-09-10T12:40:36Z</time>
10422 <course>103.0</course>
10423 <speed>27.11</speed>
10424 </trkpt>
10425 <trkpt lat="51.0382903833" lon="13.6226154333">
10426 <ele>284.5</ele>
10427 <time>2012-09-10T12:40:38Z</time>
10428 <course>103.0</course>
10429 <speed>27.11</speed>
10430 </trkpt>
10431 <trkpt lat="51.0382352500" lon="13.6229891833">
10432 <ele>284.6</ele>
10433 <time>2012-09-10T12:40:39Z</time>
10434 <course>103.0</course>
10435 <speed>27.11</speed>
10436 </trkpt>
10437 <trkpt lat="51.0381822333" lon="13.6233697500">
10438 <ele>285.1</ele>
10439 <time>2012-09-10T12:40:40Z</time>
10440 <course>103.0</course>
10441 <speed>27.16</speed>
10442 </trkpt>
10443 <trkpt lat="51.0381273500" lon="13.6237487833">
10444 <ele>285.4</ele>
10445 <time>2012-09-10T12:40:41Z</time>
10446 <course>103.0</course>
10447 <speed>27.26</speed>
10448 </trkpt>
10449 <trkpt lat="51.0380768500" lon="13.6241277667">
10450 <ele>285.2</ele>
10451 <time>2012-09-10T12:40:41Z</time>
10452 <course>103.0</course>
10453 <speed>27.42</speed>
10454 </trkpt>
10455 <trkpt lat="51.0380271833" lon="13.6245066667">
10456 <ele>285.3</ele>
10457 <time>2012-09-10T12:40:42Z</time>
10458 <course>102.0</course>
10459 <speed>27.06</speed>
10460 </trkpt>
10461 <trkpt lat="51.0379879833" lon="13.6248889000">
10462 <ele>286.4</ele>
10463 <time>2012-09-10T12:40:43Z</time>
10464 <course>100.0</course>
10465 <speed>26.60</speed>
10466 </trkpt>
10467 <trkpt lat="51.0379438333" lon="13.6252597500">
10468 <ele>287.3</ele>
10469 <time>2012-09-10T12:40:45Z</time>
10470 <course>100.0</course>
10471 <speed>26.29</speed>
10472 </trkpt>
10473 <trkpt lat="51.0379027833" lon="13.6256325167">
10474 <ele>287.9</ele>
10475 <time>2012-09-10T12:40:46Z</time>
10476 <course>100.0</course>
10477 <speed>26.03</speed>
10478 </trkpt>
10479 <trkpt lat="51.0378618167" lon="13.6259953000">
10480 <ele>287.8</ele>
10481 <time>2012-09-10T12:40:47Z</time>
10482 <course>99.0</course>
10483 <speed>25.82</speed>
10484 </trkpt>
10485 <trkpt lat="51.0378332000" lon="13.6263457833">
10486 <ele>288.7</ele>
10487 <time>2012-09-10T12:40:47Z</time>
10488 <course>97.0</course>
10489 <speed>25.41</speed>
10490 </trkpt>
10491 <trkpt lat="51.0378084833" lon="13.6267044333">
10492 <ele>289.1</ele>
10493 <time>2012-09-10T12:40:48Z</time>
10494 <course>97.0</course>
10495 <speed>25.46</speed>
10496 </trkpt>
10497 <trkpt lat="51.0377796333" lon="13.6270621833">
10498 <ele>288.9</ele>
10499 <time>2012-09-10T12:40:49Z</time>
10500 <course>96.0</course>
10501 <speed>25.16</speed>
10502 </trkpt>
10503 <trkpt lat="51.0377572833" lon="13.6274103833">
10504 <ele>289.1</ele>
10505 <time>2012-09-10T12:40:51Z</time>
10506 <course>95.0</course>
10507 <speed>24.49</speed>
10508 </trkpt>
10509 <trkpt lat="51.0377394833" lon="13.6277565500">
10510 <ele>289.4</ele>
10511 <time>2012-09-10T12:40:52Z</time>
10512 <course>95.0</course>
10513 <speed>24.13</speed>
10514 </trkpt>
10515 <trkpt lat="51.0377201833" lon="13.6280981500">
10516 <ele>289.7</ele>
10517 <time>2012-09-10T12:40:53Z</time>
10518 <course>96.0</course>
10519 <speed>23.66</speed>
10520 </trkpt>
10521 <trkpt lat="51.0377016500" lon="13.6284306167">
10522 <ele>289.4</ele>
10523 <time>2012-09-10T12:40:54Z</time>
10524 <course>95.0</course>
10525 <speed>23.30</speed>
10526 </trkpt>
10527 <trkpt lat="51.0376966333" lon="13.6287524167">
10528 <ele>289.6</ele>
10529 <time>2012-09-10T12:40:54Z</time>
10530 <course>92.0</course>
10531 <speed>22.64</speed>
10532 </trkpt>
10533 <trkpt lat="51.0376930000" lon="13.6290784833">
10534 <ele>289.6</ele>
10535 <time>2012-09-10T12:40:55Z</time>
10536 <course>92.0</course>
10537 <speed>22.53</speed>
10538 </trkpt>
10539 <trkpt lat="51.0376945000" lon="13.6293782000">
10540 <ele>289.6</ele>
10541 <time>2012-09-10T12:40:57Z</time>
10542 <course>90.0</course>
10543 <speed>21.40</speed>
10544 </trkpt>
10545 <trkpt lat="51.0376954500" lon="13.6296858500">
10546 <ele>289.6</ele>
10547 <time>2012-09-10T12:40:58Z</time>
10548 <course>91.0</course>
10549 <speed>20.06</speed>
10550 </trkpt>
10551 <trkpt lat="51.0376947000" lon="13.6299647167">
10552 <ele>289.8</ele>
10553 <time>2012-09-10T12:40:59Z</time>
10554 <course>92.0</course>
10555 <speed>19.39</speed>
10556 </trkpt>
10557 <trkpt lat="51.0376730833" lon="13.6302459667">
10558 <ele>289.5</ele>
10559 <time>2012-09-10T12:41:00Z</time>
10560 <course>96.0</course>
10561 <speed>19.03</speed>
10562 </trkpt>
10563 <trkpt lat="51.0376319167" lon="13.6305052167">
10564 <ele>288.9</ele>
10565 <time>2012-09-10T12:41:00Z</time>
10566 <course>102.0</course>
10567 <speed>18.88</speed>
10568 </trkpt>
10569 <trkpt lat="51.0375863500" lon="13.6307552833">
10570 <ele>288.9</ele>
10571 <time>2012-09-10T12:41:01Z</time>
10572 <course>106.0</course>
10573 <speed>18.62</speed>
10574 </trkpt>
10575 <trkpt lat="51.0375370333" lon="13.6310059167">
10576 <ele>289.0</ele>
10577 <time>2012-09-10T12:41:02Z</time>
10578 <course>107.0</course>
10579 <speed>18.98</speed>
10580 </trkpt>
10581 <trkpt lat="51.0374455667" lon="13.6312256833">
10582 <ele>288.7</ele>
10583 <time>2012-09-10T12:41:04Z</time>
10584 <course>112.0</course>
10585 <speed>18.73</speed>
10586 </trkpt>
10587 <trkpt lat="51.0373441500" lon="13.6314272500">
10588 <ele>289.7</ele>
10589 <time>2012-09-10T12:41:05Z</time>
10590 <course>118.0</course>
10591 <speed>19.09</speed>
10592 </trkpt>
10593 <trkpt lat="51.0371915167" lon="13.6315619833">
10594 <ele>289.8</ele>
10595 <time>2012-09-10T12:41:06Z</time>
10596 <course>127.0</course>
10597 <speed>17.90</speed>
10598 </trkpt>
10599 <trkpt lat="51.0370346167" lon="13.6316491667">
10600 <ele>289.8</ele>
10601 <time>2012-09-10T12:41:06Z</time>
10602 <course>137.0</course>
10603 <speed>16.98</speed>
10604 </trkpt>
10605 <trkpt lat="51.0369105833" lon="13.6317843667">
10606 <ele>290.7</ele>
10607 <time>2012-09-10T12:41:07Z</time>
10608 <course>136.0</course>
10609 <speed>16.77</speed>
10610 </trkpt>
10611 <trkpt lat="51.0368245333" lon="13.6319387667">
10612 <ele>290.9</ele>
10613 <time>2012-09-10T12:41:08Z</time>
10614 <course>133.0</course>
10615 <speed>15.33</speed>
10616 </trkpt>
10617 <trkpt lat="51.0367712833" lon="13.6321208500">
10618 <ele>291.6</ele>
10619 <time>2012-09-10T12:41:10Z</time>
10620 <course>126.0</course>
10621 <speed>14.10</speed>
10622 </trkpt>
10623 <trkpt lat="51.0367341333" lon="13.6323119500">
10624 <ele>293.1</ele>
10625 <time>2012-09-10T12:41:11Z</time>
10626 <course>120.0</course>
10627 <speed>13.63</speed>
10628 </trkpt>
10629 <trkpt lat="51.0367751000" lon="13.6325580667">
10630 <ele>293.0</ele>
10631 <time>2012-09-10T12:41:12Z</time>
10632 <course>97.0</course>
10633 <speed>13.63</speed>
10634 </trkpt>
10635 <trkpt lat="51.0367641667" lon="13.6327484500">
10636 <ele>293.1</ele>
10637 <time>2012-09-10T12:41:13Z</time>
10638 <course>97.0</course>
10639 <speed>12.76</speed>
10640 </trkpt>
10641 <trkpt lat="51.0367452500" lon="13.6328956167">
10642 <ele>293.5</ele>
10643 <time>2012-09-10T12:41:13Z</time>
10644 <course>98.0</course>
10645 <speed>10.60</speed>
10646 </trkpt>
10647 <trkpt lat="51.0367389833" lon="13.6330087333">
10648 <ele>294.1</ele>
10649 <time>2012-09-10T12:41:14Z</time>
10650 <course>94.0</course>
10651 <speed>8.33</speed>
10652 </trkpt>
10653 <trkpt lat="51.0367163500" lon="13.6331113833">
10654 <ele>294.2</ele>
10655 <time>2012-09-10T12:41:15Z</time>
10656 <course>102.0</course>
10657 <speed>7.67</speed>
10658 </trkpt>
10659 <trkpt lat="51.0367040000" lon="13.6331902667">
10660 <ele>294.6</ele>
10661 <time>2012-09-10T12:41:17Z</time>
10662 <course>104.0</course>
10663 <speed>6.89</speed>
10664 </trkpt>
10665 <trkpt lat="51.0367240667" lon="13.6331606000">
10666 <ele>294.9</ele>
10667 <time>2012-09-10T12:41:18Z</time>
10668 <course>84.0</course>
10669 <speed>2.78</speed>
10670 </trkpt>
10671 <trkpt lat="51.0367242667" lon="13.6331066833">
10672 <ele>295.5</ele>
10673 <time>2012-09-10T12:41:19Z</time>
10674 <course>84.0</course>
10675 <speed>0.00</speed>
10676 </trkpt>
10677 <trkpt lat="51.0367242667" lon="13.6331066833">
10678 <ele>295.5</ele>
10679 <time>2012-09-10T12:41:19Z</time>
10680 <course>84.0</course>
10681 <speed>0.00</speed>
10682 </trkpt>
10683 <trkpt lat="51.0367285083" lon="13.6330964333">
10684 <ele>295.7</ele>
10685 <time>2012-09-10T12:41:21Z</time>
10686 <course>84.0</course>
10687 <speed>0.00</speed>
10688 </trkpt>
10689 <trkpt lat="51.0367285083" lon="13.6330964333">
10690 <ele>295.7</ele>
10691 <time>2012-09-10T12:41:23Z</time>
10692 <course>84.0</course>
10693 <speed>0.00</speed>
10694 </trkpt>
10695 <trkpt lat="51.0367304383" lon="13.6330849183">
10696 <ele>295.8</ele>
10697 <time>2012-09-10T12:41:25Z</time>
10698 <course>84.0</course>
10699 <speed>0.00</speed>
10700 </trkpt>
10701 <trkpt lat="51.0367304383" lon="13.6330849183">
10702 <ele>295.8</ele>
10703 <time>2012-09-10T12:42:04Z</time>
10704 <course>84.0</course>
10705 <speed>0.00</speed>
10706 </trkpt>
10707 <trkpt lat="51.0367416000" lon="13.6330655667">
10708 <ele>296.8</ele>
10709 <time>2012-09-10T12:42:04Z</time>
10710 <course>84.0</course>
10711 <speed>0.00</speed>
10712 </trkpt>
10713 <trkpt lat="51.0367383000" lon="13.6330861167">
10714 <ele>296.7</ele>
10715 <time>2012-09-10T12:42:05Z</time>
10716 <course>100.0</course>
10717 <speed>1.08</speed>
10718 </trkpt>
10719 <trkpt lat="51.0367378167" lon="13.6330981500">
10720 <ele>296.3</ele>
10721 <time>2012-09-10T12:42:06Z</time>
10722 <course>90.0</course>
10723 <speed>1.18</speed>
10724 </trkpt>
10725 <trkpt lat="51.0367411667" lon="13.6331317500">
10726 <ele>296.4</ele>
10727 <time>2012-09-10T12:42:08Z</time>
10728 <course>81.0</course>
10729 <speed>1.54</speed>
10730 </trkpt>
10731 <trkpt lat="51.0367399833" lon="13.6332295833">
10732 <ele>296.3</ele>
10733 <time>2012-09-10T12:42:09Z</time>
10734 <course>90.0</course>
10735 <speed>3.55</speed>
10736 </trkpt>
10737 <trkpt lat="51.0367495667" lon="13.6332883500">
10738 <ele>296.6</ele>
10739 <time>2012-09-10T12:42:10Z</time>
10740 <course>85.0</course>
10741 <speed>3.60</speed>
10742 </trkpt>
10743 <trkpt lat="51.0367588833" lon="13.6333407667">
10744 <ele>296.6</ele>
10745 <time>2012-09-10T12:42:10Z</time>
10746 <course>82.0</course>
10747 <speed>3.45</speed>
10748 </trkpt>
10749 <trkpt lat="51.0367638000" lon="13.6333662333">
10750 <ele>297.2</ele>
10751 <time>2012-09-10T12:42:11Z</time>
10752 <course>83.0</course>
10753 <speed>2.11</speed>
10754 </trkpt>
10755 <trkpt lat="51.0367833500" lon="13.6333941833">
10756 <ele>297.5</ele>
10757 <time>2012-09-10T12:42:12Z</time>
10758 <course>71.0</course>
10759 <speed>2.01</speed>
10760 </trkpt>
10761 <trkpt lat="51.0368296500" lon="13.6334096000">
10762 <ele>297.4</ele>
10763 <time>2012-09-10T12:42:14Z</time>
10764 <course>39.0</course>
10765 <speed>2.16</speed>
10766 </trkpt>
10767 <trkpt lat="51.0368967833" lon="13.6334063833">
10768 <ele>297.5</ele>
10769 <time>2012-09-10T12:42:15Z</time>
10770 <course>15.0</course>
10771 <speed>2.98</speed>
10772 </trkpt>
10773 <trkpt lat="51.0369704167" lon="13.6334176000">
10774 <ele>297.2</ele>
10775 <time>2012-09-10T12:42:16Z</time>
10776 <course>18.0</course>
10777 <speed>4.37</speed>
10778 </trkpt>
10779 <trkpt lat="51.0370455667" lon="13.6334194833">
10780 <ele>297.2</ele>
10781 <time>2012-09-10T12:42:16Z</time>
10782 <course>14.0</course>
10783 <speed>4.99</speed>
10784 </trkpt>
10785 <trkpt lat="51.0371478500" lon="13.6334101833">
10786 <ele>297.1</ele>
10787 <time>2012-09-10T12:42:17Z</time>
10788 <course>9.0</course>
10789 <speed>6.02</speed>
10790 </trkpt>
10791 <trkpt lat="51.0372932500" lon="13.6333841167">
10792 <ele>296.4</ele>
10793 <time>2012-09-10T12:42:18Z</time>
10794 <course>5.0</course>
10795 <speed>7.56</speed>
10796 </trkpt>
10797 <trkpt lat="51.0374667000" lon="13.6333368167">
10798 <ele>296.2</ele>
10799 <time>2012-09-10T12:42:20Z</time>
10800 <course>359.0</course>
10801 <speed>9.36</speed>
10802 </trkpt>
10803 <trkpt lat="51.0377579333" lon="13.6332207333">
10804 <ele>296.1</ele>
10805 <time>2012-09-10T12:42:21Z</time>
10806 <course>352.0</course>
10807 <speed>14.40</speed>
10808 </trkpt>
10809 <trkpt lat="51.0379938667" lon="13.6331366333">
10810 <ele>295.1</ele>
10811 <time>2012-09-10T12:42:22Z</time>
10812 <course>351.0</course>
10813 <speed>15.74</speed>
10814 </trkpt>
10815 <trkpt lat="51.0382046333" lon="13.6330595667">
10816 <ele>294.8</ele>
10817 <time>2012-09-10T12:42:23Z</time>
10818 <course>350.0</course>
10819 <speed>15.54</speed>
10820 </trkpt>
10821 <trkpt lat="51.0383677000" lon="13.6330037667">
10822 <ele>294.4</ele>
10823 <time>2012-09-10T12:42:23Z</time>
10824 <course>350.0</course>
10825 <speed>15.59</speed>
10826 </trkpt>
10827 <trkpt lat="51.0385240167" lon="13.6329647833">
10828 <ele>293.5</ele>
10829 <time>2012-09-10T12:42:24Z</time>
10830 <course>351.0</course>
10831 <speed>15.84</speed>
10832 </trkpt>
10833 <trkpt lat="51.0386843500" lon="13.6329208167">
10834 <ele>292.5</ele>
10835 <time>2012-09-10T12:42:25Z</time>
10836 <course>352.0</course>
10837 <speed>15.84</speed>
10838 </trkpt>
10839 <trkpt lat="51.0388307833" lon="13.6328916500">
10840 <ele>291.9</ele>
10841 <time>2012-09-10T12:42:27Z</time>
10842 <course>353.0</course>
10843 <speed>15.69</speed>
10844 </trkpt>
10845 <trkpt lat="51.0389729167" lon="13.6328563500">
10846 <ele>291.7</ele>
10847 <time>2012-09-10T12:42:28Z</time>
10848 <course>350.0</course>
10849 <speed>15.43</speed>
10850 </trkpt>
10851 <trkpt lat="51.0391109667" lon="13.6327976167">
10852 <ele>291.6</ele>
10853 <time>2012-09-10T12:42:29Z</time>
10854 <course>346.0</course>
10855 <speed>13.74</speed>
10856 </trkpt>
10857 <trkpt lat="51.0392272167" lon="13.6327391167">
10858 <ele>291.4</ele>
10859 <time>2012-09-10T12:42:29Z</time>
10860 <course>343.0</course>
10861 <speed>12.24</speed>
10862 </trkpt>
10863 <trkpt lat="51.0393217167" lon="13.6326867000">
10864 <ele>291.9</ele>
10865 <time>2012-09-10T12:42:30Z</time>
10866 <course>341.0</course>
10867 <speed>11.68</speed>
10868 </trkpt>
10869 <trkpt lat="51.0394048000" lon="13.6326753167">
10870 <ele>292.4</ele>
10871 <time>2012-09-10T12:42:31Z</time>
10872 <course>347.0</course>
10873 <speed>10.60</speed>
10874 </trkpt>
10875 <trkpt lat="51.0394722833" lon="13.6326932833">
10876 <ele>291.8</ele>
10877 <time>2012-09-10T12:42:33Z</time>
10878 <course>354.0</course>
10879 <speed>9.62</speed>
10880 </trkpt>
10881 <trkpt lat="51.0395299000" lon="13.6327401500">
10882 <ele>291.7</ele>
10883 <time>2012-09-10T12:42:34Z</time>
10884 <course>6.0</course>
10885 <speed>8.49</speed>
10886 </trkpt>
10887 <trkpt lat="51.0395669667" lon="13.6328034667">
10888 <ele>291.7</ele>
10889 <time>2012-09-10T12:42:35Z</time>
10890 <course>16.0</course>
10891 <speed>7.30</speed>
10892 </trkpt>
10893 <trkpt lat="51.0395905333" lon="13.6329076833">
10894 <ele>291.4</ele>
10895 <time>2012-09-10T12:42:35Z</time>
10896 <course>31.0</course>
10897 <speed>7.51</speed>
10898 </trkpt>
10899 <trkpt lat="51.0395808167" lon="13.6330690167">
10900 <ele>291.5</ele>
10901 <time>2012-09-10T12:42:36Z</time>
10902 <course>57.0</course>
10903 <speed>7.77</speed>
10904 </trkpt>
10905 <trkpt lat="51.0395680667" lon="13.6332631667">
10906 <ele>291.6</ele>
10907 <time>2012-09-10T12:42:37Z</time>
10908 <course>69.0</course>
10909 <speed>9.72</speed>
10910 </trkpt>
10911 <trkpt lat="51.0395022333" lon="13.6334984667">
10912 <ele>290.4</ele>
10913 <time>2012-09-10T12:42:39Z</time>
10914 <course>91.0</course>
10915 <speed>10.85</speed>
10916 </trkpt>
10917 <trkpt lat="51.0394602500" lon="13.6336856667">
10918 <ele>290.0</ele>
10919 <time>2012-09-10T12:42:40Z</time>
10920 <course>100.0</course>
10921 <speed>11.93</speed>
10922 </trkpt>
10923 <trkpt lat="51.0394178333" lon="13.6338611500">
10924 <ele>289.8</ele>
10925 <time>2012-09-10T12:42:41Z</time>
10926 <course>104.0</course>
10927 <speed>12.40</speed>
10928 </trkpt>
10929 <trkpt lat="51.0393758667" lon="13.6340113167">
10930 <ele>290.5</ele>
10931 <time>2012-09-10T12:42:42Z</time>
10932 <course>107.0</course>
10933 <speed>11.63</speed>
10934 </trkpt>
10935 <trkpt lat="51.0393213667" lon="13.6341402167">
10936 <ele>290.8</ele>
10937 <time>2012-09-10T12:42:42Z</time>
10938 <course>112.0</course>
10939 <speed>11.27</speed>
10940 </trkpt>
10941 <trkpt lat="51.0392571833" lon="13.6342588833">
10942 <ele>290.6</ele>
10943 <time>2012-09-10T12:42:43Z</time>
10944 <course>117.0</course>
10945 <speed>11.06</speed>
10946 </trkpt>
10947 <trkpt lat="51.0390641667" lon="13.6342075000">
10948 <ele>290.4</ele>
10949 <time>2012-09-10T12:42:44Z</time>
10950 <course>150.0</course>
10951 <speed>11.42</speed>
10952 </trkpt>
10953 <trkpt lat="51.0389340333" lon="13.6342349167">
10954 <ele>290.3</ele>
10955 <time>2012-09-10T12:42:46Z</time>
10956 <course>146.0</course>
10957 <speed>12.14</speed>
10958 </trkpt>
10959 <trkpt lat="51.0388459833" lon="13.6343397167">
10960 <ele>289.3</ele>
10961 <time>2012-09-10T12:42:47Z</time>
10962 <course>143.0</course>
10963 <speed>13.43</speed>
10964 </trkpt>
10965 <trkpt lat="51.0387521833" lon="13.6344555000">
10966 <ele>288.7</ele>
10967 <time>2012-09-10T12:42:48Z</time>
10968 <course>140.0</course>
10969 <speed>13.58</speed>
10970 </trkpt>
10971 <trkpt lat="51.0386567667" lon="13.6345818833">
10972 <ele>288.4</ele>
10973 <time>2012-09-10T12:42:48Z</time>
10974 <course>140.0</course>
10975 <speed>12.91</speed>
10976 </trkpt>
10977 <trkpt lat="51.0386043500" lon="13.6347377000">
10978 <ele>288.5</ele>
10979 <time>2012-09-10T12:42:49Z</time>
10980 <course>135.0</course>
10981 <speed>12.24</speed>
10982 </trkpt>
10983 <trkpt lat="51.0385825500" lon="13.6349395500">
10984 <ele>288.5</ele>
10985 <time>2012-09-10T12:42:50Z</time>
10986 <course>124.0</course>
10987 <speed>12.19</speed>
10988 </trkpt>
10989 <trkpt lat="51.0385841833" lon="13.6351832500">
10990 <ele>288.8</ele>
10991 <time>2012-09-10T12:42:52Z</time>
10992 <course>112.0</course>
10993 <speed>13.53</speed>
10994 </trkpt>
10995 <trkpt lat="51.0386263167" lon="13.6354888000">
10996 <ele>288.9</ele>
10997 <time>2012-09-10T12:42:53Z</time>
10998 <course>95.0</course>
10999 <speed>15.79</speed>
11000 </trkpt>
11001 <trkpt lat="51.0386350833" lon="13.6357053500">
11002 <ele>288.8</ele>
11003 <time>2012-09-10T12:42:54Z</time>
11004 <course>90.0</course>
11005 <speed>15.69</speed>
11006 </trkpt>
11007 <trkpt lat="51.0386772833" lon="13.6359498167">
11008 <ele>287.6</ele>
11009 <time>2012-09-10T12:42:55Z</time>
11010 <course>85.0</course>
11011 <speed>15.95</speed>
11012 </trkpt>
11013 <trkpt lat="51.0386984500" lon="13.6361820167">
11014 <ele>286.6</ele>
11015 <time>2012-09-10T12:42:55Z</time>
11016 <course>82.0</course>
11017 <speed>16.00</speed>
11018 </trkpt>
11019 <trkpt lat="51.0387188500" lon="13.6364086500">
11020 <ele>285.7</ele>
11021 <time>2012-09-10T12:42:56Z</time>
11022 <course>82.0</course>
11023 <speed>16.05</speed>
11024 </trkpt>
11025 <trkpt lat="51.0387410333" lon="13.6366425500">
11026 <ele>285.2</ele>
11027 <time>2012-09-10T12:42:58Z</time>
11028 <course>81.0</course>
11029 <speed>16.20</speed>
11030 </trkpt>
11031 <trkpt lat="51.0387747500" lon="13.6368784667">
11032 <ele>284.5</ele>
11033 <time>2012-09-10T12:42:59Z</time>
11034 <course>80.0</course>
11035 <speed>16.20</speed>
11036 </trkpt>
11037 <trkpt lat="51.0388119000" lon="13.6371015500">
11038 <ele>284.3</ele>
11039 <time>2012-09-10T12:43:00Z</time>
11040 <course>78.0</course>
11041 <speed>16.20</speed>
11042 </trkpt>
11043 <trkpt lat="51.0388594167" lon="13.6373536333">
11044 <ele>283.4</ele>
11045 <time>2012-09-10T12:43:01Z</time>
11046 <course>77.0</course>
11047 <speed>16.56</speed>
11048 </trkpt>
11049 <trkpt lat="51.0388923500" lon="13.6375866167">
11050 <ele>283.3</ele>
11051 <time>2012-09-10T12:43:01Z</time>
11052 <course>77.0</course>
11053 <speed>16.56</speed>
11054 </trkpt>
11055 <trkpt lat="51.0389265500" lon="13.6378217333">
11056 <ele>282.8</ele>
11057 <time>2012-09-10T12:43:02Z</time>
11058 <course>77.0</course>
11059 <speed>16.67</speed>
11060 </trkpt>
11061 <trkpt lat="51.0389658333" lon="13.6380502833">
11062 <ele>282.6</ele>
11063 <time>2012-09-10T12:43:03Z</time>
11064 <course>77.0</course>
11065 <speed>16.41</speed>
11066 </trkpt>
11067 <trkpt lat="51.0390083500" lon="13.6382775500">
11068 <ele>282.2</ele>
11069 <time>2012-09-10T12:43:05Z</time>
11070 <course>76.0</course>
11071 <speed>16.51</speed>
11072 </trkpt>
11073 <trkpt lat="51.0390401833" lon="13.6385174167">
11074 <ele>281.7</ele>
11075 <time>2012-09-10T12:43:06Z</time>
11076 <course>76.0</course>
11077 <speed>16.77</speed>
11078 </trkpt>
11079 <trkpt lat="51.0390851500" lon="13.6387546333">
11080 <ele>280.9</ele>
11081 <time>2012-09-10T12:43:07Z</time>
11082 <course>75.0</course>
11083 <speed>16.51</speed>
11084 </trkpt>
11085 <trkpt lat="51.0391255167" lon="13.6389877333">
11086 <ele>280.6</ele>
11087 <time>2012-09-10T12:43:07Z</time>
11088 <course>75.0</course>
11089 <speed>16.67</speed>
11090 </trkpt>
11091 <trkpt lat="51.0391712000" lon="13.6392350667">
11092 <ele>280.4</ele>
11093 <time>2012-09-10T12:43:08Z</time>
11094 <course>75.0</course>
11095 <speed>17.03</speed>
11096 </trkpt>
11097 <trkpt lat="51.0392228667" lon="13.6394774000">
11098 <ele>280.1</ele>
11099 <time>2012-09-10T12:43:09Z</time>
11100 <course>74.0</course>
11101 <speed>17.39</speed>
11102 </trkpt>
11103 <trkpt lat="51.0392580667" lon="13.6397204333">
11104 <ele>279.8</ele>
11105 <time>2012-09-10T12:43:11Z</time>
11106 <course>76.0</course>
11107 <speed>17.39</speed>
11108 </trkpt>
11109 <trkpt lat="51.0392917667" lon="13.6399538167">
11110 <ele>279.9</ele>
11111 <time>2012-09-10T12:43:12Z</time>
11112 <course>76.0</course>
11113 <speed>17.23</speed>
11114 </trkpt>
11115 <trkpt lat="51.0393314167" lon="13.6401948833">
11116 <ele>279.9</ele>
11117 <time>2012-09-10T12:43:13Z</time>
11118 <course>76.0</course>
11119 <speed>17.23</speed>
11120 </trkpt>
11121 <trkpt lat="51.0393731500" lon="13.6404304500">
11122 <ele>279.5</ele>
11123 <time>2012-09-10T12:43:14Z</time>
11124 <course>76.0</course>
11125 <speed>17.34</speed>
11126 </trkpt>
11127 <trkpt lat="51.0394160667" lon="13.6406696833">
11128 <ele>279.3</ele>
11129 <time>2012-09-10T12:43:14Z</time>
11130 <course>76.0</course>
11131 <speed>17.18</speed>
11132 </trkpt>
11133 <trkpt lat="51.0394500000" lon="13.6408968000">
11134 <ele>278.8</ele>
11135 <time>2012-09-10T12:43:15Z</time>
11136 <course>76.0</course>
11137 <speed>17.08</speed>
11138 </trkpt>
11139 <trkpt lat="51.0394872500" lon="13.6411343667">
11140 <ele>278.7</ele>
11141 <time>2012-09-10T12:43:16Z</time>
11142 <course>76.0</course>
11143 <speed>17.03</speed>
11144 </trkpt>
11145 <trkpt lat="51.0395209833" lon="13.6413666167">
11146 <ele>278.4</ele>
11147 <time>2012-09-10T12:43:18Z</time>
11148 <course>76.0</course>
11149 <speed>17.13</speed>
11150 </trkpt>
11151 <trkpt lat="51.0395652667" lon="13.6416004667">
11152 <ele>278.1</ele>
11153 <time>2012-09-10T12:43:19Z</time>
11154 <course>75.0</course>
11155 <speed>17.23</speed>
11156 </trkpt>
11157 <trkpt lat="51.0396116833" lon="13.6418416000">
11158 <ele>277.8</ele>
11159 <time>2012-09-10T12:43:20Z</time>
11160 <course>75.0</course>
11161 <speed>17.44</speed>
11162 </trkpt>
11163 <trkpt lat="51.0396547833" lon="13.6421003167">
11164 <ele>277.6</ele>
11165 <time>2012-09-10T12:43:20Z</time>
11166 <course>75.0</course>
11167 <speed>17.75</speed>
11168 </trkpt>
11169 <trkpt lat="51.0397025833" lon="13.6423674333">
11170 <ele>277.3</ele>
11171 <time>2012-09-10T12:43:21Z</time>
11172 <course>76.0</course>
11173 <speed>17.85</speed>
11174 </trkpt>
11175 <trkpt lat="51.0397353667" lon="13.6426056167">
11176 <ele>277.1</ele>
11177 <time>2012-09-10T12:43:22Z</time>
11178 <course>76.0</course>
11179 <speed>17.80</speed>
11180 </trkpt>
11181 <trkpt lat="51.0397814667" lon="13.6428395000">
11182 <ele>276.2</ele>
11183 <time>2012-09-10T12:43:24Z</time>
11184 <course>77.0</course>
11185 <speed>17.80</speed>
11186 </trkpt>
11187 <trkpt lat="51.0398159167" lon="13.6430907167">
11188 <ele>276.2</ele>
11189 <time>2012-09-10T12:43:25Z</time>
11190 <course>76.0</course>
11191 <speed>17.85</speed>
11192 </trkpt>
11193 <trkpt lat="51.0398554667" lon="13.6433335333">
11194 <ele>276.2</ele>
11195 <time>2012-09-10T12:43:26Z</time>
11196 <course>76.0</course>
11197 <speed>17.95</speed>
11198 </trkpt>
11199 <trkpt lat="51.0398844000" lon="13.6435846333">
11200 <ele>275.7</ele>
11201 <time>2012-09-10T12:43:26Z</time>
11202 <course>76.0</course>
11203 <speed>17.70</speed>
11204 </trkpt>
11205 <trkpt lat="51.0399230833" lon="13.6438104333">
11206 <ele>275.6</ele>
11207 <time>2012-09-10T12:43:27Z</time>
11208 <course>76.0</course>
11209 <speed>16.82</speed>
11210 </trkpt>
11211 <trkpt lat="51.0399488000" lon="13.6440165333">
11212 <ele>274.3</ele>
11213 <time>2012-09-10T12:43:28Z</time>
11214 <course>77.0</course>
11215 <speed>16.05</speed>
11216 </trkpt>
11217 <trkpt lat="51.0399678667" lon="13.6442333667">
11218 <ele>272.8</ele>
11219 <time>2012-09-10T12:43:30Z</time>
11220 <course>77.0</course>
11221 <speed>15.48</speed>
11222 </trkpt>
11223 <trkpt lat="51.0399788167" lon="13.6444155500">
11224 <ele>271.7</ele>
11225 <time>2012-09-10T12:43:31Z</time>
11226 <course>76.0</course>
11227 <speed>14.46</speed>
11228 </trkpt>
11229 <trkpt lat="51.0399800667" lon="13.6445906667">
11230 <ele>270.6</ele>
11231 <time>2012-09-10T12:43:32Z</time>
11232 <course>75.0</course>
11233 <speed>13.79</speed>
11234 </trkpt>
11235 <trkpt lat="51.0400194667" lon="13.6447538833">
11236 <ele>269.0</ele>
11237 <time>2012-09-10T12:43:33Z</time>
11238 <course>68.0</course>
11239 <speed>12.86</speed>
11240 </trkpt>
11241 <trkpt lat="51.0400664333" lon="13.6448871333">
11242 <ele>267.2</ele>
11243 <time>2012-09-10T12:43:33Z</time>
11244 <course>64.0</course>
11245 <speed>12.09</speed>
11246 </trkpt>
11247 <trkpt lat="51.0401435500" lon="13.6450161833">
11248 <ele>265.8</ele>
11249 <time>2012-09-10T12:43:34Z</time>
11250 <course>55.0</course>
11251 <speed>11.99</speed>
11252 </trkpt>
11253 <trkpt lat="51.0402241500" lon="13.6451247500">
11254 <ele>265.4</ele>
11255 <time>2012-09-10T12:43:35Z</time>
11256 <course>46.0</course>
11257 <speed>11.37</speed>
11258 </trkpt>
11259 <trkpt lat="51.0403037667" lon="13.6452198667">
11260 <ele>264.9</ele>
11261 <time>2012-09-10T12:43:37Z</time>
11262 <course>41.0</course>
11263 <speed>10.55</speed>
11264 </trkpt>
11265 <trkpt lat="51.0403745000" lon="13.6453093167">
11266 <ele>264.9</ele>
11267 <time>2012-09-10T12:43:38Z</time>
11268 <course>37.0</course>
11269 <speed>10.03</speed>
11270 </trkpt>
11271 <trkpt lat="51.0404519833" lon="13.6453789500">
11272 <ele>264.6</ele>
11273 <time>2012-09-10T12:43:39Z</time>
11274 <course>35.0</course>
11275 <speed>9.83</speed>
11276 </trkpt>
11277 <trkpt lat="51.0405208500" lon="13.6454658500">
11278 <ele>264.7</ele>
11279 <time>2012-09-10T12:43:39Z</time>
11280 <course>40.0</course>
11281 <speed>9.72</speed>
11282 </trkpt>
11283 <trkpt lat="51.0405825167" lon="13.6455578500">
11284 <ele>263.1</ele>
11285 <time>2012-09-10T12:43:40Z</time>
11286 <course>52.0</course>
11287 <speed>9.41</speed>
11288 </trkpt>
11289 <trkpt lat="51.0406242000" lon="13.6456500833">
11290 <ele>262.3</ele>
11291 <time>2012-09-10T12:43:41Z</time>
11292 <course>59.0</course>
11293 <speed>9.26</speed>
11294 </trkpt>
11295 <trkpt lat="51.0406523667" lon="13.6457737000">
11296 <ele>262.0</ele>
11297 <time>2012-09-10T12:43:43Z</time>
11298 <course>70.0</course>
11299 <speed>9.47</speed>
11300 </trkpt>
11301 <trkpt lat="51.0406743667" lon="13.6459055833">
11302 <ele>260.9</ele>
11303 <time>2012-09-10T12:43:44Z</time>
11304 <course>74.0</course>
11305 <speed>9.67</speed>
11306 </trkpt>
11307 <trkpt lat="51.0406747667" lon="13.6460324333">
11308 <ele>259.9</ele>
11309 <time>2012-09-10T12:43:45Z</time>
11310 <course>81.0</course>
11311 <speed>9.26</speed>
11312 </trkpt>
11313 <trkpt lat="51.0406623500" lon="13.6461547667">
11314 <ele>258.8</ele>
11315 <time>2012-09-10T12:43:46Z</time>
11316 <course>88.0</course>
11317 <speed>9.00</speed>
11318 </trkpt>
11319 <trkpt lat="51.0406131333" lon="13.6462557167">
11320 <ele>258.4</ele>
11321 <time>2012-09-10T12:43:46Z</time>
11322 <course>105.0</course>
11323 <speed>8.23</speed>
11324 </trkpt>
11325 <trkpt lat="51.0404971500" lon="13.6463354500">
11326 <ele>258.2</ele>
11327 <time>2012-09-10T12:43:47Z</time>
11328 <course>133.0</course>
11329 <speed>9.36</speed>
11330 </trkpt>
11331 <trkpt lat="51.0404174667" lon="13.6464296500">
11332 <ele>257.6</ele>
11333 <time>2012-09-10T12:43:49Z</time>
11334 <course>137.0</course>
11335 <speed>10.08</speed>
11336 </trkpt>
11337 <trkpt lat="51.0403422500" lon="13.6465247500">
11338 <ele>257.2</ele>
11339 <time>2012-09-10T12:43:50Z</time>
11340 <course>138.0</course>
11341 <speed>10.29</speed>
11342 </trkpt>
11343 <trkpt lat="51.0402614333" lon="13.6466328667">
11344 <ele>256.8</ele>
11345 <time>2012-09-10T12:43:51Z</time>
11346 <course>137.0</course>
11347 <speed>10.70</speed>
11348 </trkpt>
11349 <trkpt lat="51.0401770167" lon="13.6467604167">
11350 <ele>256.4</ele>
11351 <time>2012-09-10T12:43:52Z</time>
11352 <course>133.0</course>
11353 <speed>11.42</speed>
11354 </trkpt>
11355 <trkpt lat="51.0401050500" lon="13.6468754500">
11356 <ele>256.6</ele>
11357 <time>2012-09-10T12:43:52Z</time>
11358 <course>130.0</course>
11359 <speed>11.78</speed>
11360 </trkpt>
11361 <trkpt lat="51.0400420333" lon="13.6470066333">
11362 <ele>256.0</ele>
11363 <time>2012-09-10T12:43:53Z</time>
11364 <course>127.0</course>
11365 <speed>11.99</speed>
11366 </trkpt>
11367 <trkpt lat="51.0399789667" lon="13.6471556667">
11368 <ele>256.1</ele>
11369 <time>2012-09-10T12:43:54Z</time>
11370 <course>122.0</course>
11371 <speed>12.19</speed>
11372 </trkpt>
11373 <trkpt lat="51.0399238000" lon="13.6473107833">
11374 <ele>256.1</ele>
11375 <time>2012-09-10T12:43:56Z</time>
11376 <course>116.0</course>
11377 <speed>12.50</speed>
11378 </trkpt>
11379 <trkpt lat="51.0398877167" lon="13.6474644500">
11380 <ele>255.4</ele>
11381 <time>2012-09-10T12:43:57Z</time>
11382 <course>112.0</course>
11383 <speed>12.45</speed>
11384 </trkpt>
11385 <trkpt lat="51.0398473000" lon="13.6476333333">
11386 <ele>254.4</ele>
11387 <time>2012-09-10T12:43:58Z</time>
11388 <course>108.0</course>
11389 <speed>12.66</speed>
11390 </trkpt>
11391 <trkpt lat="51.0398170500" lon="13.6478039000">
11392 <ele>254.3</ele>
11393 <time>2012-09-10T12:43:58Z</time>
11394 <course>107.0</course>
11395 <speed>12.76</speed>
11396 </trkpt>
11397 <trkpt lat="51.0397939333" lon="13.6479797833">
11398 <ele>253.8</ele>
11399 <time>2012-09-10T12:43:59Z</time>
11400 <course>105.0</course>
11401 <speed>12.86</speed>
11402 </trkpt>
11403 <trkpt lat="51.0397730167" lon="13.6481491333">
11404 <ele>252.6</ele>
11405 <time>2012-09-10T12:44:00Z</time>
11406 <course>103.0</course>
11407 <speed>12.91</speed>
11408 </trkpt>
11409 <trkpt lat="51.0397544500" lon="13.6483325333">
11410 <ele>251.6</ele>
11411 <time>2012-09-10T12:44:02Z</time>
11412 <course>102.0</course>
11413 <speed>13.07</speed>
11414 </trkpt>
11415 <trkpt lat="51.0397292500" lon="13.6485178500">
11416 <ele>251.1</ele>
11417 <time>2012-09-10T12:44:03Z</time>
11418 <course>103.0</course>
11419 <speed>13.17</speed>
11420 </trkpt>
11421 <trkpt lat="51.0397098667" lon="13.6487003333">
11422 <ele>250.5</ele>
11423 <time>2012-09-10T12:44:04Z</time>
11424 <course>102.0</course>
11425 <speed>13.02</speed>
11426 </trkpt>
11427 <trkpt lat="51.0396882667" lon="13.6488845333">
11428 <ele>249.8</ele>
11429 <time>2012-09-10T12:44:05Z</time>
11430 <course>102.0</course>
11431 <speed>12.81</speed>
11432 </trkpt>
11433 <trkpt lat="51.0396553000" lon="13.6490608167">
11434 <ele>249.6</ele>
11435 <time>2012-09-10T12:44:05Z</time>
11436 <course>102.0</course>
11437 <speed>12.76</speed>
11438 </trkpt>
11439 <trkpt lat="51.0396237500" lon="13.6492486000">
11440 <ele>249.7</ele>
11441 <time>2012-09-10T12:44:06Z</time>
11442 <course>102.0</course>
11443 <speed>12.91</speed>
11444 </trkpt>
11445 <trkpt lat="51.0395906000" lon="13.6494272333">
11446 <ele>249.0</ele>
11447 <time>2012-09-10T12:44:08Z</time>
11448 <course>103.0</course>
11449 <speed>13.12</speed>
11450 </trkpt>
11451 <trkpt lat="51.0395622167" lon="13.6496036667">
11452 <ele>248.4</ele>
11453 <time>2012-09-10T12:44:09Z</time>
11454 <course>104.0</course>
11455 <speed>12.91</speed>
11456 </trkpt>
11457 <trkpt lat="51.0395428667" lon="13.6497761500">
11458 <ele>247.6</ele>
11459 <time>2012-09-10T12:44:10Z</time>
11460 <course>103.0</course>
11461 <speed>12.86</speed>
11462 </trkpt>
11463 <trkpt lat="51.0395212500" lon="13.6499536000">
11464 <ele>247.6</ele>
11465 <time>2012-09-10T12:44:11Z</time>
11466 <course>103.0</course>
11467 <speed>12.96</speed>
11468 </trkpt>
11469 <trkpt lat="51.0395070667" lon="13.6501324833">
11470 <ele>247.1</ele>
11471 <time>2012-09-10T12:44:11Z</time>
11472 <course>101.0</course>
11473 <speed>12.71</speed>
11474 </trkpt>
11475 <trkpt lat="51.0394803167" lon="13.6503078167">
11476 <ele>246.7</ele>
11477 <time>2012-09-10T12:44:12Z</time>
11478 <course>102.0</course>
11479 <speed>12.71</speed>
11480 </trkpt>
11481 <trkpt lat="51.0394546500" lon="13.6504833000">
11482 <ele>246.4</ele>
11483 <time>2012-09-10T12:44:13Z</time>
11484 <course>102.0</course>
11485 <speed>12.60</speed>
11486 </trkpt>
11487 <trkpt lat="51.0394283500" lon="13.6506586167">
11488 <ele>246.2</ele>
11489 <time>2012-09-10T12:44:15Z</time>
11490 <course>101.0</course>
11491 <speed>12.60</speed>
11492 </trkpt>
11493 <trkpt lat="51.0394029167" lon="13.6508340500">
11494 <ele>245.5</ele>
11495 <time>2012-09-10T12:44:16Z</time>
11496 <course>102.0</course>
11497 <speed>12.50</speed>
11498 </trkpt>
11499 <trkpt lat="51.0393762667" lon="13.6510146000">
11500 <ele>245.5</ele>
11501 <time>2012-09-10T12:44:17Z</time>
11502 <course>103.0</course>
11503 <speed>12.60</speed>
11504 </trkpt>
11505 <trkpt lat="51.0393695833" lon="13.6512000167">
11506 <ele>244.9</ele>
11507 <time>2012-09-10T12:44:17Z</time>
11508 <course>101.0</course>
11509 <speed>12.66</speed>
11510 </trkpt>
11511 <trkpt lat="51.0393447000" lon="13.6513865333">
11512 <ele>244.5</ele>
11513 <time>2012-09-10T12:44:18Z</time>
11514 <course>102.0</course>
11515 <speed>12.86</speed>
11516 </trkpt>
11517 <trkpt lat="51.0393220500" lon="13.6515541000">
11518 <ele>244.3</ele>
11519 <time>2012-09-10T12:44:19Z</time>
11520 <course>103.0</course>
11521 <speed>12.96</speed>
11522 </trkpt>
11523 <trkpt lat="51.0392881833" lon="13.6517436000">
11524 <ele>243.8</ele>
11525 <time>2012-09-10T12:44:21Z</time>
11526 <course>103.0</course>
11527 <speed>13.12</speed>
11528 </trkpt>
11529 <trkpt lat="51.0392462333" lon="13.6519251167">
11530 <ele>244.0</ele>
11531 <time>2012-09-10T12:44:22Z</time>
11532 <course>104.0</course>
11533 <speed>13.27</speed>
11534 </trkpt>
11535 <trkpt lat="51.0392226167" lon="13.6521056000">
11536 <ele>243.3</ele>
11537 <time>2012-09-10T12:44:23Z</time>
11538 <course>101.0</course>
11539 <speed>12.96</speed>
11540 </trkpt>
11541 <trkpt lat="51.0391982333" lon="13.6523042500">
11542 <ele>242.7</ele>
11543 <time>2012-09-10T12:44:24Z</time>
11544 <course>98.0</course>
11545 <speed>13.32</speed>
11546 </trkpt>
11547 <trkpt lat="51.0391928333" lon="13.6525111333">
11548 <ele>242.7</ele>
11549 <time>2012-09-10T12:44:24Z</time>
11550 <course>95.0</course>
11551 <speed>13.63</speed>
11552 </trkpt>
11553 <trkpt lat="51.0391944000" lon="13.6527315833">
11554 <ele>242.4</ele>
11555 <time>2012-09-10T12:44:25Z</time>
11556 <course>93.0</course>
11557 <speed>13.99</speed>
11558 </trkpt>
11559 <trkpt lat="51.0392034167" lon="13.6529431500">
11560 <ele>242.0</ele>
11561 <time>2012-09-10T12:44:26Z</time>
11562 <course>91.0</course>
11563 <speed>14.10</speed>
11564 </trkpt>
11565 <trkpt lat="51.0392054667" lon="13.6531385833">
11566 <ele>241.5</ele>
11567 <time>2012-09-10T12:44:28Z</time>
11568 <course>90.0</course>
11569 <speed>13.79</speed>
11570 </trkpt>
11571 <trkpt lat="51.0392069167" lon="13.6533298667">
11572 <ele>240.9</ele>
11573 <time>2012-09-10T12:44:29Z</time>
11574 <course>90.0</course>
11575 <speed>13.84</speed>
11576 </trkpt>
11577 <trkpt lat="51.0392179333" lon="13.6535295000">
11578 <ele>239.7</ele>
11579 <time>2012-09-10T12:44:30Z</time>
11580 <course>88.0</course>
11581 <speed>14.25</speed>
11582 </trkpt>
11583 <trkpt lat="51.0392231167" lon="13.6537310333">
11584 <ele>239.2</ele>
11585 <time>2012-09-10T12:44:30Z</time>
11586 <course>88.0</course>
11587 <speed>14.30</speed>
11588 </trkpt>
11589 <trkpt lat="51.0392211500" lon="13.6539337833">
11590 <ele>238.8</ele>
11591 <time>2012-09-10T12:44:31Z</time>
11592 <course>89.0</course>
11593 <speed>14.40</speed>
11594 </trkpt>
11595 <trkpt lat="51.0392251167" lon="13.6541402500">
11596 <ele>238.0</ele>
11597 <time>2012-09-10T12:44:32Z</time>
11598 <course>89.0</course>
11599 <speed>14.40</speed>
11600 </trkpt>
11601 <trkpt lat="51.0392192000" lon="13.6543398000">
11602 <ele>237.9</ele>
11603 <time>2012-09-10T12:44:34Z</time>
11604 <course>91.0</course>
11605 <speed>14.56</speed>
11606 </trkpt>
11607 <trkpt lat="51.0392169833" lon="13.6545468667">
11608 <ele>238.1</ele>
11609 <time>2012-09-10T12:44:35Z</time>
11610 <course>90.0</course>
11611 <speed>14.61</speed>
11612 </trkpt>
11613 <trkpt lat="51.0392270667" lon="13.6547540333">
11614 <ele>237.8</ele>
11615 <time>2012-09-10T12:44:36Z</time>
11616 <course>88.0</course>
11617 <speed>14.71</speed>
11618 </trkpt>
11619 <trkpt lat="51.0392384333" lon="13.6549661500">
11620 <ele>237.8</ele>
11621 <time>2012-09-10T12:44:36Z</time>
11622 <course>86.0</course>
11623 <speed>14.97</speed>
11624 </trkpt>
11625 <trkpt lat="51.0392543167" lon="13.6551795833">
11626 <ele>237.8</ele>
11627 <time>2012-09-10T12:44:37Z</time>
11628 <course>84.0</course>
11629 <speed>14.97</speed>
11630 </trkpt>
11631 <trkpt lat="51.0392779000" lon="13.6554094000">
11632 <ele>237.4</ele>
11633 <time>2012-09-10T12:44:38Z</time>
11634 <course>84.0</course>
11635 <speed>15.23</speed>
11636 </trkpt>
11637 <trkpt lat="51.0392893833" lon="13.6556203000">
11638 <ele>237.5</ele>
11639 <time>2012-09-10T12:44:40Z</time>
11640 <course>83.0</course>
11641 <speed>15.12</speed>
11642 </trkpt>
11643 <trkpt lat="51.0393089833" lon="13.6558400833">
11644 <ele>237.4</ele>
11645 <time>2012-09-10T12:44:41Z</time>
11646 <course>82.0</course>
11647 <speed>15.12</speed>
11648 </trkpt>
11649 <trkpt lat="51.0393295000" lon="13.6560552333">
11650 <ele>237.4</ele>
11651 <time>2012-09-10T12:44:42Z</time>
11652 <course>82.0</course>
11653 <speed>15.18</speed>
11654 </trkpt>
11655 <trkpt lat="51.0393475333" lon="13.6562769333">
11656 <ele>236.8</ele>
11657 <time>2012-09-10T12:44:43Z</time>
11658 <course>82.0</course>
11659 <speed>15.28</speed>
11660 </trkpt>
11661 <trkpt lat="51.0393560833" lon="13.6564923500">
11662 <ele>236.4</ele>
11663 <time>2012-09-10T12:44:43Z</time>
11664 <course>83.0</course>
11665 <speed>15.07</speed>
11666 </trkpt>
11667 <trkpt lat="51.0393854667" lon="13.6567098000">
11668 <ele>236.2</ele>
11669 <time>2012-09-10T12:44:44Z</time>
11670 <course>81.0</course>
11671 <speed>15.12</speed>
11672 </trkpt>
11673 <trkpt lat="51.0394163333" lon="13.6569134833">
11674 <ele>236.0</ele>
11675 <time>2012-09-10T12:44:45Z</time>
11676 <course>78.0</course>
11677 <speed>14.92</speed>
11678 </trkpt>
11679 <trkpt lat="51.0394762167" lon="13.6571116000">
11680 <ele>235.5</ele>
11681 <time>2012-09-10T12:44:47Z</time>
11682 <course>73.0</course>
11683 <speed>14.76</speed>
11684 </trkpt>
11685 <trkpt lat="51.0395370833" lon="13.6572965333">
11686 <ele>235.1</ele>
11687 <time>2012-09-10T12:44:48Z</time>
11688 <course>70.0</course>
11689 <speed>14.97</speed>
11690 </trkpt>
11691 <trkpt lat="51.0395842667" lon="13.6575091500">
11692 <ele>234.8</ele>
11693 <time>2012-09-10T12:44:49Z</time>
11694 <course>70.0</course>
11695 <speed>15.12</speed>
11696 </trkpt>
11697 <trkpt lat="51.0396383500" lon="13.6577069000">
11698 <ele>234.4</ele>
11699 <time>2012-09-10T12:44:49Z</time>
11700 <course>68.0</course>
11701 <speed>15.18</speed>
11702 </trkpt>
11703 <trkpt lat="51.0396856000" lon="13.6579059333">
11704 <ele>233.6</ele>
11705 <time>2012-09-10T12:44:50Z</time>
11706 <course>69.0</course>
11707 <speed>15.33</speed>
11708 </trkpt>
11709 <trkpt lat="51.0397259667" lon="13.6580964333">
11710 <ele>233.4</ele>
11711 <time>2012-09-10T12:44:51Z</time>
11712 <course>69.0</course>
11713 <speed>15.12</speed>
11714 </trkpt>
11715 <trkpt lat="51.0397800167" lon="13.6583057167">
11716 <ele>233.2</ele>
11717 <time>2012-09-10T12:44:53Z</time>
11718 <course>70.0</course>
11719 <speed>15.43</speed>
11720 </trkpt>
11721 <trkpt lat="51.0398202167" lon="13.6585115000">
11722 <ele>233.3</ele>
11723 <time>2012-09-10T12:44:54Z</time>
11724 <course>71.0</course>
11725 <speed>15.48</speed>
11726 </trkpt>
11727 <trkpt lat="51.0398591333" lon="13.6587104000">
11728 <ele>233.2</ele>
11729 <time>2012-09-10T12:44:55Z</time>
11730 <course>72.0</course>
11731 <speed>14.92</speed>
11732 </trkpt>
11733 <trkpt lat="51.0399011167" lon="13.6589184000">
11734 <ele>232.8</ele>
11735 <time>2012-09-10T12:44:56Z</time>
11736 <course>73.0</course>
11737 <speed>14.61</speed>
11738 </trkpt>
11739 <trkpt lat="51.0399280333" lon="13.6591131500">
11740 <ele>232.3</ele>
11741 <time>2012-09-10T12:44:56Z</time>
11742 <course>74.0</course>
11743 <speed>14.46</speed>
11744 </trkpt>
11745 <trkpt lat="51.0399518000" lon="13.6593219833">
11746 <ele>231.6</ele>
11747 <time>2012-09-10T12:44:57Z</time>
11748 <course>76.0</course>
11749 <speed>14.40</speed>
11750 </trkpt>
11751 <trkpt lat="51.0399843500" lon="13.6595269500">
11752 <ele>230.6</ele>
11753 <time>2012-09-10T12:44:59Z</time>
11754 <course>76.0</course>
11755 <speed>14.30</speed>
11756 </trkpt>
11757 <trkpt lat="51.0399966333" lon="13.6597097167">
11758 <ele>230.3</ele>
11759 <time>2012-09-10T12:45:00Z</time>
11760 <course>79.0</course>
11761 <speed>13.63</speed>
11762 </trkpt>
11763 <trkpt lat="51.0400091000" lon="13.6599150833">
11764 <ele>229.6</ele>
11765 <time>2012-09-10T12:45:01Z</time>
11766 <course>81.0</course>
11767 <speed>13.53</speed>
11768 </trkpt>
11769 <trkpt lat="51.0400371833" lon="13.6601057833">
11770 <ele>229.1</ele>
11771 <time>2012-09-10T12:45:02Z</time>
11772 <course>82.0</course>
11773 <speed>13.58</speed>
11774 </trkpt>
11775 <trkpt lat="51.0400557333" lon="13.6602971500">
11776 <ele>228.6</ele>
11777 <time>2012-09-10T12:45:02Z</time>
11778 <course>83.0</course>
11779 <speed>13.63</speed>
11780 </trkpt>
11781 <trkpt lat="51.0400589167" lon="13.6604795333">
11782 <ele>228.4</ele>
11783 <time>2012-09-10T12:45:03Z</time>
11784 <course>85.0</course>
11785 <speed>13.22</speed>
11786 </trkpt>
11787 <trkpt lat="51.0400745000" lon="13.6606779500">
11788 <ele>227.5</ele>
11789 <time>2012-09-10T12:45:04Z</time>
11790 <course>86.0</course>
11791 <speed>13.38</speed>
11792 </trkpt>
11793 <trkpt lat="51.0400851333" lon="13.6608695833">
11794 <ele>226.9</ele>
11795 <time>2012-09-10T12:45:06Z</time>
11796 <course>88.0</course>
11797 <speed>13.38</speed>
11798 </trkpt>
11799 <trkpt lat="51.0400920667" lon="13.6610673667">
11800 <ele>226.9</ele>
11801 <time>2012-09-10T12:45:07Z</time>
11802 <course>88.0</course>
11803 <speed>13.12</speed>
11804 </trkpt>
11805 <trkpt lat="51.0400950833" lon="13.6612730500">
11806 <ele>226.7</ele>
11807 <time>2012-09-10T12:45:08Z</time>
11808 <course>89.0</course>
11809 <speed>13.27</speed>
11810 </trkpt>
11811 <trkpt lat="51.0401037667" lon="13.6614720000">
11812 <ele>225.4</ele>
11813 <time>2012-09-10T12:45:08Z</time>
11814 <course>90.0</course>
11815 <speed>13.43</speed>
11816 </trkpt>
11817 <trkpt lat="51.0401022167" lon="13.6616737000">
11818 <ele>224.7</ele>
11819 <time>2012-09-10T12:45:09Z</time>
11820 <course>91.0</course>
11821 <speed>13.68</speed>
11822 </trkpt>
11823 <trkpt lat="51.0400870667" lon="13.6618666000">
11824 <ele>224.5</ele>
11825 <time>2012-09-10T12:45:10Z</time>
11826 <course>91.0</course>
11827 <speed>13.74</speed>
11828 </trkpt>
11829 <trkpt lat="51.0400875833" lon="13.6620654833">
11830 <ele>224.2</ele>
11831 <time>2012-09-10T12:45:12Z</time>
11832 <course>91.0</course>
11833 <speed>13.84</speed>
11834 </trkpt>
11835 <trkpt lat="51.0400919333" lon="13.6622514833">
11836 <ele>224.1</ele>
11837 <time>2012-09-10T12:45:13Z</time>
11838 <course>90.0</course>
11839 <speed>13.79</speed>
11840 </trkpt>
11841 <trkpt lat="51.0400901500" lon="13.6624418833">
11842 <ele>223.4</ele>
11843 <time>2012-09-10T12:45:14Z</time>
11844 <course>90.0</course>
11845 <speed>13.84</speed>
11846 </trkpt>
11847 <trkpt lat="51.0400961333" lon="13.6626572000">
11848 <ele>222.9</ele>
11849 <time>2012-09-10T12:45:15Z</time>
11850 <course>89.0</course>
11851 <speed>13.89</speed>
11852 </trkpt>
11853 <trkpt lat="51.0401063333" lon="13.6628400667">
11854 <ele>222.9</ele>
11855 <time>2012-09-10T12:45:15Z</time>
11856 <course>90.0</course>
11857 <speed>13.84</speed>
11858 </trkpt>
11859 <trkpt lat="51.0401143500" lon="13.6630202500">
11860 <ele>222.3</ele>
11861 <time>2012-09-10T12:45:16Z</time>
11862 <course>90.0</course>
11863 <speed>14.10</speed>
11864 </trkpt>
11865 <trkpt lat="51.0401135500" lon="13.6632206333">
11866 <ele>221.8</ele>
11867 <time>2012-09-10T12:45:17Z</time>
11868 <course>91.0</course>
11869 <speed>14.25</speed>
11870 </trkpt>
11871 <trkpt lat="51.0400989167" lon="13.6634248000">
11872 <ele>221.8</ele>
11873 <time>2012-09-10T12:45:19Z</time>
11874 <course>91.0</course>
11875 <speed>14.30</speed>
11876 </trkpt>
11877 <trkpt lat="51.0400961000" lon="13.6636413500">
11878 <ele>222.0</ele>
11879 <time>2012-09-10T12:45:20Z</time>
11880 <course>91.0</course>
11881 <speed>14.40</speed>
11882 </trkpt>
11883 <trkpt lat="51.0400921333" lon="13.6638445667">
11884 <ele>222.1</ele>
11885 <time>2012-09-10T12:45:21Z</time>
11886 <course>91.0</course>
11887 <speed>14.25</speed>
11888 </trkpt>
11889 <trkpt lat="51.0400804667" lon="13.6640626167">
11890 <ele>221.8</ele>
11891 <time>2012-09-10T12:45:21Z</time>
11892 <course>91.0</course>
11893 <speed>14.35</speed>
11894 </trkpt>
11895 <trkpt lat="51.0400848167" lon="13.6642725333">
11896 <ele>221.6</ele>
11897 <time>2012-09-10T12:45:22Z</time>
11898 <course>91.0</course>
11899 <speed>14.46</speed>
11900 </trkpt>
11901 <trkpt lat="51.0400802000" lon="13.6644833833">
11902 <ele>221.3</ele>
11903 <time>2012-09-10T12:45:23Z</time>
11904 <course>90.0</course>
11905 <speed>14.46</speed>
11906 </trkpt>
11907 <trkpt lat="51.0400891167" lon="13.6646578500">
11908 <ele>220.6</ele>
11909 <time>2012-09-10T12:45:25Z</time>
11910 <course>90.0</course>
11911 <speed>14.30</speed>
11912 </trkpt>
11913 <trkpt lat="51.0401034333" lon="13.6648494667">
11914 <ele>220.4</ele>
11915 <time>2012-09-10T12:45:26Z</time>
11916 <course>88.0</course>
11917 <speed>14.10</speed>
11918 </trkpt>
11919 <trkpt lat="51.0400967000" lon="13.6650713500">
11920 <ele>219.6</ele>
11921 <time>2012-09-10T12:45:27Z</time>
11922 <course>89.0</course>
11923 <speed>14.35</speed>
11924 </trkpt>
11925 <trkpt lat="51.0400906667" lon="13.6652983833">
11926 <ele>219.0</ele>
11927 <time>2012-09-10T12:45:27Z</time>
11928 <course>90.0</course>
11929 <speed>14.76</speed>
11930 </trkpt>
11931 <trkpt lat="51.0400999833" lon="13.6655167667">
11932 <ele>218.0</ele>
11933 <time>2012-09-10T12:45:28Z</time>
11934 <course>89.0</course>
11935 <speed>14.51</speed>
11936 </trkpt>
11937 <trkpt lat="51.0400995833" lon="13.6657200833">
11938 <ele>217.6</ele>
11939 <time>2012-09-10T12:45:29Z</time>
11940 <course>90.0</course>
11941 <speed>14.82</speed>
11942 </trkpt>
11943 <trkpt lat="51.0400688500" lon="13.6659569667">
11944 <ele>216.8</ele>
11945 <time>2012-09-10T12:45:31Z</time>
11946 <course>91.0</course>
11947 <speed>15.12</speed>
11948 </trkpt>
11949 <trkpt lat="51.0400647167" lon="13.6661636167">
11950 <ele>216.6</ele>
11951 <time>2012-09-10T12:45:32Z</time>
11952 <course>91.0</course>
11953 <speed>15.02</speed>
11954 </trkpt>
11955 <trkpt lat="51.0400782333" lon="13.6663818500">
11956 <ele>216.4</ele>
11957 <time>2012-09-10T12:45:33Z</time>
11958 <course>90.0</course>
11959 <speed>15.02</speed>
11960 </trkpt>
11961 <trkpt lat="51.0400904000" lon="13.6666021667">
11962 <ele>216.4</ele>
11963 <time>2012-09-10T12:45:34Z</time>
11964 <course>89.0</course>
11965 <speed>15.18</speed>
11966 </trkpt>
11967 <trkpt lat="51.0400971667" lon="13.6668035667">
11968 <ele>216.1</ele>
11969 <time>2012-09-10T12:45:34Z</time>
11970 <course>89.0</course>
11971 <speed>14.76</speed>
11972 </trkpt>
11973 <trkpt lat="51.0400905000" lon="13.6670101167">
11974 <ele>216.0</ele>
11975 <time>2012-09-10T12:45:35Z</time>
11976 <course>90.0</course>
11977 <speed>14.51</speed>
11978 </trkpt>
11979 <trkpt lat="51.0400603500" lon="13.6672275000">
11980 <ele>214.3</ele>
11981 <time>2012-09-10T12:45:36Z</time>
11982 <course>91.0</course>
11983 <speed>14.40</speed>
11984 </trkpt>
11985 <trkpt lat="51.0400209833" lon="13.6674460833">
11986 <ele>211.9</ele>
11987 <time>2012-09-10T12:45:38Z</time>
11988 <course>92.0</course>
11989 <speed>14.35</speed>
11990 </trkpt>
11991 <trkpt lat="51.0400143667" lon="13.6676575167">
11992 <ele>211.5</ele>
11993 <time>2012-09-10T12:45:39Z</time>
11994 <course>92.0</course>
11995 <speed>14.04</speed>
11996 </trkpt>
11997 <trkpt lat="51.0399880167" lon="13.6678769833">
11998 <ele>209.9</ele>
11999 <time>2012-09-10T12:45:40Z</time>
12000 <course>92.0</course>
12001 <speed>13.99</speed>
12002 </trkpt>
12003 <trkpt lat="51.0399884333" lon="13.6680671500">
12004 <ele>209.5</ele>
12005 <time>2012-09-10T12:45:40Z</time>
12006 <course>91.0</course>
12007 <speed>13.63</speed>
12008 </trkpt>
12009 <trkpt lat="51.0399844333" lon="13.6682544667">
12010 <ele>209.4</ele>
12011 <time>2012-09-10T12:45:41Z</time>
12012 <course>90.0</course>
12013 <speed>13.32</speed>
12014 </trkpt>
12015 <trkpt lat="51.0399824333" lon="13.6684522167">
12016 <ele>209.6</ele>
12017 <time>2012-09-10T12:45:42Z</time>
12018 <course>90.0</course>
12019 <speed>13.43</speed>
12020 </trkpt>
12021 <trkpt lat="51.0399819000" lon="13.6686377833">
12022 <ele>209.1</ele>
12023 <time>2012-09-10T12:45:44Z</time>
12024 <course>91.0</course>
12025 <speed>13.27</speed>
12026 </trkpt>
12027 <trkpt lat="51.0399948000" lon="13.6688155167">
12028 <ele>208.6</ele>
12029 <time>2012-09-10T12:45:45Z</time>
12030 <course>89.0</course>
12031 <speed>13.58</speed>
12032 </trkpt>
12033 <trkpt lat="51.0400092333" lon="13.6690036667">
12034 <ele>208.1</ele>
12035 <time>2012-09-10T12:45:46Z</time>
12036 <course>88.0</course>
12037 <speed>13.48</speed>
12038 </trkpt>
12039 <trkpt lat="51.0400174833" lon="13.6691814167">
12040 <ele>208.2</ele>
12041 <time>2012-09-10T12:45:46Z</time>
12042 <course>87.0</course>
12043 <speed>13.32</speed>
12044 </trkpt>
12045 <trkpt lat="51.0400292000" lon="13.6693751333">
12046 <ele>207.5</ele>
12047 <time>2012-09-10T12:45:47Z</time>
12048 <course>86.0</course>
12049 <speed>13.58</speed>
12050 </trkpt>
12051 <trkpt lat="51.0400433667" lon="13.6695642833">
12052 <ele>207.0</ele>
12053 <time>2012-09-10T12:45:48Z</time>
12054 <course>85.0</course>
12055 <speed>13.63</speed>
12056 </trkpt>
12057 <trkpt lat="51.0400607500" lon="13.6697536500">
12058 <ele>206.5</ele>
12059 <time>2012-09-10T12:45:50Z</time>
12060 <course>85.0</course>
12061 <speed>13.84</speed>
12062 </trkpt>
12063 <trkpt lat="51.0400722000" lon="13.6699472000">
12064 <ele>206.5</ele>
12065 <time>2012-09-10T12:45:51Z</time>
12066 <course>85.0</course>
12067 <speed>13.79</speed>
12068 </trkpt>
12069 <trkpt lat="51.0400835333" lon="13.6701508167">
12070 <ele>206.2</ele>
12071 <time>2012-09-10T12:45:52Z</time>
12072 <course>85.0</course>
12073 <speed>13.89</speed>
12074 </trkpt>
12075 <trkpt lat="51.0400948333" lon="13.6703584000">
12076 <ele>206.0</ele>
12077 <time>2012-09-10T12:45:53Z</time>
12078 <course>84.0</course>
12079 <speed>14.15</speed>
12080 </trkpt>
12081 <trkpt lat="51.0400951000" lon="13.6705770000">
12082 <ele>204.6</ele>
12083 <time>2012-09-10T12:45:53Z</time>
12084 <course>85.0</course>
12085 <speed>14.20</speed>
12086 </trkpt>
12087 <trkpt lat="51.0401209667" lon="13.6707774667">
12088 <ele>204.4</ele>
12089 <time>2012-09-10T12:45:54Z</time>
12090 <course>83.0</course>
12091 <speed>14.40</speed>
12092 </trkpt>
12093 <trkpt lat="51.0401354667" lon="13.6710015000">
12094 <ele>203.4</ele>
12095 <time>2012-09-10T12:45:55Z</time>
12096 <course>82.0</course>
12097 <speed>14.92</speed>
12098 </trkpt>
12099 <trkpt lat="51.0401662333" lon="13.6712149833">
12100 <ele>203.1</ele>
12101 <time>2012-09-10T12:45:57Z</time>
12102 <course>82.0</course>
12103 <speed>15.33</speed>
12104 </trkpt>
12105 <trkpt lat="51.0401879167" lon="13.6714309500">
12106 <ele>203.0</ele>
12107 <time>2012-09-10T12:45:58Z</time>
12108 <course>81.0</course>
12109 <speed>15.12</speed>
12110 </trkpt>
12111 <trkpt lat="51.0401989833" lon="13.6716237833">
12112 <ele>202.7</ele>
12113 <time>2012-09-10T12:45:59Z</time>
12114 <course>81.0</course>
12115 <speed>14.20</speed>
12116 </trkpt>
12117 <trkpt lat="51.0402014500" lon="13.6718295833">
12118 <ele>200.9</ele>
12119 <time>2012-09-10T12:45:59Z</time>
12120 <course>80.0</course>
12121 <speed>13.53</speed>
12122 </trkpt>
12123 <trkpt lat="51.0402300667" lon="13.6720109500">
12124 <ele>200.3</ele>
12125 <time>2012-09-10T12:46:00Z</time>
12126 <course>80.0</course>
12127 <speed>12.81</speed>
12128 </trkpt>
12129 <trkpt lat="51.0402479500" lon="13.6721827667">
12130 <ele>199.7</ele>
12131 <time>2012-09-10T12:46:01Z</time>
12132 <course>80.0</course>
12133 <speed>12.50</speed>
12134 </trkpt>
12135 <trkpt lat="51.0402698000" lon="13.6723572000">
12136 <ele>198.9</ele>
12137 <time>2012-09-10T12:46:03Z</time>
12138 <course>79.0</course>
12139 <speed>12.55</speed>
12140 </trkpt>
12141 <trkpt lat="51.0403067333" lon="13.6725486000">
12142 <ele>198.4</ele>
12143 <time>2012-09-10T12:46:04Z</time>
12144 <course>78.0</course>
12145 <speed>12.55</speed>
12146 </trkpt>
12147 <trkpt lat="51.0403357167" lon="13.6727131667">
12148 <ele>198.0</ele>
12149 <time>2012-09-10T12:46:05Z</time>
12150 <course>76.0</course>
12151 <speed>12.14</speed>
12152 </trkpt>
12153 <trkpt lat="51.0403641333" lon="13.6728888333">
12154 <ele>198.0</ele>
12155 <time>2012-09-10T12:46:06Z</time>
12156 <course>75.0</course>
12157 <speed>12.24</speed>
12158 </trkpt>
12159 <trkpt lat="51.0403941500" lon="13.6730625833">
12160 <ele>198.0</ele>
12161 <time>2012-09-10T12:46:06Z</time>
12162 <course>75.0</course>
12163 <speed>12.29</speed>
12164 </trkpt>
12165 <trkpt lat="51.0404216333" lon="13.6732132500">
12166 <ele>198.0</ele>
12167 <time>2012-09-10T12:46:07Z</time>
12168 <course>74.0</course>
12169 <speed>12.24</speed>
12170 </trkpt>
12171 <trkpt lat="51.0404608833" lon="13.6733808333">
12172 <ele>197.2</ele>
12173 <time>2012-09-10T12:46:09Z</time>
12174 <course>72.0</course>
12175 <speed>12.45</speed>
12176 </trkpt>
12177 <trkpt lat="51.0405346667" lon="13.6735416667">
12178 <ele>195.7</ele>
12179 <time>2012-09-10T12:46:10Z</time>
12180 <course>67.0</course>
12181 <speed>12.91</speed>
12182 </trkpt>
12183 <trkpt lat="51.0405888500" lon="13.6737023000">
12184 <ele>194.2</ele>
12185 <time>2012-09-10T12:46:11Z</time>
12186 <course>66.0</course>
12187 <speed>12.96</speed>
12188 </trkpt>
12189 <trkpt lat="51.0406428000" lon="13.6738772167">
12190 <ele>192.1</ele>
12191 <time>2012-09-10T12:46:12Z</time>
12192 <course>64.0</course>
12193 <speed>13.22</speed>
12194 </trkpt>
12195 <trkpt lat="51.0406924333" lon="13.6740592667">
12196 <ele>191.1</ele>
12197 <time>2012-09-10T12:46:12Z</time>
12198 <course>63.0</course>
12199 <speed>13.58</speed>
12200 </trkpt>
12201 <trkpt lat="51.0407497667" lon="13.6742295500">
12202 <ele>188.4</ele>
12203 <time>2012-09-10T12:46:13Z</time>
12204 <course>59.0</course>
12205 <speed>13.79</speed>
12206 </trkpt>
12207 <trkpt lat="51.0408158500" lon="13.6743983833">
12208 <ele>186.2</ele>
12209 <time>2012-09-10T12:46:14Z</time>
12210 <course>59.0</course>
12211 <speed>13.84</speed>
12212 </trkpt>
12213 <trkpt lat="51.0408869500" lon="13.6745610500">
12214 <ele>185.0</ele>
12215 <time>2012-09-10T12:46:16Z</time>
12216 <course>58.0</course>
12217 <speed>13.63</speed>
12218 </trkpt>
12219 <trkpt lat="51.0409570000" lon="13.6747159167">
12220 <ele>184.2</ele>
12221 <time>2012-09-10T12:46:17Z</time>
12222 <course>57.0</course>
12223 <speed>13.17</speed>
12224 </trkpt>
12225 <trkpt lat="51.0410265167" lon="13.6748710167">
12226 <ele>182.8</ele>
12227 <time>2012-09-10T12:46:18Z</time>
12228 <course>55.0</course>
12229 <speed>12.96</speed>
12230 </trkpt>
12231 <trkpt lat="51.0410972833" lon="13.6750097333">
12232 <ele>181.3</ele>
12233 <time>2012-09-10T12:46:18Z</time>
12234 <course>55.0</course>
12235 <speed>12.60</speed>
12236 </trkpt>
12237 <trkpt lat="51.0411547333" lon="13.6751662000">
12238 <ele>180.9</ele>
12239 <time>2012-09-10T12:46:19Z</time>
12240 <course>56.0</course>
12241 <speed>12.29</speed>
12242 </trkpt>
12243 <trkpt lat="51.0412228833" lon="13.6753075333">
12244 <ele>180.2</ele>
12245 <time>2012-09-10T12:46:20Z</time>
12246 <course>56.0</course>
12247 <speed>12.14</speed>
12248 </trkpt>
12249 <trkpt lat="51.0412879333" lon="13.6754622167">
12250 <ele>180.0</ele>
12251 <time>2012-09-10T12:46:22Z</time>
12252 <course>55.0</course>
12253 <speed>12.35</speed>
12254 </trkpt>
12255 <trkpt lat="51.0413574500" lon="13.6756183333">
12256 <ele>179.5</ele>
12257 <time>2012-09-10T12:46:23Z</time>
12258 <course>55.0</course>
12259 <speed>12.45</speed>
12260 </trkpt>
12261 <trkpt lat="51.0414244000" lon="13.6757663833">
12262 <ele>178.7</ele>
12263 <time>2012-09-10T12:46:24Z</time>
12264 <course>55.0</course>
12265 <speed>12.55</speed>
12266 </trkpt>
12267 <trkpt lat="51.0414904167" lon="13.6759113167">
12268 <ele>177.1</ele>
12269 <time>2012-09-10T12:46:25Z</time>
12270 <course>56.0</course>
12271 <speed>12.40</speed>
12272 </trkpt>
12273 <trkpt lat="51.0415629000" lon="13.6760667500">
12274 <ele>176.0</ele>
12275 <time>2012-09-10T12:46:25Z</time>
12276 <course>56.0</course>
12277 <speed>12.66</speed>
12278 </trkpt>
12279 <trkpt lat="51.0416291333" lon="13.6762140833">
12280 <ele>174.1</ele>
12281 <time>2012-09-10T12:46:26Z</time>
12282 <course>56.0</course>
12283 <speed>12.66</speed>
12284 </trkpt>
12285 <trkpt lat="51.0416978833" lon="13.6763739500">
12286 <ele>173.1</ele>
12287 <time>2012-09-10T12:46:27Z</time>
12288 <course>57.0</course>
12289 <speed>12.86</speed>
12290 </trkpt>
12291 <trkpt lat="51.0417627333" lon="13.6765318833">
12292 <ele>172.6</ele>
12293 <time>2012-09-10T12:46:29Z</time>
12294 <course>57.0</course>
12295 <speed>13.07</speed>
12296 </trkpt>
12297 <trkpt lat="51.0418153333" lon="13.6766860167">
12298 <ele>172.2</ele>
12299 <time>2012-09-10T12:46:30Z</time>
12300 <course>57.0</course>
12301 <speed>13.27</speed>
12302 </trkpt>
12303 <trkpt lat="51.0418823000" lon="13.6768494500">
12304 <ele>171.6</ele>
12305 <time>2012-09-10T12:46:31Z</time>
12306 <course>57.0</course>
12307 <speed>13.32</speed>
12308 </trkpt>
12309 <trkpt lat="51.0419479833" lon="13.6770153333">
12310 <ele>170.9</ele>
12311 <time>2012-09-10T12:46:31Z</time>
12312 <course>57.0</course>
12313 <speed>13.53</speed>
12314 </trkpt>
12315 <trkpt lat="51.0420124500" lon="13.6772002333">
12316 <ele>169.9</ele>
12317 <time>2012-09-10T12:46:32Z</time>
12318 <course>58.0</course>
12319 <speed>13.89</speed>
12320 </trkpt>
12321 <trkpt lat="51.0420736167" lon="13.6773889500">
12322 <ele>168.4</ele>
12323 <time>2012-09-10T12:46:33Z</time>
12324 <course>61.0</course>
12325 <speed>14.04</speed>
12326 </trkpt>
12327 <trkpt lat="51.0421278000" lon="13.6775719500">
12328 <ele>168.0</ele>
12329 <time>2012-09-10T12:46:35Z</time>
12330 <course>63.0</course>
12331 <speed>14.15</speed>
12332 </trkpt>
12333 <trkpt lat="51.0421706500" lon="13.6777583833">
12334 <ele>168.0</ele>
12335 <time>2012-09-10T12:46:36Z</time>
12336 <course>68.0</course>
12337 <speed>14.20</speed>
12338 </trkpt>
12339 <trkpt lat="51.0422108333" lon="13.6779481500">
12340 <ele>168.1</ele>
12341 <time>2012-09-10T12:46:37Z</time>
12342 <course>71.0</course>
12343 <speed>14.35</speed>
12344 </trkpt>
12345 <trkpt lat="51.0422226667" lon="13.6781495167">
12346 <ele>166.9</ele>
12347 <time>2012-09-10T12:46:37Z</time>
12348 <course>76.0</course>
12349 <speed>14.40</speed>
12350 </trkpt>
12351 <trkpt lat="51.0422319333" lon="13.6783731167">
12352 <ele>166.1</ele>
12353 <time>2012-09-10T12:46:38Z</time>
12354 <course>80.0</course>
12355 <speed>14.61</speed>
12356 </trkpt>
12357 <trkpt lat="51.0422416667" lon="13.6785657833">
12358 <ele>166.7</ele>
12359 <time>2012-09-10T12:46:39Z</time>
12360 <course>82.0</course>
12361 <speed>14.46</speed>
12362 </trkpt>
12363 <trkpt lat="51.0422516167" lon="13.6787771333">
12364 <ele>165.9</ele>
12365 <time>2012-09-10T12:46:41Z</time>
12366 <course>84.0</course>
12367 <speed>14.30</speed>
12368 </trkpt>
12369 <trkpt lat="51.0422614333" lon="13.6789751833">
12370 <ele>165.6</ele>
12371 <time>2012-09-10T12:46:42Z</time>
12372 <course>84.0</course>
12373 <speed>14.15</speed>
12374 </trkpt>
12375 <trkpt lat="51.0422651833" lon="13.6791641833">
12376 <ele>165.3</ele>
12377 <time>2012-09-10T12:46:43Z</time>
12378 <course>84.0</course>
12379 <speed>14.20</speed>
12380 </trkpt>
12381 <trkpt lat="51.0422718500" lon="13.6793584000">
12382 <ele>164.6</ele>
12383 <time>2012-09-10T12:46:44Z</time>
12384 <course>84.0</course>
12385 <speed>14.20</speed>
12386 </trkpt>
12387 <trkpt lat="51.0422928500" lon="13.6795614167">
12388 <ele>164.6</ele>
12389 <time>2012-09-10T12:46:44Z</time>
12390 <course>84.0</course>
12391 <speed>14.35</speed>
12392 </trkpt>
12393 <trkpt lat="51.0423074500" lon="13.6797642000">
12394 <ele>163.4</ele>
12395 <time>2012-09-10T12:46:45Z</time>
12396 <course>84.0</course>
12397 <speed>14.30</speed>
12398 </trkpt>
12399 <trkpt lat="51.0423190000" lon="13.6799627333">
12400 <ele>162.7</ele>
12401 <time>2012-09-10T12:46:46Z</time>
12402 <course>85.0</course>
12403 <speed>14.30</speed>
12404 </trkpt>
12405 <trkpt lat="51.0423299333" lon="13.6801629667">
12406 <ele>162.5</ele>
12407 <time>2012-09-10T12:46:48Z</time>
12408 <course>87.0</course>
12409 <speed>14.40</speed>
12410 </trkpt>
12411 <trkpt lat="51.0423326167" lon="13.6803658000">
12412 <ele>162.0</ele>
12413 <time>2012-09-10T12:46:49Z</time>
12414 <course>87.0</course>
12415 <speed>14.35</speed>
12416 </trkpt>
12417 <trkpt lat="51.0423303333" lon="13.6805694667">
12418 <ele>161.2</ele>
12419 <time>2012-09-10T12:46:50Z</time>
12420 <course>88.0</course>
12421 <speed>14.30</speed>
12422 </trkpt>
12423 <trkpt lat="51.0423292000" lon="13.6807636000">
12424 <ele>160.9</ele>
12425 <time>2012-09-10T12:46:50Z</time>
12426 <course>87.0</course>
12427 <speed>13.89</speed>
12428 </trkpt>
12429 <trkpt lat="51.0423405833" lon="13.6809639000">
12430 <ele>160.5</ele>
12431 <time>2012-09-10T12:46:51Z</time>
12432 <course>87.0</course>
12433 <speed>13.74</speed>
12434 </trkpt>
12435 <trkpt lat="51.0423424667" lon="13.6811349500">
12436 <ele>160.3</ele>
12437 <time>2012-09-10T12:46:52Z</time>
12438 <course>87.0</course>
12439 <speed>12.60</speed>
12440 </trkpt>
12441 <trkpt lat="51.0423444167" lon="13.6812907000">
12442 <ele>160.0</ele>
12443 <time>2012-09-10T12:46:54Z</time>
12444 <course>88.0</course>
12445 <speed>11.37</speed>
12446 </trkpt>
12447 <trkpt lat="51.0423502333" lon="13.6814285333">
12448 <ele>160.4</ele>
12449 <time>2012-09-10T12:46:55Z</time>
12450 <course>87.0</course>
12451 <speed>10.19</speed>
12452 </trkpt>
12453 <trkpt lat="51.0423462000" lon="13.6815373833">
12454 <ele>160.2</ele>
12455 <time>2012-09-10T12:46:56Z</time>
12456 <course>88.0</course>
12457 <speed>8.64</speed>
12458 </trkpt>
12459 <trkpt lat="51.0423448000" lon="13.6816076167">
12460 <ele>159.8</ele>
12461 <time>2012-09-10T12:46:57Z</time>
12462 <course>88.0</course>
12463 <speed>6.22</speed>
12464 </trkpt>
12465 <trkpt lat="51.0423564833" lon="13.6816736167">
12466 <ele>159.5</ele>
12467 <time>2012-09-10T12:46:57Z</time>
12468 <course>84.0</course>
12469 <speed>4.73</speed>
12470 </trkpt>
12471 <trkpt lat="51.0423598833" lon="13.6817292167">
12472 <ele>158.9</ele>
12473 <time>2012-09-10T12:46:58Z</time>
12474 <course>84.0</course>
12475 <speed>4.06</speed>
12476 </trkpt>
12477 <trkpt lat="51.0423618833" lon="13.6817845000">
12478 <ele>158.3</ele>
12479 <time>2012-09-10T12:47:00Z</time>
12480 <course>87.0</course>
12481 <speed>3.55</speed>
12482 </trkpt>
12483 <trkpt lat="51.0423670000" lon="13.6818199667">
12484 <ele>157.4</ele>
12485 <time>2012-09-10T12:47:01Z</time>
12486 <course>91.0</course>
12487 <speed>2.21</speed>
12488 </trkpt>
12489 <trkpt lat="51.0423787667" lon="13.6818623556">
12490 <ele>155.8</ele>
12491 <time>2012-09-10T12:47:03Z</time>
12492 <course>92.0</course>
12493 <speed>0.00</speed>
12494 </trkpt>
12495 <trkpt lat="51.0423787667" lon="13.6818623556">
12496 <ele>155.8</ele>
12497 <time>2012-09-10T12:47:04Z</time>
12498 <course>92.0</course>
12499 <speed>0.00</speed>
12500 </trkpt>
12501 <trkpt lat="51.0423794231" lon="13.6818685103">
12502 <ele>155.8</ele>
12503 <time>2012-09-10T12:47:07Z</time>
12504 <course>92.0</course>
12505 <speed>0.00</speed>
12506 </trkpt>
12507 <trkpt lat="51.0423794231" lon="13.6818685103">
12508 <ele>155.8</ele>
12509 <time>2012-09-10T12:47:18Z</time>
12510 <course>92.0</course>
12511 <speed>0.00</speed>
12512 </trkpt>
12513 <trkpt lat="51.0423818000" lon="13.6818852833">
12514 <ele>154.2</ele>
12515 <time>2012-09-10T12:47:20Z</time>
12516 <course>92.0</course>
12517 <speed>1.29</speed>
12518 </trkpt>
12519 <trkpt lat="51.0423801500" lon="13.6819136667">
12520 <ele>153.8</ele>
12521 <time>2012-09-10T12:47:21Z</time>
12522 <course>93.0</course>
12523 <speed>2.11</speed>
12524 </trkpt>
12525 <trkpt lat="51.0423803500" lon="13.6819689000">
12526 <ele>153.8</ele>
12527 <time>2012-09-10T12:47:22Z</time>
12528 <course>90.0</course>
12529 <speed>3.60</speed>
12530 </trkpt>
12531 <trkpt lat="51.0423874667" lon="13.6820337167">
12532 <ele>153.3</ele>
12533 <time>2012-09-10T12:47:22Z</time>
12534 <course>87.0</course>
12535 <speed>4.58</speed>
12536 </trkpt>
12537 <trkpt lat="51.0423861167" lon="13.6821089500">
12538 <ele>152.7</ele>
12539 <time>2012-09-10T12:47:23Z</time>
12540 <course>87.0</course>
12541 <speed>5.25</speed>
12542 </trkpt>
12543 <trkpt lat="51.0423829000" lon="13.6822100500">
12544 <ele>152.5</ele>
12545 <time>2012-09-10T12:47:24Z</time>
12546 <course>88.0</course>
12547 <speed>6.58</speed>
12548 </trkpt>
12549 <trkpt lat="51.0423911833" lon="13.6823244500">
12550 <ele>152.3</ele>
12551 <time>2012-09-10T12:47:26Z</time>
12552 <course>85.0</course>
12553 <speed>7.87</speed>
12554 </trkpt>
12555 <trkpt lat="51.0424002500" lon="13.6824539167">
12556 <ele>152.2</ele>
12557 <time>2012-09-10T12:47:27Z</time>
12558 <course>86.0</course>
12559 <speed>8.59</speed>
12560 </trkpt>
12561 <trkpt lat="51.0424116000" lon="13.6825695167">
12562 <ele>152.1</ele>
12563 <time>2012-09-10T12:47:28Z</time>
12564 <course>85.0</course>
12565 <speed>8.69</speed>
12566 </trkpt>
12567 <trkpt lat="51.0424167167" lon="13.6826961167">
12568 <ele>151.9</ele>
12569 <time>2012-09-10T12:47:28Z</time>
12570 <course>85.0</course>
12571 <speed>8.64</speed>
12572 </trkpt>
12573 <trkpt lat="51.0424248167" lon="13.6828269500">
12574 <ele>152.1</ele>
12575 <time>2012-09-10T12:47:29Z</time>
12576 <course>87.0</course>
12577 <speed>8.69</speed>
12578 </trkpt>
12579 <trkpt lat="51.0424222500" lon="13.6829576667">
12580 <ele>151.0</ele>
12581 <time>2012-09-10T12:47:30Z</time>
12582 <course>86.0</course>
12583 <speed>8.69</speed>
12584 </trkpt>
12585 <trkpt lat="51.0424244500" lon="13.6830778167">
12586 <ele>150.2</ele>
12587 <time>2012-09-10T12:47:32Z</time>
12588 <course>87.0</course>
12589 <speed>8.85</speed>
12590 </trkpt>
12591 <trkpt lat="51.0424239833" lon="13.6832140833">
12592 <ele>149.8</ele>
12593 <time>2012-09-10T12:47:33Z</time>
12594 <course>88.0</course>
12595 <speed>9.41</speed>
12596 </trkpt>
12597 <trkpt lat="51.0424243667" lon="13.6833605833">
12598 <ele>149.7</ele>
12599 <time>2012-09-10T12:47:34Z</time>
12600 <course>90.0</course>
12601 <speed>9.93</speed>
12602 </trkpt>
12603 <trkpt lat="51.0424258333" lon="13.6835055833">
12604 <ele>149.5</ele>
12605 <time>2012-09-10T12:47:35Z</time>
12606 <course>91.0</course>
12607 <speed>9.98</speed>
12608 </trkpt>
12609 <trkpt lat="51.0424272167" lon="13.6836472333">
12610 <ele>149.3</ele>
12611 <time>2012-09-10T12:47:35Z</time>
12612 <course>92.0</course>
12613 <speed>9.83</speed>
12614 </trkpt>
12615 <trkpt lat="51.0424261167" lon="13.6837873000">
12616 <ele>148.8</ele>
12617 <time>2012-09-10T12:47:36Z</time>
12618 <course>93.0</course>
12619 <speed>9.57</speed>
12620 </trkpt>
12621 <trkpt lat="51.0424215000" lon="13.6839127667">
12622 <ele>148.4</ele>
12623 <time>2012-09-10T12:47:37Z</time>
12624 <course>94.0</course>
12625 <speed>8.75</speed>
12626 </trkpt>
12627 <trkpt lat="51.0424134333" lon="13.6840289167">
12628 <ele>147.9</ele>
12629 <time>2012-09-10T12:47:39Z</time>
12630 <course>93.0</course>
12631 <speed>8.08</speed>
12632 </trkpt>
12633 <trkpt lat="51.0424217000" lon="13.6841367667">
12634 <ele>147.6</ele>
12635 <time>2012-09-10T12:47:40Z</time>
12636 <course>90.0</course>
12637 <speed>7.56</speed>
12638 </trkpt>
12639 <trkpt lat="51.0424149000" lon="13.6842357167">
12640 <ele>147.9</ele>
12641 <time>2012-09-10T12:47:41Z</time>
12642 <course>90.0</course>
12643 <speed>7.36</speed>
12644 </trkpt>
12645 <trkpt lat="51.0424090833" lon="13.6843371167">
12646 <ele>147.7</ele>
12647 <time>2012-09-10T12:47:41Z</time>
12648 <course>92.0</course>
12649 <speed>7.15</speed>
12650 </trkpt>
12651 <trkpt lat="51.0424151333" lon="13.6844349500">
12652 <ele>147.7</ele>
12653 <time>2012-09-10T12:47:42Z</time>
12654 <course>89.0</course>
12655 <speed>7.46</speed>
12656 </trkpt>
12657 <trkpt lat="51.0424208500" lon="13.6845623667">
12658 <ele>147.9</ele>
12659 <time>2012-09-10T12:47:43Z</time>
12660 <course>88.0</course>
12661 <speed>8.59</speed>
12662 </trkpt>
12663 <trkpt lat="51.0424250333" lon="13.6846726167">
12664 <ele>147.5</ele>
12665 <time>2012-09-10T12:47:45Z</time>
12666 <course>88.0</course>
12667 <speed>8.85</speed>
12668 </trkpt>
12669 <trkpt lat="51.0424380333" lon="13.6848031833">
12670 <ele>147.3</ele>
12671 <time>2012-09-10T12:47:46Z</time>
12672 <course>87.0</course>
12673 <speed>9.16</speed>
12674 </trkpt>
12675 <trkpt lat="51.0424536500" lon="13.6849413167">
12676 <ele>147.7</ele>
12677 <time>2012-09-10T12:47:47Z</time>
12678 <course>87.0</course>
12679 <speed>9.41</speed>
12680 </trkpt>
12681 <trkpt lat="51.0424555167" lon="13.6850716500">
12682 <ele>147.1</ele>
12683 <time>2012-09-10T12:47:47Z</time>
12684 <course>87.0</course>
12685 <speed>9.57</speed>
12686 </trkpt>
12687 <trkpt lat="51.0424600833" lon="13.6852134000">
12688 <ele>147.0</ele>
12689 <time>2012-09-10T12:47:48Z</time>
12690 <course>87.0</course>
12691 <speed>9.98</speed>
12692 </trkpt>
12693 <trkpt lat="51.0424544333" lon="13.6853607500">
12694 <ele>146.6</ele>
12695 <time>2012-09-10T12:47:49Z</time>
12696 <course>90.0</course>
12697 <speed>10.44</speed>
12698 </trkpt>
12699 <trkpt lat="51.0424511167" lon="13.6855152667">
12700 <ele>146.4</ele>
12701 <time>2012-09-10T12:47:51Z</time>
12702 <course>91.0</course>
12703 <speed>10.34</speed>
12704 </trkpt>
12705 <trkpt lat="51.0424546167" lon="13.6856684500">
12706 <ele>145.8</ele>
12707 <time>2012-09-10T12:47:52Z</time>
12708 <course>90.0</course>
12709 <speed>10.34</speed>
12710 </trkpt>
12711 <trkpt lat="51.0424623500" lon="13.6858036833">
12712 <ele>145.9</ele>
12713 <time>2012-09-10T12:47:53Z</time>
12714 <course>89.0</course>
12715 <speed>10.08</speed>
12716 </trkpt>
12717 <trkpt lat="51.0424579000" lon="13.6859585333">
12718 <ele>145.7</ele>
12719 <time>2012-09-10T12:47:54Z</time>
12720 <course>89.0</course>
12721 <speed>10.19</speed>
12722 </trkpt>
12723 <trkpt lat="51.0424717333" lon="13.6861144667">
12724 <ele>145.5</ele>
12725 <time>2012-09-10T12:47:54Z</time>
12726 <course>88.0</course>
12727 <speed>10.24</speed>
12728 </trkpt>
12729 <trkpt lat="51.0424632167" lon="13.6862546667">
12730 <ele>145.1</ele>
12731 <time>2012-09-10T12:47:55Z</time>
12732 <course>91.0</course>
12733 <speed>9.88</speed>
12734 </trkpt>
12735 <trkpt lat="51.0424619333" lon="13.6863986667">
12736 <ele>145.2</ele>
12737 <time>2012-09-10T12:47:56Z</time>
12738 <course>90.0</course>
12739 <speed>9.77</speed>
12740 </trkpt>
12741 <trkpt lat="51.0424601333" lon="13.6865432333">
12742 <ele>145.0</ele>
12743 <time>2012-09-10T12:47:58Z</time>
12744 <course>90.0</course>
12745 <speed>9.83</speed>
12746 </trkpt>
12747 <trkpt lat="51.0424716500" lon="13.6866646000">
12748 <ele>145.1</ele>
12749 <time>2012-09-10T12:47:59Z</time>
12750 <course>89.0</course>
12751 <speed>9.57</speed>
12752 </trkpt>
12753 <trkpt lat="51.0424728333" lon="13.6867895833">
12754 <ele>145.1</ele>
12755 <time>2012-09-10T12:48:00Z</time>
12756 <course>89.0</course>
12757 <speed>9.41</speed>
12758 </trkpt>
12759 <trkpt lat="51.0424875167" lon="13.6869295833">
12760 <ele>144.9</ele>
12761 <time>2012-09-10T12:48:00Z</time>
12762 <course>89.0</course>
12763 <speed>9.41</speed>
12764 </trkpt>
12765 <trkpt lat="51.0424897333" lon="13.6870557167">
12766 <ele>144.8</ele>
12767 <time>2012-09-10T12:48:01Z</time>
12768 <course>88.0</course>
12769 <speed>9.36</speed>
12770 </trkpt>
12771 <trkpt lat="51.0424892500" lon="13.6871947333">
12772 <ele>144.4</ele>
12773 <time>2012-09-10T12:48:02Z</time>
12774 <course>90.0</course>
12775 <speed>9.47</speed>
12776 </trkpt>
12777 <trkpt lat="51.0424837833" lon="13.6873348000">
12778 <ele>144.4</ele>
12779 <time>2012-09-10T12:48:04Z</time>
12780 <course>92.0</course>
12781 <speed>9.26</speed>
12782 </trkpt>
12783 <trkpt lat="51.0424859167" lon="13.6874727167">
12784 <ele>144.6</ele>
12785 <time>2012-09-10T12:48:05Z</time>
12786 <course>91.0</course>
12787 <speed>9.47</speed>
12788 </trkpt>
12789 <trkpt lat="51.0424990000" lon="13.6876096667">
12790 <ele>144.0</ele>
12791 <time>2012-09-10T12:48:06Z</time>
12792 <course>89.0</course>
12793 <speed>9.52</speed>
12794 </trkpt>
12795 <trkpt lat="51.0424881167" lon="13.6877644167">
12796 <ele>143.2</ele>
12797 <time>2012-09-10T12:48:07Z</time>
12798 <course>89.0</course>
12799 <speed>9.93</speed>
12800 </trkpt>
12801 <trkpt lat="51.0424923333" lon="13.6879066833">
12802 <ele>143.3</ele>
12803 <time>2012-09-10T12:48:07Z</time>
12804 <course>89.0</course>
12805 <speed>10.13</speed>
12806 </trkpt>
12807 <trkpt lat="51.0424885333" lon="13.6880652000">
12808 <ele>142.9</ele>
12809 <time>2012-09-10T12:48:08Z</time>
12810 <course>88.0</course>
12811 <speed>10.65</speed>
12812 </trkpt>
12813 <trkpt lat="51.0424901167" lon="13.6882180833">
12814 <ele>142.8</ele>
12815 <time>2012-09-10T12:48:10Z</time>
12816 <course>88.0</course>
12817 <speed>10.85</speed>
12818 </trkpt>
12819 <trkpt lat="51.0425071167" lon="13.6883771167">
12820 <ele>142.7</ele>
12821 <time>2012-09-10T12:48:11Z</time>
12822 <course>88.0</course>
12823 <speed>10.91</speed>
12824 </trkpt>
12825 <trkpt lat="51.0425075667" lon="13.6885430167">
12826 <ele>142.2</ele>
12827 <time>2012-09-10T12:48:12Z</time>
12828 <course>89.0</course>
12829 <speed>10.85</speed>
12830 </trkpt>
12831 <trkpt lat="51.0425226333" lon="13.6886821333">
12832 <ele>141.2</ele>
12833 <time>2012-09-10T12:48:13Z</time>
12834 <course>88.0</course>
12835 <speed>10.75</speed>
12836 </trkpt>
12837 <trkpt lat="51.0425338500" lon="13.6888296000">
12838 <ele>140.8</ele>
12839 <time>2012-09-10T12:48:13Z</time>
12840 <course>88.0</course>
12841 <speed>10.70</speed>
12842 </trkpt>
12843 <trkpt lat="51.0425338667" lon="13.6889792333">
12844 <ele>140.1</ele>
12845 <time>2012-09-10T12:48:14Z</time>
12846 <course>90.0</course>
12847 <speed>10.44</speed>
12848 </trkpt>
12849 <trkpt lat="51.0425469500" lon="13.6891484833">
12850 <ele>139.7</ele>
12851 <time>2012-09-10T12:48:15Z</time>
12852 <course>89.0</course>
12853 <speed>10.44</speed>
12854 </trkpt>
12855 <trkpt lat="51.0425517500" lon="13.6893008833">
12856 <ele>139.5</ele>
12857 <time>2012-09-10T12:48:17Z</time>
12858 <course>89.0</course>
12859 <speed>10.24</speed>
12860 </trkpt>
12861 <trkpt lat="51.0425649000" lon="13.6894465000">
12862 <ele>139.1</ele>
12863 <time>2012-09-10T12:48:18Z</time>
12864 <course>90.0</course>
12865 <speed>9.88</speed>
12866 </trkpt>
12867 <trkpt lat="51.0425787000" lon="13.6895904500">
12868 <ele>138.6</ele>
12869 <time>2012-09-10T12:48:19Z</time>
12870 <course>88.0</course>
12871 <speed>9.62</speed>
12872 </trkpt>
12873 <trkpt lat="51.0425814333" lon="13.6897338833">
12874 <ele>138.2</ele>
12875 <time>2012-09-10T12:48:19Z</time>
12876 <course>87.0</course>
12877 <speed>9.67</speed>
12878 </trkpt>
12879 <trkpt lat="51.0425909667" lon="13.6898691833">
12880 <ele>137.8</ele>
12881 <time>2012-09-10T12:48:20Z</time>
12882 <course>87.0</course>
12883 <speed>9.62</speed>
12884 </trkpt>
12885 <trkpt lat="51.0425996833" lon="13.6900022333">
12886 <ele>137.7</ele>
12887 <time>2012-09-10T12:48:21Z</time>
12888 <course>85.0</course>
12889 <speed>9.41</speed>
12890 </trkpt>
12891 <trkpt lat="51.0425890333" lon="13.6901333000">
12892 <ele>137.0</ele>
12893 <time>2012-09-10T12:48:23Z</time>
12894 <course>87.0</course>
12895 <speed>9.11</speed>
12896 </trkpt>
12897 <trkpt lat="51.0425934833" lon="13.6902589833">
12898 <ele>137.2</ele>
12899 <time>2012-09-10T12:48:24Z</time>
12900 <course>85.0</course>
12901 <speed>8.85</speed>
12902 </trkpt>
12903 <trkpt lat="51.0425943667" lon="13.6903606333">
12904 <ele>137.1</ele>
12905 <time>2012-09-10T12:48:25Z</time>
12906 <course>86.0</course>
12907 <speed>7.25</speed>
12908 </trkpt>
12909 <trkpt lat="51.0426018500" lon="13.6904488167">
12910 <ele>137.0</ele>
12911 <time>2012-09-10T12:48:26Z</time>
12912 <course>82.0</course>
12913 <speed>6.02</speed>
12914 </trkpt>
12915 <trkpt lat="51.0426089500" lon="13.6905314667">
12916 <ele>136.8</ele>
12917 <time>2012-09-10T12:48:26Z</time>
12918 <course>79.0</course>
12919 <speed>5.76</speed>
12920 </trkpt>
12921 <trkpt lat="51.0425968000" lon="13.6905504000">
12922 <ele>136.7</ele>
12923 <time>2012-09-10T12:48:27Z</time>
12924 <course>79.0</course>
12925 <speed>0.00</speed>
12926 </trkpt>
12927 <trkpt lat="51.0425891833" lon="13.6905057500">
12928 <ele>136.8</ele>
12929 <time>2012-09-10T12:48:28Z</time>
12930 <course>79.0</course>
12931 <speed>0.00</speed>
12932 </trkpt>
12933 <trkpt lat="51.0425897667" lon="13.6904895667">
12934 <ele>136.8</ele>
12935 <time>2012-09-10T12:48:30Z</time>
12936 <course>79.0</course>
12937 <speed>0.00</speed>
12938 </trkpt>
12939 <trkpt lat="51.0425904667" lon="13.6904733333">
12940 <ele>136.8</ele>
12941 <time>2012-09-10T12:48:32Z</time>
12942 <course>79.0</course>
12943 <speed>0.00</speed>
12944 </trkpt>
12945 <trkpt lat="51.0425904667" lon="13.6904733333">
12946 <ele>136.8</ele>
12947 <time>2012-09-10T12:48:32Z</time>
12948 <course>79.0</course>
12949 <speed>0.00</speed>
12950 </trkpt>
12951 <trkpt lat="51.0425971250" lon="13.6904664083">
12952 <ele>136.6</ele>
12953 <time>2012-09-10T12:48:34Z</time>
12954 <course>79.0</course>
12955 <speed>0.00</speed>
12956 </trkpt>
12957 <trkpt lat="51.0425971250" lon="13.6904664083">
12958 <ele>136.6</ele>
12959 <time>2012-09-10T12:48:36Z</time>
12960 <course>79.0</course>
12961 <speed>0.00</speed>
12962 </trkpt>
12963 <trkpt lat="51.0425936357" lon="13.6904569443">
12964 <ele>136.7</ele>
12965 <time>2012-09-10T12:48:38Z</time>
12966 <course>79.0</course>
12967 <speed>0.00</speed>
12968 </trkpt>
12969 <trkpt lat="51.0425936357" lon="13.6904569443">
12970 <ele>136.7</ele>
12971 <time>2012-09-10T12:49:27Z</time>
12972 <course>79.0</course>
12973 <speed>0.00</speed>
12974 </trkpt>
12975 <trkpt lat="51.0425873167" lon="13.6904700000">
12976 <ele>136.7</ele>
12977 <time>2012-09-10T12:49:28Z</time>
12978 <course>79.0</course>
12979 <speed>0.72</speed>
12980 </trkpt>
12981 <trkpt lat="51.0425814000" lon="13.6905140000">
12982 <ele>136.5</ele>
12983 <time>2012-09-10T12:49:29Z</time>
12984 <course>102.0</course>
12985 <speed>1.65</speed>
12986 </trkpt>
12987 <trkpt lat="51.0425488333" lon="13.6905747833">
12988 <ele>136.2</ele>
12989 <time>2012-09-10T12:49:29Z</time>
12990 <course>102.0</course>
12991 <speed>2.68</speed>
12992 </trkpt>
12993 <trkpt lat="51.0425559667" lon="13.6906389833">
12994 <ele>135.9</ele>
12995 <time>2012-09-10T12:49:30Z</time>
12996 <course>96.0</course>
12997 <speed>3.55</speed>
12998 </trkpt>
12999 <trkpt lat="51.0425541833" lon="13.6907154167">
13000 <ele>135.6</ele>
13001 <time>2012-09-10T12:49:31Z</time>
13002 <course>95.0</course>
13003 <speed>4.22</speed>
13004 </trkpt>
13005 <trkpt lat="51.0425704833" lon="13.6908100333">
13006 <ele>136.3</ele>
13007 <time>2012-09-10T12:49:33Z</time>
13008 <course>91.0</course>
13009 <speed>5.14</speed>
13010 </trkpt>
13011 <trkpt lat="51.0426003333" lon="13.6909220833">
13012 <ele>136.5</ele>
13013 <time>2012-09-10T12:49:34Z</time>
13014 <course>85.0</course>
13015 <speed>6.38</speed>
13016 </trkpt>
13017 <trkpt lat="51.0426466500" lon="13.6910718833">
13018 <ele>137.3</ele>
13019 <time>2012-09-10T12:49:35Z</time>
13020 <course>82.0</course>
13021 <speed>8.64</speed>
13022 </trkpt>
13023 <trkpt lat="51.0426742833" lon="13.6912408333">
13024 <ele>137.4</ele>
13025 <time>2012-09-10T12:49:36Z</time>
13026 <course>78.0</course>
13027 <speed>10.19</speed>
13028 </trkpt>
13029 <trkpt lat="51.0426971833" lon="13.6914086000">
13030 <ele>137.2</ele>
13031 <time>2012-09-10T12:49:36Z</time>
13032 <course>79.0</course>
13033 <speed>10.91</speed>
13034 </trkpt>
13035 <trkpt lat="51.0427337333" lon="13.6915810667">
13036 <ele>136.7</ele>
13037 <time>2012-09-10T12:49:37Z</time>
13038 <course>78.0</course>
13039 <speed>11.32</speed>
13040 </trkpt>
13041 <trkpt lat="51.0427519000" lon="13.6917356833">
13042 <ele>137.0</ele>
13043 <time>2012-09-10T12:49:38Z</time>
13044 <course>79.0</course>
13045 <speed>11.42</speed>
13046 </trkpt>
13047 <trkpt lat="51.0427776167" lon="13.6919069667">
13048 <ele>137.2</ele>
13049 <time>2012-09-10T12:49:40Z</time>
13050 <course>78.0</course>
13051 <speed>11.63</speed>
13052 </trkpt>
13053 <trkpt lat="51.0428037833" lon="13.6920581833">
13054 <ele>136.9</ele>
13055 <time>2012-09-10T12:49:41Z</time>
13056 <course>76.0</course>
13057 <speed>11.16</speed>
13058 </trkpt>
13059 <trkpt lat="51.0428270333" lon="13.6922205667">
13060 <ele>138.1</ele>
13061 <time>2012-09-10T12:49:42Z</time>
13062 <course>76.0</course>
13063 <speed>11.11</speed>
13064 </trkpt>
13065 <trkpt lat="51.0428463000" lon="13.6923886167">
13066 <ele>139.3</ele>
13067 <time>2012-09-10T12:49:42Z</time>
13068 <course>77.0</course>
13069 <speed>10.91</speed>
13070 </trkpt>
13071 <trkpt lat="51.0428913000" lon="13.6926903667">
13072 <ele>139.3</ele>
13073 <time>2012-09-10T12:49:44Z</time>
13074 <course>77.0</course>
13075 <speed>10.85</speed>
13076 </trkpt>
13077 <trkpt lat="51.0429197833" lon="13.6928511667">
13078 <ele>139.3</ele>
13079 <time>2012-09-10T12:49:46Z</time>
13080 <course>77.0</course>
13081 <speed>10.96</speed>
13082 </trkpt>
13083 <trkpt lat="51.0429377000" lon="13.6929913000">
13084 <ele>139.4</ele>
13085 <time>2012-09-10T12:49:47Z</time>
13086 <course>77.0</course>
13087 <speed>10.65</speed>
13088 </trkpt>
13089 <trkpt lat="51.0429689833" lon="13.6931656833">
13090 <ele>139.1</ele>
13091 <time>2012-09-10T12:49:48Z</time>
13092 <course>77.0</course>
13093 <speed>10.80</speed>
13094 </trkpt>
13095 <trkpt lat="51.0429755833" lon="13.6933517500">
13096 <ele>139.5</ele>
13097 <time>2012-09-10T12:49:48Z</time>
13098 <course>81.0</course>
13099 <speed>10.75</speed>
13100 </trkpt>
13101 <trkpt lat="51.0429836000" lon="13.6935028167">
13102 <ele>139.0</ele>
13103 <time>2012-09-10T12:49:49Z</time>
13104 <course>84.0</course>
13105 <speed>10.91</speed>
13106 </trkpt>
13107 <trkpt lat="51.0430019833" lon="13.6936779833">
13108 <ele>138.9</ele>
13109 <time>2012-09-10T12:49:50Z</time>
13110 <course>84.0</course>
13111 <speed>10.96</speed>
13112 </trkpt>
13113 <trkpt lat="51.0430213833" lon="13.6938410667">
13114 <ele>138.8</ele>
13115 <time>2012-09-10T12:49:52Z</time>
13116 <course>84.0</course>
13117 <speed>11.01</speed>
13118 </trkpt>
13119 <trkpt lat="51.0430369667" lon="13.6940045500">
13120 <ele>138.3</ele>
13121 <time>2012-09-10T12:49:53Z</time>
13122 <course>84.0</course>
13123 <speed>11.01</speed>
13124 </trkpt>
13125 <trkpt lat="51.0430238167" lon="13.6941477833">
13126 <ele>138.6</ele>
13127 <time>2012-09-10T12:49:54Z</time>
13128 <course>86.0</course>
13129 <speed>11.06</speed>
13130 </trkpt>
13131 <trkpt lat="51.0430461833" lon="13.6943028333">
13132 <ele>139.0</ele>
13133 <time>2012-09-10T12:49:55Z</time>
13134 <course>87.0</course>
13135 <speed>11.47</speed>
13136 </trkpt>
13137 <trkpt lat="51.0430684167" lon="13.6944731500">
13138 <ele>138.9</ele>
13139 <time>2012-09-10T12:49:55Z</time>
13140 <course>86.0</course>
13141 <speed>12.14</speed>
13142 </trkpt>
13143 <trkpt lat="51.0430869667" lon="13.6946735500">
13144 <ele>138.6</ele>
13145 <time>2012-09-10T12:49:56Z</time>
13146 <course>86.0</course>
13147 <speed>13.22</speed>
13148 </trkpt>
13149 <trkpt lat="51.0431501333" lon="13.6948959333">
13150 <ele>138.9</ele>
13151 <time>2012-09-10T12:49:57Z</time>
13152 <course>82.0</course>
13153 <speed>14.51</speed>
13154 </trkpt>
13155 <trkpt lat="51.0431796833" lon="13.6951035833">
13156 <ele>138.5</ele>
13157 <time>2012-09-10T12:49:59Z</time>
13158 <course>82.0</course>
13159 <speed>14.97</speed>
13160 </trkpt>
13161 <trkpt lat="51.0431832667" lon="13.6953294167">
13162 <ele>137.8</ele>
13163 <time>2012-09-10T12:50:00Z</time>
13164 <course>83.0</course>
13165 <speed>15.54</speed>
13166 </trkpt>
13167 <trkpt lat="51.0432096167" lon="13.6955453500">
13168 <ele>136.5</ele>
13169 <time>2012-09-10T12:50:01Z</time>
13170 <course>83.0</course>
13171 <speed>15.33</speed>
13172 </trkpt>
13173 <trkpt lat="51.0432420833" lon="13.6957410833">
13174 <ele>136.7</ele>
13175 <time>2012-09-10T12:50:01Z</time>
13176 <course>81.0</course>
13177 <speed>14.92</speed>
13178 </trkpt>
13179 <trkpt lat="51.0432642500" lon="13.6959309333">
13180 <ele>136.5</ele>
13181 <time>2012-09-10T12:50:02Z</time>
13182 <course>81.0</course>
13183 <speed>14.40</speed>
13184 </trkpt>
13185 <trkpt lat="51.0432794500" lon="13.6960999167">
13186 <ele>135.7</ele>
13187 <time>2012-09-10T12:50:03Z</time>
13188 <course>82.0</course>
13189 <speed>12.96</speed>
13190 </trkpt>
13191 <trkpt lat="51.0432952833" lon="13.6962779333">
13192 <ele>135.3</ele>
13193 <time>2012-09-10T12:50:05Z</time>
13194 <course>83.0</course>
13195 <speed>12.14</speed>
13196 </trkpt>
13197 <trkpt lat="51.0433026833" lon="13.6964208667">
13198 <ele>134.8</ele>
13199 <time>2012-09-10T12:50:06Z</time>
13200 <course>81.0</course>
13201 <speed>10.65</speed>
13202 </trkpt>
13203 <trkpt lat="51.0432969000" lon="13.6965477500">
13204 <ele>133.5</ele>
13205 <time>2012-09-10T12:50:07Z</time>
13206 <course>85.0</course>
13207 <speed>9.52</speed>
13208 </trkpt>
13209 <trkpt lat="51.0433223500" lon="13.6966553167">
13210 <ele>133.4</ele>
13211 <time>2012-09-10T12:50:08Z</time>
13212 <course>79.0</course>
13213 <speed>8.03</speed>
13214 </trkpt>
13215 <trkpt lat="51.0433257333" lon="13.6967435167">
13216 <ele>133.3</ele>
13217 <time>2012-09-10T12:50:08Z</time>
13218 <course>81.0</course>
13219 <speed>6.58</speed>
13220 </trkpt>
13221 <trkpt lat="51.0433453667" lon="13.6968159667">
13222 <ele>133.1</ele>
13223 <time>2012-09-10T12:50:09Z</time>
13224 <course>77.0</course>
13225 <speed>5.76</speed>
13226 </trkpt>
13227 <trkpt lat="51.0433340833" lon="13.6968798833">
13228 <ele>132.9</ele>
13229 <time>2012-09-10T12:50:11Z</time>
13230 <course>77.0</course>
13231 <speed>0.00</speed>
13232 </trkpt>
13233 <trkpt lat="51.0433352500" lon="13.6968619500">
13234 <ele>133.0</ele>
13235 <time>2012-09-10T12:50:13Z</time>
13236 <course>77.0</course>
13237 <speed>0.00</speed>
13238 </trkpt>
13239 <trkpt lat="51.0433352500" lon="13.6968619500">
13240 <ele>133.0</ele>
13241 <time>2012-09-10T12:50:13Z</time>
13242 <course>77.0</course>
13243 <speed>0.00</speed>
13244 </trkpt>
13245 <trkpt lat="51.0433304667" lon="13.6968331667">
13246 <ele>132.9</ele>
13247 <time>2012-09-10T12:50:14Z</time>
13248 <course>77.0</course>
13249 <speed>0.00</speed>
13250 </trkpt>
13251 <trkpt lat="51.0433271333" lon="13.6968204500">
13252 <ele>132.9</ele>
13253 <time>2012-09-10T12:50:14Z</time>
13254 <course>77.0</course>
13255 <speed>0.00</speed>
13256 </trkpt>
13257 <trkpt lat="51.0433213333" lon="13.6968045667">
13258 <ele>133.2</ele>
13259 <time>2012-09-10T12:50:16Z</time>
13260 <course>77.0</course>
13261 <speed>0.00</speed>
13262 </trkpt>
13263 <trkpt lat="51.0433213333" lon="13.6968045667">
13264 <ele>133.2</ele>
13265 <time>2012-09-10T12:50:16Z</time>
13266 <course>77.0</course>
13267 <speed>0.00</speed>
13268 </trkpt>
13269 <trkpt lat="51.0433192821" lon="13.6967947949">
13270 <ele>133.9</ele>
13271 <time>2012-09-10T12:50:19Z</time>
13272 <course>77.0</course>
13273 <speed>0.00</speed>
13274 </trkpt>
13275 <trkpt lat="51.0433192821" lon="13.6967947949">
13276 <ele>133.9</ele>
13277 <time>2012-09-10T12:50:31Z</time>
13278 <course>77.0</course>
13279 <speed>0.00</speed>
13280 </trkpt>
13281 <trkpt lat="51.0433196167" lon="13.6967920750">
13282 <ele>134.0</ele>
13283 <time>2012-09-10T12:50:33Z</time>
13284 <course>77.0</course>
13285 <speed>0.00</speed>
13286 </trkpt>
13287 <trkpt lat="51.0433196167" lon="13.6967920750">
13288 <ele>134.0</ele>
13289 <time>2012-09-10T12:50:38Z</time>
13290 <course>77.0</course>
13291 <speed>0.00</speed>
13292 </trkpt>
13293 <trkpt lat="51.0433386167" lon="13.6968188167">
13294 <ele>133.7</ele>
13295 <time>2012-09-10T12:50:39Z</time>
13296 <course>77.0</course>
13297 <speed>0.67</speed>
13298 </trkpt>
13299 <trkpt lat="51.0433353000" lon="13.6968393667">
13300 <ele>133.3</ele>
13301 <time>2012-09-10T12:50:39Z</time>
13302 <course>69.0</course>
13303 <speed>1.34</speed>
13304 </trkpt>
13305 <trkpt lat="51.0433491833" lon="13.6968975333">
13306 <ele>132.8</ele>
13307 <time>2012-09-10T12:50:40Z</time>
13308 <course>64.0</course>
13309 <speed>2.21</speed>
13310 </trkpt>
13311 <trkpt lat="51.0433808833" lon="13.6969518167">
13312 <ele>132.0</ele>
13313 <time>2012-09-10T12:50:41Z</time>
13314 <course>56.0</course>
13315 <speed>2.83</speed>
13316 </trkpt>
13317 <trkpt lat="51.0434254500" lon="13.6969932667">
13318 <ele>132.1</ele>
13319 <time>2012-09-10T12:50:43Z</time>
13320 <course>49.0</course>
13321 <speed>3.65</speed>
13322 </trkpt>
13323 <trkpt lat="51.0434670167" lon="13.6970394000">
13324 <ele>131.9</ele>
13325 <time>2012-09-10T12:50:44Z</time>
13326 <course>48.0</course>
13327 <speed>4.37</speed>
13328 </trkpt>
13329 <trkpt lat="51.0435140167" lon="13.6971055667">
13330 <ele>133.0</ele>
13331 <time>2012-09-10T12:50:45Z</time>
13332 <course>51.0</course>
13333 <speed>5.04</speed>
13334 </trkpt>
13335 <trkpt lat="51.0435406167" lon="13.6971912667">
13336 <ele>131.5</ele>
13337 <time>2012-09-10T12:50:46Z</time>
13338 <course>55.0</course>
13339 <speed>6.74</speed>
13340 </trkpt>
13341 <trkpt lat="51.0435859000" lon="13.6972976167">
13342 <ele>131.3</ele>
13343 <time>2012-09-10T12:50:46Z</time>
13344 <course>56.0</course>
13345 <speed>8.13</speed>
13346 </trkpt>
13347 <trkpt lat="51.0436457333" lon="13.6973824167">
13348 <ele>130.6</ele>
13349 <time>2012-09-10T12:50:47Z</time>
13350 <course>56.0</course>
13351 <speed>8.69</speed>
13352 </trkpt>
13353 <trkpt lat="51.0437027833" lon="13.6974978000">
13354 <ele>130.3</ele>
13355 <time>2012-09-10T12:50:48Z</time>
13356 <course>56.0</course>
13357 <speed>9.31</speed>
13358 </trkpt>
13359 <trkpt lat="51.0437548833" lon="13.6976143000">
13360 <ele>130.6</ele>
13361 <time>2012-09-10T12:50:50Z</time>
13362 <course>56.0</course>
13363 <speed>10.03</speed>
13364 </trkpt>
13365 <trkpt lat="51.0438054333" lon="13.6977510500">
13366 <ele>130.4</ele>
13367 <time>2012-09-10T12:50:51Z</time>
13368 <course>57.0</course>
13369 <speed>10.44</speed>
13370 </trkpt>
13371 <trkpt lat="51.0438759000" lon="13.6978708167">
13372 <ele>130.9</ele>
13373 <time>2012-09-10T12:50:52Z</time>
13374 <course>55.0</course>
13375 <speed>10.70</speed>
13376 </trkpt>
13377 <trkpt lat="51.0439421500" lon="13.6980184333">
13378 <ele>131.0</ele>
13379 <time>2012-09-10T12:50:52Z</time>
13380 <course>55.0</course>
13381 <speed>11.32</speed>
13382 </trkpt>
13383 <trkpt lat="51.0440071000" lon="13.6981784333">
13384 <ele>130.5</ele>
13385 <time>2012-09-10T12:50:53Z</time>
13386 <course>55.0</course>
13387 <speed>11.73</speed>
13388 </trkpt>
13389 <trkpt lat="51.0440627000" lon="13.6983317833">
13390 <ele>129.5</ele>
13391 <time>2012-09-10T12:50:54Z</time>
13392 <course>56.0</course>
13393 <speed>11.83</speed>
13394 </trkpt>
13395 <trkpt lat="51.0441452167" lon="13.6984805500">
13396 <ele>127.9</ele>
13397 <time>2012-09-10T12:50:56Z</time>
13398 <course>55.0</course>
13399 <speed>11.52</speed>
13400 </trkpt>
13401 <trkpt lat="51.0442080167" lon="13.6986065833">
13402 <ele>127.4</ele>
13403 <time>2012-09-10T12:50:57Z</time>
13404 <course>54.0</course>
13405 <speed>11.52</speed>
13406 </trkpt>
13407 <trkpt lat="51.0442618833" lon="13.6987321833">
13408 <ele>125.5</ele>
13409 <time>2012-09-10T12:50:58Z</time>
13410 <course>54.0</course>
13411 <speed>11.52</speed>
13412 </trkpt>
13413 <trkpt lat="51.0443178500" lon="13.6988667667">
13414 <ele>126.2</ele>
13415 <time>2012-09-10T12:50:59Z</time>
13416 <course>54.0</course>
13417 <speed>11.37</speed>
13418 </trkpt>
13419 <trkpt lat="51.0443721333" lon="13.6989943000">
13420 <ele>126.3</ele>
13421 <time>2012-09-10T12:50:59Z</time>
13422 <course>55.0</course>
13423 <speed>11.01</speed>
13424 </trkpt>
13425 <trkpt lat="51.0444237500" lon="13.6991068167">
13426 <ele>126.3</ele>
13427 <time>2012-09-10T12:51:00Z</time>
13428 <course>53.0</course>
13429 <speed>9.72</speed>
13430 </trkpt>
13431 <trkpt lat="51.0444319833" lon="13.6991767667">
13432 <ele>125.8</ele>
13433 <time>2012-09-10T12:51:02Z</time>
13434 <course>53.0</course>
13435 <speed>7.56</speed>
13436 </trkpt>
13437 <trkpt lat="51.0444526833" lon="13.6992504000">
13438 <ele>126.0</ele>
13439 <time>2012-09-10T12:51:03Z</time>
13440 <course>61.0</course>
13441 <speed>6.02</speed>
13442 </trkpt>
13443 <trkpt lat="51.0444655167" lon="13.6993337000">
13444 <ele>126.1</ele>
13445 <time>2012-09-10T12:51:04Z</time>
13446 <course>70.0</course>
13447 <speed>6.17</speed>
13448 </trkpt>
13449 <trkpt lat="51.0444704667" lon="13.6994038000">
13450 <ele>126.2</ele>
13451 <time>2012-09-10T12:51:05Z</time>
13452 <course>74.0</course>
13453 <speed>5.50</speed>
13454 </trkpt>
13455 <trkpt lat="51.0444549500" lon="13.6994236833">
13456 <ele>126.2</ele>
13457 <time>2012-09-10T12:51:05Z</time>
13458 <course>85.0</course>
13459 <speed>3.40</speed>
13460 </trkpt>
13461 <trkpt lat="51.0444484167" lon="13.6994537500">
13462 <ele>125.8</ele>
13463 <time>2012-09-10T12:51:06Z</time>
13464 <course>95.0</course>
13465 <speed>2.88</speed>
13466 </trkpt>
13467 <trkpt lat="51.0444144333" lon="13.6994825833">
13468 <ele>125.7</ele>
13469 <time>2012-09-10T12:51:07Z</time>
13470 <course>122.0</course>
13471 <speed>3.34</speed>
13472 </trkpt>
13473 <trkpt lat="51.0443688167" lon="13.6995005333">
13474 <ele>125.5</ele>
13475 <time>2012-09-10T12:51:09Z</time>
13476 <course>138.0</course>
13477 <speed>3.50</speed>
13478 </trkpt>
13479 <trkpt lat="51.0443210000" lon="13.6995085167">
13480 <ele>124.9</ele>
13481 <time>2012-09-10T12:51:10Z</time>
13482 <course>150.0</course>
13483 <speed>3.29</speed>
13484 </trkpt>
13485 <trkpt lat="51.0442995667" lon="13.6995155667">
13486 <ele>124.8</ele>
13487 <time>2012-09-10T12:51:11Z</time>
13488 <course>156.0</course>
13489 <speed>2.73</speed>
13490 </trkpt>
13491 <trkpt lat="51.0442988000" lon="13.6995384000">
13492 <ele>124.9</ele>
13493 <time>2012-09-10T12:51:11Z</time>
13494 <course>153.0</course>
13495 <speed>2.16</speed>
13496 </trkpt>
13497 <trkpt lat="51.0442764833" lon="13.6995459500">
13498 <ele>124.9</ele>
13499 <time>2012-09-10T12:51:12Z</time>
13500 <course>158.0</course>
13501 <speed>2.06</speed>
13502 </trkpt>
13503 <trkpt lat="51.0442532500" lon="13.6995477833">
13504 <ele>124.2</ele>
13505 <time>2012-09-10T12:51:13Z</time>
13506 <course>160.0</course>
13507 <speed>2.11</speed>
13508 </trkpt>
13509 <trkpt lat="51.0442322833" lon="13.6995642000">
13510 <ele>124.4</ele>
13511 <time>2012-09-10T12:51:15Z</time>
13512 <course>157.0</course>
13513 <speed>2.16</speed>
13514 </trkpt>
13515 <trkpt lat="51.0442049167" lon="13.6995690667">
13516 <ele>124.0</ele>
13517 <time>2012-09-10T12:51:16Z</time>
13518 <course>150.0</course>
13519 <speed>2.31</speed>
13520 </trkpt>
13521 <trkpt lat="51.0441890667" lon="13.6995796333">
13522 <ele>124.0</ele>
13523 <time>2012-09-10T12:51:17Z</time>
13524 <course>144.0</course>
13525 <speed>2.21</speed>
13526 </trkpt>
13527 <trkpt lat="51.0441672000" lon="13.6995971333">
13528 <ele>123.5</ele>
13529 <time>2012-09-10T12:51:18Z</time>
13530 <course>136.0</course>
13531 <speed>2.16</speed>
13532 </trkpt>
13533 <trkpt lat="51.0441585667" lon="13.6996290667">
13534 <ele>123.3</ele>
13535 <time>2012-09-10T12:51:18Z</time>
13536 <course>122.0</course>
13537 <speed>2.52</speed>
13538 </trkpt>
13539 <trkpt lat="51.0441575500" lon="13.6996738000">
13540 <ele>123.1</ele>
13541 <time>2012-09-10T12:51:19Z</time>
13542 <course>108.0</course>
13543 <speed>2.78</speed>
13544 </trkpt>
13545 <trkpt lat="51.0441581500" lon="13.6997190167">
13546 <ele>122.6</ele>
13547 <time>2012-09-10T12:51:20Z</time>
13548 <course>98.0</course>
13549 <speed>2.83</speed>
13550 </trkpt>
13551 <trkpt lat="51.0441667833" lon="13.6997659167">
13552 <ele>122.2</ele>
13553 <time>2012-09-10T12:51:22Z</time>
13554 <course>84.0</course>
13555 <speed>2.62</speed>
13556 </trkpt>
13557 <trkpt lat="51.0441921167" lon="13.6997920333">
13558 <ele>122.7</ele>
13559 <time>2012-09-10T12:51:23Z</time>
13560 <course>65.0</course>
13561 <speed>2.37</speed>
13562 </trkpt>
13563 <trkpt lat="51.0442114333" lon="13.6997922500">
13564 <ele>123.2</ele>
13565 <time>2012-09-10T12:51:24Z</time>
13566 <course>48.0</course>
13567 <speed>1.95</speed>
13568 </trkpt>
13569 <trkpt lat="51.0442361500" lon="13.6998107667">
13570 <ele>123.1</ele>
13571 <time>2012-09-10T12:51:24Z</time>
13572 <course>45.0</course>
13573 <speed>1.85</speed>
13574 </trkpt>
13575 <trkpt lat="51.0442526167" lon="13.6998161833">
13576 <ele>123.1</ele>
13577 <time>2012-09-10T12:51:25Z</time>
13578 <course>35.0</course>
13579 <speed>1.65</speed>
13580 </trkpt>
13581 <trkpt lat="51.0442736500" lon="13.6998083833">
13582 <ele>123.0</ele>
13583 <time>2012-09-10T12:51:28Z</time>
13584 <course>358.0</course>
13585 <speed>1.18</speed>
13586 </trkpt>
13587 <trkpt lat="51.0442791500" lon="13.6998013333">
13588 <ele>123.3</ele>
13589 <time>2012-09-10T12:51:29Z</time>
13590 <course>358.0</course>
13591 <speed>1.13</speed>
13592 </trkpt>
13593 <trkpt lat="51.0442921333" lon="13.6997937000">
13594 <ele>123.7</ele>
13595 <time>2012-09-10T12:51:30Z</time>
13596 <course>347.0</course>
13597 <speed>1.18</speed>
13598 </trkpt>
13599 <trkpt lat="51.0443101500" lon="13.6997816167">
13600 <ele>123.9</ele>
13601 <time>2012-09-10T12:51:30Z</time>
13602 <course>347.0</course>
13603 <speed>1.39</speed>
13604 </trkpt>
13605 <trkpt lat="51.0443285000" lon="13.6997780000">
13606 <ele>125.0</ele>
13607 <time>2012-09-10T12:51:32Z</time>
13608 <course>355.0</course>
13609 <speed>0.93</speed>
13610 </trkpt>
13611 <trkpt lat="51.0443302450" lon="13.6997763617">
13612 <ele>125.3</ele>
13613 <time>2012-09-10T12:51:35Z</time>
13614 <course>355.0</course>
13615 <speed>0.00</speed>
13616 </trkpt>
13617 <trkpt lat="51.0443302450" lon="13.6997763617">
13618 <ele>125.3</ele>
13619 <time>2012-09-10T12:51:43Z</time>
13620 <course>355.0</course>
13621 <speed>0.00</speed>
13622 </trkpt>
13623 <trkpt lat="51.0443184167" lon="13.6997669500">
13624 <ele>125.5</ele>
13625 <time>2012-09-10T12:51:44Z</time>
13626 <course>355.0</course>
13627 <speed>0.00</speed>
13628 </trkpt>
13629 <trkpt lat="51.0443184167" lon="13.6997669500">
13630 <ele>125.5</ele>
13631 <time>2012-09-10T12:51:44Z</time>
13632 <course>355.0</course>
13633 <speed>0.00</speed>
13634 </trkpt>
13635 <trkpt lat="51.0443061333" lon="13.6997543000">
13636 <ele>125.5</ele>
13637 <time>2012-09-10T12:51:47Z</time>
13638 <course>355.0</course>
13639 <speed>0.62</speed>
13640 </trkpt>
13641 <trkpt lat="51.0442990000" lon="13.6997495500">
13642 <ele>126.0</ele>
13643 <time>2012-09-10T12:51:48Z</time>
13644 <course>355.0</course>
13645 <speed>0.62</speed>
13646 </trkpt>
13647 <trkpt lat="51.0442922167" lon="13.6997349167">
13648 <ele>126.6</ele>
13649 <time>2012-09-10T12:51:49Z</time>
13650 <course>355.0</course>
13651 <speed>0.00</speed>
13652 </trkpt>
13653 <trkpt lat="51.0442922167" lon="13.6997349167">
13654 <ele>126.6</ele>
13655 <time>2012-09-10T12:51:49Z</time>
13656 <course>355.0</course>
13657 <speed>0.00</speed>
13658 </trkpt>
13659 <trkpt lat="51.0443054500" lon="13.6997204500">
13660 <ele>126.5</ele>
13661 <time>2012-09-10T12:51:51Z</time>
13662 <course>355.0</course>
13663 <speed>0.00</speed>
13664 </trkpt>
13665 <trkpt lat="51.0443054500" lon="13.6997204500">
13666 <ele>126.5</ele>
13667 <time>2012-09-10T12:51:51Z</time>
13668 <course>355.0</course>
13669 <speed>0.00</speed>
13670 </trkpt>
13671 <trkpt lat="51.0443171722" lon="13.6997125056">
13672 <ele>126.6</ele>
13673 <time>2012-09-10T12:51:54Z</time>
13674 <course>355.0</course>
13675 <speed>0.00</speed>
13676 </trkpt>
13677 <trkpt lat="51.0443171722" lon="13.6997125056">
13678 <ele>126.6</ele>
13679 <time>2012-09-10T12:51:56Z</time>
13680 <course>355.0</course>
13681 <speed>0.00</speed>
13682 </trkpt>
13683 <trkpt lat="51.0443304542" lon="13.6997186833">
13684 <ele>127.7</ele>
13685 <time>2012-09-10T12:51:57Z</time>
13686 <course>355.0</course>
13687 <speed>0.00</speed>
13688 </trkpt>
13689 <trkpt lat="51.0443304542" lon="13.6997186833">
13690 <ele>127.7</ele>
13691 <time>2012-09-10T12:52:01Z</time>
13692 <course>355.0</course>
13693 <speed>0.00</speed>
13694 </trkpt>
13695 <trkpt lat="51.0443312821" lon="13.6997200893">
13696 <ele>129.5</ele>
13697 <time>2012-09-10T12:52:02Z</time>
13698 <course>32.0</course>
13699 <speed>0.00</speed>
13700 </trkpt>
13701 <trkpt lat="51.0443312821" lon="13.6997200893">
13702 <ele>129.5</ele>
13703 <time>2012-09-10T13:07:01Z</time>
13704 <course>32.0</course>
13705 <speed>0.00</speed>
13706 </trkpt>
13707 <trkpt lat="51.0443112667" lon="13.6997244500">
13708 <ele>130.2</ele>
13709 <time>2012-09-10T13:07:02Z</time>
13710 <course>32.0</course>
13711 <speed>0.57</speed>
13712 </trkpt>
13713 <trkpt lat="51.0443214333" lon="13.6997431500">
13714 <ele>129.4</ele>
13715 <time>2012-09-10T13:07:04Z</time>
13716 <course>355.0</course>
13717 <speed>0.72</speed>
13718 </trkpt>
13719 <trkpt lat="51.0443330000" lon="13.6997577333">
13720 <ele>127.9</ele>
13721 <time>2012-09-10T13:07:05Z</time>
13722 <course>14.0</course>
13723 <speed>0.93</speed>
13724 </trkpt>
13725 <trkpt lat="51.0443450833" lon="13.6997639833">
13726 <ele>128.7</ele>
13727 <time>2012-09-10T13:07:06Z</time>
13728 <course>345.0</course>
13729 <speed>0.98</speed>
13730 </trkpt>
13731 <trkpt lat="51.0443410333" lon="13.6997457000">
13732 <ele>128.9</ele>
13733 <time>2012-09-10T13:07:06Z</time>
13734 <course>314.0</course>
13735 <speed>0.98</speed>
13736 </trkpt>
13737 <trkpt lat="51.0443453000" lon="13.6997180500">
13738 <ele>129.3</ele>
13739 <time>2012-09-10T13:07:07Z</time>
13740 <course>294.0</course>
13741 <speed>1.34</speed>
13742 </trkpt>
13743 <trkpt lat="51.0443416667" lon="13.6996892667">
13744 <ele>129.4</ele>
13745 <time>2012-09-10T13:07:08Z</time>
13746 <course>287.0</course>
13747 <speed>1.65</speed>
13748 </trkpt>
13749 <trkpt lat="51.0443512833" lon="13.6996611667">
13750 <ele>129.2</ele>
13751 <time>2012-09-10T13:07:10Z</time>
13752 <course>284.0</course>
13753 <speed>1.90</speed>
13754 </trkpt>
13755 <trkpt lat="51.0443551833" lon="13.6996035833">
13756 <ele>129.5</ele>
13757 <time>2012-09-10T13:07:11Z</time>
13758 <course>281.0</course>
13759 <speed>2.26</speed>
13760 </trkpt>
13761 <trkpt lat="51.0443503167" lon="13.6995519000">
13762 <ele>129.9</ele>
13763 <time>2012-09-10T13:07:12Z</time>
13764 <course>279.0</course>
13765 <speed>2.37</speed>
13766 </trkpt>
13767 <trkpt lat="51.0443582333" lon="13.6995242000">
13768 <ele>129.6</ele>
13769 <time>2012-09-10T13:07:13Z</time>
13770 <course>282.0</course>
13771 <speed>2.11</speed>
13772 </trkpt>
13773 <trkpt lat="51.0443725167" lon="13.6995009833">
13774 <ele>129.2</ele>
13775 <time>2012-09-10T13:07:13Z</time>
13776 <course>291.0</course>
13777 <speed>2.06</speed>
13778 </trkpt>
13779 <trkpt lat="51.0443919667" lon="13.6994699167">
13780 <ele>129.0</ele>
13781 <time>2012-09-10T13:07:14Z</time>
13782 <course>298.0</course>
13783 <speed>2.21</speed>
13784 </trkpt>
13785 <trkpt lat="51.0444122167" lon="13.6994458167">
13786 <ele>128.9</ele>
13787 <time>2012-09-10T13:07:15Z</time>
13788 <course>306.0</course>
13789 <speed>2.06</speed>
13790 </trkpt>
13791 <trkpt lat="51.0444182333" lon="13.6994191833">
13792 <ele>129.3</ele>
13793 <time>2012-09-10T13:07:17Z</time>
13794 <course>304.0</course>
13795 <speed>2.06</speed>
13796 </trkpt>
13797 <trkpt lat="51.0444329167" lon="13.6994000167">
13798 <ele>129.3</ele>
13799 <time>2012-09-10T13:07:18Z</time>
13800 <course>309.0</course>
13801 <speed>1.90</speed>
13802 </trkpt>
13803 <trkpt lat="51.0444387667" lon="13.6993840500">
13804 <ele>128.9</ele>
13805 <time>2012-09-10T13:07:19Z</time>
13806 <course>311.0</course>
13807 <speed>1.75</speed>
13808 </trkpt>
13809 <trkpt lat="51.0444448000" lon="13.6993475000">
13810 <ele>129.6</ele>
13811 <time>2012-09-10T13:07:19Z</time>
13812 <course>307.0</course>
13813 <speed>1.65</speed>
13814 </trkpt>
13815 <trkpt lat="51.0444591833" lon="13.6993230333">
13816 <ele>129.2</ele>
13817 <time>2012-09-10T13:07:21Z</time>
13818 <course>317.0</course>
13819 <speed>1.08</speed>
13820 </trkpt>
13821 <trkpt lat="51.0444485333" lon="13.6993316667">
13822 <ele>129.0</ele>
13823 <time>2012-09-10T13:07:24Z</time>
13824 <course>317.0</course>
13825 <speed>0.00</speed>
13826 </trkpt>
13827 <trkpt lat="51.0444485333" lon="13.6993316667">
13828 <ele>129.0</ele>
13829 <time>2012-09-10T13:07:24Z</time>
13830 <course>317.0</course>
13831 <speed>0.00</speed>
13832 </trkpt>
13833 <trkpt lat="51.0444554500" lon="13.6993216333">
13834 <ele>128.5</ele>
13835 <time>2012-09-10T13:07:25Z</time>
13836 <course>317.0</course>
13837 <speed>0.72</speed>
13838 </trkpt>
13839 <trkpt lat="51.0444615500" lon="13.6993056500">
13840 <ele>128.4</ele>
13841 <time>2012-09-10T13:07:26Z</time>
13842 <course>298.0</course>
13843 <speed>1.18</speed>
13844 </trkpt>
13845 <trkpt lat="51.0444752333" lon="13.6992664167">
13846 <ele>128.2</ele>
13847 <time>2012-09-10T13:07:26Z</time>
13848 <course>281.0</course>
13849 <speed>2.06</speed>
13850 </trkpt>
13851 <trkpt lat="51.0444793833" lon="13.6992218500">
13852 <ele>128.5</ele>
13853 <time>2012-09-10T13:07:27Z</time>
13854 <course>270.0</course>
13855 <speed>2.57</speed>
13856 </trkpt>
13857 <trkpt lat="51.0444682000" lon="13.6991692000">
13858 <ele>128.9</ele>
13859 <time>2012-09-10T13:07:29Z</time>
13860 <course>267.0</course>
13861 <speed>2.88</speed>
13862 </trkpt>
13863 <trkpt lat="51.0444556000" lon="13.6991121667">
13864 <ele>128.9</ele>
13865 <time>2012-09-10T13:07:30Z</time>
13866 <course>257.0</course>
13867 <speed>3.91</speed>
13868 </trkpt>
13869 <trkpt lat="51.0444352667" lon="13.6990346167">
13870 <ele>129.0</ele>
13871 <time>2012-09-10T13:07:31Z</time>
13872 <course>251.0</course>
13873 <speed>5.04</speed>
13874 </trkpt>
13875 <trkpt lat="51.0444005833" lon="13.6989298167">
13876 <ele>129.6</ele>
13877 <time>2012-09-10T13:07:32Z</time>
13878 <course>249.0</course>
13879 <speed>6.64</speed>
13880 </trkpt>
13881 <trkpt lat="51.0443494000" lon="13.6988180333">
13882 <ele>128.7</ele>
13883 <time>2012-09-10T13:07:32Z</time>
13884 <course>243.0</course>
13885 <speed>8.18</speed>
13886 </trkpt>
13887 <trkpt lat="51.0443079833" lon="13.6986992333">
13888 <ele>128.9</ele>
13889 <time>2012-09-10T13:07:33Z</time>
13890 <course>242.0</course>
13891 <speed>8.59</speed>
13892 </trkpt>
13893 <trkpt lat="51.0442745667" lon="13.6985801333">
13894 <ele>129.0</ele>
13895 <time>2012-09-10T13:07:34Z</time>
13896 <course>243.0</course>
13897 <speed>9.05</speed>
13898 </trkpt>
13899 <trkpt lat="51.0442245667" lon="13.6984507833">
13900 <ele>129.0</ele>
13901 <time>2012-09-10T13:07:36Z</time>
13902 <course>241.0</course>
13903 <speed>9.93</speed>
13904 </trkpt>
13905 <trkpt lat="51.0441719000" lon="13.6983219333">
13906 <ele>129.1</ele>
13907 <time>2012-09-10T13:07:37Z</time>
13908 <course>240.0</course>
13909 <speed>10.34</speed>
13910 </trkpt>
13911 <trkpt lat="51.0441202000" lon="13.6981920833">
13912 <ele>129.1</ele>
13913 <time>2012-09-10T13:07:38Z</time>
13914 <course>239.0</course>
13915 <speed>10.55</speed>
13916 </trkpt>
13917 <trkpt lat="51.0440516500" lon="13.6980575000">
13918 <ele>129.4</ele>
13919 <time>2012-09-10T13:07:38Z</time>
13920 <course>238.0</course>
13921 <speed>10.49</speed>
13922 </trkpt>
13923 <trkpt lat="51.0440076167" lon="13.6979311000">
13924 <ele>129.5</ele>
13925 <time>2012-09-10T13:07:39Z</time>
13926 <course>237.0</course>
13927 <speed>10.24</speed>
13928 </trkpt>
13929 <trkpt lat="51.0439533167" lon="13.6978201500">
13930 <ele>129.5</ele>
13931 <time>2012-09-10T13:07:40Z</time>
13932 <course>235.0</course>
13933 <speed>9.93</speed>
13934 </trkpt>
13935 <trkpt lat="51.0438865667" lon="13.6977425500">
13936 <ele>129.6</ele>
13937 <time>2012-09-10T13:07:42Z</time>
13938 <course>230.0</course>
13939 <speed>9.31</speed>
13940 </trkpt>
13941 <trkpt lat="51.0438326667" lon="13.6976408833">
13942 <ele>129.2</ele>
13943 <time>2012-09-10T13:07:43Z</time>
13944 <course>231.0</course>
13945 <speed>8.80</speed>
13946 </trkpt>
13947 <trkpt lat="51.0437708667" lon="13.6975547833">
13948 <ele>129.5</ele>
13949 <time>2012-09-10T13:07:44Z</time>
13950 <course>227.0</course>
13951 <speed>8.59</speed>
13952 </trkpt>
13953 <trkpt lat="51.0437781833" lon="13.6974475000">
13954 <ele>129.5</ele>
13955 <time>2012-09-10T13:07:45Z</time>
13956 <course>234.0</course>
13957 <speed>7.15</speed>
13958 </trkpt>
13959 <trkpt lat="51.0437672000" lon="13.6973718000">
13960 <ele>129.0</ele>
13961 <time>2012-09-10T13:07:45Z</time>
13962 <course>237.0</course>
13963 <speed>6.38</speed>
13964 </trkpt>
13965 <trkpt lat="51.0437471000" lon="13.6973095500">
13966 <ele>129.2</ele>
13967 <time>2012-09-10T13:07:46Z</time>
13968 <course>238.0</course>
13969 <speed>5.71</speed>
13970 </trkpt>
13971 <trkpt lat="51.0437509667" lon="13.6972593167">
13972 <ele>128.9</ele>
13973 <time>2012-09-10T13:07:47Z</time>
13974 <course>247.0</course>
13975 <speed>4.37</speed>
13976 </trkpt>
13977 <trkpt lat="51.0438055667" lon="13.6972242667">
13978 <ele>128.3</ele>
13979 <time>2012-09-10T13:07:49Z</time>
13980 <course>289.0</course>
13981 <speed>3.45</speed>
13982 </trkpt>
13983 <trkpt lat="51.0438131167" lon="13.6971812500">
13984 <ele>128.2</ele>
13985 <time>2012-09-10T13:07:50Z</time>
13986 <course>296.0</course>
13987 <speed>3.81</speed>
13988 </trkpt>
13989 <trkpt lat="51.0438461167" lon="13.6971534167">
13990 <ele>128.1</ele>
13991 <time>2012-09-10T13:07:51Z</time>
13992 <course>306.0</course>
13993 <speed>3.65</speed>
13994 </trkpt>
13995 <trkpt lat="51.0438741500" lon="13.6971097333">
13996 <ele>127.8</ele>
13997 <time>2012-09-10T13:07:51Z</time>
13998 <course>309.0</course>
13999 <speed>3.81</speed>
14000 </trkpt>
14001 <trkpt lat="51.0439205333" lon="13.6970828833">
14002 <ele>127.4</ele>
14003 <time>2012-09-10T13:07:52Z</time>
14004 <course>318.0</course>
14005 <speed>3.86</speed>
14006 </trkpt>
14007 <trkpt lat="51.0439747500" lon="13.6970572667">
14008 <ele>126.9</ele>
14009 <time>2012-09-10T13:07:53Z</time>
14010 <course>324.0</course>
14011 <speed>4.01</speed>
14012 </trkpt>
14013 <trkpt lat="51.0440376833" lon="13.6970262333">
14014 <ele>126.8</ele>
14015 <time>2012-09-10T13:07:55Z</time>
14016 <course>329.0</course>
14017 <speed>4.68</speed>
14018 </trkpt>
14019 <trkpt lat="51.0440893500" lon="13.6969895667">
14020 <ele>126.7</ele>
14021 <time>2012-09-10T13:07:56Z</time>
14022 <course>329.0</course>
14023 <speed>4.99</speed>
14024 </trkpt>
14025 <trkpt lat="51.0441453500" lon="13.6969484833">
14026 <ele>126.4</ele>
14027 <time>2012-09-10T13:07:57Z</time>
14028 <course>331.0</course>
14029 <speed>5.20</speed>
14030 </trkpt>
14031 <trkpt lat="51.0442079500" lon="13.6969086500">
14032 <ele>125.9</ele>
14033 <time>2012-09-10T13:07:57Z</time>
14034 <course>333.0</course>
14035 <speed>5.40</speed>
14036 </trkpt>
14037 <trkpt lat="51.0442690167" lon="13.6968857000">
14038 <ele>126.7</ele>
14039 <time>2012-09-10T13:07:58Z</time>
14040 <course>337.0</course>
14041 <speed>5.35</speed>
14042 </trkpt>
14043 <trkpt lat="51.0443003167" lon="13.6968613833">
14044 <ele>127.1</ele>
14045 <time>2012-09-10T13:07:59Z</time>
14046 <course>334.0</course>
14047 <speed>4.42</speed>
14048 </trkpt>
14049 <trkpt lat="51.0443466167" lon="13.6968679667">
14050 <ele>126.9</ele>
14051 <time>2012-09-10T13:08:01Z</time>
14052 <course>337.0</course>
14053 <speed>4.12</speed>
14054 </trkpt>
14055 <trkpt lat="51.0443830667" lon="13.6968477333">
14056 <ele>127.2</ele>
14057 <time>2012-09-10T13:08:02Z</time>
14058 <course>333.0</course>
14059 <speed>3.96</speed>
14060 </trkpt>
14061 <trkpt lat="51.0444198000" lon="13.6968308000">
14062 <ele>126.9</ele>
14063 <time>2012-09-10T13:08:03Z</time>
14064 <course>332.0</course>
14065 <speed>4.01</speed>
14066 </trkpt>
14067 <trkpt lat="51.0444660333" lon="13.6968022333">
14068 <ele>127.0</ele>
14069 <time>2012-09-10T13:08:04Z</time>
14070 <course>334.0</course>
14071 <speed>4.37</speed>
14072 </trkpt>
14073 <trkpt lat="51.0445254333" lon="13.6967787000">
14074 <ele>127.5</ele>
14075 <time>2012-09-10T13:08:04Z</time>
14076 <course>337.0</course>
14077 <speed>4.78</speed>
14078 </trkpt>
14079 <trkpt lat="51.0445685000" lon="13.6967410833">
14080 <ele>127.6</ele>
14081 <time>2012-09-10T13:08:05Z</time>
14082 <course>332.0</course>
14083 <speed>4.78</speed>
14084 </trkpt>
14085 <trkpt lat="51.0446145500" lon="13.6967104333">
14086 <ele>127.2</ele>
14087 <time>2012-09-10T13:08:06Z</time>
14088 <course>332.0</course>
14089 <speed>4.99</speed>
14090 </trkpt>
14091 <trkpt lat="51.0446673833" lon="13.6966669833">
14092 <ele>127.3</ele>
14093 <time>2012-09-10T13:08:08Z</time>
14094 <course>333.0</course>
14095 <speed>5.25</speed>
14096 </trkpt>
14097 <trkpt lat="51.0447132000" lon="13.6966084500">
14098 <ele>127.7</ele>
14099 <time>2012-09-10T13:08:09Z</time>
14100 <course>331.0</course>
14101 <speed>5.71</speed>
14102 </trkpt>
14103 <trkpt lat="51.0447847667" lon="13.6965679333">
14104 <ele>127.7</ele>
14105 <time>2012-09-10T13:08:10Z</time>
14106 <course>336.0</course>
14107 <speed>6.17</speed>
14108 </trkpt>
14109 <trkpt lat="51.0448404000" lon="13.6965334000">
14110 <ele>127.8</ele>
14111 <time>2012-09-10T13:08:10Z</time>
14112 <course>338.0</course>
14113 <speed>6.48</speed>
14114 </trkpt>
14115 <trkpt lat="51.0449261667" lon="13.6964884500">
14116 <ele>127.3</ele>
14117 <time>2012-09-10T13:08:11Z</time>
14118 <course>337.0</course>
14119 <speed>6.84</speed>
14120 </trkpt>
14121 <trkpt lat="51.0449798333" lon="13.6964514500">
14122 <ele>127.0</ele>
14123 <time>2012-09-10T13:08:12Z</time>
14124 <course>339.0</course>
14125 <speed>6.43</speed>
14126 </trkpt>
14127 <trkpt lat="51.0450229500" lon="13.6964149000">
14128 <ele>127.0</ele>
14129 <time>2012-09-10T13:08:14Z</time>
14130 <course>338.0</course>
14131 <speed>5.04</speed>
14132 </trkpt>
14133 <trkpt lat="51.0450832167" lon="13.6964249833">
14134 <ele>127.5</ele>
14135 <time>2012-09-10T13:08:15Z</time>
14136 <course>345.0</course>
14137 <speed>4.78</speed>
14138 </trkpt>
14139 <trkpt lat="51.0451281833" lon="13.6963982167">
14140 <ele>127.5</ele>
14141 <time>2012-09-10T13:08:16Z</time>
14142 <course>345.0</course>
14143 <speed>4.84</speed>
14144 </trkpt>
14145 <trkpt lat="51.0451489167" lon="13.6963484500">
14146 <ele>127.6</ele>
14147 <time>2012-09-10T13:08:16Z</time>
14148 <course>333.0</course>
14149 <speed>4.37</speed>
14150 </trkpt>
14151 <trkpt lat="51.0452341667" lon="13.6963349000">
14152 <ele>127.5</ele>
14153 <time>2012-09-10T13:08:17Z</time>
14154 <course>339.0</course>
14155 <speed>5.35</speed>
14156 </trkpt>
14157 <trkpt lat="51.0453140333" lon="13.6963112167">
14158 <ele>127.6</ele>
14159 <time>2012-09-10T13:08:18Z</time>
14160 <course>341.0</course>
14161 <speed>6.12</speed>
14162 </trkpt>
14163 <trkpt lat="51.0453953167" lon="13.6962907667">
14164 <ele>126.8</ele>
14165 <time>2012-09-10T13:08:20Z</time>
14166 <course>341.0</course>
14167 <speed>6.58</speed>
14168 </trkpt>
14169 <trkpt lat="51.0454628667" lon="13.6962592167">
14170 <ele>126.4</ele>
14171 <time>2012-09-10T13:08:21Z</time>
14172 <course>341.0</course>
14173 <speed>6.84</speed>
14174 </trkpt>
14175 <trkpt lat="51.0455309833" lon="13.6962239833">
14176 <ele>126.4</ele>
14177 <time>2012-09-10T13:08:22Z</time>
14178 <course>341.0</course>
14179 <speed>7.05</speed>
14180 </trkpt>
14181 <trkpt lat="51.0455926833" lon="13.6961791833">
14182 <ele>126.5</ele>
14183 <time>2012-09-10T13:08:23Z</time>
14184 <course>341.0</course>
14185 <speed>7.15</speed>
14186 </trkpt>
14187 <trkpt lat="51.0456437167" lon="13.6961388167">
14188 <ele>126.7</ele>
14189 <time>2012-09-10T13:08:23Z</time>
14190 <course>339.0</course>
14191 <speed>7.15</speed>
14192 </trkpt>
14193 <trkpt lat="51.0457212167" lon="13.6961176167">
14194 <ele>126.6</ele>
14195 <time>2012-09-10T13:08:24Z</time>
14196 <course>343.0</course>
14197 <speed>7.25</speed>
14198 </trkpt>
14199 <trkpt lat="51.0457688667" lon="13.6961008833">
14200 <ele>127.0</ele>
14201 <time>2012-09-10T13:08:25Z</time>
14202 <course>345.0</course>
14203 <speed>6.89</speed>
14204 </trkpt>
14205 <trkpt lat="51.0458089333" lon="13.6960668667">
14206 <ele>127.0</ele>
14207 <time>2012-09-10T13:08:27Z</time>
14208 <course>343.0</course>
14209 <speed>5.92</speed>
14210 </trkpt>
14211 <trkpt lat="51.0458484167" lon="13.6960788333">
14212 <ele>126.7</ele>
14213 <time>2012-09-10T13:08:28Z</time>
14214 <course>341.0</course>
14215 <speed>3.86</speed>
14216 </trkpt>
14217 <trkpt lat="51.0458911500" lon="13.6960895500">
14218 <ele>126.1</ele>
14219 <time>2012-09-10T13:08:29Z</time>
14220 <course>351.0</course>
14221 <speed>3.40</speed>
14222 </trkpt>
14223 <trkpt lat="51.0459076667" lon="13.6961044333">
14224 <ele>125.8</ele>
14225 <time>2012-09-10T13:08:29Z</time>
14226 <course>345.0</course>
14227 <speed>2.31</speed>
14228 </trkpt>
14229 <trkpt lat="51.0459218333" lon="13.6960897000">
14230 <ele>125.8</ele>
14231 <time>2012-09-10T13:08:30Z</time>
14232 <course>338.0</course>
14233 <speed>2.01</speed>
14234 </trkpt>
14235 <trkpt lat="51.0459579833" lon="13.6960775333">
14236 <ele>125.8</ele>
14237 <time>2012-09-10T13:08:31Z</time>
14238 <course>343.0</course>
14239 <speed>2.47</speed>
14240 </trkpt>
14241 <trkpt lat="51.0459577500" lon="13.6960527667">
14242 <ele>126.0</ele>
14243 <time>2012-09-10T13:08:33Z</time>
14244 <course>324.0</course>
14245 <speed>2.11</speed>
14246 </trkpt>
14247 <trkpt lat="51.0460214000" lon="13.6960478333">
14248 <ele>126.9</ele>
14249 <time>2012-09-10T13:08:34Z</time>
14250 <course>337.0</course>
14251 <speed>2.88</speed>
14252 </trkpt>
14253 <trkpt lat="51.0460839167" lon="13.6960294667">
14254 <ele>127.5</ele>
14255 <time>2012-09-10T13:08:35Z</time>
14256 <course>340.0</course>
14257 <speed>3.60</speed>
14258 </trkpt>
14259 <trkpt lat="51.0461439000" lon="13.6960053667">
14260 <ele>128.3</ele>
14261 <time>2012-09-10T13:08:36Z</time>
14262 <course>341.0</course>
14263 <speed>4.22</speed>
14264 </trkpt>
14265 <trkpt lat="51.0461838500" lon="13.6959757333">
14266 <ele>128.3</ele>
14267 <time>2012-09-10T13:08:36Z</time>
14268 <course>342.0</course>
14269 <speed>4.48</speed>
14270 </trkpt>
14271 <trkpt lat="51.0462344667" lon="13.6959636000">
14272 <ele>128.2</ele>
14273 <time>2012-09-10T13:08:37Z</time>
14274 <course>342.0</course>
14275 <speed>4.73</speed>
14276 </trkpt>
14277 <trkpt lat="51.0462836000" lon="13.6959312500">
14278 <ele>128.3</ele>
14279 <time>2012-09-10T13:08:39Z</time>
14280 <course>341.0</course>
14281 <speed>5.04</speed>
14282 </trkpt>
14283 <trkpt lat="51.0463432667" lon="13.6959033333">
14284 <ele>128.5</ele>
14285 <time>2012-09-10T13:08:40Z</time>
14286 <course>342.0</course>
14287 <speed>5.45</speed>
14288 </trkpt>
14289 <trkpt lat="51.0464140667" lon="13.6958768500">
14290 <ele>128.7</ele>
14291 <time>2012-09-10T13:08:41Z</time>
14292 <course>344.0</course>
14293 <speed>6.22</speed>
14294 </trkpt>
14295 <trkpt lat="51.0464713333" lon="13.6958393167">
14296 <ele>129.1</ele>
14297 <time>2012-09-10T13:08:42Z</time>
14298 <course>343.0</course>
14299 <speed>6.38</speed>
14300 </trkpt>
14301 <trkpt lat="51.0465313833" lon="13.6958032833">
14302 <ele>129.2</ele>
14303 <time>2012-09-10T13:08:42Z</time>
14304 <course>337.0</course>
14305 <speed>6.07</speed>
14306 </trkpt>
14307 <trkpt lat="51.0465888667" lon="13.6957744167">
14308 <ele>129.6</ele>
14309 <time>2012-09-10T13:08:43Z</time>
14310 <course>339.0</course>
14311 <speed>6.02</speed>
14312 </trkpt>
14313 <trkpt lat="51.0466592667" lon="13.6957464167">
14314 <ele>129.9</ele>
14315 <time>2012-09-10T13:08:44Z</time>
14316 <course>340.0</course>
14317 <speed>6.43</speed>
14318 </trkpt>
14319 <trkpt lat="51.0467209833" lon="13.6957256500">
14320 <ele>129.3</ele>
14321 <time>2012-09-10T13:08:46Z</time>
14322 <course>348.0</course>
14323 <speed>6.28</speed>
14324 </trkpt>
14325 <trkpt lat="51.0467904333" lon="13.6957179000">
14326 <ele>129.4</ele>
14327 <time>2012-09-10T13:08:47Z</time>
14328 <course>346.0</course>
14329 <speed>6.38</speed>
14330 </trkpt>
14331 <trkpt lat="51.0468543833" lon="13.6956936333">
14332 <ele>129.4</ele>
14333 <time>2012-09-10T13:08:48Z</time>
14334 <course>345.0</course>
14335 <speed>6.53</speed>
14336 </trkpt>
14337 <trkpt lat="51.0469177833" lon="13.6956712000">
14338 <ele>129.7</ele>
14339 <time>2012-09-10T13:08:48Z</time>
14340 <course>344.0</course>
14341 <speed>6.58</speed>
14342 </trkpt>
14343 <trkpt lat="51.0469826500" lon="13.6956436833">
14344 <ele>130.1</ele>
14345 <time>2012-09-10T13:08:49Z</time>
14346 <course>344.0</course>
14347 <speed>7.20</speed>
14348 </trkpt>
14349 <trkpt lat="51.0470512500" lon="13.6956162833">
14350 <ele>130.1</ele>
14351 <time>2012-09-10T13:08:50Z</time>
14352 <course>345.0</course>
14353 <speed>7.41</speed>
14354 </trkpt>
14355 <trkpt lat="51.0471265000" lon="13.6955782167">
14356 <ele>130.0</ele>
14357 <time>2012-09-10T13:08:52Z</time>
14358 <course>345.0</course>
14359 <speed>8.08</speed>
14360 </trkpt>
14361 <trkpt lat="51.0471934333" lon="13.6955455833">
14362 <ele>130.3</ele>
14363 <time>2012-09-10T13:08:53Z</time>
14364 <course>344.0</course>
14365 <speed>8.03</speed>
14366 </trkpt>
14367 <trkpt lat="51.0472747333" lon="13.6955256000">
14368 <ele>130.1</ele>
14369 <time>2012-09-10T13:08:54Z</time>
14370 <course>346.0</course>
14371 <speed>8.18</speed>
14372 </trkpt>
14373 <trkpt lat="51.0473495167" lon="13.6954834500">
14374 <ele>130.0</ele>
14375 <time>2012-09-10T13:08:55Z</time>
14376 <course>346.0</course>
14377 <speed>8.08</speed>
14378 </trkpt>
14379 <trkpt lat="51.0474118500" lon="13.6954586667">
14380 <ele>130.0</ele>
14381 <time>2012-09-10T13:08:55Z</time>
14382 <course>348.0</course>
14383 <speed>7.82</speed>
14384 </trkpt>
14385 <trkpt lat="51.0474971500" lon="13.6954391167">
14386 <ele>129.6</ele>
14387 <time>2012-09-10T13:08:56Z</time>
14388 <course>348.0</course>
14389 <speed>7.77</speed>
14390 </trkpt>
14391 <trkpt lat="51.0475584833" lon="13.6954156500">
14392 <ele>129.8</ele>
14393 <time>2012-09-10T13:08:57Z</time>
14394 <course>349.0</course>
14395 <speed>7.41</speed>
14396 </trkpt>
14397 <trkpt lat="51.0476357000" lon="13.6953822667">
14398 <ele>129.5</ele>
14399 <time>2012-09-10T13:08:59Z</time>
14400 <course>348.0</course>
14401 <speed>6.84</speed>
14402 </trkpt>
14403 <trkpt lat="51.0476852167" lon="13.6953550333">
14404 <ele>129.7</ele>
14405 <time>2012-09-10T13:09:00Z</time>
14406 <course>350.0</course>
14407 <speed>6.38</speed>
14408 </trkpt>
14409 <trkpt lat="51.0477240833" lon="13.6953259667">
14410 <ele>129.4</ele>
14411 <time>2012-09-10T13:09:01Z</time>
14412 <course>346.0</course>
14413 <speed>5.50</speed>
14414 </trkpt>
14415 <trkpt lat="51.0477631667" lon="13.6952979667">
14416 <ele>129.4</ele>
14417 <time>2012-09-10T13:09:01Z</time>
14418 <course>342.0</course>
14419 <speed>5.35</speed>
14420 </trkpt>
14421 <trkpt lat="51.0478014167" lon="13.6952614333">
14422 <ele>129.6</ele>
14423 <time>2012-09-10T13:09:02Z</time>
14424 <course>342.0</course>
14425 <speed>5.30</speed>
14426 </trkpt>
14427 <trkpt lat="51.0478748833" lon="13.6952412333">
14428 <ele>130.4</ele>
14429 <time>2012-09-10T13:09:03Z</time>
14430 <course>342.0</course>
14431 <speed>5.97</speed>
14432 </trkpt>
14433 <trkpt lat="51.0479406167" lon="13.6952093500">
14434 <ele>131.0</ele>
14435 <time>2012-09-10T13:09:05Z</time>
14436 <course>341.0</course>
14437 <speed>6.48</speed>
14438 </trkpt>
14439 <trkpt lat="51.0480024167" lon="13.6951792500">
14440 <ele>131.5</ele>
14441 <time>2012-09-10T13:09:06Z</time>
14442 <course>340.0</course>
14443 <speed>6.84</speed>
14444 </trkpt>
14445 <trkpt lat="51.0480491667" lon="13.6951286167">
14446 <ele>131.7</ele>
14447 <time>2012-09-10T13:09:07Z</time>
14448 <course>338.0</course>
14449 <speed>6.74</speed>
14450 </trkpt>
14451 <trkpt lat="51.0481155167" lon="13.6951114167">
14452 <ele>131.6</ele>
14453 <time>2012-09-10T13:09:07Z</time>
14454 <course>342.0</course>
14455 <speed>7.00</speed>
14456 </trkpt>
14457 <trkpt lat="51.0482002167" lon="13.6950918000">
14458 <ele>131.6</ele>
14459 <time>2012-09-10T13:09:08Z</time>
14460 <course>343.0</course>
14461 <speed>7.46</speed>
14462 </trkpt>
14463 <trkpt lat="51.0482565000" lon="13.6950322000">
14464 <ele>132.0</ele>
14465 <time>2012-09-10T13:09:09Z</time>
14466 <course>340.0</course>
14467 <speed>7.72</speed>
14468 </trkpt>
14469 <trkpt lat="51.0483517500" lon="13.6950097500">
14470 <ele>132.0</ele>
14471 <time>2012-09-10T13:09:11Z</time>
14472 <course>345.0</course>
14473 <speed>8.39</speed>
14474 </trkpt>
14475 <trkpt lat="51.0484357500" lon="13.6949847500">
14476 <ele>132.1</ele>
14477 <time>2012-09-10T13:09:12Z</time>
14478 <course>346.0</course>
14479 <speed>8.59</speed>
14480 </trkpt>
14481 <trkpt lat="51.0484959500" lon="13.6949469000">
14482 <ele>131.6</ele>
14483 <time>2012-09-10T13:09:13Z</time>
14484 <course>345.0</course>
14485 <speed>8.49</speed>
14486 </trkpt>
14487 <trkpt lat="51.0485813500" lon="13.6949221000">
14488 <ele>131.9</ele>
14489 <time>2012-09-10T13:09:14Z</time>
14490 <course>347.0</course>
14491 <speed>8.85</speed>
14492 </trkpt>
14493 <trkpt lat="51.0486594333" lon="13.6948790167">
14494 <ele>132.2</ele>
14495 <time>2012-09-10T13:09:14Z</time>
14496 <course>346.0</course>
14497 <speed>8.54</speed>
14498 </trkpt>
14499 <trkpt lat="51.0487359333" lon="13.6948468167">
14500 <ele>132.6</ele>
14501 <time>2012-09-10T13:09:15Z</time>
14502 <course>345.0</course>
14503 <speed>8.23</speed>
14504 </trkpt>
14505 <trkpt lat="51.0488080167" lon="13.6948319000">
14506 <ele>132.8</ele>
14507 <time>2012-09-10T13:09:16Z</time>
14508 <course>348.0</course>
14509 <speed>7.87</speed>
14510 </trkpt>
14511 <trkpt lat="51.0488482167" lon="13.6948303333">
14512 <ele>132.5</ele>
14513 <time>2012-09-10T13:09:18Z</time>
14514 <course>352.0</course>
14515 <speed>7.00</speed>
14516 </trkpt>
14517 <trkpt lat="51.0488810667" lon="13.6948352500">
14518 <ele>132.8</ele>
14519 <time>2012-09-10T13:09:19Z</time>
14520 <course>358.0</course>
14521 <speed>5.56</speed>
14522 </trkpt>
14523 <trkpt lat="51.0489090333" lon="13.6948363333">
14524 <ele>132.9</ele>
14525 <time>2012-09-10T13:09:20Z</time>
14526 <course>4.0</course>
14527 <speed>4.53</speed>
14528 </trkpt>
14529 <trkpt lat="51.0488847500" lon="13.6948364000">
14530 <ele>132.4</ele>
14531 <time>2012-09-10T13:09:20Z</time>
14532 <course>4.0</course>
14533 <speed>0.00</speed>
14534 </trkpt>
14535 <trkpt lat="51.0488680167" lon="13.6948338167">
14536 <ele>132.3</ele>
14537 <time>2012-09-10T13:09:21Z</time>
14538 <course>4.0</course>
14539 <speed>0.00</speed>
14540 </trkpt>
14541 <trkpt lat="51.0488512167" lon="13.6948307833">
14542 <ele>132.4</ele>
14543 <time>2012-09-10T13:09:24Z</time>
14544 <course>4.0</course>
14545 <speed>0.00</speed>
14546 </trkpt>
14547 <trkpt lat="51.0488512167" lon="13.6948307833">
14548 <ele>132.4</ele>
14549 <time>2012-09-10T13:09:24Z</time>
14550 <course>4.0</course>
14551 <speed>0.00</speed>
14552 </trkpt>
14553 <trkpt lat="51.0488460167" lon="13.6948292167">
14554 <ele>132.4</ele>
14555 <time>2012-09-10T13:09:26Z</time>
14556 <course>4.0</course>
14557 <speed>0.00</speed>
14558 </trkpt>
14559 <trkpt lat="51.0488460167" lon="13.6948292167">
14560 <ele>132.4</ele>
14561 <time>2012-09-10T13:09:26Z</time>
14562 <course>4.0</course>
14563 <speed>0.00</speed>
14564 </trkpt>
14565 <trkpt lat="51.0488381500" lon="13.6948229500">
14566 <ele>132.4</ele>
14567 <time>2012-09-10T13:09:27Z</time>
14568 <course>13.0</course>
14569 <speed>1.70</speed>
14570 </trkpt>
14571 <trkpt lat="51.0488725333" lon="13.6948358667">
14572 <ele>132.0</ele>
14573 <time>2012-09-10T13:09:28Z</time>
14574 <course>13.0</course>
14575 <speed>1.80</speed>
14576 </trkpt>
14577 <trkpt lat="51.0489257500" lon="13.6948762167">
14578 <ele>131.2</ele>
14579 <time>2012-09-10T13:09:30Z</time>
14580 <course>344.0</course>
14581 <speed>2.42</speed>
14582 </trkpt>
14583 <trkpt lat="51.0489753667" lon="13.6948330000">
14584 <ele>131.4</ele>
14585 <time>2012-09-10T13:09:31Z</time>
14586 <course>320.0</course>
14587 <speed>3.55</speed>
14588 </trkpt>
14589 <trkpt lat="51.0490086500" lon="13.6947891000">
14590 <ele>131.6</ele>
14591 <time>2012-09-10T13:09:32Z</time>
14592 <course>307.0</course>
14593 <speed>4.63</speed>
14594 </trkpt>
14595 <trkpt lat="51.0490548333" lon="13.6947127000">
14596 <ele>131.6</ele>
14597 <time>2012-09-10T13:09:33Z</time>
14598 <course>301.0</course>
14599 <speed>5.30</speed>
14600 </trkpt>
14601 <trkpt lat="51.0490869667" lon="13.6946308500">
14602 <ele>131.7</ele>
14603 <time>2012-09-10T13:09:33Z</time>
14604 <course>291.0</course>
14605 <speed>5.92</speed>
14606 </trkpt>
14607 <trkpt lat="51.0490509667" lon="13.6945319500">
14608 <ele>131.2</ele>
14609 <time>2012-09-10T13:09:34Z</time>
14610 <course>280.0</course>
14611 <speed>7.10</speed>
14612 </trkpt>
14613 <trkpt lat="51.0490483333" lon="13.6944149833">
14614 <ele>131.2</ele>
14615 <time>2012-09-10T13:09:35Z</time>
14616 <course>278.0</course>
14617 <speed>7.87</speed>
14618 </trkpt>
14619 <trkpt lat="51.0490472000" lon="13.6942832667">
14620 <ele>131.4</ele>
14621 <time>2012-09-10T13:09:37Z</time>
14622 <course>275.0</course>
14623 <speed>8.59</speed>
14624 </trkpt>
14625 <trkpt lat="51.0490581500" lon="13.6941554000">
14626 <ele>131.4</ele>
14627 <time>2012-09-10T13:09:38Z</time>
14628 <course>276.0</course>
14629 <speed>9.47</speed>
14630 </trkpt>
14631 <trkpt lat="51.0490439833" lon="13.6940062667">
14632 <ele>130.3</ele>
14633 <time>2012-09-10T13:09:39Z</time>
14634 <course>274.0</course>
14635 <speed>9.98</speed>
14636 </trkpt>
14637 <trkpt lat="51.0490490000" lon="13.6938586500">
14638 <ele>130.2</ele>
14639 <time>2012-09-10T13:09:39Z</time>
14640 <course>273.0</course>
14641 <speed>10.08</speed>
14642 </trkpt>
14643 <trkpt lat="51.0490410333" lon="13.6936982333">
14644 <ele>129.9</ele>
14645 <time>2012-09-10T13:09:40Z</time>
14646 <course>272.0</course>
14647 <speed>10.49</speed>
14648 </trkpt>
14649 <trkpt lat="51.0490560500" lon="13.6935501000">
14650 <ele>129.9</ele>
14651 <time>2012-09-10T13:09:41Z</time>
14652 <course>274.0</course>
14653 <speed>10.70</speed>
14654 </trkpt>
14655 <trkpt lat="51.0490584167" lon="13.6933585167">
14656 <ele>130.2</ele>
14657 <time>2012-09-10T13:09:43Z</time>
14658 <course>274.0</course>
14659 <speed>11.27</speed>
14660 </trkpt>
14661 <trkpt lat="51.0490435333" lon="13.6931720500">
14662 <ele>128.8</ele>
14663 <time>2012-09-10T13:09:44Z</time>
14664 <course>275.0</course>
14665 <speed>11.63</speed>
14666 </trkpt>
14667 <trkpt lat="51.0490585667" lon="13.6930075000">
14668 <ele>128.8</ele>
14669 <time>2012-09-10T13:09:45Z</time>
14670 <course>276.0</course>
14671 <speed>11.78</speed>
14672 </trkpt>
14673 <trkpt lat="51.0490874667" lon="13.6928454000">
14674 <ele>129.4</ele>
14675 <time>2012-09-10T13:09:46Z</time>
14676 <course>277.0</course>
14677 <speed>11.73</speed>
14678 </trkpt>
14679 <trkpt lat="51.0490993333" lon="13.6926833000">
14680 <ele>129.5</ele>
14681 <time>2012-09-10T13:09:46Z</time>
14682 <course>279.0</course>
14683 <speed>11.57</speed>
14684 </trkpt>
14685 <trkpt lat="51.0491142333" lon="13.6925305000">
14686 <ele>129.6</ele>
14687 <time>2012-09-10T13:09:47Z</time>
14688 <course>279.0</course>
14689 <speed>11.32</speed>
14690 </trkpt>
14691 <trkpt lat="51.0491280500" lon="13.6923919000">
14692 <ele>129.6</ele>
14693 <time>2012-09-10T13:09:48Z</time>
14694 <course>279.0</course>
14695 <speed>10.44</speed>
14696 </trkpt>
14697 <trkpt lat="51.0491519000" lon="13.6922677000">
14698 <ele>129.7</ele>
14699 <time>2012-09-10T13:09:50Z</time>
14700 <course>281.0</course>
14701 <speed>8.95</speed>
14702 </trkpt>
14703 <trkpt lat="51.0491754167" lon="13.6921724000">
14704 <ele>129.2</ele>
14705 <time>2012-09-10T13:09:51Z</time>
14706 <course>284.0</course>
14707 <speed>7.20</speed>
14708 </trkpt>
14709 <trkpt lat="51.0491813667" lon="13.6920994833">
14710 <ele>129.1</ele>
14711 <time>2012-09-10T13:09:52Z</time>
14712 <course>286.0</course>
14713 <speed>5.76</speed>
14714 </trkpt>
14715 <trkpt lat="51.0491880833" lon="13.6920372000">
14716 <ele>129.6</ele>
14717 <time>2012-09-10T13:09:52Z</time>
14718 <course>287.0</course>
14719 <speed>4.94</speed>
14720 </trkpt>
14721 <trkpt lat="51.0492122333" lon="13.6919874000">
14722 <ele>129.3</ele>
14723 <time>2012-09-10T13:09:53Z</time>
14724 <course>294.0</course>
14725 <speed>4.27</speed>
14726 </trkpt>
14727 <trkpt lat="51.0492384333" lon="13.6919521333">
14728 <ele>130.0</ele>
14729 <time>2012-09-10T13:09:54Z</time>
14730 <course>306.0</course>
14731 <speed>4.27</speed>
14732 </trkpt>
14733 <trkpt lat="51.0493137667" lon="13.6919470333">
14734 <ele>130.2</ele>
14735 <time>2012-09-10T13:09:56Z</time>
14736 <course>329.0</course>
14737 <speed>4.53</speed>
14738 </trkpt>
14739 <trkpt lat="51.0493711667" lon="13.6919092000">
14740 <ele>130.1</ele>
14741 <time>2012-09-10T13:09:57Z</time>
14742 <course>332.0</course>
14743 <speed>5.09</speed>
14744 </trkpt>
14745 <trkpt lat="51.0494437000" lon="13.6918787333">
14746 <ele>130.4</ele>
14747 <time>2012-09-10T13:09:58Z</time>
14748 <course>335.0</course>
14749 <speed>5.71</speed>
14750 </trkpt>
14751 <trkpt lat="51.0495444833" lon="13.6918822000">
14752 <ele>130.6</ele>
14753 <time>2012-09-10T13:09:58Z</time>
14754 <course>345.0</course>
14755 <speed>7.46</speed>
14756 </trkpt>
14757 <trkpt lat="51.0496582500" lon="13.6918668833">
14758 <ele>130.8</ele>
14759 <time>2012-09-10T13:09:59Z</time>
14760 <course>347.0</course>
14761 <speed>8.95</speed>
14762 </trkpt>
14763 <trkpt lat="51.0497424667" lon="13.6918426000">
14764 <ele>130.3</ele>
14765 <time>2012-09-10T13:10:00Z</time>
14766 <course>350.0</course>
14767 <speed>10.19</speed>
14768 </trkpt>
14769 <trkpt lat="51.0498517000" lon="13.6918618000">
14770 <ele>129.6</ele>
14771 <time>2012-09-10T13:10:02Z</time>
14772 <course>350.0</course>
14773 <speed>11.11</speed>
14774 </trkpt>
14775 <trkpt lat="51.0499623500" lon="13.6918543833">
14776 <ele>130.3</ele>
14777 <time>2012-09-10T13:10:03Z</time>
14778 <course>352.0</course>
14779 <speed>11.63</speed>
14780 </trkpt>
14781 <trkpt lat="51.0500734500" lon="13.6918287333">
14782 <ele>130.7</ele>
14783 <time>2012-09-10T13:10:04Z</time>
14784 <course>351.0</course>
14785 <speed>11.88</speed>
14786 </trkpt>
14787 <trkpt lat="51.0501945000" lon="13.6918064333">
14788 <ele>130.8</ele>
14789 <time>2012-09-10T13:10:05Z</time>
14790 <course>351.0</course>
14791 <speed>12.55</speed>
14792 </trkpt>
14793 <trkpt lat="51.0503191667" lon="13.6917815167">
14794 <ele>130.7</ele>
14795 <time>2012-09-10T13:10:05Z</time>
14796 <course>351.0</course>
14797 <speed>12.96</speed>
14798 </trkpt>
14799 <trkpt lat="51.0504458000" lon="13.6917479667">
14800 <ele>129.8</ele>
14801 <time>2012-09-10T13:10:06Z</time>
14802 <course>351.0</course>
14803 <speed>13.63</speed>
14804 </trkpt>
14805 <trkpt lat="51.0505741333" lon="13.6917044333">
14806 <ele>129.0</ele>
14807 <time>2012-09-10T13:10:07Z</time>
14808 <course>351.0</course>
14809 <speed>13.84</speed>
14810 </trkpt>
14811 <trkpt lat="51.0507020000" lon="13.6916825000">
14812 <ele>129.6</ele>
14813 <time>2012-09-10T13:10:09Z</time>
14814 <course>351.0</course>
14815 <speed>14.15</speed>
14816 </trkpt>
14817 <trkpt lat="51.0508347667" lon="13.6916473667">
14818 <ele>129.3</ele>
14819 <time>2012-09-10T13:10:10Z</time>
14820 <course>351.0</course>
14821 <speed>14.10</speed>
14822 </trkpt>
14823 <trkpt lat="51.0509475500" lon="13.6915987333">
14824 <ele>129.8</ele>
14825 <time>2012-09-10T13:10:11Z</time>
14826 <course>349.0</course>
14827 <speed>13.89</speed>
14828 </trkpt>
14829 <trkpt lat="51.0510673000" lon="13.6915690333">
14830 <ele>130.1</ele>
14831 <time>2012-09-10T13:10:11Z</time>
14832 <course>349.0</course>
14833 <speed>13.94</speed>
14834 </trkpt>
14835 <trkpt lat="51.0511932833" lon="13.6915165833">
14836 <ele>130.4</ele>
14837 <time>2012-09-10T13:10:12Z</time>
14838 <course>349.0</course>
14839 <speed>14.15</speed>
14840 </trkpt>
14841 <trkpt lat="51.0513295167" lon="13.6914620000">
14842 <ele>129.9</ele>
14843 <time>2012-09-10T13:10:13Z</time>
14844 <course>348.0</course>
14845 <speed>14.30</speed>
14846 </trkpt>
14847 <trkpt lat="51.0514900000" lon="13.6914245167">
14848 <ele>129.3</ele>
14849 <time>2012-09-10T13:10:15Z</time>
14850 <course>349.0</course>
14851 <speed>14.92</speed>
14852 </trkpt>
14853 <trkpt lat="51.0516370667" lon="13.6913772000">
14854 <ele>129.2</ele>
14855 <time>2012-09-10T13:10:16Z</time>
14856 <course>349.0</course>
14857 <speed>15.18</speed>
14858 </trkpt>
14859 <trkpt lat="51.0517599333" lon="13.6913365333">
14860 <ele>129.0</ele>
14861 <time>2012-09-10T13:10:17Z</time>
14862 <course>349.0</course>
14863 <speed>14.97</speed>
14864 </trkpt>
14865 <trkpt lat="51.0518858333" lon="13.6912999167">
14866 <ele>129.0</ele>
14867 <time>2012-09-10T13:10:17Z</time>
14868 <course>350.0</course>
14869 <speed>14.35</speed>
14870 </trkpt>
14871 <trkpt lat="51.0519473667" lon="13.6912551833">
14872 <ele>128.4</ele>
14873 <time>2012-09-10T13:10:18Z</time>
14874 <course>350.0</course>
14875 <speed>12.50</speed>
14876 </trkpt>
14877 <trkpt lat="51.0520247500" lon="13.6912481000">
14878 <ele>127.6</ele>
14879 <time>2012-09-10T13:10:19Z</time>
14880 <course>348.0</course>
14881 <speed>9.88</speed>
14882 </trkpt>
14883 <trkpt lat="51.0521304333" lon="13.6912525667">
14884 <ele>127.0</ele>
14885 <time>2012-09-10T13:10:21Z</time>
14886 <course>348.0</course>
14887 <speed>9.36</speed>
14888 </trkpt>
14889 <trkpt lat="51.0522038000" lon="13.6912135833">
14890 <ele>127.3</ele>
14891 <time>2012-09-10T13:10:22Z</time>
14892 <course>343.0</course>
14893 <speed>9.05</speed>
14894 </trkpt>
14895 <trkpt lat="51.0522614667" lon="13.6911638500">
14896 <ele>127.1</ele>
14897 <time>2012-09-10T13:10:23Z</time>
14898 <course>337.0</course>
14899 <speed>8.13</speed>
14900 </trkpt>
14901 <trkpt lat="51.0523021500" lon="13.6911098500">
14902 <ele>126.6</ele>
14903 <time>2012-09-10T13:10:24Z</time>
14904 <course>330.0</course>
14905 <speed>7.46</speed>
14906 </trkpt>
14907 <trkpt lat="51.0523292833" lon="13.6910324833">
14908 <ele>126.8</ele>
14909 <time>2012-09-10T13:10:24Z</time>
14910 <course>319.0</course>
14911 <speed>6.89</speed>
14912 </trkpt>
14913 <trkpt lat="51.0523555000" lon="13.6909543000">
14914 <ele>126.5</ele>
14915 <time>2012-09-10T13:10:25Z</time>
14916 <course>310.0</course>
14917 <speed>6.94</speed>
14918 </trkpt>
14919 <trkpt lat="51.0523616167" lon="13.6908638333">
14920 <ele>126.3</ele>
14921 <time>2012-09-10T13:10:26Z</time>
14922 <course>299.0</course>
14923 <speed>6.94</speed>
14924 </trkpt>
14925 <trkpt lat="51.0523714000" lon="13.6907600500">
14926 <ele>126.5</ele>
14927 <time>2012-09-10T13:10:28Z</time>
14928 <course>293.0</course>
14929 <speed>7.15</speed>
14930 </trkpt>
14931 <trkpt lat="51.0523678500" lon="13.6906600833">
14932 <ele>126.7</ele>
14933 <time>2012-09-10T13:10:29Z</time>
14934 <course>289.0</course>
14935 <speed>7.00</speed>
14936 </trkpt>
14937 <trkpt lat="51.0523337833" lon="13.6905481667">
14938 <ele>126.7</ele>
14939 <time>2012-09-10T13:10:30Z</time>
14940 <course>277.0</course>
14941 <speed>7.15</speed>
14942 </trkpt>
14943 <trkpt lat="51.0523308833" lon="13.6904460167">
14944 <ele>127.0</ele>
14945 <time>2012-09-10T13:10:30Z</time>
14946 <course>275.0</course>
14947 <speed>7.20</speed>
14948 </trkpt>
14949 <trkpt lat="51.0522889667" lon="13.6903560000">
14950 <ele>126.8</ele>
14951 <time>2012-09-10T13:10:31Z</time>
14952 <course>268.0</course>
14953 <speed>6.84</speed>
14954 </trkpt>
14955 <trkpt lat="51.0522598833" lon="13.6902531833">
14956 <ele>126.5</ele>
14957 <time>2012-09-10T13:10:32Z</time>
14958 <course>266.0</course>
14959 <speed>6.84</speed>
14960 </trkpt>
14961 <trkpt lat="51.0522411000" lon="13.6901515833">
14962 <ele>126.3</ele>
14963 <time>2012-09-10T13:10:34Z</time>
14964 <course>264.0</course>
14965 <speed>6.64</speed>
14966 </trkpt>
14967 <trkpt lat="51.0522178833" lon="13.6900659833">
14968 <ele>125.7</ele>
14969 <time>2012-09-10T13:10:35Z</time>
14970 <course>265.0</course>
14971 <speed>5.97</speed>
14972 </trkpt>
14973 <trkpt lat="51.0522052500" lon="13.6899972167">
14974 <ele>126.1</ele>
14975 <time>2012-09-10T13:10:36Z</time>
14976 <course>263.0</course>
14977 <speed>5.20</speed>
14978 </trkpt>
14979 <trkpt lat="51.0521919000" lon="13.6899408167">
14980 <ele>126.4</ele>
14981 <time>2012-09-10T13:10:37Z</time>
14982 <course>264.0</course>
14983 <speed>3.65</speed>
14984 </trkpt>
14985 <trkpt lat="51.0521837500" lon="13.6899024000">
14986 <ele>126.5</ele>
14987 <time>2012-09-10T13:10:37Z</time>
14988 <course>260.0</course>
14989 <speed>2.83</speed>
14990 </trkpt>
14991 <trkpt lat="51.0521761667" lon="13.6898543500">
14992 <ele>126.6</ele>
14993 <time>2012-09-10T13:10:38Z</time>
14994 <course>260.0</course>
14995 <speed>2.57</speed>
14996 </trkpt>
14997 <trkpt lat="51.0521599333" lon="13.6898074667">
14998 <ele>126.5</ele>
14999 <time>2012-09-10T13:10:40Z</time>
15000 <course>258.0</course>
15001 <speed>2.93</speed>
15002 </trkpt>
15003 <trkpt lat="51.0521677500" lon="13.6897501833">
15004 <ele>126.8</ele>
15005 <time>2012-09-10T13:10:41Z</time>
15006 <course>275.0</course>
15007 <speed>3.09</speed>
15008 </trkpt>
15009 <trkpt lat="51.0521563167" lon="13.6897022833">
15010 <ele>126.9</ele>
15011 <time>2012-09-10T13:10:42Z</time>
15012 <course>269.0</course>
15013 <speed>3.29</speed>
15014 </trkpt>
15015 <trkpt lat="51.0521370500" lon="13.6896465500">
15016 <ele>127.0</ele>
15017 <time>2012-09-10T13:10:43Z</time>
15018 <course>266.0</course>
15019 <speed>3.45</speed>
15020 </trkpt>
15021 <trkpt lat="51.0521274667" lon="13.6895832000">
15022 <ele>126.9</ele>
15023 <time>2012-09-10T13:10:43Z</time>
15024 <course>265.0</course>
15025 <speed>3.96</speed>
15026 </trkpt>
15027 <trkpt lat="51.0521217667" lon="13.6895062167">
15028 <ele>126.8</ele>
15029 <time>2012-09-10T13:10:44Z</time>
15030 <course>266.0</course>
15031 <speed>4.37</speed>
15032 </trkpt>
15033 <trkpt lat="51.0520844167" lon="13.6894116833">
15034 <ele>125.9</ele>
15035 <time>2012-09-10T13:10:45Z</time>
15036 <course>263.0</course>
15037 <speed>5.09</speed>
15038 </trkpt>
15039 <trkpt lat="51.0520597000" lon="13.6893137500">
15040 <ele>125.9</ele>
15041 <time>2012-09-10T13:10:47Z</time>
15042 <course>264.0</course>
15043 <speed>5.97</speed>
15044 </trkpt>
15045 <trkpt lat="51.0520788833" lon="13.6892167167">
15046 <ele>125.9</ele>
15047 <time>2012-09-10T13:10:48Z</time>
15048 <course>270.0</course>
15049 <speed>6.43</speed>
15050 </trkpt>
15051 <trkpt lat="51.0520726833" lon="13.6891154333">
15052 <ele>126.1</ele>
15053 <time>2012-09-10T13:10:49Z</time>
15054 <course>268.0</course>
15055 <speed>6.53</speed>
15056 </trkpt>
15057 <trkpt lat="51.0520687833" lon="13.6890418500">
15058 <ele>126.0</ele>
15059 <time>2012-09-10T13:10:49Z</time>
15060 <course>270.0</course>
15061 <speed>6.12</speed>
15062 </trkpt>
15063 <trkpt lat="51.0520779333" lon="13.6889605500">
15064 <ele>125.9</ele>
15065 <time>2012-09-10T13:10:50Z</time>
15066 <course>274.0</course>
15067 <speed>5.92</speed>
15068 </trkpt>
15069 <trkpt lat="51.0520638833" lon="13.6888834667">
15070 <ele>124.7</ele>
15071 <time>2012-09-10T13:10:51Z</time>
15072 <course>272.0</course>
15073 <speed>5.50</speed>
15074 </trkpt>
15075 <trkpt lat="51.0520522833" lon="13.6887952500">
15076 <ele>124.5</ele>
15077 <time>2012-09-10T13:10:53Z</time>
15078 <course>268.0</course>
15079 <speed>5.20</speed>
15080 </trkpt>
15081 <trkpt lat="51.0520286667" lon="13.6887131667">
15082 <ele>123.6</ele>
15083 <time>2012-09-10T13:10:54Z</time>
15084 <course>263.0</course>
15085 <speed>4.58</speed>
15086 </trkpt>
15087 <trkpt lat="51.0519957500" lon="13.6886406333">
15088 <ele>122.4</ele>
15089 <time>2012-09-10T13:10:55Z</time>
15090 <course>263.0</course>
15091 <speed>4.42</speed>
15092 </trkpt>
15093 <trkpt lat="51.0519751500" lon="13.6886077000">
15094 <ele>122.5</ele>
15095 <time>2012-09-10T13:10:56Z</time>
15096 <course>253.0</course>
15097 <speed>3.60</speed>
15098 </trkpt>
15099 <trkpt lat="51.0519415500" lon="13.6885820833">
15100 <ele>122.2</ele>
15101 <time>2012-09-10T13:10:56Z</time>
15102 <course>237.0</course>
15103 <speed>2.93</speed>
15104 </trkpt>
15105 <trkpt lat="51.0519209000" lon="13.6885595667">
15106 <ele>121.7</ele>
15107 <time>2012-09-10T13:10:57Z</time>
15108 <course>225.0</course>
15109 <speed>2.21</speed>
15110 </trkpt>
15111 <trkpt lat="51.0519110333" lon="13.6885523556">
15112 <ele>121.3</ele>
15113 <time>2012-09-10T13:11:00Z</time>
15114 <course>188.0</course>
15115 <speed>0.00</speed>
15116 </trkpt>
15117 <trkpt lat="51.0519110333" lon="13.6885523556">
15118 <ele>121.3</ele>
15119 <time>2012-09-10T13:11:04Z</time>
15120 <course>188.0</course>
15121 <speed>0.00</speed>
15122 </trkpt>
15123 <trkpt lat="51.0519248667" lon="13.6885282500">
15124 <ele>120.2</ele>
15125 <time>2012-09-10T13:11:07Z</time>
15126 <course>348.0</course>
15127 <speed>1.08</speed>
15128 </trkpt>
15129 <trkpt lat="51.0519350833" lon="13.6885276333">
15130 <ele>120.1</ele>
15131 <time>2012-09-10T13:11:08Z</time>
15132 <course>348.0</course>
15133 <speed>1.18</speed>
15134 </trkpt>
15135 <trkpt lat="51.0519477833" lon="13.6885256333">
15136 <ele>120.0</ele>
15137 <time>2012-09-10T13:11:08Z</time>
15138 <course>346.0</course>
15139 <speed>1.23</speed>
15140 </trkpt>
15141 <trkpt lat="51.0519561167" lon="13.6885160000">
15142 <ele>120.0</ele>
15143 <time>2012-09-10T13:11:10Z</time>
15144 <course>347.0</course>
15145 <speed>0.82</speed>
15146 </trkpt>
15147 <trkpt lat="51.0519560333" lon="13.6885292833">
15148 <ele>120.2</ele>
15149 <time>2012-09-10T13:11:12Z</time>
15150 <course>347.0</course>
15151 <speed>0.72</speed>
15152 </trkpt>
15153 <trkpt lat="51.0519442667" lon="13.6885609833">
15154 <ele>120.7</ele>
15155 <time>2012-09-10T13:11:13Z</time>
15156 <course>82.0</course>
15157 <speed>1.29</speed>
15158 </trkpt>
15159 <trkpt lat="51.0519408167" lon="13.6886026667">
15160 <ele>120.4</ele>
15161 <time>2012-09-10T13:11:14Z</time>
15162 <course>88.0</course>
15163 <speed>1.85</speed>
15164 </trkpt>
15165 <trkpt lat="51.0519390333" lon="13.6886430500">
15166 <ele>120.7</ele>
15167 <time>2012-09-10T13:11:15Z</time>
15168 <course>89.0</course>
15169 <speed>2.16</speed>
15170 </trkpt>
15171 <trkpt lat="51.0519461500" lon="13.6886792333">
15172 <ele>120.7</ele>
15173 <time>2012-09-10T13:11:15Z</time>
15174 <course>84.0</course>
15175 <speed>2.31</speed>
15176 </trkpt>
15177 <trkpt lat="51.0519592667" lon="13.6887133667">
15178 <ele>120.9</ele>
15179 <time>2012-09-10T13:11:16Z</time>
15180 <course>77.0</course>
15181 <speed>2.26</speed>
15182 </trkpt>
15183 <trkpt lat="51.0519660833" lon="13.6887410000">
15184 <ele>120.6</ele>
15185 <time>2012-09-10T13:11:17Z</time>
15186 <course>75.0</course>
15187 <speed>2.11</speed>
15188 </trkpt>
15189 <trkpt lat="51.0519664000" lon="13.6887578000">
15190 <ele>120.4</ele>
15191 <time>2012-09-10T13:11:19Z</time>
15192 <course>75.0</course>
15193 <speed>1.75</speed>
15194 </trkpt>
15195 <trkpt lat="51.0519724333" lon="13.6887713667">
15196 <ele>120.8</ele>
15197 <time>2012-09-10T13:11:21Z</time>
15198 <course>71.0</course>
15199 <speed>0.00</speed>
15200 </trkpt>
15201 <trkpt lat="51.0519724333" lon="13.6887713667">
15202 <ele>120.8</ele>
15203 <time>2012-09-10T13:11:21Z</time>
15204 <course>71.0</course>
15205 <speed>0.00</speed>
15206 </trkpt>
15207 <trkpt lat="51.0519631167" lon="13.6887531500">
15208 <ele>121.0</ele>
15209 <time>2012-09-10T13:11:22Z</time>
15210 <course>71.0</course>
15211 <speed>0.00</speed>
15212 </trkpt>
15213 <trkpt lat="51.0519631167" lon="13.6887531500">
15214 <ele>121.0</ele>
15215 <time>2012-09-10T13:11:22Z</time>
15216 <course>71.0</course>
15217 <speed>0.00</speed>
15218 </trkpt>
15219 <trkpt lat="51.0519632222" lon="13.6887462333">
15220 <ele>120.7</ele>
15221 <time>2012-09-10T13:11:25Z</time>
15222 <course>71.0</course>
15223 <speed>0.00</speed>
15224 </trkpt>
15225 <trkpt lat="51.0519632222" lon="13.6887462333">
15226 <ele>120.7</ele>
15227 <time>2012-09-10T13:11:27Z</time>
15228 <course>71.0</course>
15229 <speed>0.00</speed>
15230 </trkpt>
15231 <trkpt lat="51.0519462500" lon="13.6887514667">
15232 <ele>119.9</ele>
15233 <time>2012-09-10T13:11:28Z</time>
15234 <course>71.0</course>
15235 <speed>0.00</speed>
15236 </trkpt>
15237 <trkpt lat="51.0519462500" lon="13.6887514667">
15238 <ele>119.9</ele>
15239 <time>2012-09-10T13:11:28Z</time>
15240 <course>71.0</course>
15241 <speed>0.00</speed>
15242 </trkpt>
15243 <trkpt lat="51.0519353389" lon="13.6887541333">
15244 <ele>120.7</ele>
15245 <time>2012-09-10T13:11:31Z</time>
15246 <course>71.0</course>
15247 <speed>0.00</speed>
15248 </trkpt>
15249 <trkpt lat="51.0519353389" lon="13.6887541333">
15250 <ele>120.7</ele>
15251 <time>2012-09-10T13:11:33Z</time>
15252 <course>71.0</course>
15253 <speed>0.00</speed>
15254 </trkpt>
15255 <trkpt lat="51.0519580167" lon="13.6887523000">
15256 <ele>120.7</ele>
15257 <time>2012-09-10T13:11:34Z</time>
15258 <course>71.0</course>
15259 <speed>0.00</speed>
15260 </trkpt>
15261 <trkpt lat="51.0519580167" lon="13.6887523000">
15262 <ele>120.7</ele>
15263 <time>2012-09-10T13:11:34Z</time>
15264 <course>71.0</course>
15265 <speed>0.00</speed>
15266 </trkpt>
15267 <trkpt lat="51.0519560833" lon="13.6887594833">
15268 <ele>120.7</ele>
15269 <time>2012-09-10T13:11:36Z</time>
15270 <course>71.0</course>
15271 <speed>0.00</speed>
15272 </trkpt>
15273 <trkpt lat="51.0519560833" lon="13.6887594833">
15274 <ele>120.7</ele>
15275 <time>2012-09-10T13:11:36Z</time>
15276 <course>71.0</course>
15277 <speed>0.00</speed>
15278 </trkpt>
15279 <trkpt lat="51.0519557263" lon="13.6887695141">
15280 <ele>120.6</ele>
15281 <time>2012-09-10T13:11:39Z</time>
15282 <course>71.0</course>
15283 <speed>0.00</speed>
15284 </trkpt>
15285 <trkpt lat="51.0519557263" lon="13.6887695141">
15286 <ele>120.6</ele>
15287 <time>2012-09-10T13:12:04Z</time>
15288 <course>71.0</course>
15289 <speed>0.00</speed>
15290 </trkpt>
15291 <trkpt lat="51.0519513667" lon="13.6887693000">
15292 <ele>119.4</ele>
15293 <time>2012-09-10T13:13:05Z</time>
15294 <course>71.0</course>
15295 <speed>0.00</speed>
15296 </trkpt>
15297 </trkseg>
15298 </trk>
15299</gpx>